<?xml version='1.0' encoding='UTF-8'?><gpx version="1.1" creator="JPX - https://github.com/jenetics/jpx" xmlns="http://www.topografix.com/GPX/1/1"><trk><trkseg><trkpt lat="44.40355355899606" lon="12.197198683674376"><ele>1.9999999999999998</ele><time>2026-04-06T06:39:00.999Z</time></trkpt><trkpt lat="44.40353217707236" lon="12.19710755914728"><ele>2.0</ele><time>2026-04-06T06:39:07.999Z</time></trkpt><trkpt lat="44.40349813692191" lon="12.196985592023497"><ele>2.0</ele><time>2026-04-06T06:39:10.999Z</time></trkpt><trkpt lat="44.40344098573319" lon="12.196879381187061"><ele>2.0</ele><time>2026-04-06T06:39:12.999Z</time></trkpt><trkpt lat="44.403380994818605" lon="12.196846884673976"><ele>1.9999999999999998</ele><time>2026-04-06T06:39:13.999Z</time></trkpt><trkpt lat="44.403314330913" lon="12.196798233940715"><ele>2.0</ele><time>2026-04-06T06:39:14.999Z</time></trkpt><trkpt lat="44.40324884291879" lon="12.19674884394637"><ele>2.0</ele><time>2026-04-06T06:39:15.999Z</time></trkpt><trkpt lat="44.40317312290996" lon="12.196681713679926"><ele>2.0</ele><time>2026-04-06T06:39:16.999Z</time></trkpt><trkpt lat="44.40310361586874" lon="12.196574799277252"><ele>2.0</ele><time>2026-04-06T06:39:17.999Z</time></trkpt><trkpt lat="44.40305003522402" lon="12.196448781188947"><ele>2.0</ele><time>2026-04-06T06:39:18.999Z</time></trkpt><trkpt lat="44.40301899900696" lon="12.196292445489659"><ele>2.0</ele><time>2026-04-06T06:39:19.999Z</time></trkpt><trkpt lat="44.403006929696915" lon="12.196119917198413"><ele>2.0</ele><time>2026-04-06T06:39:20.999Z</time></trkpt><trkpt lat="44.40302202617092" lon="12.195942000378533"><ele>2.0</ele><time>2026-04-06T06:39:21.999Z</time></trkpt><trkpt lat="44.40304120492312" lon="12.195756569416085"><ele>2.0</ele><time>2026-04-06T06:39:22.999Z</time></trkpt><trkpt lat="44.40306267095775" lon="12.195564886384487"><ele>2.0</ele><time>2026-04-06T06:39:23.999Z</time></trkpt><trkpt lat="44.40307969721033" lon="12.19536676841144"><ele>2.0</ele><time>2026-04-06T06:39:24.999Z</time></trkpt><trkpt lat="44.40309781627379" lon="12.19516813671511"><ele>2.0</ele><time>2026-04-06T06:39:25.999Z</time></trkpt><trkpt lat="44.403124652293315" lon="12.194972953804605"><ele>2.0</ele><time>2026-04-06T06:39:26.999Z</time></trkpt><trkpt lat="44.403149945541465" lon="12.19477820368425"><ele>2.0</ele><time>2026-04-06T06:39:27.999Z</time></trkpt><trkpt lat="44.40317105414181" lon="12.194567896323136"><ele>1.75</ele><time>2026-04-06T06:39:28.999Z</time></trkpt><trkpt lat="44.403193575046636" lon="12.194371016119296"><ele>1.5</ele><time>2026-04-06T06:39:29.999Z</time></trkpt><trkpt lat="44.403212290233824" lon="12.194167385662746"><ele>1.25</ele><time>2026-04-06T06:39:30.999Z</time></trkpt><trkpt lat="44.403230788076826" lon="12.193951813521231"><ele>1.0</ele><time>2026-04-06T06:39:31.999Z</time></trkpt><trkpt lat="44.403251030306805" lon="12.19374399149447"><ele>1.0</ele><time>2026-04-06T06:39:32.999Z</time></trkpt><trkpt lat="44.403272351135705" lon="12.193570134693768"><ele>1.0</ele><time>2026-04-06T06:39:33.999Z</time></trkpt><trkpt lat="44.40329516203615" lon="12.193431286980983"><ele>1.0</ele><time>2026-04-06T06:39:34.999Z</time></trkpt><trkpt lat="44.40331589665805" lon="12.193297914605674"><ele>1.0</ele><time>2026-04-06T06:39:35.999Z</time></trkpt><trkpt lat="44.40334632933895" lon="12.193173166978747"><ele>1.0</ele><time>2026-04-06T06:39:36.999Z</time></trkpt><trkpt lat="44.403372638099576" lon="12.193048201923041"><ele>0.75</ele><time>2026-04-06T06:39:37.999Z</time></trkpt><trkpt lat="44.40336988450224" lon="12.192910304487448"><ele>0.5</ele><time>2026-04-06T06:39:38.999Z</time></trkpt><trkpt lat="44.403350616790405" lon="12.192759443012964"><ele>0.25</ele><time>2026-04-06T06:39:39.999Z</time></trkpt><trkpt lat="44.40340243664045" lon="12.192594906619316"><ele>0.0</ele><time>2026-04-06T06:39:40.999Z</time></trkpt><trkpt lat="44.40342848480098" lon="12.192397001249898"><ele>0.0</ele><time>2026-04-06T06:39:41.999Z</time></trkpt><trkpt lat="44.4034685196022" lon="12.192186384289593"><ele>0.0</ele><time>2026-04-06T06:39:42.999Z</time></trkpt><trkpt lat="44.40352609409425" lon="12.191971644384978"><ele>0.0</ele><time>2026-04-06T06:39:43.999Z</time></trkpt><trkpt lat="44.40359514000369" lon="12.191751911516922"><ele>0.0</ele><time>2026-04-06T06:39:44.999Z</time></trkpt><trkpt lat="44.40367336842307" lon="12.191555939340425"><ele>0.0</ele><time>2026-04-06T06:39:45.999Z</time></trkpt><trkpt lat="44.403750029078445" lon="12.191384034756679"><ele>0.0</ele><time>2026-04-06T06:39:46.999Z</time></trkpt><trkpt lat="44.40382213371558" lon="12.19124773012648"><ele>0.0</ele><time>2026-04-06T06:39:47.999Z</time></trkpt><trkpt lat="44.40388921756674" lon="12.191141771309006"><ele>0.42857142857142855</ele><time>2026-04-06T06:39:48.999Z</time></trkpt><trkpt lat="44.40393480390475" lon="12.191047740377877"><ele>0.8571428571428571</ele><time>2026-04-06T06:39:49.999Z</time></trkpt><trkpt lat="44.4039889396401" lon="12.190995071242357"><ele>1.2857142857142856</ele><time>2026-04-06T06:39:50.999Z</time></trkpt><trkpt lat="44.40404361127115" lon="12.190900834258857"><ele>1.7142857142857142</ele><time>2026-04-06T06:39:52.999Z</time></trkpt><trkpt lat="44.404059533367814" lon="12.190813618305457"><ele>2.142857142857143</ele><time>2026-04-06T06:40:01.999Z</time></trkpt><trkpt lat="44.40406966909763" lon="12.190725234820638"><ele>2.571428571428571</ele><time>2026-04-06T06:40:32.999Z</time></trkpt><trkpt lat="44.4041289898201" lon="12.190660709826517"><ele>3.0</ele><time>2026-04-06T06:40:36.999Z</time></trkpt><trkpt lat="44.404150250307204" lon="12.190550220320238"><ele>3.0</ele><time>2026-04-06T06:40:40.999Z</time></trkpt><trkpt lat="44.40400836994874" lon="12.190454986413075"><ele>3.0</ele><time>2026-04-06T06:40:42.999Z</time></trkpt><trkpt lat="44.403935966890096" lon="12.190378151982156"><ele>3.0</ele><time>2026-04-06T06:40:43.999Z</time></trkpt><trkpt lat="44.40384224955541" lon="12.19032226948609"><ele>3.0</ele><time>2026-04-06T06:40:44.999Z</time></trkpt><trkpt lat="44.403742367348805" lon="12.190256782522447"><ele>3.0</ele><time>2026-04-06T06:40:45.999Z</time></trkpt><trkpt lat="44.40364210747847" lon="12.190185050262713"><ele>3.0</ele><time>2026-04-06T06:40:46.999Z</time></trkpt><trkpt lat="44.40353899213829" lon="12.190115408465669"><ele>3.0</ele><time>2026-04-06T06:40:47.999Z</time></trkpt><trkpt lat="44.40342557866743" lon="12.190039314162904"><ele>3.0</ele><time>2026-04-06T06:40:48.999Z</time></trkpt><trkpt lat="44.40330874898373" lon="12.189956494455172"><ele>3.0</ele><time>2026-04-06T06:40:49.999Z</time></trkpt><trkpt lat="44.40318461754784" lon="12.189873286644943"><ele>3.0</ele><time>2026-04-06T06:40:50.999Z</time></trkpt><trkpt lat="44.403060180867705" lon="12.189795091161722"><ele>3.0</ele><time>2026-04-06T06:40:51.999Z</time></trkpt><trkpt lat="44.402930193558475" lon="12.189727323527828"><ele>3.0</ele><time>2026-04-06T06:40:52.999Z</time></trkpt><trkpt lat="44.40280118329057" lon="12.189661416240366"><ele>3.25</ele><time>2026-04-06T06:40:53.999Z</time></trkpt><trkpt lat="44.402659765620314" lon="12.189606034171025"><ele>3.5</ele><time>2026-04-06T06:40:54.999Z</time></trkpt><trkpt lat="44.40251203974168" lon="12.189554609667985"><ele>3.75</ele><time>2026-04-06T06:40:55.999Z</time></trkpt><trkpt lat="44.402374204612734" lon="12.189512395491136"><ele>4.0</ele><time>2026-04-06T06:40:56.999Z</time></trkpt><trkpt lat="44.40225963835981" lon="12.189438098419181"><ele>3.6</ele><time>2026-04-06T06:40:57.999Z</time></trkpt><trkpt lat="44.4021514825967" lon="12.189390653404239"><ele>3.2</ele><time>2026-04-06T06:40:58.999Z</time></trkpt><trkpt lat="44.402051670624815" lon="12.189346205797188"><ele>2.8000000000000003</ele><time>2026-04-06T06:40:59.999Z</time></trkpt><trkpt lat="44.40195396016031" lon="12.18930615378032"><ele>2.4000000000000004</ele><time>2026-04-06T06:41:00.999Z</time></trkpt><trkpt lat="44.40184660612278" lon="12.189264812854777"><ele>2.0</ele><time>2026-04-06T06:41:01.999Z</time></trkpt><trkpt lat="44.40173374719144" lon="12.189240941689189"><ele>2.0</ele><time>2026-04-06T06:41:02.999Z</time></trkpt><trkpt lat="44.40162547086737" lon="12.189164566730188"><ele>2.0</ele><time>2026-04-06T06:41:03.999Z</time></trkpt><trkpt lat="44.40151492900565" lon="12.189082299729577"><ele>2.0</ele><time>2026-04-06T06:41:04.999Z</time></trkpt><trkpt lat="44.40141773649704" lon="12.189013844650262"><ele>2.0</ele><time>2026-04-06T06:41:05.999Z</time></trkpt><trkpt lat="44.40133203984541" lon="12.188962745114967"><ele>2.0</ele><time>2026-04-06T06:41:06.999Z</time></trkpt><trkpt lat="44.40128240174174" lon="12.188832919313818"><ele>2.0</ele><time>2026-04-06T06:41:07.999Z</time></trkpt><trkpt lat="44.40123599127214" lon="12.188737874827268"><ele>2.0</ele><time>2026-04-06T06:41:08.999Z</time></trkpt><trkpt lat="44.40117994257093" lon="12.188584111516132"><ele>2.0</ele><time>2026-04-06T06:41:09.999Z</time></trkpt><trkpt lat="44.40111759698951" lon="12.188413007002053"><ele>2.0</ele><time>2026-04-06T06:41:10.999Z</time></trkpt><trkpt lat="44.40104077514482" lon="12.188236752062291"><ele>2.333333333333333</ele><time>2026-04-06T06:41:11.999Z</time></trkpt><trkpt lat="44.400970256772915" lon="12.188042570840778"><ele>2.6666666666666665</ele><time>2026-04-06T06:41:12.999Z</time></trkpt><trkpt lat="44.40090065817723" lon="12.187853606018946"><ele>3.0</ele><time>2026-04-06T06:41:13.999Z</time></trkpt><trkpt lat="44.400835364350996" lon="12.187658583563074"><ele>3.0</ele><time>2026-04-06T06:41:14.999Z</time></trkpt><trkpt lat="44.40076263732601" lon="12.187474253570926"><ele>3.0</ele><time>2026-04-06T06:41:15.999Z</time></trkpt><trkpt lat="44.40070269036701" lon="12.187290151183811"><ele>3.0</ele><time>2026-04-06T06:41:16.999Z</time></trkpt><trkpt lat="44.40064806714426" lon="12.187119246646983"><ele>3.0</ele><time>2026-04-06T06:41:17.999Z</time></trkpt><trkpt lat="44.400590090721124" lon="12.186964633504735"><ele>3.2</ele><time>2026-04-06T06:41:18.999Z</time></trkpt><trkpt lat="44.40053219925332" lon="12.186828146753266"><ele>3.4</ele><time>2026-04-06T06:41:19.999Z</time></trkpt><trkpt lat="44.40048079981087" lon="12.186699802080271"><ele>3.6000000000000005</ele><time>2026-04-06T06:41:20.999Z</time></trkpt><trkpt lat="44.4004323958506" lon="12.186579213160494"><ele>3.8000000000000003</ele><time>2026-04-06T06:41:21.999Z</time></trkpt><trkpt lat="44.400406945822944" lon="12.186456714972529"><ele>4.0</ele><time>2026-04-06T06:41:22.999Z</time></trkpt><trkpt lat="44.400356277514206" lon="12.186364309190829"><ele>4.0</ele><time>2026-04-06T06:41:23.999Z</time></trkpt><trkpt lat="44.40034778419182" lon="12.186223418970563"><ele>4.0</ele><time>2026-04-06T06:41:25.999Z</time></trkpt><trkpt lat="44.400416842443384" lon="12.186079768273684"><ele>4.0</ele><time>2026-04-06T06:41:27.999Z</time></trkpt><trkpt lat="44.400496581822466" lon="12.18601600180926"><ele>4.0</ele><time>2026-04-06T06:41:28.999Z</time></trkpt><trkpt lat="44.40059923602255" lon="12.185956157610734"><ele>4.0</ele><time>2026-04-06T06:41:29.999Z</time></trkpt><trkpt lat="44.40071827878717" lon="12.185873442388798"><ele>4.0</ele><time>2026-04-06T06:41:30.999Z</time></trkpt><trkpt lat="44.40084463600602" lon="12.185787948620405"><ele>4.0</ele><time>2026-04-06T06:41:31.999Z</time></trkpt><trkpt lat="44.400982550887655" lon="12.18568810164517"><ele>4.0</ele><time>2026-04-06T06:41:32.999Z</time></trkpt><trkpt lat="44.40112543968561" lon="12.185603893245021"><ele>3.6666666666666665</ele><time>2026-04-06T06:41:33.999Z</time></trkpt><trkpt lat="44.40126526709227" lon="12.185511575116301"><ele>3.333333333333333</ele><time>2026-04-06T06:41:34.999Z</time></trkpt><trkpt lat="44.40140403590694" lon="12.18539824150448"><ele>3.0</ele><time>2026-04-06T06:41:35.999Z</time></trkpt><trkpt lat="44.40155473378519" lon="12.185301421373126"><ele>2.6666666666666665</ele><time>2026-04-06T06:41:36.999Z</time></trkpt><trkpt lat="44.40170419832429" lon="12.18519677602733"><ele>2.333333333333333</ele><time>2026-04-06T06:41:37.999Z</time></trkpt><trkpt lat="44.40184404696309" lon="12.185098924682432"><ele>2.0</ele><time>2026-04-06T06:41:38.999Z</time></trkpt><trkpt lat="44.40195556160833" lon="12.18497176861856"><ele>2.0</ele><time>2026-04-06T06:41:39.999Z</time></trkpt><trkpt lat="44.402061448535875" lon="12.184890296799841"><ele>2.0</ele><time>2026-04-06T06:41:40.999Z</time></trkpt><trkpt lat="44.40215073921802" lon="12.184815948329927"><ele>2.0</ele><time>2026-04-06T06:41:41.999Z</time></trkpt><trkpt lat="44.40224250087347" lon="12.184762807482121"><ele>2.0</ele><time>2026-04-06T06:41:42.999Z</time></trkpt><trkpt lat="44.40233579808951" lon="12.184741190742944"><ele>2.0</ele><time>2026-04-06T06:41:43.999Z</time></trkpt><trkpt lat="44.40243581354559" lon="12.184809678639736"><ele>2.0</ele><time>2026-04-06T06:41:44.999Z</time></trkpt><trkpt lat="44.40253633547143" lon="12.184825141797377"><ele>2.0</ele><time>2026-04-06T06:41:45.999Z</time></trkpt><trkpt lat="44.40263418592595" lon="12.184855477814116"><ele>2.0</ele><time>2026-04-06T06:41:46.999Z</time></trkpt><trkpt lat="44.40271772373444" lon="12.184843385159715"><ele>2.0</ele><time>2026-04-06T06:41:47.999Z</time></trkpt><trkpt lat="44.40279097624875" lon="12.184750494579383"><ele>2.0</ele><time>2026-04-06T06:41:48.999Z</time></trkpt><trkpt lat="44.40285077721808" lon="12.184626137195574"><ele>2.4000000000000004</ele><time>2026-04-06T06:41:49.999Z</time></trkpt><trkpt lat="44.40286735063616" lon="12.184478983302368"><ele>2.8000000000000003</ele><time>2026-04-06T06:41:50.999Z</time></trkpt><trkpt lat="44.40284538163317" lon="12.18434981593779"><ele>3.2</ele><time>2026-04-06T06:41:51.999Z</time></trkpt><trkpt lat="44.402787119844575" lon="12.184241217538966"><ele>3.6</ele><time>2026-04-06T06:41:52.999Z</time></trkpt><trkpt lat="44.40270719556045" lon="12.184158581814934"><ele>4.0</ele><time>2026-04-06T06:41:53.999Z</time></trkpt><trkpt lat="44.40256501243351" lon="12.1841417798028"><ele>4.0</ele><time>2026-04-06T06:41:54.999Z</time></trkpt><trkpt lat="44.402422774370955" lon="12.18411579448034"><ele>4.0</ele><time>2026-04-06T06:41:55.999Z</time></trkpt><trkpt lat="44.40229810036553" lon="12.18401785863689"><ele>4.0</ele><time>2026-04-06T06:41:56.999Z</time></trkpt><trkpt lat="44.40216282159329" lon="12.183900145395524"><ele>4.0</ele><time>2026-04-06T06:41:57.999Z</time></trkpt><trkpt lat="44.40205099061867" lon="12.18375639417049"><ele>4.0</ele><time>2026-04-06T06:41:58.999Z</time></trkpt><trkpt lat="44.4019491897657" lon="12.18361975552387"><ele>4.0</ele><time>2026-04-06T06:41:59.999Z</time></trkpt><trkpt lat="44.401841905969825" lon="12.183491828245165"><ele>4.0</ele><time>2026-04-06T06:42:00.999Z</time></trkpt><trkpt lat="44.401739572318355" lon="12.183369197360776"><ele>4.0</ele><time>2026-04-06T06:42:01.999Z</time></trkpt><trkpt lat="44.40163920004006" lon="12.183255059011165"><ele>3.75</ele><time>2026-04-06T06:42:02.999Z</time></trkpt><trkpt lat="44.401545461083124" lon="12.1831381754369"><ele>3.5</ele><time>2026-04-06T06:42:03.999Z</time></trkpt><trkpt lat="44.40145046716318" lon="12.183013226872848"><ele>3.25</ele><time>2026-04-06T06:42:04.999Z</time></trkpt><trkpt lat="44.401349869893" lon="12.182872045341403"><ele>3.0</ele><time>2026-04-06T06:42:05.999Z</time></trkpt><trkpt lat="44.40124692620262" lon="12.182738631100714"><ele>3.2</ele><time>2026-04-06T06:42:06.999Z</time></trkpt><trkpt lat="44.40116078952329" lon="12.182614118840972"><ele>3.4</ele><time>2026-04-06T06:42:07.999Z</time></trkpt><trkpt lat="44.401087410134096" lon="12.182507840521481"><ele>3.6000000000000005</ele><time>2026-04-06T06:42:08.999Z</time></trkpt><trkpt lat="44.401024390690246" lon="12.182401723605224"><ele>3.8000000000000003</ele><time>2026-04-06T06:42:09.999Z</time></trkpt><trkpt lat="44.400967194095884" lon="12.18230018199575"><ele>4.0</ele><time>2026-04-06T06:42:10.999Z</time></trkpt><trkpt lat="44.40091135613921" lon="12.18220749805058"><ele>3.9999999999999996</ele><time>2026-04-06T06:42:11.999Z</time></trkpt><trkpt lat="44.400854782241424" lon="12.182125634306798"><ele>4.0</ele><time>2026-04-06T06:42:12.999Z</time></trkpt><trkpt lat="44.400796833521014" lon="12.182049766138945"><ele>4.0</ele><time>2026-04-06T06:42:13.999Z</time></trkpt><trkpt lat="44.40073295589626" lon="12.181959493737509"><ele>4.0</ele><time>2026-04-06T06:42:14.999Z</time></trkpt><trkpt lat="44.400662439670604" lon="12.181858098149165"><ele>3.9999999999999996</ele><time>2026-04-06T06:42:15.999Z</time></trkpt><trkpt lat="44.40059881682576" lon="12.181757913517949"><ele>4.0</ele><time>2026-04-06T06:42:16.999Z</time></trkpt><trkpt lat="44.40052655499006" lon="12.181656203986638"><ele>4.0</ele><time>2026-04-06T06:42:17.999Z</time></trkpt><trkpt lat="44.400452252264" lon="12.181545226099853"><ele>4.0</ele><time>2026-04-06T06:42:18.999Z</time></trkpt><trkpt lat="44.400389682056385" lon="12.181425435151667"><ele>4.0</ele><time>2026-04-06T06:42:19.999Z</time></trkpt><trkpt lat="44.40033260604523" lon="12.18131816819984"><ele>4.0</ele><time>2026-04-06T06:42:20.999Z</time></trkpt><trkpt lat="44.400282574426" lon="12.181204779506114"><ele>4.0</ele><time>2026-04-06T06:42:21.999Z</time></trkpt><trkpt lat="44.40023890001069" lon="12.181096123096813"><ele>4.0</ele><time>2026-04-06T06:42:22.999Z</time></trkpt><trkpt lat="44.40025659843801" lon="12.180958957717744"><ele>4.0</ele><time>2026-04-06T06:42:23.999Z</time></trkpt><trkpt lat="44.40024999000163" lon="12.180837035336005"><ele>4.0</ele><time>2026-04-06T06:42:24.999Z</time></trkpt><trkpt lat="44.400252824119136" lon="12.180711001041468"><ele>4.0</ele><time>2026-04-06T06:42:25.999Z</time></trkpt><trkpt lat="44.400271604318476" lon="12.180577933741166"><ele>4.0</ele><time>2026-04-06T06:42:26.999Z</time></trkpt><trkpt lat="44.40029946918926" lon="12.1804408570613"><ele>3.833333333333333</ele><time>2026-04-06T06:42:27.999Z</time></trkpt><trkpt lat="44.40034297938902" lon="12.18032018349536"><ele>3.6666666666666665</ele><time>2026-04-06T06:42:28.999Z</time></trkpt><trkpt lat="44.40039632869278" lon="12.180216653500285"><ele>3.5</ele><time>2026-04-06T06:42:29.999Z</time></trkpt><trkpt lat="44.4004495113044" lon="12.180119810641123"><ele>3.333333333333333</ele><time>2026-04-06T06:42:30.999Z</time></trkpt><trkpt lat="44.40049950558887" lon="12.180032989349439"><ele>3.1666666666666665</ele><time>2026-04-06T06:42:31.999Z</time></trkpt><trkpt lat="44.400553993233764" lon="12.179937421507045"><ele>3.0</ele><time>2026-04-06T06:42:32.999Z</time></trkpt><trkpt lat="44.400643255049" lon="12.179855556106455"><ele>2.5</ele><time>2026-04-06T06:42:33.999Z</time></trkpt><trkpt lat="44.40075139740478" lon="12.179779862199883"><ele>2.0</ele><time>2026-04-06T06:42:34.999Z</time></trkpt><trkpt lat="44.400866595180794" lon="12.179686271588539"><ele>1.5</ele><time>2026-04-06T06:42:35.999Z</time></trkpt><trkpt lat="44.40098687123144" lon="12.179570982174512"><ele>1.0</ele><time>2026-04-06T06:42:36.999Z</time></trkpt><trkpt lat="44.401110150387865" lon="12.179460249667653"><ele>1.0</ele><time>2026-04-06T06:42:37.999Z</time></trkpt><trkpt lat="44.40124632262882" lon="12.179355000565135"><ele>1.0</ele><time>2026-04-06T06:42:38.999Z</time></trkpt><trkpt lat="44.40141042419533" lon="12.179234008093367"><ele>1.0</ele><time>2026-04-06T06:42:39.999Z</time></trkpt><trkpt lat="44.40158682024479" lon="12.179106902862362"><ele>1.3333333333333333</ele><time>2026-04-06T06:42:40.999Z</time></trkpt><trkpt lat="44.40177091070498" lon="12.178983823381435"><ele>1.6666666666666665</ele><time>2026-04-06T06:42:41.999Z</time></trkpt><trkpt lat="44.401961918796495" lon="12.178849266387063"><ele>2.0</ele><time>2026-04-06T06:42:42.999Z</time></trkpt><trkpt lat="44.402161219706535" lon="12.178708908618033"><ele>2.0</ele><time>2026-04-06T06:42:43.999Z</time></trkpt><trkpt lat="44.40237628475449" lon="12.178569356251291"><ele>2.0</ele><time>2026-04-06T06:42:44.999Z</time></trkpt><trkpt lat="44.40258820412265" lon="12.178424413620641"><ele>2.0</ele><time>2026-04-06T06:42:45.999Z</time></trkpt><trkpt lat="44.402802651593454" lon="12.178274072744411"><ele>2.0</ele><time>2026-04-06T06:42:46.999Z</time></trkpt><trkpt lat="44.40302097295665" lon="12.178121990972945"><ele>1.5</ele><time>2026-04-06T06:42:47.999Z</time></trkpt><trkpt lat="44.4032373569409" lon="12.177972820694487"><ele>1.0</ele><time>2026-04-06T06:42:48.999Z</time></trkpt><trkpt lat="44.40345094139145" lon="12.177815433478521"><ele>1.0</ele><time>2026-04-06T06:42:49.999Z</time></trkpt><trkpt lat="44.40366755682756" lon="12.177663417447908"><ele>1.0</ele><time>2026-04-06T06:42:50.999Z</time></trkpt><trkpt lat="44.40387874164604" lon="12.177513472666575"><ele>2.5</ele><time>2026-04-06T06:42:51.999Z</time></trkpt><trkpt lat="44.40408868558529" lon="12.177361657676256"><ele>4.0</ele><time>2026-04-06T06:42:52.999Z</time></trkpt><trkpt lat="44.404301961517895" lon="12.177208963541979"><ele>4.0</ele><time>2026-04-06T06:42:53.999Z</time></trkpt><trkpt lat="44.404516024287645" lon="12.177056912224769"><ele>4.0</ele><time>2026-04-06T06:42:54.999Z</time></trkpt><trkpt lat="44.40473131910662" lon="12.176903177274376"><ele>3.0</ele><time>2026-04-06T06:42:55.999Z</time></trkpt><trkpt lat="44.40494590374993" lon="12.176747348970949"><ele>2.0</ele><time>2026-04-06T06:42:56.999Z</time></trkpt><trkpt lat="44.40516120906351" lon="12.17659007651484"><ele>1.5</ele><time>2026-04-06T06:42:57.999Z</time></trkpt><trkpt lat="44.40537767991863" lon="12.176436868669123"><ele>1.0</ele><time>2026-04-06T06:42:58.998Z</time></trkpt><trkpt lat="44.40559457757305" lon="12.176285737276036"><ele>1.0</ele><time>2026-04-06T06:42:59.998Z</time></trkpt><trkpt lat="44.40580833080365" lon="12.176129832627751"><ele>1.0</ele><time>2026-04-06T06:43:00.998Z</time></trkpt><trkpt lat="44.4060257010052" lon="12.175977233692269"><ele>1.0</ele><time>2026-04-06T06:43:01.998Z</time></trkpt><trkpt lat="44.40624357230099" lon="12.175818216379428"><ele>1.0</ele><time>2026-04-06T06:43:02.998Z</time></trkpt><trkpt lat="44.40646039067523" lon="12.175665629800788"><ele>1.5</ele><time>2026-04-06T06:43:03.998Z</time></trkpt><trkpt lat="44.40667885027595" lon="12.175511464312564"><ele>2.0</ele><time>2026-04-06T06:43:04.998Z</time></trkpt><trkpt lat="44.40689550073588" lon="12.175360538095532"><ele>2.0</ele><time>2026-04-06T06:43:05.998Z</time></trkpt><trkpt lat="44.40711056845654" lon="12.17521186780584"><ele>2.0</ele><time>2026-04-06T06:43:06.998Z</time></trkpt><trkpt lat="44.407325984560266" lon="12.175060381260797"><ele>2.5</ele><time>2026-04-06T06:43:07.998Z</time></trkpt><trkpt lat="44.407540869299226" lon="12.17490770444601"><ele>3.0</ele><time>2026-04-06T06:43:08.998Z</time></trkpt><trkpt lat="44.407750380902115" lon="12.174755685971217"><ele>3.0</ele><time>2026-04-06T06:43:09.998Z</time></trkpt><trkpt lat="44.40796207090042" lon="12.174595358878012"><ele>3.0</ele><time>2026-04-06T06:43:10.998Z</time></trkpt><trkpt lat="44.40817931761362" lon="12.174427629373215"><ele>1.5</ele><time>2026-04-06T06:43:11.998Z</time></trkpt><trkpt lat="44.408398102566416" lon="12.174263751649248"><ele>0.0</ele><time>2026-04-06T06:43:12.998Z</time></trkpt><trkpt lat="44.408623326897875" lon="12.17410536562764"><ele>1.5</ele><time>2026-04-06T06:43:13.998Z</time></trkpt><trkpt lat="44.40885743730166" lon="12.173948752748727"><ele>3.0</ele><time>2026-04-06T06:43:14.998Z</time></trkpt><trkpt lat="44.409092805939004" lon="12.173794412850249"><ele>3.0</ele><time>2026-04-06T06:43:15.998Z</time></trkpt><trkpt lat="44.40933151319355" lon="12.173639475528137"><ele>3.0</ele><time>2026-04-06T06:43:16.998Z</time></trkpt><trkpt lat="44.4095722054187" lon="12.173471906139255"><ele>2.0</ele><time>2026-04-06T06:43:17.998Z</time></trkpt><trkpt lat="44.40981287015666" lon="12.173301398640296"><ele>1.0</ele><time>2026-04-06T06:43:18.998Z</time></trkpt><trkpt lat="44.410052140190324" lon="12.173137953803296"><ele>0.5</ele><time>2026-04-06T06:43:19.998Z</time></trkpt><trkpt lat="44.4102928055443" lon="12.172971669912574"><ele>0.0</ele><time>2026-04-06T06:43:20.998Z</time></trkpt><trkpt lat="44.41053568294701" lon="12.172800813805866"><ele>1.5</ele><time>2026-04-06T06:43:21.998Z</time></trkpt><trkpt lat="44.41077863491134" lon="12.172626700318212"><ele>3.0</ele><time>2026-04-06T06:43:22.998Z</time></trkpt><trkpt lat="44.41102582077206" lon="12.172447631573421"><ele>3.0</ele><time>2026-04-06T06:43:23.998Z</time></trkpt><trkpt lat="44.41127017645698" lon="12.172273656147665"><ele>3.0</ele><time>2026-04-06T06:43:24.998Z</time></trkpt><trkpt lat="44.41151400427865" lon="12.172102825566057"><ele>2.0</ele><time>2026-04-06T06:43:25.998Z</time></trkpt><trkpt lat="44.41176045089261" lon="12.171934469697074"><ele>1.0</ele><time>2026-04-06T06:43:26.998Z</time></trkpt><trkpt lat="44.41201061187239" lon="12.171766230019129"><ele>1.0</ele><time>2026-04-06T06:43:27.998Z</time></trkpt><trkpt lat="44.41226155263407" lon="12.171593252767218"><ele>1.0</ele><time>2026-04-06T06:43:28.998Z</time></trkpt><trkpt lat="44.41251356272517" lon="12.171422092365567"><ele>1.0</ele><time>2026-04-06T06:43:29.998Z</time></trkpt><trkpt lat="44.41276486318766" lon="12.171248730276506"><ele>1.0</ele><time>2026-04-06T06:43:30.998Z</time></trkpt><trkpt lat="44.41301649537469" lon="12.171074493419592"><ele>1.0</ele><time>2026-04-06T06:43:31.998Z</time></trkpt><trkpt lat="44.413268811504366" lon="12.170900321970496"><ele>1.0</ele><time>2026-04-06T06:43:32.998Z</time></trkpt><trkpt lat="44.41352132975599" lon="12.170724536487775"><ele>2.0</ele><time>2026-04-06T06:43:33.998Z</time></trkpt><trkpt lat="44.41377308588409" lon="12.170543782599166"><ele>3.0</ele><time>2026-04-06T06:43:34.998Z</time></trkpt><trkpt lat="44.414028277317705" lon="12.170361331611062"><ele>1.0</ele><time>2026-04-06T06:43:35.998Z</time></trkpt><trkpt lat="44.414287921891265" lon="12.170175851270868"><ele>-1.0</ele><time>2026-04-06T06:43:36.998Z</time></trkpt><trkpt lat="44.4145482541927" lon="12.169984618983367"><ele>0.0</ele><time>2026-04-06T06:43:37.998Z</time></trkpt><trkpt lat="44.41481507978325" lon="12.1697849548255"><ele>1.0</ele><time>2026-04-06T06:43:38.998Z</time></trkpt><trkpt lat="44.415082120060106" lon="12.169580191394838"><ele>1.0</ele><time>2026-04-06T06:43:39.998Z</time></trkpt><trkpt lat="44.415354684787246" lon="12.16938231036971"><ele>1.0</ele><time>2026-04-06T06:43:40.998Z</time></trkpt><trkpt lat="44.41563123005031" lon="12.169181295332434"><ele>0.5</ele><time>2026-04-06T06:43:41.998Z</time></trkpt><trkpt lat="44.415911193522625" lon="12.168984441800877"><ele>0.0</ele><time>2026-04-06T06:43:42.998Z</time></trkpt><trkpt lat="44.41619196684291" lon="12.168792012804621"><ele>-0.5</ele><time>2026-04-06T06:43:43.998Z</time></trkpt><trkpt lat="44.41647402666623" lon="12.168596607336063"><ele>-1.0</ele><time>2026-04-06T06:43:44.998Z</time></trkpt><trkpt lat="44.41675372537104" lon="12.168402968958432"><ele>-1.0</ele><time>2026-04-06T06:43:45.998Z</time></trkpt><trkpt lat="44.41703075298269" lon="12.168208286548786"><ele>-1.0</ele><time>2026-04-06T06:43:46.998Z</time></trkpt><trkpt lat="44.417305828377216" lon="12.16800754507468"><ele>-1.0</ele><time>2026-04-06T06:43:47.998Z</time></trkpt><trkpt lat="44.417571289429056" lon="12.167790076911217"><ele>-1.0</ele><time>2026-04-06T06:43:48.998Z</time></trkpt><trkpt lat="44.417831907372474" lon="12.16755402195062"><ele>-1.5</ele><time>2026-04-06T06:43:49.998Z</time></trkpt><trkpt lat="44.41808607196603" lon="12.167311420065543"><ele>-2.0</ele><time>2026-04-06T06:43:50.998Z</time></trkpt><trkpt lat="44.41833431544086" lon="12.16706532729815"><ele>-2.0</ele><time>2026-04-06T06:43:51.998Z</time></trkpt><trkpt lat="44.41857861235141" lon="12.166820327447626"><ele>-2.0</ele><time>2026-04-06T06:43:52.998Z</time></trkpt><trkpt lat="44.41882103717632" lon="12.16657731679128"><ele>-1.0</ele><time>2026-04-06T06:43:53.998Z</time></trkpt><trkpt lat="44.4190629174933" lon="12.166340355792332"><ele>0.0</ele><time>2026-04-06T06:43:54.998Z</time></trkpt><trkpt lat="44.419300684664435" lon="12.16610672248703"><ele>0.0</ele><time>2026-04-06T06:43:55.998Z</time></trkpt><trkpt lat="44.41953586014922" lon="12.165874703198925"><ele>0.0</ele><time>2026-04-06T06:43:56.998Z</time></trkpt><trkpt lat="44.41976765041921" lon="12.165643062645728"><ele>0.5</ele><time>2026-04-06T06:43:57.998Z</time></trkpt><trkpt lat="44.41999691424202" lon="12.165412843062946"><ele>1.0</ele><time>2026-04-06T06:43:58.998Z</time></trkpt><trkpt lat="44.42022104913158" lon="12.165181083614362"><ele>1.0</ele><time>2026-04-06T06:43:59.998Z</time></trkpt><trkpt lat="44.42043810945885" lon="12.164938367064462"><ele>1.0</ele><time>2026-04-06T06:44:00.998Z</time></trkpt><trkpt lat="44.42064260233205" lon="12.164684444714736"><ele>2.0</ele><time>2026-04-06T06:44:01.998Z</time></trkpt><trkpt lat="44.42083923087282" lon="12.164422782055983"><ele>3.0</ele><time>2026-04-06T06:44:02.998Z</time></trkpt><trkpt lat="44.42103298145726" lon="12.164160559745824"><ele>2.5</ele><time>2026-04-06T06:44:03.998Z</time></trkpt><trkpt lat="44.42122623849748" lon="12.16389919128419"><ele>2.0</ele><time>2026-04-06T06:44:04.998Z</time></trkpt><trkpt lat="44.421419593271445" lon="12.16363888779953"><ele>2.0</ele><time>2026-04-06T06:44:05.998Z</time></trkpt><trkpt lat="44.42161623244083" lon="12.163377471226935"><ele>2.0</ele><time>2026-04-06T06:44:06.998Z</time></trkpt><trkpt lat="44.42181665963797" lon="12.163114253815946"><ele>1.5</ele><time>2026-04-06T06:44:07.998Z</time></trkpt><trkpt lat="44.42202296203756" lon="12.162840113250219"><ele>1.0</ele><time>2026-04-06T06:44:08.998Z</time></trkpt><trkpt lat="44.4222295085517" lon="12.162567880174045"><ele>1.5</ele><time>2026-04-06T06:44:09.998Z</time></trkpt><trkpt lat="44.42243445055895" lon="12.162294958354622"><ele>2.0</ele><time>2026-04-06T06:44:10.998Z</time></trkpt><trkpt lat="44.42263863464156" lon="12.162020798558022"><ele>2.0</ele><time>2026-04-06T06:44:11.998Z</time></trkpt><trkpt lat="44.422841679568016" lon="12.161748128091062"><ele>2.0</ele><time>2026-04-06T06:44:12.998Z</time></trkpt><trkpt lat="44.42304638180643" lon="12.161477026898964"><ele>1.5</ele><time>2026-04-06T06:44:13.998Z</time></trkpt><trkpt lat="44.423250731893" lon="12.161202531998878"><ele>1.0</ele><time>2026-04-06T06:44:14.998Z</time></trkpt><trkpt lat="44.42345287863264" lon="12.16092457544065"><ele>0.0</ele><time>2026-04-06T06:44:15.998Z</time></trkpt><trkpt lat="44.42365835125696" lon="12.160648698861133"><ele>-1.0</ele><time>2026-04-06T06:44:16.998Z</time></trkpt><trkpt lat="44.42386249397948" lon="12.1603778284388"><ele>-1.5</ele><time>2026-04-06T06:44:17.998Z</time></trkpt><trkpt lat="44.42406688968632" lon="12.16011003631454"><ele>-2.0</ele><time>2026-04-06T06:44:18.998Z</time></trkpt><trkpt lat="44.42427262639253" lon="12.159847331145494"><ele>-2.0</ele><time>2026-04-06T06:44:19.998Z</time></trkpt><trkpt lat="44.42447444262177" lon="12.159583272880823"><ele>-2.0</ele><time>2026-04-06T06:44:20.998Z</time></trkpt><trkpt lat="44.42468026726401" lon="12.159332069789876"><ele>-2.0</ele><time>2026-04-06T06:44:21.998Z</time></trkpt><trkpt lat="44.424889063637856" lon="12.159074525379523"><ele>-2.0</ele><time>2026-04-06T06:44:22.998Z</time></trkpt><trkpt lat="44.4250990025804" lon="12.158818561309404"><ele>-2.5</ele><time>2026-04-06T06:44:23.998Z</time></trkpt><trkpt lat="44.425307486817054" lon="12.158560232465353"><ele>-3.0</ele><time>2026-04-06T06:44:24.998Z</time></trkpt><trkpt lat="44.42551256349588" lon="12.158297714376568"><ele>-1.5</ele><time>2026-04-06T06:44:25.998Z</time></trkpt><trkpt lat="44.42571514943617" lon="12.158030043810175"><ele>0.0</ele><time>2026-04-06T06:44:26.998Z</time></trkpt><trkpt lat="44.42591478886969" lon="12.157764686201212"><ele>0.0</ele><time>2026-04-06T06:44:27.998Z</time></trkpt><trkpt lat="44.4261088445535" lon="12.15750648308707"><ele>0.0</ele><time>2026-04-06T06:44:28.998Z</time></trkpt><trkpt lat="44.42629299909323" lon="12.157259093918105"><ele>0.0</ele><time>2026-04-06T06:44:29.998Z</time></trkpt><trkpt lat="44.42647141678636" lon="12.157022186629863"><ele>0.0</ele><time>2026-04-06T06:44:30.998Z</time></trkpt><trkpt lat="44.42665376271241" lon="12.156783076459634"><ele>0.0</ele><time>2026-04-06T06:44:31.998Z</time></trkpt><trkpt lat="44.42683402046977" lon="12.156541228605741"><ele>0.0</ele><time>2026-04-06T06:44:32.998Z</time></trkpt><trkpt lat="44.427012664630794" lon="12.156307149027052"><ele>1.5</ele><time>2026-04-06T06:44:33.998Z</time></trkpt><trkpt lat="44.42718514902098" lon="12.156080693771269"><ele>3.0</ele><time>2026-04-06T06:44:34.998Z</time></trkpt><trkpt lat="44.427358127996094" lon="12.155850905750977"><ele>3.666666666666667</ele><time>2026-04-06T06:44:35.998Z</time></trkpt><trkpt lat="44.427523003707854" lon="12.155628963831846"><ele>4.333333333333334</ele><time>2026-04-06T06:44:36.998Z</time></trkpt><trkpt lat="44.427678603947015" lon="12.155423449727593"><ele>5.0</ele><time>2026-04-06T06:44:37.998Z</time></trkpt><trkpt lat="44.427819830076864" lon="12.155237838471026"><ele>5.0</ele><time>2026-04-06T06:44:38.998Z</time></trkpt><trkpt lat="44.42794740608719" lon="12.155074051374832"><ele>5.0</ele><time>2026-04-06T06:44:39.998Z</time></trkpt><trkpt lat="44.4280702945801" lon="12.154922625111823"><ele>5.0</ele><time>2026-04-06T06:44:40.998Z</time></trkpt><trkpt lat="44.42818611967924" lon="12.154780247973495"><ele>4.4</ele><time>2026-04-06T06:44:41.998Z</time></trkpt><trkpt lat="44.428278310589334" lon="12.154662886964443"><ele>3.8</ele><time>2026-04-06T06:44:42.998Z</time></trkpt><trkpt lat="44.42835389431313" lon="12.154606433815644"><ele>3.2</ele><time>2026-04-06T06:44:43.998Z</time></trkpt><trkpt lat="44.42842502489818" lon="12.154541305467017"><ele>2.6</ele><time>2026-04-06T06:44:44.998Z</time></trkpt><trkpt lat="44.42848220466432" lon="12.15446467525078"><ele>2.0</ele><time>2026-04-06T06:44:45.998Z</time></trkpt><trkpt lat="44.42865241967061" lon="12.154590006676461"><ele>2.0</ele><time>2026-04-06T06:44:46.998Z</time></trkpt><trkpt lat="44.42873534942358" lon="12.154717845325207"><ele>2.0</ele><time>2026-04-06T06:44:47.998Z</time></trkpt><trkpt lat="44.42879362976481" lon="12.15484286938511"><ele>2.0</ele><time>2026-04-06T06:44:48.998Z</time></trkpt><trkpt lat="44.428828395954106" lon="12.154984439348132"><ele>2.0</ele><time>2026-04-06T06:44:49.998Z</time></trkpt><trkpt lat="44.428825313710654" lon="12.155133769860617"><ele>2.0</ele><time>2026-04-06T06:44:50.998Z</time></trkpt><trkpt lat="44.428789566614576" lon="12.155278344675306"><ele>2.8</ele><time>2026-04-06T06:44:51.998Z</time></trkpt><trkpt lat="44.42872766472992" lon="12.155397826513939"><ele>3.6</ele><time>2026-04-06T06:44:52.998Z</time></trkpt><trkpt lat="44.42863863825271" lon="12.155477060622648"><ele>4.3999999999999995</ele><time>2026-04-06T06:44:53.998Z</time></trkpt><trkpt lat="44.42854582566159" lon="12.155529637801983"><ele>5.2</ele><time>2026-04-06T06:44:54.998Z</time></trkpt><trkpt lat="44.42843721197387" lon="12.155539330064041"><ele>6.0</ele><time>2026-04-06T06:44:55.998Z</time></trkpt><trkpt lat="44.42833047532024" lon="12.155490316245265"><ele>6.0</ele><time>2026-04-06T06:44:56.998Z</time></trkpt><trkpt lat="44.428222273098605" lon="12.155379596464362"><ele>6.0</ele><time>2026-04-06T06:44:57.998Z</time></trkpt><trkpt lat="44.42813561205366" lon="12.155224025313021"><ele>6.0</ele><time>2026-04-06T06:44:58.998Z</time></trkpt><trkpt lat="44.42804805849873" lon="12.155042745939744"><ele>6.0</ele><time>2026-04-06T06:44:59.998Z</time></trkpt><trkpt lat="44.42794388280936" lon="12.154862143566902"><ele>5.666666666666667</ele><time>2026-04-06T06:45:00.998Z</time></trkpt><trkpt lat="44.42782511786437" lon="12.154674841202779"><ele>5.333333333333334</ele><time>2026-04-06T06:45:01.998Z</time></trkpt><trkpt lat="44.427705457698465" lon="12.154482085019291"><ele>5.0</ele><time>2026-04-06T06:45:02.998Z</time></trkpt><trkpt lat="44.42758694997435" lon="12.154275421293589"><ele>5.0</ele><time>2026-04-06T06:45:03.998Z</time></trkpt><trkpt lat="44.42746448856681" lon="12.154071513163977"><ele>5.0</ele><time>2026-04-06T06:45:04.998Z</time></trkpt><trkpt lat="44.427344153038746" lon="12.153865620283547"><ele>5.0</ele><time>2026-04-06T06:45:05.998Z</time></trkpt><trkpt lat="44.42721882549884" lon="12.153648417444005"><ele>3.3333333333333335</ele><time>2026-04-06T06:45:06.998Z</time></trkpt><trkpt lat="44.42708966048977" lon="12.153424729060186"><ele>1.6666666666666667</ele><time>2026-04-06T06:45:07.998Z</time></trkpt><trkpt lat="44.42695586228751" lon="12.153195470594103"><ele>0.0</ele><time>2026-04-06T06:45:08.998Z</time></trkpt><trkpt lat="44.42682419263419" lon="12.152961681857008"><ele>0.0</ele><time>2026-04-06T06:45:09.998Z</time></trkpt><trkpt lat="44.42668627075404" lon="12.152722388516345"><ele>0.0</ele><time>2026-04-06T06:45:10.998Z</time></trkpt><trkpt lat="44.42654311007535" lon="12.152473560188293"><ele>0.0</ele><time>2026-04-06T06:45:11.998Z</time></trkpt><trkpt lat="44.426398501380014" lon="12.152220041476909"><ele>-1.0</ele><time>2026-04-06T06:45:12.998Z</time></trkpt><trkpt lat="44.42625462231728" lon="12.151965990358917"><ele>-2.0</ele><time>2026-04-06T06:45:13.998Z</time></trkpt><trkpt lat="44.42610954226599" lon="12.151711299093941"><ele>-2.5</ele><time>2026-04-06T06:45:14.998Z</time></trkpt><trkpt lat="44.42596054210171" lon="12.151453510044588"><ele>-3.0</ele><time>2026-04-06T06:45:15.998Z</time></trkpt><trkpt lat="44.4258104874849" lon="12.151187566217862"><ele>-3.0</ele><time>2026-04-06T06:45:16.998Z</time></trkpt><trkpt lat="44.42565838017774" lon="12.15092097752527"><ele>-3.0</ele><time>2026-04-06T06:45:17.998Z</time></trkpt><trkpt lat="44.42550418371674" lon="12.150649830920079"><ele>-1.5</ele><time>2026-04-06T06:45:18.998Z</time></trkpt><trkpt lat="44.425348433443865" lon="12.150376302293887"><ele>0.0</ele><time>2026-04-06T06:45:19.998Z</time></trkpt><trkpt lat="44.42518960315941" lon="12.150097182102021"><ele>0.0</ele><time>2026-04-06T06:45:20.998Z</time></trkpt><trkpt lat="44.425030021989045" lon="12.149815533203627"><ele>0.0</ele><time>2026-04-06T06:45:21.998Z</time></trkpt><trkpt lat="44.42486450769446" lon="12.149525599619764"><ele>0.0</ele><time>2026-04-06T06:45:22.998Z</time></trkpt><trkpt lat="44.42470160157635" lon="12.149240795070138"><ele>0.0</ele><time>2026-04-06T06:45:23.998Z</time></trkpt><trkpt lat="44.42453400726026" lon="12.148947598478458"><ele>0.0</ele><time>2026-04-06T06:45:24.998Z</time></trkpt><trkpt lat="44.424365170909404" lon="12.148651957581643"><ele>0.0</ele><time>2026-04-06T06:45:25.998Z</time></trkpt><trkpt lat="44.42419473427126" lon="12.148349942140541"><ele>0.0</ele><time>2026-04-06T06:45:26.998Z</time></trkpt><trkpt lat="44.424020064165596" lon="12.148041539154917"><ele>0.0</ele><time>2026-04-06T06:45:27.998Z</time></trkpt><trkpt lat="44.42384013522061" lon="12.147728462320098"><ele>-0.5</ele><time>2026-04-06T06:45:28.998Z</time></trkpt><trkpt lat="44.423661012526736" lon="12.147418013439905"><ele>-1.0</ele><time>2026-04-06T06:45:29.998Z</time></trkpt><trkpt lat="44.42348487590835" lon="12.147105847879764"><ele>-1.0</ele><time>2026-04-06T06:45:30.998Z</time></trkpt><trkpt lat="44.423309197490454" lon="12.14679394971352"><ele>-1.0</ele><time>2026-04-06T06:45:31.998Z</time></trkpt><trkpt lat="44.42313826179266" lon="12.146481966475035"><ele>-1.5</ele><time>2026-04-06T06:45:32.998Z</time></trkpt><trkpt lat="44.42297101946047" lon="12.146162868541529"><ele>-2.0</ele><time>2026-04-06T06:45:33.998Z</time></trkpt><trkpt lat="44.42280585187547" lon="12.145841146220624"><ele>-1.0</ele><time>2026-04-06T06:45:34.998Z</time></trkpt><trkpt lat="44.42264214762158" lon="12.145516570815895"><ele>0.0</ele><time>2026-04-06T06:45:35.998Z</time></trkpt><trkpt lat="44.42247921058518" lon="12.145187698495903"><ele>0.0</ele><time>2026-04-06T06:45:36.998Z</time></trkpt><trkpt lat="44.42231435488107" lon="12.144857289598098"><ele>0.0</ele><time>2026-04-06T06:45:37.998Z</time></trkpt><trkpt lat="44.42215050993248" lon="12.144530380926462"><ele>0.5</ele><time>2026-04-06T06:45:38.998Z</time></trkpt><trkpt lat="44.42198771437125" lon="12.144203338568866"><ele>1.0</ele><time>2026-04-06T06:45:39.998Z</time></trkpt><trkpt lat="44.42182396721099" lon="12.143876559270078"><ele>1.0</ele><time>2026-04-06T06:45:40.998Z</time></trkpt><trkpt lat="44.421660830934975" lon="12.143549451861126"><ele>1.0</ele><time>2026-04-06T06:45:41.998Z</time></trkpt><trkpt lat="44.42149595696419" lon="12.143220406367961"><ele>1.0</ele><time>2026-04-06T06:45:42.998Z</time></trkpt><trkpt lat="44.421331067238185" lon="12.142889632005721"><ele>1.0</ele><time>2026-04-06T06:45:43.998Z</time></trkpt><trkpt lat="44.421165873223984" lon="12.142557933523992"><ele>0.5</ele><time>2026-04-06T06:45:44.998Z</time></trkpt><trkpt lat="44.42099825441447" lon="12.142225041627848"><ele>0.0</ele><time>2026-04-06T06:45:45.998Z</time></trkpt><trkpt lat="44.42083537327367" lon="12.141891459687677"><ele>0.0</ele><time>2026-04-06T06:45:46.998Z</time></trkpt><trkpt lat="44.42067007532629" lon="12.141563226200168"><ele>0.0</ele><time>2026-04-06T06:45:47.998Z</time></trkpt><trkpt lat="44.42050429018459" lon="12.141229068136852"><ele>-0.5</ele><time>2026-04-06T06:45:48.998Z</time></trkpt><trkpt lat="44.42034011867017" lon="12.140896686795784"><ele>-1.0</ele><time>2026-04-06T06:45:49.998Z</time></trkpt><trkpt lat="44.42016917646097" lon="12.140561509947824"><ele>-1.0</ele><time>2026-04-06T06:45:50.998Z</time></trkpt><trkpt lat="44.419998466973176" lon="12.140223439562115"><ele>-1.0</ele><time>2026-04-06T06:45:51.998Z</time></trkpt><trkpt lat="44.41982896974035" lon="12.1398824335378"><ele>-1.5</ele><time>2026-04-06T06:45:52.998Z</time></trkpt><trkpt lat="44.41965340567429" lon="12.139542790452708"><ele>-2.0</ele><time>2026-04-06T06:45:53.998Z</time></trkpt><trkpt lat="44.41947260429748" lon="12.139200762360622"><ele>-1.0</ele><time>2026-04-06T06:45:54.998Z</time></trkpt><trkpt lat="44.41929416521271" lon="12.138866061872621"><ele>0.0</ele><time>2026-04-06T06:45:55.998Z</time></trkpt><trkpt lat="44.419114833287715" lon="12.13853030492611"><ele>0.0</ele><time>2026-04-06T06:45:56.998Z</time></trkpt><trkpt lat="44.41893466875459" lon="12.138197080663387"><ele>0.0</ele><time>2026-04-06T06:45:57.998Z</time></trkpt><trkpt lat="44.418752354663766" lon="12.137865001372413"><ele>0.0</ele><time>2026-04-06T06:45:58.998Z</time></trkpt><trkpt lat="44.418566933929064" lon="12.137537133292613"><ele>0.0</ele><time>2026-04-06T06:45:59.998Z</time></trkpt><trkpt lat="44.41837947095522" lon="12.137210217156987"><ele>0.0</ele><time>2026-04-06T06:46:00.998Z</time></trkpt><trkpt lat="44.41819368716277" lon="12.136883742823677"><ele>0.0</ele><time>2026-04-06T06:46:01.998Z</time></trkpt><trkpt lat="44.418007543677575" lon="12.1365623103917"><ele>0.5</ele><time>2026-04-06T06:46:02.998Z</time></trkpt><trkpt lat="44.417826318443176" lon="12.136245294602327"><ele>1.0</ele><time>2026-04-06T06:46:03.998Z</time></trkpt><trkpt lat="44.417650891518626" lon="12.135926645681327"><ele>0.5</ele><time>2026-04-06T06:46:04.998Z</time></trkpt><trkpt lat="44.4174916321074" lon="12.1355998222825"><ele>0.0</ele><time>2026-04-06T06:46:05.998Z</time></trkpt><trkpt lat="44.41734949562931" lon="12.135257832713188"><ele>0.0</ele><time>2026-04-06T06:46:06.998Z</time></trkpt><trkpt lat="44.417226496252454" lon="12.134901977422905"><ele>0.0</ele><time>2026-04-06T06:46:07.998Z</time></trkpt><trkpt lat="44.41712548977712" lon="12.134536754426895"><ele>0.0</ele><time>2026-04-06T06:46:08.998Z</time></trkpt><trkpt lat="44.41703793489911" lon="12.13416543082248"><ele>0.0</ele><time>2026-04-06T06:46:09.998Z</time></trkpt><trkpt lat="44.41696889098773" lon="12.13378973209209"><ele>0.0</ele><time>2026-04-06T06:46:10.998Z</time></trkpt><trkpt lat="44.41691089196335" lon="12.133406441832975"><ele>0.0</ele><time>2026-04-06T06:46:11.998Z</time></trkpt><trkpt lat="44.4168526902185" lon="12.13301599279267"><ele>0.0</ele><time>2026-04-06T06:46:12.998Z</time></trkpt><trkpt lat="44.41679246476523" lon="12.132623534070039"><ele>0.0</ele><time>2026-04-06T06:46:13.998Z</time></trkpt><trkpt lat="44.41672958667207" lon="12.13222750845283"><ele>0.5</ele><time>2026-04-06T06:46:14.998Z</time></trkpt><trkpt lat="44.41666674171347" lon="12.131831319158907"><ele>1.0</ele><time>2026-04-06T06:46:15.998Z</time></trkpt><trkpt lat="44.416601411477906" lon="12.13143741659132"><ele>1.5</ele><time>2026-04-06T06:46:16.998Z</time></trkpt><trkpt lat="44.41653802037517" lon="12.131043284097156"><ele>2.0</ele><time>2026-04-06T06:46:17.998Z</time></trkpt><trkpt lat="44.41647811365812" lon="12.130652893948415"><ele>1.5</ele><time>2026-04-06T06:46:18.998Z</time></trkpt><trkpt lat="44.41641638916145" lon="12.130262383828926"><ele>1.0</ele><time>2026-04-06T06:46:19.998Z</time></trkpt><trkpt lat="44.41635755590199" lon="12.129888111039772"><ele>1.0</ele><time>2026-04-06T06:46:20.998Z</time></trkpt><trkpt lat="44.41629920813225" lon="12.12950727070783"><ele>1.0</ele><time>2026-04-06T06:46:21.998Z</time></trkpt><trkpt lat="44.41623800972356" lon="12.129127657120415"><ele>1.5</ele><time>2026-04-06T06:46:22.998Z</time></trkpt><trkpt lat="44.41617648096316" lon="12.128747394739964"><ele>2.0</ele><time>2026-04-06T06:46:23.998Z</time></trkpt><trkpt lat="44.416112897224" lon="12.12836449194374"><ele>1.5</ele><time>2026-04-06T06:46:24.998Z</time></trkpt><trkpt lat="44.416052643638515" lon="12.127986541199771"><ele>1.0</ele><time>2026-04-06T06:46:25.998Z</time></trkpt><trkpt lat="44.41599161032217" lon="12.127606330359605"><ele>2.5</ele><time>2026-04-06T06:46:26.998Z</time></trkpt><trkpt lat="44.415926747887895" lon="12.12722308701616"><ele>4.0</ele><time>2026-04-06T06:46:27.998Z</time></trkpt><trkpt lat="44.415867121286574" lon="12.126836553194206"><ele>3.5</ele><time>2026-04-06T06:46:28.998Z</time></trkpt><trkpt lat="44.41580929959361" lon="12.126443714116343"><ele>3.0</ele><time>2026-04-06T06:46:29.998Z</time></trkpt><trkpt lat="44.41574941366365" lon="12.126047150798913"><ele>2.5</ele><time>2026-04-06T06:46:30.998Z</time></trkpt><trkpt lat="44.415686592306294" lon="12.12564706522231"><ele>2.0</ele><time>2026-04-06T06:46:31.998Z</time></trkpt><trkpt lat="44.415620626845424" lon="12.125241358214716"><ele>1.5</ele><time>2026-04-06T06:46:32.998Z</time></trkpt><trkpt lat="44.41555265419345" lon="12.124835611945919"><ele>1.0</ele><time>2026-04-06T06:46:33.998Z</time></trkpt><trkpt lat="44.415485969194094" lon="12.124431108094077"><ele>0.5</ele><time>2026-04-06T06:46:34.998Z</time></trkpt><trkpt lat="44.41541822613548" lon="12.12401982556583"><ele>0.0</ele><time>2026-04-06T06:46:35.998Z</time></trkpt><trkpt lat="44.41535183377694" lon="12.123614122242696"><ele>0.0</ele><time>2026-04-06T06:46:36.998Z</time></trkpt><trkpt lat="44.41528330267506" lon="12.123205534288"><ele>0.0</ele><time>2026-04-06T06:46:37.998Z</time></trkpt><trkpt lat="44.41521719482031" lon="12.122795756163056"><ele>0.5</ele><time>2026-04-06T06:46:38.998Z</time></trkpt><trkpt lat="44.415151935447305" lon="12.122384498941202"><ele>1.0</ele><time>2026-04-06T06:46:39.998Z</time></trkpt><trkpt lat="44.415084646278906" lon="12.121973735251215"><ele>1.0</ele><time>2026-04-06T06:46:40.998Z</time></trkpt><trkpt lat="44.41502163057926" lon="12.12156669164402"><ele>1.0</ele><time>2026-04-06T06:46:41.998Z</time></trkpt><trkpt lat="44.41495921380319" lon="12.12115745973376"><ele>1.0</ele><time>2026-04-06T06:46:42.998Z</time></trkpt><trkpt lat="44.41489359659923" lon="12.120750232010778"><ele>1.0</ele><time>2026-04-06T06:46:43.998Z</time></trkpt><trkpt lat="44.414828421347615" lon="12.120347218116766"><ele>1.0</ele><time>2026-04-06T06:46:44.998Z</time></trkpt><trkpt lat="44.41476255968169" lon="12.119945324384636"><ele>1.0</ele><time>2026-04-06T06:46:45.998Z</time></trkpt><trkpt lat="44.41469808111519" lon="12.119545928613189"><ele>0.5</ele><time>2026-04-06T06:46:46.998Z</time></trkpt><trkpt lat="44.414630553809694" lon="12.119144447602418"><ele>0.0</ele><time>2026-04-06T06:46:47.998Z</time></trkpt><trkpt lat="44.41456672114399" lon="12.118746145238143"><ele>0.0</ele><time>2026-04-06T06:46:48.998Z</time></trkpt><trkpt lat="44.414500475868266" lon="12.118350865457614"><ele>0.0</ele><time>2026-04-06T06:46:49.998Z</time></trkpt><trkpt lat="44.41443539190705" lon="12.117956606710404"><ele>-0.5</ele><time>2026-04-06T06:46:50.998Z</time></trkpt><trkpt lat="44.41436956129654" lon="12.117561007948636"><ele>-1.0</ele><time>2026-04-06T06:46:51.998Z</time></trkpt><trkpt lat="44.41430184028184" lon="12.11717027852489"><ele>-1.0</ele><time>2026-04-06T06:46:52.998Z</time></trkpt><trkpt lat="44.41423219971091" lon="12.116779085647678"><ele>-1.0</ele><time>2026-04-06T06:46:53.998Z</time></trkpt><trkpt lat="44.41415925783205" lon="12.116391998315116"><ele>-1.0</ele><time>2026-04-06T06:46:54.998Z</time></trkpt><trkpt lat="44.4140856379914" lon="12.1160123815795"><ele>-1.0</ele><time>2026-04-06T06:46:55.998Z</time></trkpt><trkpt lat="44.414008276420816" lon="12.115637571804674"><ele>-1.0</ele><time>2026-04-06T06:46:56.998Z</time></trkpt><trkpt lat="44.41392947849588" lon="12.115275812977623"><ele>-1.0</ele><time>2026-04-06T06:46:57.998Z</time></trkpt><trkpt lat="44.413849914009184" lon="12.114925459083665"><ele>-0.5</ele><time>2026-04-06T06:46:58.998Z</time></trkpt><trkpt lat="44.41377115276551" lon="12.114595300717216"><ele>0.0</ele><time>2026-04-06T06:46:59.998Z</time></trkpt><trkpt lat="44.41369887189945" lon="12.114286037990082"><ele>0.0</ele><time>2026-04-06T06:47:00.998Z</time></trkpt><trkpt lat="44.4136291901718" lon="12.113995517316066"><ele>0.0</ele><time>2026-04-06T06:47:01.998Z</time></trkpt><trkpt lat="44.41356327049022" lon="12.11372050764754"><ele>0.0</ele><time>2026-04-06T06:47:02.998Z</time></trkpt><trkpt lat="44.41350166133528" lon="12.113462795124516"><ele>0.0</ele><time>2026-04-06T06:47:03.998Z</time></trkpt><trkpt lat="44.413449092709335" lon="12.11324435698618"><ele>0.0</ele><time>2026-04-06T06:47:04.998Z</time></trkpt><trkpt lat="44.41340560075673" lon="12.113058959768802"><ele>0.0</ele><time>2026-04-06T06:47:05.998Z</time></trkpt><trkpt lat="44.41337132596586" lon="12.112910766172979"><ele>0.0</ele><time>2026-04-06T06:47:06.998Z</time></trkpt><trkpt lat="44.41334908064972" lon="12.112798091217421"><ele>0.8</ele><time>2026-04-06T06:47:07.998Z</time></trkpt><trkpt lat="44.41333288312204" lon="12.112653692737007"><ele>1.6</ele><time>2026-04-06T06:47:09.997Z</time></trkpt><trkpt lat="44.41332085809611" lon="12.112565455629078"><ele>2.4000000000000004</ele><time>2026-04-06T06:47:11.997Z</time></trkpt><trkpt lat="44.413241998795435" lon="12.112543259092536"><ele>3.2</ele><time>2026-04-06T06:48:19.997Z</time></trkpt><trkpt lat="44.413182616995016" lon="12.112357713113889"><ele>4.0</ele><time>2026-04-06T06:48:21.997Z</time></trkpt><trkpt lat="44.41314686823971" lon="12.11223475843525"><ele>4.75</ele><time>2026-04-06T06:48:22.997Z</time></trkpt><trkpt lat="44.41310743806963" lon="12.112097048099269"><ele>5.5</ele><time>2026-04-06T06:48:23.997Z</time></trkpt><trkpt lat="44.41306279975554" lon="12.111947362133066"><ele>6.25</ele><time>2026-04-06T06:48:24.997Z</time></trkpt><trkpt lat="44.413015363495695" lon="12.111789954093958"><ele>7.0</ele><time>2026-04-06T06:48:25.997Z</time></trkpt><trkpt lat="44.412964182118294" lon="12.111620736395034"><ele>5.25</ele><time>2026-04-06T06:48:26.997Z</time></trkpt><trkpt lat="44.41291027710105" lon="12.111440597904728"><ele>3.5</ele><time>2026-04-06T06:48:27.997Z</time></trkpt><trkpt lat="44.41285320884614" lon="12.111248786557821"><ele>1.75</ele><time>2026-04-06T06:48:28.997Z</time></trkpt><trkpt lat="44.41279190096311" lon="12.111048517183894"><ele>0.0</ele><time>2026-04-06T06:48:29.997Z</time></trkpt><trkpt lat="44.41272957133336" lon="12.110840874293833"><ele>1.0</ele><time>2026-04-06T06:48:30.997Z</time></trkpt><trkpt lat="44.412660353498794" lon="12.110617499048475"><ele>2.0</ele><time>2026-04-06T06:48:31.997Z</time></trkpt><trkpt lat="44.41258838258844" lon="12.11038537040631"><ele>3.0</ele><time>2026-04-06T06:48:32.997Z</time></trkpt><trkpt lat="44.412512640251215" lon="12.11013809056961"><ele>3.0</ele><time>2026-04-06T06:48:33.997Z</time></trkpt><trkpt lat="44.412432540599816" lon="12.109868865774454"><ele>3.0</ele><time>2026-04-06T06:48:34.997Z</time></trkpt><trkpt lat="44.412346376951824" lon="12.10957962737935"><ele>3.0</ele><time>2026-04-06T06:48:35.997Z</time></trkpt><trkpt lat="44.4122556992226" lon="12.109275042951454"><ele>3.0</ele><time>2026-04-06T06:48:36.997Z</time></trkpt><trkpt lat="44.41216889352645" lon="12.108979865422867"><ele>3.0</ele><time>2026-04-06T06:48:37.997Z</time></trkpt><trkpt lat="44.41207968021558" lon="12.108681248054596"><ele>3.0</ele><time>2026-04-06T06:48:38.997Z</time></trkpt><trkpt lat="44.41198844093536" lon="12.108380688085909"><ele>3.0</ele><time>2026-04-06T06:48:39.997Z</time></trkpt><trkpt lat="44.411898491081224" lon="12.108078218056855"><ele>3.0</ele><time>2026-04-06T06:48:40.997Z</time></trkpt><trkpt lat="44.41180575364291" lon="12.107768582082588"><ele>3.0</ele><time>2026-04-06T06:48:41.997Z</time></trkpt><trkpt lat="44.41171008736584" lon="12.107458140004486"><ele>2.0</ele><time>2026-04-06T06:48:42.997Z</time></trkpt><trkpt lat="44.411613201921135" lon="12.10714492143983"><ele>1.0</ele><time>2026-04-06T06:48:43.997Z</time></trkpt><trkpt lat="44.41151335555757" lon="12.106822576079335"><ele>1.5</ele><time>2026-04-06T06:48:44.997Z</time></trkpt><trkpt lat="44.41141490850746" lon="12.106502569226812"><ele>2.0</ele><time>2026-04-06T06:48:45.997Z</time></trkpt><trkpt lat="44.411314683393144" lon="12.106175444670926"><ele>2.0</ele><time>2026-04-06T06:48:46.997Z</time></trkpt><trkpt lat="44.41121516211961" lon="12.105848387071447"><ele>2.0</ele><time>2026-04-06T06:48:47.997Z</time></trkpt><trkpt lat="44.411114628791225" lon="12.105517945202786"><ele>2.0</ele><time>2026-04-06T06:48:48.997Z</time></trkpt><trkpt lat="44.411013432335544" lon="12.105186334781138"><ele>2.0</ele><time>2026-04-06T06:48:49.997Z</time></trkpt><trkpt lat="44.41091212371981" lon="12.104854886813655"><ele>1.5</ele><time>2026-04-06T06:48:50.997Z</time></trkpt><trkpt lat="44.410810982806005" lon="12.104519969496632"><ele>1.0</ele><time>2026-04-06T06:48:51.997Z</time></trkpt><trkpt lat="44.41070821059819" lon="12.104175900284158"><ele>1.0</ele><time>2026-04-06T06:48:52.997Z</time></trkpt><trkpt lat="44.41060384549514" lon="12.103829454314667"><ele>1.0</ele><time>2026-04-06T06:48:53.997Z</time></trkpt><trkpt lat="44.410493823447" lon="12.10347728146974"><ele>0.0</ele><time>2026-04-06T06:48:54.997Z</time></trkpt><trkpt lat="44.41038140196038" lon="12.103122712934573"><ele>-1.0</ele><time>2026-04-06T06:48:55.997Z</time></trkpt><trkpt lat="44.4102745988143" lon="12.10276928607889"><ele>-1.0</ele><time>2026-04-06T06:48:56.997Z</time></trkpt><trkpt lat="44.41016705667742" lon="12.10241877680847"><ele>-1.0</ele><time>2026-04-06T06:48:57.997Z</time></trkpt><trkpt lat="44.410061517112176" lon="12.10206330199366"><ele>0.0</ele><time>2026-04-06T06:48:58.997Z</time></trkpt><trkpt lat="44.40995227416265" lon="12.101704290711774"><ele>1.0</ele><time>2026-04-06T06:48:59.997Z</time></trkpt><trkpt lat="44.40984106336961" lon="12.101347678152663"><ele>1.0</ele><time>2026-04-06T06:49:00.997Z</time></trkpt><trkpt lat="44.40973213464523" lon="12.100991701230154"><ele>1.0</ele><time>2026-04-06T06:49:01.997Z</time></trkpt><trkpt lat="44.40962314918045" lon="12.100628843785621"><ele>1.0</ele><time>2026-04-06T06:49:02.997Z</time></trkpt><trkpt lat="44.409515585045874" lon="12.100264930856492"><ele>1.0</ele><time>2026-04-06T06:49:03.997Z</time></trkpt><trkpt lat="44.40940617874564" lon="12.099897049366538"><ele>1.0</ele><time>2026-04-06T06:49:04.997Z</time></trkpt><trkpt lat="44.409294918066266" lon="12.099530289227182"><ele>1.0</ele><time>2026-04-06T06:49:05.997Z</time></trkpt><trkpt lat="44.40918436150154" lon="12.099166359275983"><ele>0.5</ele><time>2026-04-06T06:49:06.997Z</time></trkpt><trkpt lat="44.4090737950723" lon="12.09880652291997"><ele>0.0</ele><time>2026-04-06T06:49:07.997Z</time></trkpt><trkpt lat="44.40896245871039" lon="12.098445953446184"><ele>0.5</ele><time>2026-04-06T06:49:08.997Z</time></trkpt><trkpt lat="44.408850701308566" lon="12.098083035314074"><ele>1.0</ele><time>2026-04-06T06:49:09.997Z</time></trkpt><trkpt lat="44.408735811848594" lon="12.097716598277655"><ele>2.5</ele><time>2026-04-06T06:49:10.997Z</time></trkpt><trkpt lat="44.408624130844004" lon="12.097345229367583"><ele>4.0</ele><time>2026-04-06T06:49:11.997Z</time></trkpt><trkpt lat="44.40850976364849" lon="12.096976489351535"><ele>4.0</ele><time>2026-04-06T06:49:12.997Z</time></trkpt><trkpt lat="44.40839736425159" lon="12.096604240975442"><ele>4.0</ele><time>2026-04-06T06:49:13.997Z</time></trkpt><trkpt lat="44.408286313214745" lon="12.09622856144776"><ele>3.5</ele><time>2026-04-06T06:49:14.997Z</time></trkpt><trkpt lat="44.40817652558121" lon="12.095853306553078"><ele>3.0</ele><time>2026-04-06T06:49:15.997Z</time></trkpt><trkpt lat="44.40806644151498" lon="12.0954780734054"><ele>3.0</ele><time>2026-04-06T06:49:16.997Z</time></trkpt><trkpt lat="44.40795035369573" lon="12.09510556529948"><ele>3.0</ele><time>2026-04-06T06:49:17.997Z</time></trkpt><trkpt lat="44.40783536358848" lon="12.09473084069495"><ele>3.0</ele><time>2026-04-06T06:49:18.997Z</time></trkpt><trkpt lat="44.40772176319278" lon="12.094356753403863"><ele>3.0</ele><time>2026-04-06T06:49:19.997Z</time></trkpt><trkpt lat="44.40761166122431" lon="12.093986266967512"><ele>3.0</ele><time>2026-04-06T06:49:20.997Z</time></trkpt><trkpt lat="44.40749789735119" lon="12.093615339070293"><ele>3.0</ele><time>2026-04-06T06:49:21.997Z</time></trkpt><trkpt lat="44.40738468362498" lon="12.093247274691787"><ele>2.5</ele><time>2026-04-06T06:49:22.997Z</time></trkpt><trkpt lat="44.40726902562374" lon="12.092876439115145"><ele>2.0</ele><time>2026-04-06T06:49:23.997Z</time></trkpt><trkpt lat="44.4071525501491" lon="12.092504285664464"><ele>2.0</ele><time>2026-04-06T06:49:24.997Z</time></trkpt><trkpt lat="44.40704088707118" lon="12.09213573023905"><ele>2.0</ele><time>2026-04-06T06:49:25.997Z</time></trkpt><trkpt lat="44.406927736241286" lon="12.091766238637883"><ele>2.5</ele><time>2026-04-06T06:49:26.997Z</time></trkpt><trkpt lat="44.40681469018509" lon="12.091396950588585"><ele>3.0</ele><time>2026-04-06T06:49:27.997Z</time></trkpt><trkpt lat="44.406704538399026" lon="12.091026643059621"><ele>3.0</ele><time>2026-04-06T06:49:28.997Z</time></trkpt><trkpt lat="44.40659277427392" lon="12.090658128406483"><ele>3.0</ele><time>2026-04-06T06:49:29.997Z</time></trkpt><trkpt lat="44.40648092947424" lon="12.090289406620872"><ele>3.0</ele><time>2026-04-06T06:49:30.997Z</time></trkpt><trkpt lat="44.40636906287123" lon="12.089919662188413"><ele>3.0</ele><time>2026-04-06T06:49:31.997Z</time></trkpt><trkpt lat="44.40625645137297" lon="12.089549980883078"><ele>3.0</ele><time>2026-04-06T06:49:32.997Z</time></trkpt><trkpt lat="44.40614296219541" lon="12.089181729082075"><ele>3.0</ele><time>2026-04-06T06:49:33.997Z</time></trkpt><trkpt lat="44.406030288566136" lon="12.088812280267446"><ele>3.0</ele><time>2026-04-06T06:49:34.997Z</time></trkpt><trkpt lat="44.405919403445296" lon="12.08844539948428"><ele>3.0</ele><time>2026-04-06T06:49:35.997Z</time></trkpt><trkpt lat="44.40581047357688" lon="12.088080332777313"><ele>3.0</ele><time>2026-04-06T06:49:36.997Z</time></trkpt><trkpt lat="44.405693739411014" lon="12.087714103474939"><ele>3.0</ele><time>2026-04-06T06:49:37.997Z</time></trkpt><trkpt lat="44.4055855449968" lon="12.087348265679172"><ele>3.0</ele><time>2026-04-06T06:49:38.997Z</time></trkpt><trkpt lat="44.40547143410418" lon="12.086985819874283"><ele>3.0</ele><time>2026-04-06T06:49:39.997Z</time></trkpt><trkpt lat="44.405355661532155" lon="12.086620197768337"><ele>3.5</ele><time>2026-04-06T06:49:40.997Z</time></trkpt><trkpt lat="44.40524314664062" lon="12.08625368098918"><ele>4.0</ele><time>2026-04-06T06:49:41.997Z</time></trkpt><trkpt lat="44.40513128421884" lon="12.085887042892043"><ele>4.0</ele><time>2026-04-06T06:49:42.997Z</time></trkpt><trkpt lat="44.405019920162054" lon="12.085519167173043"><ele>4.0</ele><time>2026-04-06T06:49:43.997Z</time></trkpt><trkpt lat="44.40490844472762" lon="12.085150816516654"><ele>4.0</ele><time>2026-04-06T06:49:44.997Z</time></trkpt><trkpt lat="44.40479683006399" lon="12.084781648006857"><ele>4.0</ele><time>2026-04-06T06:49:45.997Z</time></trkpt><trkpt lat="44.40468433617171" lon="12.084414705068136"><ele>4.0</ele><time>2026-04-06T06:49:46.997Z</time></trkpt><trkpt lat="44.404570285726955" lon="12.08404603025987"><ele>4.0</ele><time>2026-04-06T06:49:47.997Z</time></trkpt><trkpt lat="44.40445968409704" lon="12.083679300379371"><ele>4.0</ele><time>2026-04-06T06:49:48.997Z</time></trkpt><trkpt lat="44.40434995298613" lon="12.083309678091748"><ele>4.0</ele><time>2026-04-06T06:49:49.997Z</time></trkpt><trkpt lat="44.404237702273065" lon="12.08293941772698"><ele>4.0</ele><time>2026-04-06T06:49:50.997Z</time></trkpt><trkpt lat="44.40412547530358" lon="12.082569435040142"><ele>4.0</ele><time>2026-04-06T06:49:51.997Z</time></trkpt><trkpt lat="44.40401362627551" lon="12.082199091147814"><ele>3.5</ele><time>2026-04-06T06:49:52.997Z</time></trkpt><trkpt lat="44.403900503103664" lon="12.081830893810954"><ele>3.0</ele><time>2026-04-06T06:49:53.997Z</time></trkpt><trkpt lat="44.40378596911366" lon="12.081462431801974"><ele>3.0</ele><time>2026-04-06T06:49:54.997Z</time></trkpt><trkpt lat="44.40367273332627" lon="12.08109476471168"><ele>3.0</ele><time>2026-04-06T06:49:55.997Z</time></trkpt><trkpt lat="44.403561156997796" lon="12.080729346618806"><ele>3.5</ele><time>2026-04-06T06:49:56.997Z</time></trkpt><trkpt lat="44.40344812839739" lon="12.080361680030228"><ele>4.0</ele><time>2026-04-06T06:49:57.997Z</time></trkpt><trkpt lat="44.40333578455999" lon="12.079995344851943"><ele>3.5</ele><time>2026-04-06T06:49:58.997Z</time></trkpt><trkpt lat="44.40322414304327" lon="12.07963133371057"><ele>3.0</ele><time>2026-04-06T06:49:59.997Z</time></trkpt><trkpt lat="44.40311196765492" lon="12.079267313602278"><ele>3.5</ele><time>2026-04-06T06:50:00.997Z</time></trkpt><trkpt lat="44.40300185620151" lon="12.078903948206259"><ele>4.0</ele><time>2026-04-06T06:50:01.997Z</time></trkpt><trkpt lat="44.40289195582469" lon="12.07854090093947"><ele>3.5</ele><time>2026-04-06T06:50:02.997Z</time></trkpt><trkpt lat="44.4027813749418" lon="12.078181463960032"><ele>3.0</ele><time>2026-04-06T06:50:03.997Z</time></trkpt><trkpt lat="44.40267114500743" lon="12.077820698263341"><ele>3.0</ele><time>2026-04-06T06:50:04.997Z</time></trkpt><trkpt lat="44.40256179070465" lon="12.077463282978318"><ele>3.0</ele><time>2026-04-06T06:50:05.997Z</time></trkpt><trkpt lat="44.402455611159816" lon="12.077105512542818"><ele>3.0</ele><time>2026-04-06T06:50:06.997Z</time></trkpt><trkpt lat="44.402349029961286" lon="12.076748443637205"><ele>3.0</ele><time>2026-04-06T06:50:07.997Z</time></trkpt><trkpt lat="44.4022377090603" lon="12.076387547427089"><ele>3.0</ele><time>2026-04-06T06:50:08.997Z</time></trkpt><trkpt lat="44.40212772522177" lon="12.076029979468961"><ele>3.0</ele><time>2026-04-06T06:50:09.997Z</time></trkpt><trkpt lat="44.402021195843126" lon="12.07567152584844"><ele>2.5</ele><time>2026-04-06T06:50:10.997Z</time></trkpt><trkpt lat="44.40191399534617" lon="12.075310801426626"><ele>2.0</ele><time>2026-04-06T06:50:11.997Z</time></trkpt><trkpt lat="44.40180515017223" lon="12.074957923947961"><ele>3.0</ele><time>2026-04-06T06:50:12.997Z</time></trkpt><trkpt lat="44.40169720183332" lon="12.074608962673993"><ele>4.0</ele><time>2026-04-06T06:50:13.997Z</time></trkpt><trkpt lat="44.40158841300211" lon="12.074260133040438"><ele>4.5</ele><time>2026-04-06T06:50:14.997Z</time></trkpt><trkpt lat="44.401480891568966" lon="12.073912038153555"><ele>5.0</ele><time>2026-04-06T06:50:15.997Z</time></trkpt><trkpt lat="44.40137411839107" lon="12.073562644508316"><ele>4.5</ele><time>2026-04-06T06:50:16.997Z</time></trkpt><trkpt lat="44.401267692628" lon="12.073206977869"><ele>4.0</ele><time>2026-04-06T06:50:17.997Z</time></trkpt><trkpt lat="44.4011618593706" lon="12.072848796857249"><ele>4.0</ele><time>2026-04-06T06:50:18.997Z</time></trkpt><trkpt lat="44.40105544153589" lon="12.072488689308797"><ele>4.0</ele><time>2026-04-06T06:50:19.997Z</time></trkpt><trkpt lat="44.40094768090538" lon="12.072130993936675"><ele>4.0</ele><time>2026-04-06T06:50:20.997Z</time></trkpt><trkpt lat="44.40083637683098" lon="12.071773604167882"><ele>4.0</ele><time>2026-04-06T06:50:21.997Z</time></trkpt><trkpt lat="44.400724643964246" lon="12.071418501562404"><ele>4.0</ele><time>2026-04-06T06:50:22.997Z</time></trkpt><trkpt lat="44.40061680911593" lon="12.071063447893911"><ele>4.0</ele><time>2026-04-06T06:50:23.997Z</time></trkpt><trkpt lat="44.40050767545185" lon="12.070702060433531"><ele>4.0</ele><time>2026-04-06T06:50:24.997Z</time></trkpt><trkpt lat="44.400398689047435" lon="12.07034072642015"><ele>4.0</ele><time>2026-04-06T06:50:25.997Z</time></trkpt><trkpt lat="44.40029228200527" lon="12.069980614909452"><ele>5.0</ele><time>2026-04-06T06:50:26.997Z</time></trkpt><trkpt lat="44.40018986242235" lon="12.06961471828845"><ele>6.0</ele><time>2026-04-06T06:50:27.997Z</time></trkpt><trkpt lat="44.4000916222059" lon="12.069247418710457"><ele>5.5</ele><time>2026-04-06T06:50:28.997Z</time></trkpt><trkpt lat="44.400004539288254" lon="12.06887944707481"><ele>5.0</ele><time>2026-04-06T06:50:29.997Z</time></trkpt><trkpt lat="44.39992667978927" lon="12.06850330357889"><ele>5.0</ele><time>2026-04-06T06:50:30.997Z</time></trkpt><trkpt lat="44.399858064376566" lon="12.068122663591645"><ele>5.0</ele><time>2026-04-06T06:50:31.997Z</time></trkpt><trkpt lat="44.39979765794361" lon="12.067736289982417"><ele>5.0</ele><time>2026-04-06T06:50:32.997Z</time></trkpt><trkpt lat="44.39974505256567" lon="12.067350572900285"><ele>5.0</ele><time>2026-04-06T06:50:33.997Z</time></trkpt><trkpt lat="44.399700762093715" lon="12.066965460331444"><ele>5.0</ele><time>2026-04-06T06:50:34.997Z</time></trkpt><trkpt lat="44.39966218247592" lon="12.066573382249167"><ele>5.0</ele><time>2026-04-06T06:50:35.997Z</time></trkpt><trkpt lat="44.39963642246123" lon="12.06618369996364"><ele>5.0</ele><time>2026-04-06T06:50:36.997Z</time></trkpt><trkpt lat="44.39961933926855" lon="12.065792573822456"><ele>5.0</ele><time>2026-04-06T06:50:37.997Z</time></trkpt><trkpt lat="44.39961055834975" lon="12.065401713815245"><ele>5.0</ele><time>2026-04-06T06:50:38.997Z</time></trkpt><trkpt lat="44.39961061364826" lon="12.065009684571242"><ele>5.0</ele><time>2026-04-06T06:50:39.997Z</time></trkpt><trkpt lat="44.39961800798723" lon="12.064619318813598"><ele>5.5</ele><time>2026-04-06T06:50:40.997Z</time></trkpt><trkpt lat="44.39963528772086" lon="12.064228551388753"><ele>6.0</ele><time>2026-04-06T06:50:41.997Z</time></trkpt><trkpt lat="44.39966076697664" lon="12.06383649753768"><ele>6.5</ele><time>2026-04-06T06:50:42.997Z</time></trkpt><trkpt lat="44.39969547133158" lon="12.063448505385248"><ele>7.0</ele><time>2026-04-06T06:50:43.997Z</time></trkpt><trkpt lat="44.39973889033511" lon="12.063061282552479"><ele>7.0</ele><time>2026-04-06T06:50:44.997Z</time></trkpt><trkpt lat="44.39978529915222" lon="12.062688110446672"><ele>7.0</ele><time>2026-04-06T06:50:45.997Z</time></trkpt><trkpt lat="44.399843026544865" lon="12.062304161362645"><ele>6.5</ele><time>2026-04-06T06:50:46.997Z</time></trkpt><trkpt lat="44.39990802081432" lon="12.06192103437698"><ele>6.0</ele><time>2026-04-06T06:50:47.997Z</time></trkpt><trkpt lat="44.39997858884928" lon="12.06153554365526"><ele>6.0</ele><time>2026-04-06T06:50:48.997Z</time></trkpt><trkpt lat="44.40004578677618" lon="12.061151726035535"><ele>6.0</ele><time>2026-04-06T06:50:49.997Z</time></trkpt><trkpt lat="44.400112090848324" lon="12.060768208953682"><ele>6.0</ele><time>2026-04-06T06:50:50.997Z</time></trkpt><trkpt lat="44.40017818377453" lon="12.060385896411159"><ele>6.0</ele><time>2026-04-06T06:50:51.997Z</time></trkpt><trkpt lat="44.40024493220432" lon="12.06000605164633"><ele>6.0</ele><time>2026-04-06T06:50:52.997Z</time></trkpt><trkpt lat="44.40031063766127" lon="12.059621071006664"><ele>6.0</ele><time>2026-04-06T06:50:53.997Z</time></trkpt><trkpt lat="44.400376932351946" lon="12.059239895582174"><ele>5.5</ele><time>2026-04-06T06:50:54.997Z</time></trkpt><trkpt lat="44.40044235362845" lon="12.05885837332766"><ele>5.0</ele><time>2026-04-06T06:50:55.997Z</time></trkpt><trkpt lat="44.40050720989018" lon="12.058475780841823"><ele>5.0</ele><time>2026-04-06T06:50:56.997Z</time></trkpt><trkpt lat="44.400569484608496" lon="12.058094652039202"><ele>5.0</ele><time>2026-04-06T06:50:57.997Z</time></trkpt><trkpt lat="44.4006335980129" lon="12.057709758825375"><ele>5.5</ele><time>2026-04-06T06:50:58.997Z</time></trkpt><trkpt lat="44.40069835284653" lon="12.057327591884833"><ele>6.0</ele><time>2026-04-06T06:50:59.997Z</time></trkpt><trkpt lat="44.40076382593531" lon="12.05694609323038"><ele>6.0</ele><time>2026-04-06T06:51:00.997Z</time></trkpt><trkpt lat="44.40082978140145" lon="12.056564565373371"><ele>6.0</ele><time>2026-04-06T06:51:01.997Z</time></trkpt><trkpt lat="44.400895480441385" lon="12.056181764013246"><ele>6.0</ele><time>2026-04-06T06:51:02.997Z</time></trkpt><trkpt lat="44.40096110367095" lon="12.055798905154182"><ele>6.0</ele><time>2026-04-06T06:51:03.997Z</time></trkpt><trkpt lat="44.401024528923806" lon="12.055416076813179"><ele>5.5</ele><time>2026-04-06T06:51:04.997Z</time></trkpt><trkpt lat="44.40108726171671" lon="12.055034849336595"><ele>5.0</ele><time>2026-04-06T06:51:05.997Z</time></trkpt><trkpt lat="44.40114832993336" lon="12.05465559840396"><ele>5.0</ele><time>2026-04-06T06:51:06.997Z</time></trkpt><trkpt lat="44.40121335410013" lon="12.054277191665706"><ele>5.0</ele><time>2026-04-06T06:51:07.997Z</time></trkpt><trkpt lat="44.40127844702733" lon="12.053897125356913"><ele>5.5</ele><time>2026-04-06T06:51:08.997Z</time></trkpt><trkpt lat="44.40134373235696" lon="12.053518512692605"><ele>6.0</ele><time>2026-04-06T06:51:09.997Z</time></trkpt><trkpt lat="44.40141151587009" lon="12.053129559744852"><ele>6.0</ele><time>2026-04-06T06:51:10.997Z</time></trkpt><trkpt lat="44.4014723411615" lon="12.052748110880454"><ele>6.0</ele><time>2026-04-06T06:51:11.997Z</time></trkpt><trkpt lat="44.40153766687496" lon="12.05236794239878"><ele>6.0</ele><time>2026-04-06T06:51:12.997Z</time></trkpt><trkpt lat="44.401602495492305" lon="12.051986299736173"><ele>6.0</ele><time>2026-04-06T06:51:13.997Z</time></trkpt><trkpt lat="44.401668856118214" lon="12.051599806002939"><ele>6.0</ele><time>2026-04-06T06:51:14.997Z</time></trkpt><trkpt lat="44.40173231437057" lon="12.051214598230807"><ele>6.0</ele><time>2026-04-06T06:51:15.997Z</time></trkpt><trkpt lat="44.40179482170895" lon="12.050833939928008"><ele>6.5</ele><time>2026-04-06T06:51:16.997Z</time></trkpt><trkpt lat="44.401854296736104" lon="12.050449745629473"><ele>7.0</ele><time>2026-04-06T06:51:17.996Z</time></trkpt><trkpt lat="44.40191266059804" lon="12.050066418011111"><ele>6.0</ele><time>2026-04-06T06:51:18.996Z</time></trkpt><trkpt lat="44.40197315313427" lon="12.049679792988652"><ele>5.0</ele><time>2026-04-06T06:51:19.996Z</time></trkpt><trkpt lat="44.4020357973471" lon="12.04929002056294"><ele>5.5</ele><time>2026-04-06T06:51:20.996Z</time></trkpt><trkpt lat="44.40210120465879" lon="12.048901411954171"><ele>6.0</ele><time>2026-04-06T06:51:21.996Z</time></trkpt><trkpt lat="44.402169083912405" lon="12.048513805926778"><ele>6.5</ele><time>2026-04-06T06:51:22.996Z</time></trkpt><trkpt lat="44.40223637932567" lon="12.04812098669873"><ele>7.0</ele><time>2026-04-06T06:51:23.996Z</time></trkpt><trkpt lat="44.40230003866224" lon="12.047730776904016"><ele>7.0</ele><time>2026-04-06T06:51:24.996Z</time></trkpt><trkpt lat="44.40236685333877" lon="12.047345425205163"><ele>7.0</ele><time>2026-04-06T06:51:25.996Z</time></trkpt><trkpt lat="44.40243560553562" lon="12.046957077075353"><ele>7.0</ele><time>2026-04-06T06:51:26.996Z</time></trkpt><trkpt lat="44.4025069521215" lon="12.046566950107028"><ele>7.0</ele><time>2026-04-06T06:51:27.996Z</time></trkpt><trkpt lat="44.40257589929639" lon="12.046172841503832"><ele>6.5</ele><time>2026-04-06T06:51:28.996Z</time></trkpt><trkpt lat="44.40264879210537" lon="12.045777797988078"><ele>6.0</ele><time>2026-04-06T06:51:29.996Z</time></trkpt><trkpt lat="44.402718478842125" lon="12.045380706389599"><ele>6.0</ele><time>2026-04-06T06:51:30.996Z</time></trkpt><trkpt lat="44.40279003701753" lon="12.044989397924038"><ele>6.0</ele><time>2026-04-06T06:51:31.996Z</time></trkpt><trkpt lat="44.40285731129527" lon="12.044594451461487"><ele>6.0</ele><time>2026-04-06T06:51:32.996Z</time></trkpt><trkpt lat="44.40292249353518" lon="12.044199398959774"><ele>6.0</ele><time>2026-04-06T06:51:33.996Z</time></trkpt><trkpt lat="44.40298743745653" lon="12.043804693034165"><ele>6.0</ele><time>2026-04-06T06:51:34.996Z</time></trkpt><trkpt lat="44.40305551714002" lon="12.043414169410253"><ele>6.0</ele><time>2026-04-06T06:51:35.996Z</time></trkpt><trkpt lat="44.40312592887698" lon="12.04302413341129"><ele>6.0</ele><time>2026-04-06T06:51:36.996Z</time></trkpt><trkpt lat="44.40319607199189" lon="12.042634841793772"><ele>6.0</ele><time>2026-04-06T06:51:37.996Z</time></trkpt><trkpt lat="44.40326252909377" lon="12.04224589400559"><ele>6.0</ele><time>2026-04-06T06:51:38.996Z</time></trkpt><trkpt lat="44.403327646033944" lon="12.041854301021939"><ele>6.0</ele><time>2026-04-06T06:51:39.996Z</time></trkpt><trkpt lat="44.40339218252892" lon="12.041467841980356"><ele>5.5</ele><time>2026-04-06T06:51:40.996Z</time></trkpt><trkpt lat="44.40345733435556" lon="12.04108344635673"><ele>5.0</ele><time>2026-04-06T06:51:41.996Z</time></trkpt><trkpt lat="44.40351947021206" lon="12.04069087539549"><ele>5.0</ele><time>2026-04-06T06:51:42.996Z</time></trkpt><trkpt lat="44.40358504726879" lon="12.040306904463813"><ele>5.0</ele><time>2026-04-06T06:51:43.996Z</time></trkpt><trkpt lat="44.403648156669774" lon="12.03991748228142"><ele>5.0</ele><time>2026-04-06T06:51:44.996Z</time></trkpt><trkpt lat="44.40371493179722" lon="12.03953069904649"><ele>5.0</ele><time>2026-04-06T06:51:45.996Z</time></trkpt><trkpt lat="44.403782284633216" lon="12.039146858630437"><ele>6.5</ele><time>2026-04-06T06:51:46.996Z</time></trkpt><trkpt lat="44.403848393194515" lon="12.038761519299584"><ele>8.0</ele><time>2026-04-06T06:51:47.996Z</time></trkpt><trkpt lat="44.40391477640404" lon="12.038375859272291"><ele>8.0</ele><time>2026-04-06T06:51:48.996Z</time></trkpt><trkpt lat="44.403981955769396" lon="12.037989734093404"><ele>8.0</ele><time>2026-04-06T06:51:49.996Z</time></trkpt><trkpt lat="44.40404750869166" lon="12.037605605109839"><ele>7.0</ele><time>2026-04-06T06:51:50.996Z</time></trkpt><trkpt lat="44.404110859168846" lon="12.037220400847579"><ele>6.0</ele><time>2026-04-06T06:51:51.996Z</time></trkpt><trkpt lat="44.404175441316696" lon="12.036839467064393"><ele>6.5</ele><time>2026-04-06T06:51:52.996Z</time></trkpt><trkpt lat="44.40424041041495" lon="12.03645633246713"><ele>7.0</ele><time>2026-04-06T06:51:53.996Z</time></trkpt><trkpt lat="44.40430702369776" lon="12.036075037112758"><ele>7.5</ele><time>2026-04-06T06:51:54.996Z</time></trkpt><trkpt lat="44.40437249686886" lon="12.035690679626041"><ele>8.0</ele><time>2026-04-06T06:51:55.996Z</time></trkpt><trkpt lat="44.40444216354234" lon="12.035314087878561"><ele>8.0</ele><time>2026-04-06T06:51:56.996Z</time></trkpt><trkpt lat="44.40450951311529" lon="12.03492908398312"><ele>8.0</ele><time>2026-04-06T06:51:57.996Z</time></trkpt><trkpt lat="44.404575300369714" lon="12.034547932449357"><ele>8.0</ele><time>2026-04-06T06:51:58.996Z</time></trkpt><trkpt lat="44.404636642142975" lon="12.034169038419622"><ele>8.0</ele><time>2026-04-06T06:51:59.996Z</time></trkpt><trkpt lat="44.40469797853795" lon="12.033788771272748"><ele>7.5</ele><time>2026-04-06T06:52:00.996Z</time></trkpt><trkpt lat="44.40475982856996" lon="12.033410074684419"><ele>7.0</ele><time>2026-04-06T06:52:01.996Z</time></trkpt><trkpt lat="44.404823560942624" lon="12.033031892483882"><ele>7.0</ele><time>2026-04-06T06:52:02.996Z</time></trkpt><trkpt lat="44.40488614891814" lon="12.032652703230458"><ele>7.0</ele><time>2026-04-06T06:52:03.996Z</time></trkpt><trkpt lat="44.40494922767521" lon="12.032277432796771"><ele>7.0</ele><time>2026-04-06T06:52:04.996Z</time></trkpt><trkpt lat="44.40501177446374" lon="12.031899839990693"><ele>7.0</ele><time>2026-04-06T06:52:05.996Z</time></trkpt><trkpt lat="44.405074951511814" lon="12.031520514639494"><ele>7.0</ele><time>2026-04-06T06:52:06.996Z</time></trkpt><trkpt lat="44.405139485875644" lon="12.031138769333111"><ele>7.0</ele><time>2026-04-06T06:52:07.996Z</time></trkpt><trkpt lat="44.4052035613145" lon="12.030755784176977"><ele>7.0</ele><time>2026-04-06T06:52:08.996Z</time></trkpt><trkpt lat="44.40526842636303" lon="12.030370075824285"><ele>7.0</ele><time>2026-04-06T06:52:09.996Z</time></trkpt><trkpt lat="44.40533310188113" lon="12.029983073473602"><ele>8.0</ele><time>2026-04-06T06:52:10.996Z</time></trkpt><trkpt lat="44.40539781533206" lon="12.029596562331262"><ele>9.0</ele><time>2026-04-06T06:52:11.996Z</time></trkpt><trkpt lat="44.405462506490906" lon="12.029210421179075"><ele>10.5</ele><time>2026-04-06T06:52:12.996Z</time></trkpt><trkpt lat="44.40552975015621" lon="12.028826051793796"><ele>12.0</ele><time>2026-04-06T06:52:13.996Z</time></trkpt><trkpt lat="44.40559649974313" lon="12.028439976139717"><ele>12.0</ele><time>2026-04-06T06:52:14.996Z</time></trkpt><trkpt lat="44.4056627217493" lon="12.028056893693499"><ele>12.0</ele><time>2026-04-06T06:52:15.996Z</time></trkpt><trkpt lat="44.40572824715848" lon="12.027672434249626"><ele>11.5</ele><time>2026-04-06T06:52:16.996Z</time></trkpt><trkpt lat="44.405794083401446" lon="12.027288340244265"><ele>11.0</ele><time>2026-04-06T06:52:17.996Z</time></trkpt><trkpt lat="44.40585969641839" lon="12.026906152559127"><ele>9.5</ele><time>2026-04-06T06:52:18.996Z</time></trkpt><trkpt lat="44.405923523769836" lon="12.026519568671043"><ele>8.0</ele><time>2026-04-06T06:52:19.996Z</time></trkpt><trkpt lat="44.405987274685" lon="12.026132609895095"><ele>8.0</ele><time>2026-04-06T06:52:20.996Z</time></trkpt><trkpt lat="44.406050347370474" lon="12.02574352690282"><ele>8.0</ele><time>2026-04-06T06:52:21.996Z</time></trkpt><trkpt lat="44.406115650976055" lon="12.02535028099213"><ele>8.0</ele><time>2026-04-06T06:52:22.996Z</time></trkpt><trkpt lat="44.40618268038781" lon="12.024959216741111"><ele>8.0</ele><time>2026-04-06T06:52:23.996Z</time></trkpt><trkpt lat="44.40624878685319" lon="12.024563819847229"><ele>8.0</ele><time>2026-04-06T06:52:24.996Z</time></trkpt><trkpt lat="44.40631556011569" lon="12.024167915170338"><ele>8.0</ele><time>2026-04-06T06:52:25.996Z</time></trkpt><trkpt lat="44.40638199746806" lon="12.023771602432904"><ele>8.5</ele><time>2026-04-06T06:52:26.996Z</time></trkpt><trkpt lat="44.40644541206637" lon="12.023376600919976"><ele>9.0</ele><time>2026-04-06T06:52:27.996Z</time></trkpt><trkpt lat="44.40651142791825" lon="12.022981434499432"><ele>9.0</ele><time>2026-04-06T06:52:28.996Z</time></trkpt><trkpt lat="44.406577983411054" lon="12.022582429584428"><ele>9.0</ele><time>2026-04-06T06:52:29.996Z</time></trkpt><trkpt lat="44.40664586358525" lon="12.022185460048213"><ele>8.0</ele><time>2026-04-06T06:52:30.996Z</time></trkpt><trkpt lat="44.40671387742286" lon="12.021786750442995"><ele>7.0</ele><time>2026-04-06T06:52:31.996Z</time></trkpt><trkpt lat="44.40678287124209" lon="12.021390917267023"><ele>6.5</ele><time>2026-04-06T06:52:32.996Z</time></trkpt><trkpt lat="44.40685099867839" lon="12.020995863978381"><ele>6.0</ele><time>2026-04-06T06:52:33.996Z</time></trkpt><trkpt lat="44.40691896644114" lon="12.020597759518271"><ele>6.0</ele><time>2026-04-06T06:52:34.996Z</time></trkpt><trkpt lat="44.40698638514432" lon="12.02019972753299"><ele>6.0</ele><time>2026-04-06T06:52:35.996Z</time></trkpt><trkpt lat="44.40705198029302" lon="12.019798940678653"><ele>6.0</ele><time>2026-04-06T06:52:36.996Z</time></trkpt><trkpt lat="44.407119456947626" lon="12.019402773549023"><ele>6.0</ele><time>2026-04-06T06:52:37.996Z</time></trkpt><trkpt lat="44.40718468300693" lon="12.019006641052803"><ele>6.0</ele><time>2026-04-06T06:52:38.996Z</time></trkpt><trkpt lat="44.40724846877712" lon="12.018611544357729"><ele>6.0</ele><time>2026-04-06T06:52:39.996Z</time></trkpt><trkpt lat="44.40730610152129" lon="12.018214690465427"><ele>6.0</ele><time>2026-04-06T06:52:40.996Z</time></trkpt><trkpt lat="44.40735878415161" lon="12.017814055370009"><ele>6.0</ele><time>2026-04-06T06:52:41.996Z</time></trkpt><trkpt lat="44.407406866729566" lon="12.0174082921112"><ele>6.0</ele><time>2026-04-06T06:52:42.996Z</time></trkpt><trkpt lat="44.40745106336107" lon="12.017003541579136"><ele>6.0</ele><time>2026-04-06T06:52:43.996Z</time></trkpt><trkpt lat="44.40748828943181" lon="12.016595507870669"><ele>6.5</ele><time>2026-04-06T06:52:44.996Z</time></trkpt><trkpt lat="44.407518595620715" lon="12.016181298074686"><ele>7.0</ele><time>2026-04-06T06:52:45.996Z</time></trkpt><trkpt lat="44.407546331458065" lon="12.015768881857316"><ele>7.0</ele><time>2026-04-06T06:52:46.996Z</time></trkpt><trkpt lat="44.40756978895358" lon="12.01535274085675"><ele>7.0</ele><time>2026-04-06T06:52:47.996Z</time></trkpt><trkpt lat="44.40758565844146" lon="12.01493438116189"><ele>7.0</ele><time>2026-04-06T06:52:48.996Z</time></trkpt><trkpt lat="44.40760080269215" lon="12.01452045501577"><ele>7.0</ele><time>2026-04-06T06:52:49.996Z</time></trkpt><trkpt lat="44.407610633731345" lon="12.014102833752203"><ele>6.5</ele><time>2026-04-06T06:52:50.996Z</time></trkpt><trkpt lat="44.40761359292608" lon="12.013685908379914"><ele>6.0</ele><time>2026-04-06T06:52:51.996Z</time></trkpt><trkpt lat="44.407614649801026" lon="12.013270435033306"><ele>6.0</ele><time>2026-04-06T06:52:52.996Z</time></trkpt><trkpt lat="44.40760710690601" lon="12.012851271132424"><ele>6.0</ele><time>2026-04-06T06:52:53.996Z</time></trkpt><trkpt lat="44.40759333674273" lon="12.01243844965611"><ele>6.0</ele><time>2026-04-06T06:52:54.996Z</time></trkpt><trkpt lat="44.40757464080178" lon="12.012026377112871"><ele>6.0</ele><time>2026-04-06T06:52:55.996Z</time></trkpt><trkpt lat="44.40755646975157" lon="12.011620800758402"><ele>6.5</ele><time>2026-04-06T06:52:56.996Z</time></trkpt><trkpt lat="44.40752870020876" lon="12.011215107651191"><ele>7.0</ele><time>2026-04-06T06:52:57.996Z</time></trkpt><trkpt lat="44.40749670951196" lon="12.010806826733544"><ele>7.0</ele><time>2026-04-06T06:52:58.996Z</time></trkpt><trkpt lat="44.407463358925234" lon="12.010398920415271"><ele>7.0</ele><time>2026-04-06T06:52:59.996Z</time></trkpt><trkpt lat="44.40743086305565" lon="12.009991125754688"><ele>6.0</ele><time>2026-04-06T06:53:00.996Z</time></trkpt><trkpt lat="44.40739265853099" lon="12.009585863912138"><ele>5.0</ele><time>2026-04-06T06:53:01.996Z</time></trkpt><trkpt lat="44.40735509146793" lon="12.009179860164545"><ele>4.5</ele><time>2026-04-06T06:53:02.996Z</time></trkpt><trkpt lat="44.40731949591385" lon="12.008775419647309"><ele>4.0</ele><time>2026-04-06T06:53:03.996Z</time></trkpt><trkpt lat="44.40728409482972" lon="12.00836896291868"><ele>4.0</ele><time>2026-04-06T06:53:04.996Z</time></trkpt><trkpt lat="44.4072470632577" lon="12.007958682683809"><ele>4.0</ele><time>2026-04-06T06:53:05.996Z</time></trkpt><trkpt lat="44.40720673902722" lon="12.007545103373664"><ele>5.0</ele><time>2026-04-06T06:53:06.996Z</time></trkpt><trkpt lat="44.407168289297815" lon="12.007135277981323"><ele>6.0</ele><time>2026-04-06T06:53:07.996Z</time></trkpt><trkpt lat="44.40713143507482" lon="12.006724232037923"><ele>6.5</ele><time>2026-04-06T06:53:08.996Z</time></trkpt><trkpt lat="44.40709556203829" lon="12.006312965107734"><ele>7.0</ele><time>2026-04-06T06:53:09.996Z</time></trkpt><trkpt lat="44.40706024021063" lon="12.005902034838076"><ele>7.5</ele><time>2026-04-06T06:53:10.996Z</time></trkpt><trkpt lat="44.40702397569452" lon="12.005492308248092"><ele>8.0</ele><time>2026-04-06T06:53:11.996Z</time></trkpt><trkpt lat="44.406986749899566" lon="12.005081635918938"><ele>8.5</ele><time>2026-04-06T06:53:12.996Z</time></trkpt><trkpt lat="44.406949731965895" lon="12.004676348393696"><ele>9.0</ele><time>2026-04-06T06:53:13.996Z</time></trkpt><trkpt lat="44.406912763814525" lon="12.004273557844593"><ele>9.0</ele><time>2026-04-06T06:53:14.996Z</time></trkpt><trkpt lat="44.40687556061713" lon="12.003865796880293"><ele>9.0</ele><time>2026-04-06T06:53:15.996Z</time></trkpt><trkpt lat="44.40684035863097" lon="12.00345721743637"><ele>9.0</ele><time>2026-04-06T06:53:16.996Z</time></trkpt><trkpt lat="44.40680336580185" lon="12.00304962684505"><ele>9.0</ele><time>2026-04-06T06:53:17.996Z</time></trkpt><trkpt lat="44.406768734985874" lon="12.00264402209442"><ele>8.5</ele><time>2026-04-06T06:53:18.996Z</time></trkpt><trkpt lat="44.406734062853346" lon="12.002235291670505"><ele>8.0</ele><time>2026-04-06T06:53:19.996Z</time></trkpt><trkpt lat="44.406696947651895" lon="12.00182404229098"><ele>7.5</ele><time>2026-04-06T06:53:20.996Z</time></trkpt><trkpt lat="44.40665955079398" lon="12.001415388604707"><ele>7.0</ele><time>2026-04-06T06:53:21.996Z</time></trkpt><trkpt lat="44.406621535325385" lon="12.00100485316822"><ele>8.0</ele><time>2026-04-06T06:53:22.996Z</time></trkpt><trkpt lat="44.40658360449276" lon="12.000591745271526"><ele>9.0</ele><time>2026-04-06T06:53:23.996Z</time></trkpt><trkpt lat="44.40654604172897" lon="12.000178671905637"><ele>9.0</ele><time>2026-04-06T06:53:24.996Z</time></trkpt><trkpt lat="44.40650885283677" lon="11.999764660634483"><ele>9.0</ele><time>2026-04-06T06:53:25.996Z</time></trkpt><trkpt lat="44.406470957182975" lon="11.999349613984826"><ele>9.0</ele><time>2026-04-06T06:53:26.996Z</time></trkpt><trkpt lat="44.4064330107717" lon="11.998935146104625"><ele>9.0</ele><time>2026-04-06T06:53:27.996Z</time></trkpt><trkpt lat="44.40639392362297" lon="11.998520011130513"><ele>8.5</ele><time>2026-04-06T06:53:28.996Z</time></trkpt><trkpt lat="44.40635511487463" lon="11.9981049006635"><ele>8.0</ele><time>2026-04-06T06:53:29.996Z</time></trkpt><trkpt lat="44.40631753100622" lon="11.997688340057183"><ele>8.5</ele><time>2026-04-06T06:53:30.996Z</time></trkpt><trkpt lat="44.40627948805193" lon="11.997270915765883"><ele>9.0</ele><time>2026-04-06T06:53:31.996Z</time></trkpt><trkpt lat="44.406242599381805" lon="11.996851440144054"><ele>8.5</ele><time>2026-04-06T06:53:32.996Z</time></trkpt><trkpt lat="44.406203982383474" lon="11.996428640417008"><ele>8.0</ele><time>2026-04-06T06:53:33.996Z</time></trkpt><trkpt lat="44.40616601774568" lon="11.996010804223703"><ele>7.5</ele><time>2026-04-06T06:53:34.996Z</time></trkpt><trkpt lat="44.4061263940617" lon="11.995592283249083"><ele>7.0</ele><time>2026-04-06T06:53:35.996Z</time></trkpt><trkpt lat="44.406087931322766" lon="11.995174625131332"><ele>7.0</ele><time>2026-04-06T06:53:36.996Z</time></trkpt><trkpt lat="44.40604957761423" lon="11.994757043188436"><ele>7.0</ele><time>2026-04-06T06:53:37.996Z</time></trkpt><trkpt lat="44.40601018689875" lon="11.994338139821439"><ele>6.5</ele><time>2026-04-06T06:53:38.996Z</time></trkpt><trkpt lat="44.40597127595456" lon="11.993922141152575"><ele>6.0</ele><time>2026-04-06T06:53:39.996Z</time></trkpt><trkpt lat="44.40593271689663" lon="11.993507753497775"><ele>5.5</ele><time>2026-04-06T06:53:40.996Z</time></trkpt><trkpt lat="44.40589403085186" lon="11.99309356816491"><ele>5.0</ele><time>2026-04-06T06:53:41.996Z</time></trkpt><trkpt lat="44.40585643069673" lon="11.992678243812593"><ele>5.5</ele><time>2026-04-06T06:53:42.996Z</time></trkpt><trkpt lat="44.40582047357613" lon="11.992260609020793"><ele>6.0</ele><time>2026-04-06T06:53:43.996Z</time></trkpt><trkpt lat="44.40578462096888" lon="11.991843165384642"><ele>7.5</ele><time>2026-04-06T06:53:44.996Z</time></trkpt><trkpt lat="44.40574909947758" lon="11.991424855202128"><ele>9.0</ele><time>2026-04-06T06:53:45.996Z</time></trkpt><trkpt lat="44.405713257772376" lon="11.99100859770458"><ele>9.5</ele><time>2026-04-06T06:53:46.996Z</time></trkpt><trkpt lat="44.405675774942715" lon="11.990590942215734"><ele>10.0</ele><time>2026-04-06T06:53:47.996Z</time></trkpt><trkpt lat="44.40563790335582" lon="11.990175371732292"><ele>9.5</ele><time>2026-04-06T06:53:48.996Z</time></trkpt><trkpt lat="44.40560005734042" lon="11.98975795618901"><ele>9.0</ele><time>2026-04-06T06:53:49.996Z</time></trkpt><trkpt lat="44.405560911642034" lon="11.989340945428136"><ele>9.0</ele><time>2026-04-06T06:53:50.996Z</time></trkpt><trkpt lat="44.40552208191162" lon="11.988925057587425"><ele>9.0</ele><time>2026-04-06T06:53:51.996Z</time></trkpt><trkpt lat="44.405485366733636" lon="11.988508757417327"><ele>9.5</ele><time>2026-04-06T06:53:52.996Z</time></trkpt><trkpt lat="44.405450571485325" lon="11.988093747595924"><ele>10.0</ele><time>2026-04-06T06:53:53.996Z</time></trkpt><trkpt lat="44.405413736353644" lon="11.98767754605364"><ele>9.5</ele><time>2026-04-06T06:53:54.996Z</time></trkpt><trkpt lat="44.40537440864792" lon="11.98726092182678"><ele>9.0</ele><time>2026-04-06T06:53:55.996Z</time></trkpt><trkpt lat="44.405336269611134" lon="11.986847434710484"><ele>9.0</ele><time>2026-04-06T06:53:56.996Z</time></trkpt><trkpt lat="44.405298044544416" lon="11.986433332953181"><ele>9.0</ele><time>2026-04-06T06:53:57.996Z</time></trkpt><trkpt lat="44.40525971458671" lon="11.986021012986843"><ele>8.5</ele><time>2026-04-06T06:53:58.996Z</time></trkpt><trkpt lat="44.405223238578664" lon="11.985609229644645"><ele>8.0</ele><time>2026-04-06T06:53:59.996Z</time></trkpt><trkpt lat="44.40518693723673" lon="11.985197288783304"><ele>8.0</ele><time>2026-04-06T06:54:00.996Z</time></trkpt><trkpt lat="44.40514904912357" lon="11.984787000414958"><ele>8.0</ele><time>2026-04-06T06:54:01.996Z</time></trkpt><trkpt lat="44.4051102459692" lon="11.984377111496629"><ele>7.5</ele><time>2026-04-06T06:54:02.996Z</time></trkpt><trkpt lat="44.405073132215165" lon="11.983968190124553"><ele>7.0</ele><time>2026-04-06T06:54:03.996Z</time></trkpt><trkpt lat="44.40503553570772" lon="11.983559676435863"><ele>7.5</ele><time>2026-04-06T06:54:04.996Z</time></trkpt><trkpt lat="44.40499822400888" lon="11.983152239058724"><ele>8.0</ele><time>2026-04-06T06:54:05.996Z</time></trkpt><trkpt lat="44.40496156928764" lon="11.982742039124194"><ele>7.5</ele><time>2026-04-06T06:54:06.996Z</time></trkpt><trkpt lat="44.40492551373513" lon="11.982335174848684"><ele>7.0</ele><time>2026-04-06T06:54:07.996Z</time></trkpt><trkpt lat="44.40488861124819" lon="11.981925330110888"><ele>7.5</ele><time>2026-04-06T06:54:08.996Z</time></trkpt><trkpt lat="44.40484884249031" lon="11.981509620651625"><ele>8.0</ele><time>2026-04-06T06:54:09.996Z</time></trkpt><trkpt lat="44.404811786459966" lon="11.981097262187598"><ele>8.0</ele><time>2026-04-06T06:54:10.996Z</time></trkpt><trkpt lat="44.40477423318722" lon="11.98068679062368"><ele>8.0</ele><time>2026-04-06T06:54:11.996Z</time></trkpt><trkpt lat="44.40473663289917" lon="11.980274392026196"><ele>8.0</ele><time>2026-04-06T06:54:12.996Z</time></trkpt><trkpt lat="44.40470046940066" lon="11.979866645321993"><ele>8.0</ele><time>2026-04-06T06:54:13.996Z</time></trkpt><trkpt lat="44.404661693831194" lon="11.979455980878951"><ele>8.0</ele><time>2026-04-06T06:54:14.996Z</time></trkpt><trkpt lat="44.40462594957156" lon="11.979048220747526"><ele>8.0</ele><time>2026-04-06T06:54:15.996Z</time></trkpt><trkpt lat="44.404588254890264" lon="11.97864467436921"><ele>8.5</ele><time>2026-04-06T06:54:16.996Z</time></trkpt><trkpt lat="44.404546316232086" lon="11.978242529220344"><ele>9.0</ele><time>2026-04-06T06:54:17.996Z</time></trkpt><trkpt lat="44.40449754067699" lon="11.977838905355702"><ele>9.5</ele><time>2026-04-06T06:54:18.996Z</time></trkpt><trkpt lat="44.40444465201722" lon="11.977439667182663"><ele>10.0</ele><time>2026-04-06T06:54:19.996Z</time></trkpt><trkpt lat="44.40438633684141" lon="11.97704508669347"><ele>10.5</ele><time>2026-04-06T06:54:20.996Z</time></trkpt><trkpt lat="44.40432782454041" lon="11.976651357803766"><ele>11.0</ele><time>2026-04-06T06:54:21.996Z</time></trkpt><trkpt lat="44.40426428979646" lon="11.976256169204339"><ele>11.0</ele><time>2026-04-06T06:54:22.996Z</time></trkpt><trkpt lat="44.40419259181482" lon="11.97586143632586"><ele>11.0</ele><time>2026-04-06T06:54:23.996Z</time></trkpt><trkpt lat="44.40411603547467" lon="11.975471140825878"><ele>11.0</ele><time>2026-04-06T06:54:24.996Z</time></trkpt><trkpt lat="44.40403181667093" lon="11.975083320034123"><ele>11.0</ele><time>2026-04-06T06:54:25.996Z</time></trkpt><trkpt lat="44.403942132676384" lon="11.974694109833495"><ele>11.0</ele><time>2026-04-06T06:54:26.996Z</time></trkpt><trkpt lat="44.403851112755156" lon="11.974308204866478"><ele>11.0</ele><time>2026-04-06T06:54:27.996Z</time></trkpt><trkpt lat="44.403757511108836" lon="11.973929534912296"><ele>11.5</ele><time>2026-04-06T06:54:28.996Z</time></trkpt><trkpt lat="44.403659296318" lon="11.973551953316457"><ele>12.0</ele><time>2026-04-06T06:54:29.996Z</time></trkpt><trkpt lat="44.40356058431049" lon="11.973180711643879"><ele>11.5</ele><time>2026-04-06T06:54:30.996Z</time></trkpt><trkpt lat="44.40345857492084" lon="11.972817798824941"><ele>11.0</ele><time>2026-04-06T06:54:31.996Z</time></trkpt><trkpt lat="44.40335112044527" lon="11.972461312173817"><ele>11.0</ele><time>2026-04-06T06:54:32.996Z</time></trkpt><trkpt lat="44.40324451448475" lon="11.972110553042992"><ele>11.0</ele><time>2026-04-06T06:54:33.996Z</time></trkpt><trkpt lat="44.40314099262843" lon="11.971781944867963"><ele>10.5</ele><time>2026-04-06T06:54:34.996Z</time></trkpt><trkpt lat="44.40304399968292" lon="11.971465292850814"><ele>10.0</ele><time>2026-04-06T06:54:35.996Z</time></trkpt><trkpt lat="44.40295526322961" lon="11.971165358848822"><ele>10.0</ele><time>2026-04-06T06:54:36.996Z</time></trkpt><trkpt lat="44.402869344752055" lon="11.970882720165047"><ele>10.0</ele><time>2026-04-06T06:54:37.996Z</time></trkpt><trkpt lat="44.40279302545372" lon="11.970623858454195"><ele>10.0</ele><time>2026-04-06T06:54:38.996Z</time></trkpt><trkpt lat="44.40272155682864" lon="11.9703809169809"><ele>10.0</ele><time>2026-04-06T06:54:39.996Z</time></trkpt><trkpt lat="44.40265940874831" lon="11.970131221262255"><ele>10.0</ele><time>2026-04-06T06:54:40.996Z</time></trkpt><trkpt lat="44.40262443423784" lon="11.969882989831177"><ele>10.0</ele><time>2026-04-06T06:54:41.996Z</time></trkpt><trkpt lat="44.40261630289797" lon="11.969622390865277"><ele>10.0</ele><time>2026-04-06T06:54:42.996Z</time></trkpt><trkpt lat="44.40263671150159" lon="11.969369519408577"><ele>10.0</ele><time>2026-04-06T06:54:43.996Z</time></trkpt><trkpt lat="44.40268867393476" lon="11.96912459156653"><ele>10.0</ele><time>2026-04-06T06:54:44.996Z</time></trkpt><trkpt lat="44.40277071154947" lon="11.968886881130976"><ele>10.0</ele><time>2026-04-06T06:54:45.996Z</time></trkpt><trkpt lat="44.40288190189183" lon="11.968670265582087"><ele>10.0</ele><time>2026-04-06T06:54:46.996Z</time></trkpt><trkpt lat="44.40301640300597" lon="11.96848029526925"><ele>10.0</ele><time>2026-04-06T06:54:47.996Z</time></trkpt><trkpt lat="44.403172732554104" lon="11.968313461542783"><ele>10.0</ele><time>2026-04-06T06:54:48.996Z</time></trkpt><trkpt lat="44.40334499550164" lon="11.96816619455641"><ele>10.0</ele><time>2026-04-06T06:54:49.996Z</time></trkpt><trkpt lat="44.403520520171746" lon="11.968024984510155"><ele>10.0</ele><time>2026-04-06T06:54:50.996Z</time></trkpt><trkpt lat="44.40369139414473" lon="11.967873706586563"><ele>10.0</ele><time>2026-04-06T06:54:51.996Z</time></trkpt><trkpt lat="44.403859631428126" lon="11.967717625496556"><ele>10.0</ele><time>2026-04-06T06:54:52.996Z</time></trkpt><trkpt lat="44.404034713154886" lon="11.967559272970284"><ele>10.0</ele><time>2026-04-06T06:54:53.996Z</time></trkpt><trkpt lat="44.404219301159976" lon="11.967402660932134"><ele>10.0</ele><time>2026-04-06T06:54:54.996Z</time></trkpt><trkpt lat="44.40442492184107" lon="11.967289325337724"><ele>10.0</ele><time>2026-04-06T06:54:55.996Z</time></trkpt><trkpt lat="44.404616657948104" lon="11.967166664128353"><ele>10.0</ele><time>2026-04-06T06:54:56.996Z</time></trkpt><trkpt lat="44.40477154146068" lon="11.967044462690474"><ele>10.0</ele><time>2026-04-06T06:54:57.996Z</time></trkpt><trkpt lat="44.404907077249575" lon="11.966967746194943"><ele>10.0</ele><time>2026-04-06T06:54:58.996Z</time></trkpt><trkpt lat="44.405019896482095" lon="11.966909590234796"><ele>10.0</ele><time>2026-04-06T06:54:59.996Z</time></trkpt><trkpt lat="44.405118222821905" lon="11.966881557493776"><ele>10.0</ele><time>2026-04-06T06:55:00.996Z</time></trkpt><trkpt lat="44.40523005127605" lon="11.966907019024257"><ele>10.0</ele><time>2026-04-06T06:55:01.996Z</time></trkpt><trkpt lat="44.40535586533413" lon="11.967005318075921"><ele>10.0</ele><time>2026-04-06T06:55:02.996Z</time></trkpt><trkpt lat="44.405491982517745" lon="11.967070736968719"><ele>10.0</ele><time>2026-04-06T06:55:03.996Z</time></trkpt><trkpt lat="44.405621663877064" lon="11.967090890937698"><ele>10.0</ele><time>2026-04-06T06:55:04.996Z</time></trkpt><trkpt lat="44.40574261565789" lon="11.967055885105854"><ele>10.0</ele><time>2026-04-06T06:55:05.996Z</time></trkpt><trkpt lat="44.40585490021927" lon="11.96697786513126"><ele>10.0</ele><time>2026-04-06T06:55:06.996Z</time></trkpt><trkpt lat="44.40595376565717" lon="11.966876522512965"><ele>10.0</ele><time>2026-04-06T06:55:07.996Z</time></trkpt><trkpt lat="44.40601025097849" lon="11.9667218062209"><ele>10.0</ele><time>2026-04-06T06:55:08.996Z</time></trkpt><trkpt lat="44.40604176928866" lon="11.966543194359934"><ele>10.0</ele><time>2026-04-06T06:55:09.996Z</time></trkpt><trkpt lat="44.40604358591467" lon="11.966358175781481"><ele>10.0</ele><time>2026-04-06T06:55:10.996Z</time></trkpt><trkpt lat="44.40604709899721" lon="11.966202546898469"><ele>10.0</ele><time>2026-04-06T06:55:11.996Z</time></trkpt><trkpt lat="44.406050020063844" lon="11.966073144284865"><ele>10.0</ele><time>2026-04-06T06:55:12.996Z</time></trkpt><trkpt lat="44.405791874243754" lon="11.965956574514685"><ele>10.0</ele><time>2026-04-06T06:55:13.996Z</time></trkpt><trkpt lat="44.40565445263826" lon="11.965897454096826"><ele>10.0</ele><time>2026-04-06T06:55:14.996Z</time></trkpt><trkpt lat="44.405507048105235" lon="11.965882948074542"><ele>10.0</ele><time>2026-04-06T06:55:15.996Z</time></trkpt><trkpt lat="44.40536743442955" lon="11.965927072300447"><ele>10.0</ele><time>2026-04-06T06:55:16.996Z</time></trkpt><trkpt lat="44.4052351865315" lon="11.965956878123137"><ele>10.0</ele><time>2026-04-06T06:55:17.996Z</time></trkpt><trkpt lat="44.40510001003768" lon="11.965901133041406"><ele>10.0</ele><time>2026-04-06T06:55:18.996Z</time></trkpt><trkpt lat="44.40496125611574" lon="11.965773563930345"><ele>10.0</ele><time>2026-04-06T06:55:19.996Z</time></trkpt><trkpt lat="44.40480715288759" lon="11.96563230639639"><ele>9.666666666666668</ele><time>2026-04-06T06:55:20.996Z</time></trkpt><trkpt lat="44.40463820438192" lon="11.965496047111651"><ele>9.333333333333334</ele><time>2026-04-06T06:55:21.996Z</time></trkpt><trkpt lat="44.4044630377372" lon="11.965363309822463"><ele>9.0</ele><time>2026-04-06T06:55:22.996Z</time></trkpt><trkpt lat="44.4042847778587" lon="11.965234356011846"><ele>9.0</ele><time>2026-04-06T06:55:23.996Z</time></trkpt><trkpt lat="44.404101524648134" lon="11.96509622025554"><ele>9.0</ele><time>2026-04-06T06:55:24.996Z</time></trkpt><trkpt lat="44.40390934454993" lon="11.96494873979372"><ele>9.0</ele><time>2026-04-06T06:55:25.996Z</time></trkpt><trkpt lat="44.403712644170874" lon="11.96479723064744"><ele>9.5</ele><time>2026-04-06T06:55:26.996Z</time></trkpt><trkpt lat="44.40351217350327" lon="11.96464116658215"><ele>10.0</ele><time>2026-04-06T06:55:27.995Z</time></trkpt><trkpt lat="44.4033092133217" lon="11.964484847634349"><ele>10.0</ele><time>2026-04-06T06:55:28.995Z</time></trkpt><trkpt lat="44.40310264833903" lon="11.964327164641755"><ele>10.0</ele><time>2026-04-06T06:55:29.995Z</time></trkpt><trkpt lat="44.40289260751294" lon="11.964170123767465"><ele>10.5</ele><time>2026-04-06T06:55:30.995Z</time></trkpt><trkpt lat="44.402681955626434" lon="11.96401054030087"><ele>11.0</ele><time>2026-04-06T06:55:31.995Z</time></trkpt><trkpt lat="44.40246813241327" lon="11.963845498732852"><ele>11.0</ele><time>2026-04-06T06:55:32.995Z</time></trkpt><trkpt lat="44.4022568371495" lon="11.963675356629777"><ele>11.0</ele><time>2026-04-06T06:55:33.995Z</time></trkpt><trkpt lat="44.402042192363126" lon="11.963509039936527"><ele>11.0</ele><time>2026-04-06T06:55:34.995Z</time></trkpt><trkpt lat="44.40182939802675" lon="11.963347119879838"><ele>11.0</ele><time>2026-04-06T06:55:35.995Z</time></trkpt><trkpt lat="44.401618674446894" lon="11.963186880629237"><ele>11.0</ele><time>2026-04-06T06:55:36.995Z</time></trkpt><trkpt lat="44.401406640384884" lon="11.963024094019282"><ele>11.0</ele><time>2026-04-06T06:55:37.995Z</time></trkpt><trkpt lat="44.40119532166843" lon="11.962859516418442"><ele>11.0</ele><time>2026-04-06T06:55:38.995Z</time></trkpt><trkpt lat="44.400980642431115" lon="11.962688569463374"><ele>11.0</ele><time>2026-04-06T06:55:39.995Z</time></trkpt><trkpt lat="44.400767307927104" lon="11.96251814059776"><ele>11.0</ele><time>2026-04-06T06:55:40.995Z</time></trkpt><trkpt lat="44.400552545332765" lon="11.96234432389153"><ele>11.0</ele><time>2026-04-06T06:55:41.995Z</time></trkpt><trkpt lat="44.40033638687176" lon="11.962168045073545"><ele>11.0</ele><time>2026-04-06T06:55:42.995Z</time></trkpt><trkpt lat="44.40012186149063" lon="11.961990242583127"><ele>11.0</ele><time>2026-04-06T06:55:43.995Z</time></trkpt><trkpt lat="44.399911415267404" lon="11.96181971457445"><ele>12.0</ele><time>2026-04-06T06:55:44.995Z</time></trkpt><trkpt lat="44.3997007698842" lon="11.96164832062619"><ele>13.0</ele><time>2026-04-06T06:55:45.995Z</time></trkpt><trkpt lat="44.39949259512787" lon="11.961478713059561"><ele>13.0</ele><time>2026-04-06T06:55:46.995Z</time></trkpt><trkpt lat="44.39928529436902" lon="11.961309589157203"><ele>13.0</ele><time>2026-04-06T06:55:47.995Z</time></trkpt><trkpt lat="44.39906895220447" lon="11.961136439630042"><ele>13.0</ele><time>2026-04-06T06:55:48.995Z</time></trkpt><trkpt lat="44.39884009854823" lon="11.96096318222795"><ele>13.0</ele><time>2026-04-06T06:55:49.995Z</time></trkpt><trkpt lat="44.39861895049685" lon="11.960790004566531"><ele>11.5</ele><time>2026-04-06T06:55:50.995Z</time></trkpt><trkpt lat="44.398398151077025" lon="11.960620299174012"><ele>10.0</ele><time>2026-04-06T06:55:51.995Z</time></trkpt><trkpt lat="44.398181147665106" lon="11.96044746520765"><ele>10.5</ele><time>2026-04-06T06:55:52.995Z</time></trkpt><trkpt lat="44.39796276208143" lon="11.960275319689798"><ele>11.0</ele><time>2026-04-06T06:55:53.995Z</time></trkpt><trkpt lat="44.397738745804276" lon="11.960106806641459"><ele>11.5</ele><time>2026-04-06T06:55:54.995Z</time></trkpt><trkpt lat="44.39751298871978" lon="11.959942604799908"><ele>12.0</ele><time>2026-04-06T06:55:55.995Z</time></trkpt><trkpt lat="44.39728074145771" lon="11.959781150179234"><ele>12.0</ele><time>2026-04-06T06:55:56.995Z</time></trkpt><trkpt lat="44.39704513260396" lon="11.959622284989948"><ele>12.0</ele><time>2026-04-06T06:55:57.995Z</time></trkpt><trkpt lat="44.39680671725959" lon="11.959467349631879"><ele>12.0</ele><time>2026-04-06T06:55:58.995Z</time></trkpt><trkpt lat="44.3965676080111" lon="11.959316517253015"><ele>12.0</ele><time>2026-04-06T06:55:59.995Z</time></trkpt><trkpt lat="44.39632690534607" lon="11.959164997789987"><ele>12.0</ele><time>2026-04-06T06:56:00.995Z</time></trkpt><trkpt lat="44.39608531211923" lon="11.95901798637966"><ele>12.0</ele><time>2026-04-06T06:56:01.995Z</time></trkpt><trkpt lat="44.395842708754394" lon="11.958874339178047"><ele>12.0</ele><time>2026-04-06T06:56:02.995Z</time></trkpt><trkpt lat="44.395599485041835" lon="11.958735361536323"><ele>12.0</ele><time>2026-04-06T06:56:03.995Z</time></trkpt><trkpt lat="44.39535489319536" lon="11.958598301365933"><ele>12.5</ele><time>2026-04-06T06:56:04.995Z</time></trkpt><trkpt lat="44.395109316106414" lon="11.958461940658873"><ele>13.0</ele><time>2026-04-06T06:56:05.995Z</time></trkpt><trkpt lat="44.39486832545357" lon="11.95832311127536"><ele>13.0</ele><time>2026-04-06T06:56:06.995Z</time></trkpt><trkpt lat="44.39462562452651" lon="11.95818872815423"><ele>13.0</ele><time>2026-04-06T06:56:07.995Z</time></trkpt><trkpt lat="44.394379620453066" lon="11.958054592377254"><ele>13.0</ele><time>2026-04-06T06:56:08.995Z</time></trkpt><trkpt lat="44.394132642076" lon="11.957920197959647"><ele>13.0</ele><time>2026-04-06T06:56:09.995Z</time></trkpt><trkpt lat="44.39388672475765" lon="11.95778258955437"><ele>13.0</ele><time>2026-04-06T06:56:10.995Z</time></trkpt><trkpt lat="44.39363975152175" lon="11.957645599640909"><ele>13.0</ele><time>2026-04-06T06:56:11.995Z</time></trkpt><trkpt lat="44.393391779013015" lon="11.957513198228625"><ele>13.0</ele><time>2026-04-06T06:56:12.995Z</time></trkpt><trkpt lat="44.393143293985254" lon="11.957375146741807"><ele>13.0</ele><time>2026-04-06T06:56:13.995Z</time></trkpt><trkpt lat="44.39289655746551" lon="11.957237734844465"><ele>12.5</ele><time>2026-04-06T06:56:14.995Z</time></trkpt><trkpt lat="44.392649277742706" lon="11.957100804373859"><ele>12.0</ele><time>2026-04-06T06:56:15.995Z</time></trkpt><trkpt lat="44.392400339830694" lon="11.956965212918961"><ele>12.5</ele><time>2026-04-06T06:56:16.995Z</time></trkpt><trkpt lat="44.39215276879774" lon="11.956828563878092"><ele>13.0</ele><time>2026-04-06T06:56:17.995Z</time></trkpt><trkpt lat="44.391904266076935" lon="11.956690472580773"><ele>13.5</ele><time>2026-04-06T06:56:18.995Z</time></trkpt><trkpt lat="44.39165489107031" lon="11.956551539567805"><ele>14.0</ele><time>2026-04-06T06:56:19.995Z</time></trkpt><trkpt lat="44.39140709969414" lon="11.956415551492825"><ele>13.5</ele><time>2026-04-06T06:56:20.995Z</time></trkpt><trkpt lat="44.39116033866729" lon="11.956275945416007"><ele>13.0</ele><time>2026-04-06T06:56:21.995Z</time></trkpt><trkpt lat="44.39091246106132" lon="11.956136123137282"><ele>13.0</ele><time>2026-04-06T06:56:22.995Z</time></trkpt><trkpt lat="44.390663875161735" lon="11.955997818082865"><ele>13.0</ele><time>2026-04-06T06:56:23.995Z</time></trkpt><trkpt lat="44.39041704803271" lon="11.955859637193246"><ele>12.5</ele><time>2026-04-06T06:56:24.995Z</time></trkpt><trkpt lat="44.39017051845134" lon="11.955720274412156"><ele>12.0</ele><time>2026-04-06T06:56:25.995Z</time></trkpt><trkpt lat="44.38992265107885" lon="11.955582758437918"><ele>12.5</ele><time>2026-04-06T06:56:26.995Z</time></trkpt><trkpt lat="44.38967247077762" lon="11.95544575362807"><ele>13.0</ele><time>2026-04-06T06:56:27.995Z</time></trkpt><trkpt lat="44.389422755440414" lon="11.955307414310932"><ele>13.0</ele><time>2026-04-06T06:56:28.995Z</time></trkpt><trkpt lat="44.389174142960364" lon="11.95517051071402"><ele>13.0</ele><time>2026-04-06T06:56:29.995Z</time></trkpt><trkpt lat="44.388924321151705" lon="11.95503405151937"><ele>12.5</ele><time>2026-04-06T06:56:30.995Z</time></trkpt><trkpt lat="44.38867387870143" lon="11.954897083345694"><ele>12.0</ele><time>2026-04-06T06:56:31.995Z</time></trkpt><trkpt lat="44.38842457800812" lon="11.95475738688533"><ele>12.0</ele><time>2026-04-06T06:56:32.995Z</time></trkpt><trkpt lat="44.388175542144275" lon="11.954618613553906"><ele>12.0</ele><time>2026-04-06T06:56:33.995Z</time></trkpt><trkpt lat="44.387927616524564" lon="11.95447980752394"><ele>13.0</ele><time>2026-04-06T06:56:34.995Z</time></trkpt><trkpt lat="44.3876783807955" lon="11.95434175726724"><ele>14.0</ele><time>2026-04-06T06:56:35.995Z</time></trkpt><trkpt lat="44.38742816226634" lon="11.954204385539388"><ele>14.0</ele><time>2026-04-06T06:56:36.995Z</time></trkpt><trkpt lat="44.38717773912131" lon="11.954066116173063"><ele>14.0</ele><time>2026-04-06T06:56:37.995Z</time></trkpt><trkpt lat="44.38692498427882" lon="11.953931585049107"><ele>13.5</ele><time>2026-04-06T06:56:38.995Z</time></trkpt><trkpt lat="44.38667567446832" lon="11.953793233613391"><ele>13.0</ele><time>2026-04-06T06:56:39.995Z</time></trkpt><trkpt lat="44.38642656335496" lon="11.953654939435332"><ele>12.0</ele><time>2026-04-06T06:56:40.995Z</time></trkpt><trkpt lat="44.386175879765595" lon="11.953515369444885"><ele>11.0</ele><time>2026-04-06T06:56:41.995Z</time></trkpt><trkpt lat="44.385928147880556" lon="11.95337816085881"><ele>11.0</ele><time>2026-04-06T06:56:42.995Z</time></trkpt><trkpt lat="44.38567989190775" lon="11.953237718927177"><ele>11.0</ele><time>2026-04-06T06:56:43.995Z</time></trkpt><trkpt lat="44.38543010977497" lon="11.953098340772746"><ele>11.0</ele><time>2026-04-06T06:56:44.995Z</time></trkpt><trkpt lat="44.38518234897468" lon="11.952954555162702"><ele>11.0</ele><time>2026-04-06T06:56:45.995Z</time></trkpt><trkpt lat="44.38493639720123" lon="11.952812388430765"><ele>11.0</ele><time>2026-04-06T06:56:46.995Z</time></trkpt><trkpt lat="44.38469992982632" lon="11.952678778500006"><ele>11.0</ele><time>2026-04-06T06:56:47.995Z</time></trkpt><trkpt lat="44.3844760183077" lon="11.95255034518893"><ele>11.0</ele><time>2026-04-06T06:56:48.995Z</time></trkpt><trkpt lat="44.384270878229756" lon="11.95243344197998"><ele>11.0</ele><time>2026-04-06T06:56:49.995Z</time></trkpt><trkpt lat="44.384088069593155" lon="11.952328633151911"><ele>11.0</ele><time>2026-04-06T06:56:50.995Z</time></trkpt><trkpt lat="44.38392648342501" lon="11.952235380377774"><ele>11.0</ele><time>2026-04-06T06:56:51.995Z</time></trkpt><trkpt lat="44.38378316525333" lon="11.95214560098756"><ele>11.0</ele><time>2026-04-06T06:56:52.995Z</time></trkpt><trkpt lat="44.38366037580653" lon="11.952058219978028"><ele>11.0</ele><time>2026-04-06T06:56:53.995Z</time></trkpt><trkpt lat="44.383548209049636" lon="11.951947073849302"><ele>11.0</ele><time>2026-04-06T06:56:54.995Z</time></trkpt><trkpt lat="44.38344644171291" lon="11.951801803625688"><ele>11.5</ele><time>2026-04-06T06:56:55.995Z</time></trkpt><trkpt lat="44.38335827831781" lon="11.951636293677248"><ele>12.0</ele><time>2026-04-06T06:56:56.995Z</time></trkpt><trkpt lat="44.38327347285175" lon="11.951476865825345"><ele>12.5</ele><time>2026-04-06T06:56:57.995Z</time></trkpt><trkpt lat="44.38316994535745" lon="11.951354466839932"><ele>13.0</ele><time>2026-04-06T06:56:58.995Z</time></trkpt><trkpt lat="44.38304761684914" lon="11.951290243832855"><ele>13.0</ele><time>2026-04-06T06:56:59.995Z</time></trkpt><trkpt lat="44.38290657519705" lon="11.951272089897914"><ele>13.0</ele><time>2026-04-06T06:57:00.995Z</time></trkpt><trkpt lat="44.38274702108207" lon="11.951312518564766"><ele>13.0</ele><time>2026-04-06T06:57:01.995Z</time></trkpt><trkpt lat="44.382582096363315" lon="11.951352757908"><ele>13.0</ele><time>2026-04-06T06:57:02.995Z</time></trkpt><trkpt lat="44.38240633453749" lon="11.95133944603867"><ele>13.0</ele><time>2026-04-06T06:57:03.995Z</time></trkpt><trkpt lat="44.382227762356294" lon="11.951265336406205"><ele>13.0</ele><time>2026-04-06T06:57:04.995Z</time></trkpt><trkpt lat="44.38204639917884" lon="11.951149738861563"><ele>13.0</ele><time>2026-04-06T06:57:05.995Z</time></trkpt><trkpt lat="44.38186322786524" lon="11.95102294286876"><ele>13.0</ele><time>2026-04-06T06:57:06.995Z</time></trkpt><trkpt lat="44.381674557453536" lon="11.95090082917656"><ele>13.0</ele><time>2026-04-06T06:57:07.995Z</time></trkpt><trkpt lat="44.38147990114056" lon="11.9507829504594"><ele>13.333333333333332</ele><time>2026-04-06T06:57:08.995Z</time></trkpt><trkpt lat="44.38128218509573" lon="11.95066167789576"><ele>13.666666666666668</ele><time>2026-04-06T06:57:09.995Z</time></trkpt><trkpt lat="44.3810846143645" lon="11.950532929465174"><ele>14.0</ele><time>2026-04-06T06:57:10.995Z</time></trkpt><trkpt lat="44.38088404086678" lon="11.950397926658011"><ele>14.0</ele><time>2026-04-06T06:57:11.995Z</time></trkpt><trkpt lat="44.38068159759219" lon="11.950262439332366"><ele>14.0</ele><time>2026-04-06T06:57:12.995Z</time></trkpt><trkpt lat="44.38047692182556" lon="11.950120685556552"><ele>13.5</ele><time>2026-04-06T06:57:13.995Z</time></trkpt><trkpt lat="44.38027164332272" lon="11.949978272790718"><ele>13.0</ele><time>2026-04-06T06:57:14.995Z</time></trkpt><trkpt lat="44.38006303533565" lon="11.949834862508643"><ele>13.0</ele><time>2026-04-06T06:57:15.995Z</time></trkpt><trkpt lat="44.37985871291723" lon="11.949692143894891"><ele>13.0</ele><time>2026-04-06T06:57:16.995Z</time></trkpt><trkpt lat="44.37965492962802" lon="11.949547027016479"><ele>13.0</ele><time>2026-04-06T06:57:17.995Z</time></trkpt><trkpt lat="44.37944683422474" lon="11.949400680462938"><ele>13.0</ele><time>2026-04-06T06:57:18.995Z</time></trkpt><trkpt lat="44.37923946676612" lon="11.949254804426374"><ele>12.5</ele><time>2026-04-06T06:57:19.995Z</time></trkpt><trkpt lat="44.37903393595712" lon="11.949105952572225"><ele>12.0</ele><time>2026-04-06T06:57:20.995Z</time></trkpt><trkpt lat="44.37882432329665" lon="11.94895688129338"><ele>13.0</ele><time>2026-04-06T06:57:21.992Z</time></trkpt><trkpt lat="44.37861657916966" lon="11.948806660382928"><ele>14.0</ele><time>2026-04-06T06:57:22.992Z</time></trkpt><trkpt lat="44.37840650131834" lon="11.948658430327836"><ele>14.0</ele><time>2026-04-06T06:57:23.992Z</time></trkpt><trkpt lat="44.37819288960167" lon="11.948510582273132"><ele>14.0</ele><time>2026-04-06T06:57:24.992Z</time></trkpt><trkpt lat="44.37797932842948" lon="11.948361150172023"><ele>12.5</ele><time>2026-04-06T06:57:25.992Z</time></trkpt><trkpt lat="44.37776683587003" lon="11.948211096684194"><ele>11.0</ele><time>2026-04-06T06:57:26.992Z</time></trkpt><trkpt lat="44.37755095353878" lon="11.948058216986418"><ele>11.0</ele><time>2026-04-06T06:57:27.992Z</time></trkpt><trkpt lat="44.37733575472139" lon="11.947909734550912"><ele>11.0</ele><time>2026-04-06T06:57:28.992Z</time></trkpt><trkpt lat="44.37712033121611" lon="11.947759351613277"><ele>11.5</ele><time>2026-04-06T06:57:29.992Z</time></trkpt><trkpt lat="44.376901155238" lon="11.947603097532633"><ele>12.0</ele><time>2026-04-06T06:57:30.992Z</time></trkpt><trkpt lat="44.37668427100481" lon="11.947443595021138"><ele>13.5</ele><time>2026-04-06T06:57:31.992Z</time></trkpt><trkpt lat="44.37646785346097" lon="11.947285804194069"><ele>15.0</ele><time>2026-04-06T06:57:32.992Z</time></trkpt><trkpt lat="44.37624997011541" lon="11.947122481071833"><ele>15.0</ele><time>2026-04-06T06:57:33.992Z</time></trkpt><trkpt lat="44.37603355167531" lon="11.946958518531801"><ele>15.0</ele><time>2026-04-06T06:57:34.992Z</time></trkpt><trkpt lat="44.3758160910574" lon="11.946786662160164"><ele>15.0</ele><time>2026-04-06T06:57:35.992Z</time></trkpt><trkpt lat="44.37559878214578" lon="11.946615515437239"><ele>15.0</ele><time>2026-04-06T06:57:36.992Z</time></trkpt><trkpt lat="44.375379638266324" lon="11.94644319800134"><ele>14.0</ele><time>2026-04-06T06:57:37.992Z</time></trkpt><trkpt lat="44.37515827920238" lon="11.94627701438373"><ele>13.0</ele><time>2026-04-06T06:57:38.992Z</time></trkpt><trkpt lat="44.37493854690393" lon="11.946106351186817"><ele>13.0</ele><time>2026-04-06T06:57:39.992Z</time></trkpt><trkpt lat="44.37471542522565" lon="11.945937222160822"><ele>13.0</ele><time>2026-04-06T06:57:40.992Z</time></trkpt><trkpt lat="44.37449180221447" lon="11.945774007136391"><ele>13.0</ele><time>2026-04-06T06:57:41.992Z</time></trkpt><trkpt lat="44.374268158582446" lon="11.945603459689217"><ele>13.0</ele><time>2026-04-06T06:57:42.992Z</time></trkpt><trkpt lat="44.37404578918472" lon="11.945430245105806"><ele>13.5</ele><time>2026-04-06T06:57:43.992Z</time></trkpt><trkpt lat="44.373822998252635" lon="11.945255597664456"><ele>14.0</ele><time>2026-04-06T06:57:44.992Z</time></trkpt><trkpt lat="44.3735979310555" lon="11.945085085106843"><ele>14.0</ele><time>2026-04-06T06:57:45.992Z</time></trkpt><trkpt lat="44.37336948343037" lon="11.944915297356214"><ele>14.0</ele><time>2026-04-06T06:57:46.992Z</time></trkpt><trkpt lat="44.373139910973784" lon="11.944744022728553"><ele>13.5</ele><time>2026-04-06T06:57:47.992Z</time></trkpt><trkpt lat="44.37291064341366" lon="11.944572304137086"><ele>13.0</ele><time>2026-04-06T06:57:48.992Z</time></trkpt><trkpt lat="44.37267997522523" lon="11.94440035759232"><ele>13.0</ele><time>2026-04-06T06:57:49.992Z</time></trkpt><trkpt lat="44.37245047379314" lon="11.944227610381759"><ele>13.0</ele><time>2026-04-06T06:57:50.992Z</time></trkpt><trkpt lat="44.37221780747034" lon="11.944055595877469"><ele>13.0</ele><time>2026-04-06T06:57:51.992Z</time></trkpt><trkpt lat="44.37198876294016" lon="11.943883004089663"><ele>13.0</ele><time>2026-04-06T06:57:52.992Z</time></trkpt><trkpt lat="44.37176225708967" lon="11.943705788314002"><ele>13.0</ele><time>2026-04-06T06:57:53.992Z</time></trkpt><trkpt lat="44.37153523427991" lon="11.943524927293414"><ele>13.0</ele><time>2026-04-06T06:57:54.992Z</time></trkpt><trkpt lat="44.371321789059756" lon="11.943333189449914"><ele>12.5</ele><time>2026-04-06T06:57:55.992Z</time></trkpt><trkpt lat="44.3711120993587" lon="11.943131877515402"><ele>12.0</ele><time>2026-04-06T06:57:56.992Z</time></trkpt><trkpt lat="44.37090572225264" lon="11.942913709559349"><ele>12.0</ele><time>2026-04-06T06:57:57.992Z</time></trkpt><trkpt lat="44.37071542913484" lon="11.942672178144393"><ele>12.0</ele><time>2026-04-06T06:57:58.992Z</time></trkpt><trkpt lat="44.370531696770314" lon="11.942417531474128"><ele>13.0</ele><time>2026-04-06T06:57:59.992Z</time></trkpt><trkpt lat="44.37036002457598" lon="11.942142790316941"><ele>14.0</ele><time>2026-04-06T06:58:00.992Z</time></trkpt><trkpt lat="44.370196950885166" lon="11.94186802887944"><ele>14.5</ele><time>2026-04-06T06:58:01.992Z</time></trkpt><trkpt lat="44.370028992852575" lon="11.941592589532217"><ele>15.0</ele><time>2026-04-06T06:58:02.992Z</time></trkpt><trkpt lat="44.36986276974209" lon="11.94132117071342"><ele>15.0</ele><time>2026-04-06T06:58:03.992Z</time></trkpt><trkpt lat="44.369694829075236" lon="11.941052121668662"><ele>15.0</ele><time>2026-04-06T06:58:04.992Z</time></trkpt><trkpt lat="44.369526306573114" lon="11.940785632358116"><ele>16.5</ele><time>2026-04-06T06:58:05.992Z</time></trkpt><trkpt lat="44.36935765536433" lon="11.940520720130223"><ele>18.0</ele><time>2026-04-06T06:58:06.992Z</time></trkpt><trkpt lat="44.36919274115527" lon="11.94025231596755"><ele>17.5</ele><time>2026-04-06T06:58:07.992Z</time></trkpt><trkpt lat="44.369030260626865" lon="11.939981128273587"><ele>17.0</ele><time>2026-04-06T06:58:08.992Z</time></trkpt><trkpt lat="44.368867355227174" lon="11.939715749842668"><ele>16.0</ele><time>2026-04-06T06:58:09.991Z</time></trkpt><trkpt lat="44.368706361009586" lon="11.939457781954998"><ele>15.0</ele><time>2026-04-06T06:58:10.992Z</time></trkpt><trkpt lat="44.36853687898573" lon="11.939195874865973"><ele>15.0</ele><time>2026-04-06T06:58:11.992Z</time></trkpt><trkpt lat="44.368368143345634" lon="11.93893194248088"><ele>15.0</ele><time>2026-04-06T06:58:12.992Z</time></trkpt><trkpt lat="44.368192557868916" lon="11.938670247557592"><ele>15.0</ele><time>2026-04-06T06:58:13.991Z</time></trkpt><trkpt lat="44.36801173201925" lon="11.93842036615782"><ele>15.0</ele><time>2026-04-06T06:58:14.991Z</time></trkpt><trkpt lat="44.367822814345644" lon="11.93818391555365"><ele>15.5</ele><time>2026-04-06T06:58:15.992Z</time></trkpt><trkpt lat="44.36763402621653" lon="11.937972296216156"><ele>16.0</ele><time>2026-04-06T06:58:16.992Z</time></trkpt><trkpt lat="44.367442634863565" lon="11.937783842235865"><ele>16.0</ele><time>2026-04-06T06:58:17.992Z</time></trkpt><trkpt lat="44.36724745759212" lon="11.937610497702222"><ele>16.0</ele><time>2026-04-06T06:58:18.992Z</time></trkpt><trkpt lat="44.367060374671894" lon="11.937458572616384"><ele>16.0</ele><time>2026-04-06T06:58:19.991Z</time></trkpt><trkpt lat="44.36687743399489" lon="11.937319658743743"><ele>15.333333333333332</ele><time>2026-04-06T06:58:20.991Z</time></trkpt><trkpt lat="44.366702802654785" lon="11.937190185752774"><ele>14.666666666666668</ele><time>2026-04-06T06:58:21.991Z</time></trkpt><trkpt lat="44.36653114308384" lon="11.937064359223287"><ele>14.0</ele><time>2026-04-06T06:58:22.991Z</time></trkpt><trkpt lat="44.36635797492648" lon="11.936931226823397"><ele>14.0</ele><time>2026-04-06T06:58:23.991Z</time></trkpt><trkpt lat="44.366188582011894" lon="11.936796437546779"><ele>14.0</ele><time>2026-04-06T06:58:24.991Z</time></trkpt><trkpt lat="44.3660274608107" lon="11.93666936170462"><ele>14.0</ele><time>2026-04-06T06:58:25.991Z</time></trkpt><trkpt lat="44.365873698505915" lon="11.936547388644883"><ele>14.0</ele><time>2026-04-06T06:58:26.991Z</time></trkpt><trkpt lat="44.365724218756895" lon="11.936429730959018"><ele>14.0</ele><time>2026-04-06T06:58:27.991Z</time></trkpt><trkpt lat="44.36557049301027" lon="11.936310633799934"><ele>14.0</ele><time>2026-04-06T06:58:28.991Z</time></trkpt><trkpt lat="44.365416800864274" lon="11.93619093371293"><ele>14.0</ele><time>2026-04-06T06:58:29.991Z</time></trkpt><trkpt lat="44.3652616098031" lon="11.93607208727717"><ele>14.0</ele><time>2026-04-06T06:58:30.991Z</time></trkpt><trkpt lat="44.365108616382436" lon="11.935956585337362"><ele>14.0</ele><time>2026-04-06T06:58:31.991Z</time></trkpt><trkpt lat="44.36496389818258" lon="11.935841235128587"><ele>14.0</ele><time>2026-04-06T06:58:32.991Z</time></trkpt><trkpt lat="44.36481713445793" lon="11.93572603681075"><ele>14.0</ele><time>2026-04-06T06:58:33.991Z</time></trkpt><trkpt lat="44.36467028643071" lon="11.935611946702087"><ele>14.0</ele><time>2026-04-06T06:58:34.991Z</time></trkpt><trkpt lat="44.364526413699004" lon="11.935497712510642"><ele>13.666666666666668</ele><time>2026-04-06T06:58:35.991Z</time></trkpt><trkpt lat="44.36438573110279" lon="11.935386038661592"><ele>13.333333333333332</ele><time>2026-04-06T06:58:36.991Z</time></trkpt><trkpt lat="44.364239512313965" lon="11.93526922038241"><ele>13.0</ele><time>2026-04-06T06:58:37.991Z</time></trkpt><trkpt lat="44.364089457831206" lon="11.935151950256348"><ele>13.333333333333332</ele><time>2026-04-06T06:58:38.991Z</time></trkpt><trkpt lat="44.363941035830074" lon="11.935033604643039"><ele>13.666666666666668</ele><time>2026-04-06T06:58:39.991Z</time></trkpt><trkpt lat="44.363798048237555" lon="11.93492204760879"><ele>14.0</ele><time>2026-04-06T06:58:40.991Z</time></trkpt><trkpt lat="44.36365949417617" lon="11.934815035157666"><ele>14.0</ele><time>2026-04-06T06:58:41.991Z</time></trkpt><trkpt lat="44.36352409600771" lon="11.93470977564257"><ele>14.0</ele><time>2026-04-06T06:58:42.991Z</time></trkpt><trkpt lat="44.363386478418235" lon="11.934602555279996"><ele>14.0</ele><time>2026-04-06T06:58:43.991Z</time></trkpt><trkpt lat="44.36324972044321" lon="11.934495385282341"><ele>14.0</ele><time>2026-04-06T06:58:44.991Z</time></trkpt><trkpt lat="44.36311832266119" lon="11.934389605763352"><ele>14.0</ele><time>2026-04-06T06:58:45.991Z</time></trkpt><trkpt lat="44.362983896535766" lon="11.93428384928986"><ele>14.0</ele><time>2026-04-06T06:58:46.991Z</time></trkpt><trkpt lat="44.362852674948535" lon="11.934180546398395"><ele>13.75</ele><time>2026-04-06T06:58:47.991Z</time></trkpt><trkpt lat="44.36272051332574" lon="11.934078390223954"><ele>13.5</ele><time>2026-04-06T06:58:48.991Z</time></trkpt><trkpt lat="44.36259439462957" lon="11.93398249457712"><ele>13.25</ele><time>2026-04-06T06:58:49.991Z</time></trkpt><trkpt lat="44.36247643592229" lon="11.933890033557956"><ele>13.0</ele><time>2026-04-06T06:58:50.991Z</time></trkpt><trkpt lat="44.362370964245805" lon="11.933806561578656"><ele>13.0</ele><time>2026-04-06T06:58:51.991Z</time></trkpt><trkpt lat="44.36227347000186" lon="11.933726471875753"><ele>13.0</ele><time>2026-04-06T06:58:52.991Z</time></trkpt><trkpt lat="44.36218949072618" lon="11.933650526247082"><ele>13.0</ele><time>2026-04-06T06:58:53.991Z</time></trkpt><trkpt lat="44.36211774039897" lon="11.933571192647452"><ele>13.0</ele><time>2026-04-06T06:58:54.991Z</time></trkpt><trkpt lat="44.362059109846015" lon="11.933487032519366"><ele>13.0</ele><time>2026-04-06T06:58:55.991Z</time></trkpt><trkpt lat="44.36200740370732" lon="11.933396591733585"><ele>13.2</ele><time>2026-04-06T06:58:56.991Z</time></trkpt><trkpt lat="44.36196669158423" lon="11.933289343818295"><ele>13.4</ele><time>2026-04-06T06:58:57.991Z</time></trkpt><trkpt lat="44.36192676819457" lon="11.933169771472627"><ele>13.599999999999998</ele><time>2026-04-06T06:58:58.991Z</time></trkpt><trkpt lat="44.36188409843347" lon="11.933040131488465"><ele>13.799999999999999</ele><time>2026-04-06T06:58:59.991Z</time></trkpt><trkpt lat="44.361831008376804" lon="11.932908423370325"><ele>14.0</ele><time>2026-04-06T06:59:00.991Z</time></trkpt><trkpt lat="44.36176075959756" lon="11.932801586652257"><ele>14.0</ele><time>2026-04-06T06:59:01.991Z</time></trkpt><trkpt lat="44.361683391795765" lon="11.932720118377768"><ele>13.999999999999998</ele><time>2026-04-06T06:59:02.991Z</time></trkpt><trkpt lat="44.36158020672599" lon="11.932679528043732"><ele>13.999999999999998</ele><time>2026-04-06T06:59:03.991Z</time></trkpt><trkpt lat="44.361472764741535" lon="11.932678843714191"><ele>14.0</ele><time>2026-04-06T06:59:04.991Z</time></trkpt><trkpt lat="44.361365017560075" lon="11.932711385785788"><ele>14.0</ele><time>2026-04-06T06:59:05.991Z</time></trkpt><trkpt lat="44.361262619915685" lon="11.932754002583355"><ele>14.5</ele><time>2026-04-06T06:59:06.991Z</time></trkpt><trkpt lat="44.3611510603389" lon="11.932761650125592"><ele>15.0</ele><time>2026-04-06T06:59:07.991Z</time></trkpt><trkpt lat="44.36103304719166" lon="11.932734347955959"><ele>15.5</ele><time>2026-04-06T06:59:08.991Z</time></trkpt><trkpt lat="44.360913598270585" lon="11.932675403320811"><ele>16.0</ele><time>2026-04-06T06:59:09.991Z</time></trkpt><trkpt lat="44.36078887413669" lon="11.932588243739247"><ele>15.666666666666666</ele><time>2026-04-06T06:59:10.991Z</time></trkpt><trkpt lat="44.36065687424516" lon="11.932485598237466"><ele>15.333333333333332</ele><time>2026-04-06T06:59:11.991Z</time></trkpt><trkpt lat="44.36052607273358" lon="11.932381187031307"><ele>15.0</ele><time>2026-04-06T06:59:12.991Z</time></trkpt><trkpt lat="44.360393381710814" lon="11.932280325881289"><ele>16.0</ele><time>2026-04-06T06:59:13.991Z</time></trkpt><trkpt lat="44.3602635362273" lon="11.932179946179334"><ele>17.0</ele><time>2026-04-06T06:59:14.991Z</time></trkpt><trkpt lat="44.360133141791444" lon="11.932074104476627"><ele>18.0</ele><time>2026-04-06T06:59:15.991Z</time></trkpt><trkpt lat="44.36000354419494" lon="11.93196722443349"><ele>18.0</ele><time>2026-04-06T06:59:16.991Z</time></trkpt><trkpt lat="44.3598713749748" lon="11.931859738502396"><ele>18.0</ele><time>2026-04-06T06:59:17.991Z</time></trkpt><trkpt lat="44.35973922212578" lon="11.931750444781798"><ele>18.0</ele><time>2026-04-06T06:59:18.991Z</time></trkpt><trkpt lat="44.35960577049294" lon="11.93164650852861"><ele>17.666666666666668</ele><time>2026-04-06T06:59:19.991Z</time></trkpt><trkpt lat="44.35947108328425" lon="11.931544249984166"><ele>17.333333333333336</ele><time>2026-04-06T06:59:20.991Z</time></trkpt><trkpt lat="44.35933354815194" lon="11.931437210165262"><ele>17.0</ele><time>2026-04-06T06:59:21.991Z</time></trkpt><trkpt lat="44.3591954684697" lon="11.93132591050228"><ele>17.0</ele><time>2026-04-06T06:59:22.991Z</time></trkpt><trkpt lat="44.359060562932896" lon="11.931218043555067"><ele>17.0</ele><time>2026-04-06T06:59:23.991Z</time></trkpt><trkpt lat="44.35892751453322" lon="11.931113822789762"><ele>17.0</ele><time>2026-04-06T06:59:24.991Z</time></trkpt><trkpt lat="44.3587911266195" lon="11.931008521167639"><ele>16.666666666666668</ele><time>2026-04-06T06:59:25.991Z</time></trkpt><trkpt lat="44.35865105326501" lon="11.930902519237062"><ele>16.333333333333332</ele><time>2026-04-06T06:59:26.991Z</time></trkpt><trkpt lat="44.35850815060096" lon="11.930794156586739"><ele>16.0</ele><time>2026-04-06T06:59:27.991Z</time></trkpt><trkpt lat="44.358367179378064" lon="11.930683315886812"><ele>16.0</ele><time>2026-04-06T06:59:28.991Z</time></trkpt><trkpt lat="44.358226293950615" lon="11.93057235885743"><ele>16.0</ele><time>2026-04-06T06:59:29.991Z</time></trkpt><trkpt lat="44.35807919751308" lon="11.930459096159911"><ele>16.0</ele><time>2026-04-06T06:59:30.991Z</time></trkpt><trkpt lat="44.35792896174082" lon="11.930343010049484"><ele>15.666666666666666</ele><time>2026-04-06T06:59:31.991Z</time></trkpt><trkpt lat="44.357777538164925" lon="11.930225161214027"><ele>15.333333333333332</ele><time>2026-04-06T06:59:32.991Z</time></trkpt><trkpt lat="44.35762555973643" lon="11.930104666462643"><ele>15.0</ele><time>2026-04-06T06:59:33.991Z</time></trkpt><trkpt lat="44.35747210637446" lon="11.929980959429308"><ele>15.0</ele><time>2026-04-06T06:59:34.991Z</time></trkpt><trkpt lat="44.35731526247188" lon="11.929861273752996"><ele>15.0</ele><time>2026-04-06T06:59:35.991Z</time></trkpt><trkpt lat="44.3571599423104" lon="11.92974212776553"><ele>15.0</ele><time>2026-04-06T06:59:36.991Z</time></trkpt><trkpt lat="44.357004350026266" lon="11.929622574622226"><ele>14.666666666666668</ele><time>2026-04-06T06:59:37.991Z</time></trkpt><trkpt lat="44.3568505081416" lon="11.929500489277034"><ele>14.333333333333334</ele><time>2026-04-06T06:59:38.991Z</time></trkpt><trkpt lat="44.35669889016286" lon="11.929379700521404"><ele>14.0</ele><time>2026-04-06T06:59:39.991Z</time></trkpt><trkpt lat="44.356549725147666" lon="11.929262107411859"><ele>14.333333333333334</ele><time>2026-04-06T06:59:40.991Z</time></trkpt><trkpt lat="44.35639994511528" lon="11.929141798471626"><ele>14.666666666666668</ele><time>2026-04-06T06:59:41.991Z</time></trkpt><trkpt lat="44.3562497181246" lon="11.9290196400539"><ele>15.0</ele><time>2026-04-06T06:59:42.991Z</time></trkpt><trkpt lat="44.35610192106852" lon="11.92890586603832"><ele>15.0</ele><time>2026-04-06T06:59:43.991Z</time></trkpt><trkpt lat="44.35594960589965" lon="11.928793787409154"><ele>15.0</ele><time>2026-04-06T06:59:44.991Z</time></trkpt><trkpt lat="44.35580066483272" lon="11.928681166208849"><ele>15.0</ele><time>2026-04-06T06:59:45.991Z</time></trkpt><trkpt lat="44.355654143461464" lon="11.92857155520306"><ele>15.0</ele><time>2026-04-06T06:59:46.991Z</time></trkpt><trkpt lat="44.35551099772019" lon="11.928460261375372"><ele>15.0</ele><time>2026-04-06T06:59:47.991Z</time></trkpt><trkpt lat="44.355364275264215" lon="11.928345717878356"><ele>15.0</ele><time>2026-04-06T06:59:48.991Z</time></trkpt><trkpt lat="44.355219188536495" lon="11.928232769434455"><ele>15.333333333333332</ele><time>2026-04-06T06:59:49.991Z</time></trkpt><trkpt lat="44.355068425420995" lon="11.92812367986931"><ele>15.666666666666666</ele><time>2026-04-06T06:59:50.991Z</time></trkpt><trkpt lat="44.35491652330025" lon="11.928023446905371"><ele>16.0</ele><time>2026-04-06T06:59:51.991Z</time></trkpt><trkpt lat="44.3547584589145" lon="11.927931355025438"><ele>15.666666666666666</ele><time>2026-04-06T06:59:52.991Z</time></trkpt><trkpt lat="44.354596253223136" lon="11.927847443181857"><ele>15.333333333333332</ele><time>2026-04-06T06:59:53.991Z</time></trkpt><trkpt lat="44.35443184218735" lon="11.927770876843253"><ele>15.0</ele><time>2026-04-06T06:59:54.991Z</time></trkpt><trkpt lat="44.35426798149061" lon="11.927701076434408"><ele>15.0</ele><time>2026-04-06T06:59:55.991Z</time></trkpt><trkpt lat="44.354101760602646" lon="11.927643115300905"><ele>15.0</ele><time>2026-04-06T06:59:56.991Z</time></trkpt><trkpt lat="44.353935864146806" lon="11.927595755633146"><ele>15.0</ele><time>2026-04-06T06:59:57.991Z</time></trkpt><trkpt lat="44.35377409203549" lon="11.927556444976323"><ele>14.666666666666668</ele><time>2026-04-06T06:59:58.991Z</time></trkpt><trkpt lat="44.35361541664652" lon="11.927525895838578"><ele>14.333333333333334</ele><time>2026-04-06T06:59:59.991Z</time></trkpt><trkpt lat="44.35345976154508" lon="11.927502187108056"><ele>14.0</ele><time>2026-04-06T07:00:00.991Z</time></trkpt><trkpt lat="44.35330459716325" lon="11.927478797374421"><ele>14.0</ele><time>2026-04-06T07:00:01.991Z</time></trkpt><trkpt lat="44.353148778197514" lon="11.927457678819438"><ele>14.0</ele><time>2026-04-06T07:00:02.991Z</time></trkpt><trkpt lat="44.35299627587885" lon="11.927438662624972"><ele>14.0</ele><time>2026-04-06T07:00:03.991Z</time></trkpt><trkpt lat="44.352843395384554" lon="11.927416069003737"><ele>14.666666666666668</ele><time>2026-04-06T07:00:04.991Z</time></trkpt><trkpt lat="44.352690783346645" lon="11.92739040703333"><ele>15.333333333333332</ele><time>2026-04-06T07:00:05.991Z</time></trkpt><trkpt lat="44.35253782009919" lon="11.927364931985323"><ele>16.0</ele><time>2026-04-06T07:00:06.991Z</time></trkpt><trkpt lat="44.35238623714656" lon="11.927341599250822"><ele>16.0</ele><time>2026-04-06T07:00:07.991Z</time></trkpt><trkpt lat="44.3522247655635" lon="11.927318303160744"><ele>16.0</ele><time>2026-04-06T07:00:08.991Z</time></trkpt><trkpt lat="44.35206219787981" lon="11.927296935154745"><ele>16.0</ele><time>2026-04-06T07:00:09.991Z</time></trkpt><trkpt lat="44.35189697503245" lon="11.927270350163273"><ele>15.666666666666666</ele><time>2026-04-06T07:00:10.991Z</time></trkpt><trkpt lat="44.35173278389195" lon="11.927243790127866"><ele>15.333333333333332</ele><time>2026-04-06T07:00:11.991Z</time></trkpt><trkpt lat="44.35156476477828" lon="11.927217964491152"><ele>15.0</ele><time>2026-04-06T07:00:12.991Z</time></trkpt><trkpt lat="44.351392419004874" lon="11.927193753590492"><ele>15.0</ele><time>2026-04-06T07:00:13.991Z</time></trkpt><trkpt lat="44.351219182016564" lon="11.927166261405896"><ele>15.0</ele><time>2026-04-06T07:00:14.991Z</time></trkpt><trkpt lat="44.35104782919527" lon="11.927141074023774"><ele>15.0</ele><time>2026-04-06T07:00:15.991Z</time></trkpt><trkpt lat="44.35087539463614" lon="11.927115665617832"><ele>15.0</ele><time>2026-04-06T07:00:16.991Z</time></trkpt><trkpt lat="44.35071316719271" lon="11.92708916488222"><ele>15.0</ele><time>2026-04-06T07:00:17.991Z</time></trkpt><trkpt lat="44.350552434609675" lon="11.92705365421239"><ele>15.0</ele><time>2026-04-06T07:00:18.991Z</time></trkpt><trkpt lat="44.35038970676687" lon="11.927011144335395"><ele>14.666666666666668</ele><time>2026-04-06T07:00:19.991Z</time></trkpt><trkpt lat="44.35022900154367" lon="11.926959627009351"><ele>14.333333333333334</ele><time>2026-04-06T07:00:20.991Z</time></trkpt><trkpt lat="44.35006808123832" lon="11.92689584665835"><ele>14.0</ele><time>2026-04-06T07:00:21.992Z</time></trkpt><trkpt lat="44.349911318831815" lon="11.926822187622632"><ele>14.0</ele><time>2026-04-06T07:00:22.992Z</time></trkpt><trkpt lat="44.349760265461576" lon="11.926744593264681"><ele>14.0</ele><time>2026-04-06T07:00:23.991Z</time></trkpt><trkpt lat="44.34961352246042" lon="11.926664282280822"><ele>14.0</ele><time>2026-04-06T07:00:24.991Z</time></trkpt><trkpt lat="44.349471245105676" lon="11.92657368774684"><ele>14.0</ele><time>2026-04-06T07:00:25.992Z</time></trkpt><trkpt lat="44.349334002145824" lon="11.926480514978529"><ele>14.0</ele><time>2026-04-06T07:00:26.992Z</time></trkpt><trkpt lat="44.349197780195375" lon="11.926385347068337"><ele>14.0</ele><time>2026-04-06T07:00:27.992Z</time></trkpt><trkpt lat="44.34906326471482" lon="11.92629292108838"><ele>14.0</ele><time>2026-04-06T07:00:28.992Z</time></trkpt><trkpt lat="44.34892821048965" lon="11.92619140713716"><ele>14.0</ele><time>2026-04-06T07:00:29.992Z</time></trkpt><trkpt lat="44.348795836798026" lon="11.92608860635893"><ele>14.0</ele><time>2026-04-06T07:00:30.992Z</time></trkpt><trkpt lat="44.3486682356262" lon="11.925988837499691"><ele>14.25</ele><time>2026-04-06T07:00:31.992Z</time></trkpt><trkpt lat="44.34854271475776" lon="11.92588916490081"><ele>14.5</ele><time>2026-04-06T07:00:32.992Z</time></trkpt><trkpt lat="44.34841271136854" lon="11.925790513056635"><ele>14.75</ele><time>2026-04-06T07:00:33.992Z</time></trkpt><trkpt lat="44.348283222115604" lon="11.925692010085474"><ele>15.0</ele><time>2026-04-06T07:00:34.992Z</time></trkpt><trkpt lat="44.348156797917824" lon="11.925593617246102"><ele>15.0</ele><time>2026-04-06T07:00:35.992Z</time></trkpt><trkpt lat="44.348031899844734" lon="11.925494739243224"><ele>15.0</ele><time>2026-04-06T07:00:36.992Z</time></trkpt><trkpt lat="44.34790848134861" lon="11.925396380361459"><ele>15.0</ele><time>2026-04-06T07:00:37.992Z</time></trkpt><trkpt lat="44.347779064554615" lon="11.925295949076153"><ele>15.0</ele><time>2026-04-06T07:00:38.992Z</time></trkpt><trkpt lat="44.34764618589733" lon="11.92519835842445"><ele>15.0</ele><time>2026-04-06T07:00:39.992Z</time></trkpt><trkpt lat="44.347509333723224" lon="11.925102152331135"><ele>15.0</ele><time>2026-04-06T07:00:40.992Z</time></trkpt><trkpt lat="44.3473744347479" lon="11.924996789689859"><ele>15.0</ele><time>2026-04-06T07:00:41.991Z</time></trkpt><trkpt lat="44.347235915424" lon="11.9248866996743"><ele>15.333333333333332</ele><time>2026-04-06T07:00:42.991Z</time></trkpt><trkpt lat="44.347099841953714" lon="11.924777614998987"><ele>15.666666666666666</ele><time>2026-04-06T07:00:43.991Z</time></trkpt><trkpt lat="44.346960601624524" lon="11.924670942471426"><ele>16.0</ele><time>2026-04-06T07:00:44.991Z</time></trkpt><trkpt lat="44.3468207034827" lon="11.924561874699977"><ele>16.0</ele><time>2026-04-06T07:00:45.991Z</time></trkpt><trkpt lat="44.34667779209732" lon="11.92445286987081"><ele>16.0</ele><time>2026-04-06T07:00:46.991Z</time></trkpt><trkpt lat="44.34653811176165" lon="11.924343743164256"><ele>16.0</ele><time>2026-04-06T07:00:47.991Z</time></trkpt><trkpt lat="44.346400575026955" lon="11.924230669239071"><ele>15.666666666666666</ele><time>2026-04-06T07:00:48.991Z</time></trkpt><trkpt lat="44.346262119495044" lon="11.924116214666967"><ele>15.333333333333332</ele><time>2026-04-06T07:00:49.991Z</time></trkpt><trkpt lat="44.3461213648744" lon="11.924007756422471"><ele>15.0</ele><time>2026-04-06T07:00:50.991Z</time></trkpt><trkpt lat="44.34597883453774" lon="11.923898442835839"><ele>15.0</ele><time>2026-04-06T07:00:51.991Z</time></trkpt><trkpt lat="44.34583826513102" lon="11.923788647376295"><ele>15.0</ele><time>2026-04-06T07:00:52.991Z</time></trkpt><trkpt lat="44.345697550052094" lon="11.923677983744058"><ele>15.0</ele><time>2026-04-06T07:00:53.991Z</time></trkpt><trkpt lat="44.34556060595795" lon="11.923575415885818"><ele>15.0</ele><time>2026-04-06T07:00:54.991Z</time></trkpt><trkpt lat="44.34542256137796" lon="11.923472979116253"><ele>15.0</ele><time>2026-04-06T07:00:55.991Z</time></trkpt><trkpt lat="44.34528881981705" lon="11.923370662373262"><ele>15.0</ele><time>2026-04-06T07:00:56.991Z</time></trkpt><trkpt lat="44.345155108456844" lon="11.923267165090337"><ele>15.333333333333332</ele><time>2026-04-06T07:00:57.991Z</time></trkpt><trkpt lat="44.345021921200825" lon="11.923163563564453"><ele>15.666666666666666</ele><time>2026-04-06T07:00:58.991Z</time></trkpt><trkpt lat="44.34489085686199" lon="11.923060128134592"><ele>16.0</ele><time>2026-04-06T07:00:59.991Z</time></trkpt><trkpt lat="44.34475995983345" lon="11.92295867285237"><ele>16.0</ele><time>2026-04-06T07:01:00.991Z</time></trkpt><trkpt lat="44.344630265241385" lon="11.922855985713971"><ele>16.0</ele><time>2026-04-06T07:01:01.991Z</time></trkpt><trkpt lat="44.34450268505105" lon="11.92275350998944"><ele>16.0</ele><time>2026-04-06T07:01:02.991Z</time></trkpt><trkpt lat="44.34437503611595" lon="11.922653790773488"><ele>16.0</ele><time>2026-04-06T07:01:03.991Z</time></trkpt><trkpt lat="44.34424528070386" lon="11.922552055123672"><ele>16.0</ele><time>2026-04-06T07:01:04.991Z</time></trkpt><trkpt lat="44.34411632686607" lon="11.922454601382976"><ele>16.0</ele><time>2026-04-06T07:01:05.991Z</time></trkpt><trkpt lat="44.34398527272289" lon="11.922353140507077"><ele>16.0</ele><time>2026-04-06T07:01:06.991Z</time></trkpt><trkpt lat="44.34385507888954" lon="11.922253315940734"><ele>16.0</ele><time>2026-04-06T07:01:07.991Z</time></trkpt><trkpt lat="44.343720730956186" lon="11.922146295583637"><ele>16.333333333333332</ele><time>2026-04-06T07:01:08.991Z</time></trkpt><trkpt lat="44.34358757958041" lon="11.922039408148992"><ele>16.666666666666668</ele><time>2026-04-06T07:01:09.991Z</time></trkpt><trkpt lat="44.343451319765734" lon="11.921928924798731"><ele>17.0</ele><time>2026-04-06T07:01:10.991Z</time></trkpt><trkpt lat="44.343305214404744" lon="11.92182303310454"><ele>17.0</ele><time>2026-04-06T07:01:11.991Z</time></trkpt><trkpt lat="44.34315298965175" lon="11.921712226088255"><ele>17.0</ele><time>2026-04-06T07:01:12.991Z</time></trkpt><trkpt lat="44.34299994734799" lon="11.921597167785098"><ele>17.0</ele><time>2026-04-06T07:01:13.991Z</time></trkpt><trkpt lat="44.342843222287414" lon="11.921473038036257"><ele>17.0</ele><time>2026-04-06T07:01:14.991Z</time></trkpt><trkpt lat="44.34268110949156" lon="11.921349943172505"><ele>17.0</ele><time>2026-04-06T07:01:15.991Z</time></trkpt><trkpt lat="44.342516199769435" lon="11.92122494402895"><ele>17.0</ele><time>2026-04-06T07:01:16.991Z</time></trkpt><trkpt lat="44.34235169496509" lon="11.921099699671828"><ele>16.666666666666668</ele><time>2026-04-06T07:01:17.991Z</time></trkpt><trkpt lat="44.34218066012479" lon="11.920973391883566"><ele>16.333333333333332</ele><time>2026-04-06T07:01:18.991Z</time></trkpt><trkpt lat="44.3420176341899" lon="11.92085093368963"><ele>16.0</ele><time>2026-04-06T07:01:19.991Z</time></trkpt><trkpt lat="44.34185776314987" lon="11.920731345493955"><ele>16.0</ele><time>2026-04-06T07:01:20.991Z</time></trkpt><trkpt lat="44.34169820130995" lon="11.92060552944516"><ele>16.0</ele><time>2026-04-06T07:01:21.991Z</time></trkpt><trkpt lat="44.341537722912044" lon="11.920481052634946"><ele>16.0</ele><time>2026-04-06T07:01:22.991Z</time></trkpt><trkpt lat="44.34137823477948" lon="11.920358993228719"><ele>16.333333333333332</ele><time>2026-04-06T07:01:23.991Z</time></trkpt><trkpt lat="44.341220430628525" lon="11.920239745968155"><ele>16.666666666666668</ele><time>2026-04-06T07:01:24.991Z</time></trkpt><trkpt lat="44.34106446205197" lon="11.920119904658003"><ele>17.0</ele><time>2026-04-06T07:01:25.991Z</time></trkpt><trkpt lat="44.34090829697822" lon="11.92000032646757"><ele>17.0</ele><time>2026-04-06T07:01:26.991Z</time></trkpt><trkpt lat="44.34075252537746" lon="11.919880661247563"><ele>17.0</ele><time>2026-04-06T07:01:27.991Z</time></trkpt><trkpt lat="44.34059639351381" lon="11.919762260993673"><ele>17.0</ele><time>2026-04-06T07:01:28.991Z</time></trkpt><trkpt lat="44.34043631524459" lon="11.919638265025885"><ele>17.333333333333336</ele><time>2026-04-06T07:01:29.991Z</time></trkpt><trkpt lat="44.34026318838587" lon="11.919512619928703"><ele>17.666666666666668</ele><time>2026-04-06T07:01:30.991Z</time></trkpt><trkpt lat="44.34009128160775" lon="11.919358556930296"><ele>18.0</ele><time>2026-04-06T07:01:31.991Z</time></trkpt><trkpt lat="44.33989921886602" lon="11.91923508908749"><ele>17.666666666666668</ele><time>2026-04-06T07:01:32.991Z</time></trkpt><trkpt lat="44.3397054267633" lon="11.919087994308292"><ele>17.333333333333336</ele><time>2026-04-06T07:01:33.991Z</time></trkpt><trkpt lat="44.33950837891906" lon="11.918935446652359"><ele>17.0</ele><time>2026-04-06T07:01:34.991Z</time></trkpt><trkpt lat="44.33930493244201" lon="11.918779829685551"><ele>17.0</ele><time>2026-04-06T07:01:35.991Z</time></trkpt><trkpt lat="44.3390973514926" lon="11.918620999582439"><ele>17.0</ele><time>2026-04-06T07:01:36.991Z</time></trkpt><trkpt lat="44.33888699244913" lon="11.9184570439351"><ele>17.0</ele><time>2026-04-06T07:01:37.991Z</time></trkpt><trkpt lat="44.33867562443604" lon="11.918267864261791"><ele>17.0</ele><time>2026-04-06T07:01:38.991Z</time></trkpt><trkpt lat="44.3384531258656" lon="11.918085913855196"><ele>17.0</ele><time>2026-04-06T07:01:39.991Z</time></trkpt><trkpt lat="44.33822948706919" lon="11.91790365003358"><ele>17.0</ele><time>2026-04-06T07:01:40.991Z</time></trkpt><trkpt lat="44.33799852543442" lon="11.91772275918264"><ele>17.0</ele><time>2026-04-06T07:01:41.991Z</time></trkpt><trkpt lat="44.33776282151578" lon="11.91754167965399"><ele>17.0</ele><time>2026-04-06T07:01:42.991Z</time></trkpt><trkpt lat="44.33752968221932" lon="11.917363098125904"><ele>17.0</ele><time>2026-04-06T07:01:43.991Z</time></trkpt><trkpt lat="44.33729759262526" lon="11.91718899354669"><ele>17.0</ele><time>2026-04-06T07:01:44.991Z</time></trkpt><trkpt lat="44.337067171942095" lon="11.917014824321182"><ele>17.5</ele><time>2026-04-06T07:01:45.991Z</time></trkpt><trkpt lat="44.336840658354014" lon="11.916840970381331"><ele>18.0</ele><time>2026-04-06T07:01:46.991Z</time></trkpt><trkpt lat="44.33661631998901" lon="11.916667355161746"><ele>18.5</ele><time>2026-04-06T07:01:47.991Z</time></trkpt><trkpt lat="44.33639513306524" lon="11.916495817045783"><ele>19.0</ele><time>2026-04-06T07:01:48.991Z</time></trkpt><trkpt lat="44.336177221369994" lon="11.91632944392258"><ele>19.0</ele><time>2026-04-06T07:01:49.991Z</time></trkpt><trkpt lat="44.33596132441265" lon="11.916162255396797"><ele>19.0</ele><time>2026-04-06T07:01:50.991Z</time></trkpt><trkpt lat="44.335750169110504" lon="11.91600038381959"><ele>19.0</ele><time>2026-04-06T07:01:51.991Z</time></trkpt><trkpt lat="44.33554390666379" lon="11.915843049706124"><ele>19.0</ele><time>2026-04-06T07:01:52.991Z</time></trkpt><trkpt lat="44.33533748696452" lon="11.91568463193671"><ele>19.0</ele><time>2026-04-06T07:01:53.991Z</time></trkpt><trkpt lat="44.335130451481426" lon="11.915527184479906"><ele>19.0</ele><time>2026-04-06T07:01:54.991Z</time></trkpt><trkpt lat="44.33492519086697" lon="11.915371529465123"><ele>19.0</ele><time>2026-04-06T07:01:55.991Z</time></trkpt><trkpt lat="44.33472149257131" lon="11.915216072476039"><ele>19.0</ele><time>2026-04-06T07:01:56.991Z</time></trkpt><trkpt lat="44.33452097850851" lon="11.915060367255416"><ele>19.0</ele><time>2026-04-06T07:01:57.991Z</time></trkpt><trkpt lat="44.334324384171964" lon="11.914907962336002"><ele>19.0</ele><time>2026-04-06T07:01:58.991Z</time></trkpt><trkpt lat="44.33413519355206" lon="11.91476263070413"><ele>19.0</ele><time>2026-04-06T07:01:59.991Z</time></trkpt><trkpt lat="44.33395470118226" lon="11.914622986582957"><ele>18.666666666666664</ele><time>2026-04-06T07:02:00.991Z</time></trkpt><trkpt lat="44.33377048654279" lon="11.914484952452208"><ele>18.333333333333332</ele><time>2026-04-06T07:02:01.991Z</time></trkpt><trkpt lat="44.333592886270225" lon="11.914347953339677"><ele>18.0</ele><time>2026-04-06T07:02:02.991Z</time></trkpt><trkpt lat="44.33341337638877" lon="11.914208291333564"><ele>18.0</ele><time>2026-04-06T07:02:03.991Z</time></trkpt><trkpt lat="44.33323665410352" lon="11.914072046074295"><ele>18.0</ele><time>2026-04-06T07:02:04.991Z</time></trkpt><trkpt lat="44.33305734303852" lon="11.913935058389196"><ele>18.0</ele><time>2026-04-06T07:02:05.991Z</time></trkpt><trkpt lat="44.33288401785045" lon="11.913797947147346"><ele>18.333333333333332</ele><time>2026-04-06T07:02:06.991Z</time></trkpt><trkpt lat="44.33271187091523" lon="11.91366291827915"><ele>18.666666666666664</ele><time>2026-04-06T07:02:07.991Z</time></trkpt><trkpt lat="44.33254131114813" lon="11.913534524244248"><ele>19.0</ele><time>2026-04-06T07:02:08.991Z</time></trkpt><trkpt lat="44.332374456757485" lon="11.91340799154984"><ele>19.0</ele><time>2026-04-06T07:02:09.991Z</time></trkpt><trkpt lat="44.332211097934426" lon="11.913278017045485"><ele>19.0</ele><time>2026-04-06T07:02:10.991Z</time></trkpt><trkpt lat="44.332039776389614" lon="11.913150203717661"><ele>19.0</ele><time>2026-04-06T07:02:11.991Z</time></trkpt><trkpt lat="44.33187480547007" lon="11.913019683822526"><ele>19.0</ele><time>2026-04-06T07:02:12.991Z</time></trkpt><trkpt lat="44.33170704360555" lon="11.912893634369665"><ele>19.0</ele><time>2026-04-06T07:02:13.991Z</time></trkpt><trkpt lat="44.33154031448623" lon="11.912766315340336"><ele>19.0</ele><time>2026-04-06T07:02:14.991Z</time></trkpt><trkpt lat="44.33137387615226" lon="11.912638100408712"><ele>19.333333333333332</ele><time>2026-04-06T07:02:15.991Z</time></trkpt><trkpt lat="44.33120976610269" lon="11.912504312092713"><ele>19.666666666666668</ele><time>2026-04-06T07:02:16.991Z</time></trkpt><trkpt lat="44.33104375290513" lon="11.912370052556787"><ele>20.0</ele><time>2026-04-06T07:02:17.991Z</time></trkpt><trkpt lat="44.33087311355519" lon="11.9122350736298"><ele>20.0</ele><time>2026-04-06T07:02:18.991Z</time></trkpt><trkpt lat="44.33070076315907" lon="11.912102610007365"><ele>20.0</ele><time>2026-04-06T07:02:19.991Z</time></trkpt><trkpt lat="44.33052830914937" lon="11.911969820884535"><ele>20.0</ele><time>2026-04-06T07:02:20.991Z</time></trkpt><trkpt lat="44.33035689551603" lon="11.911838606972264"><ele>19.666666666666668</ele><time>2026-04-06T07:02:21.991Z</time></trkpt><trkpt lat="44.33018651013343" lon="11.911702475483509"><ele>19.333333333333332</ele><time>2026-04-06T07:02:22.991Z</time></trkpt><trkpt lat="44.33001333149258" lon="11.911565951754971"><ele>19.0</ele><time>2026-04-06T07:02:23.991Z</time></trkpt><trkpt lat="44.3298420426811" lon="11.911430775397987"><ele>19.0</ele><time>2026-04-06T07:02:24.991Z</time></trkpt><trkpt lat="44.3296685503421" lon="11.91129644255367"><ele>19.0</ele><time>2026-04-06T07:02:25.99Z</time></trkpt><trkpt lat="44.32949747906176" lon="11.911166030893758"><ele>19.0</ele><time>2026-04-06T07:02:26.99Z</time></trkpt><trkpt lat="44.32932463654184" lon="11.91104199277355"><ele>19.0</ele><time>2026-04-06T07:02:27.991Z</time></trkpt><trkpt lat="44.32915434238248" lon="11.910917045248118"><ele>19.0</ele><time>2026-04-06T07:02:28.991Z</time></trkpt><trkpt lat="44.32898776575313" lon="11.910793062169653"><ele>19.0</ele><time>2026-04-06T07:02:29.991Z</time></trkpt><trkpt lat="44.32882980201334" lon="11.910675182727974"><ele>18.333333333333332</ele><time>2026-04-06T07:02:30.991Z</time></trkpt><trkpt lat="44.32866968099695" lon="11.910549657434029"><ele>17.666666666666668</ele><time>2026-04-06T07:02:31.99Z</time></trkpt><trkpt lat="44.32851327155002" lon="11.910422323186753"><ele>17.0</ele><time>2026-04-06T07:02:32.99Z</time></trkpt><trkpt lat="44.32835495067268" lon="11.910296096188487"><ele>17.0</ele><time>2026-04-06T07:02:33.99Z</time></trkpt><trkpt lat="44.32819464169125" lon="11.910172397733342"><ele>17.0</ele><time>2026-04-06T07:02:34.99Z</time></trkpt><trkpt lat="44.32803435008637" lon="11.910048340007544"><ele>17.0</ele><time>2026-04-06T07:02:35.99Z</time></trkpt><trkpt lat="44.327878444418396" lon="11.90991705679949"><ele>17.333333333333336</ele><time>2026-04-06T07:02:36.99Z</time></trkpt><trkpt lat="44.32772015837788" lon="11.909785792757633"><ele>17.666666666666668</ele><time>2026-04-06T07:02:37.99Z</time></trkpt><trkpt lat="44.32756089965277" lon="11.909659277890569"><ele>18.0</ele><time>2026-04-06T07:02:38.99Z</time></trkpt><trkpt lat="44.327406924961004" lon="11.90954125699078"><ele>18.0</ele><time>2026-04-06T07:02:39.99Z</time></trkpt><trkpt lat="44.327270378433596" lon="11.909429017706884"><ele>18.0</ele><time>2026-04-06T07:02:40.99Z</time></trkpt><trkpt lat="44.32714654600164" lon="11.909313776824026"><ele>18.0</ele><time>2026-04-06T07:02:41.99Z</time></trkpt><trkpt lat="44.32704330425123" lon="11.909178549717621"><ele>18.0</ele><time>2026-04-06T07:02:42.99Z</time></trkpt><trkpt lat="44.32694916877901" lon="11.909013573613448"><ele>18.75</ele><time>2026-04-06T07:02:43.99Z</time></trkpt><trkpt lat="44.32687368195044" lon="11.908833173926801"><ele>19.5</ele><time>2026-04-06T07:02:44.99Z</time></trkpt><trkpt lat="44.326805717329336" lon="11.908670099714605"><ele>20.25</ele><time>2026-04-06T07:02:45.99Z</time></trkpt><trkpt lat="44.32670678230437" lon="11.908545023911262"><ele>21.0</ele><time>2026-04-06T07:02:46.99Z</time></trkpt><trkpt lat="44.32658122072189" lon="11.908479787117045"><ele>21.0</ele><time>2026-04-06T07:02:47.99Z</time></trkpt><trkpt lat="44.32643811666847" lon="11.90846340964389"><ele>21.0</ele><time>2026-04-06T07:02:48.99Z</time></trkpt><trkpt lat="44.326271898290464" lon="11.908475184340395"><ele>21.0</ele><time>2026-04-06T07:02:49.99Z</time></trkpt><trkpt lat="44.326089030307976" lon="11.908466545640888"><ele>21.0</ele><time>2026-04-06T07:02:50.99Z</time></trkpt><trkpt lat="44.32591390230239" lon="11.90840092680659"><ele>21.0</ele><time>2026-04-06T07:02:51.99Z</time></trkpt><trkpt lat="44.32574103736239" lon="11.90828234508139"><ele>21.0</ele><time>2026-04-06T07:02:52.99Z</time></trkpt><trkpt lat="44.325570183992305" lon="11.908137573114532"><ele>20.666666666666668</ele><time>2026-04-06T07:02:53.99Z</time></trkpt><trkpt lat="44.32539977759318" lon="11.907985782757109"><ele>20.333333333333336</ele><time>2026-04-06T07:02:54.99Z</time></trkpt><trkpt lat="44.325223528050884" lon="11.907841073276412"><ele>20.0</ele><time>2026-04-06T07:02:55.99Z</time></trkpt><trkpt lat="44.32504476394675" lon="11.90770187128527"><ele>20.333333333333336</ele><time>2026-04-06T07:02:56.99Z</time></trkpt><trkpt lat="44.32486193539253" lon="11.907561611226615"><ele>20.666666666666668</ele><time>2026-04-06T07:02:57.99Z</time></trkpt><trkpt lat="44.32467944464955" lon="11.90742160313218"><ele>21.0</ele><time>2026-04-06T07:02:58.99Z</time></trkpt><trkpt lat="44.32449451138668" lon="11.907281939547394"><ele>21.333333333333332</ele><time>2026-04-06T07:02:59.99Z</time></trkpt><trkpt lat="44.32430878430275" lon="11.907140130861503"><ele>21.666666666666664</ele><time>2026-04-06T07:03:00.99Z</time></trkpt><trkpt lat="44.32412311603034" lon="11.906998816980485"><ele>22.0</ele><time>2026-04-06T07:03:01.99Z</time></trkpt><trkpt lat="44.32393961233329" lon="11.906859430494883"><ele>22.333333333333332</ele><time>2026-04-06T07:03:02.99Z</time></trkpt><trkpt lat="44.32375676599769" lon="11.906721910389056"><ele>22.666666666666668</ele><time>2026-04-06T07:03:03.99Z</time></trkpt><trkpt lat="44.32357033280796" lon="11.906584264103296"><ele>23.0</ele><time>2026-04-06T07:03:04.99Z</time></trkpt><trkpt lat="44.32338398128241" lon="11.906441312061899"><ele>23.0</ele><time>2026-04-06T07:03:05.99Z</time></trkpt><trkpt lat="44.323198559681536" lon="11.906302163246828"><ele>23.0</ele><time>2026-04-06T07:03:06.99Z</time></trkpt><trkpt lat="44.32301452791245" lon="11.906163878700747"><ele>23.0</ele><time>2026-04-06T07:03:07.99Z</time></trkpt><trkpt lat="44.32283080142337" lon="11.906027470527203"><ele>23.0</ele><time>2026-04-06T07:03:08.99Z</time></trkpt><trkpt lat="44.322649012606114" lon="11.905890705432908"><ele>23.0</ele><time>2026-04-06T07:03:09.99Z</time></trkpt><trkpt lat="44.32247270238816" lon="11.905759686637717"><ele>23.0</ele><time>2026-04-06T07:03:10.99Z</time></trkpt><trkpt lat="44.322295004052336" lon="11.905631148242414"><ele>23.0</ele><time>2026-04-06T07:03:11.99Z</time></trkpt><trkpt lat="44.32212130233429" lon="11.905507916769043"><ele>23.0</ele><time>2026-04-06T07:03:12.99Z</time></trkpt><trkpt lat="44.321958459709855" lon="11.905365986638834"><ele>23.0</ele><time>2026-04-06T07:03:13.99Z</time></trkpt><trkpt lat="44.321785641849516" lon="11.905236400307155"><ele>23.0</ele><time>2026-04-06T07:03:14.99Z</time></trkpt><trkpt lat="44.32160887458149" lon="11.905107233658041"><ele>23.0</ele><time>2026-04-06T07:03:15.99Z</time></trkpt><trkpt lat="44.32143847354503" lon="11.904980282522347"><ele>23.0</ele><time>2026-04-06T07:03:16.99Z</time></trkpt><trkpt lat="44.321262486960016" lon="11.904847581360134"><ele>22.666666666666668</ele><time>2026-04-06T07:03:17.99Z</time></trkpt><trkpt lat="44.32108736621372" lon="11.90471395226598"><ele>22.333333333333332</ele><time>2026-04-06T07:03:18.99Z</time></trkpt><trkpt lat="44.320916268737825" lon="11.904588696014725"><ele>22.0</ele><time>2026-04-06T07:03:19.99Z</time></trkpt><trkpt lat="44.320757634900225" lon="11.904477188314335"><ele>22.0</ele><time>2026-04-06T07:03:20.99Z</time></trkpt><trkpt lat="44.32061557709621" lon="11.904374928940571"><ele>22.0</ele><time>2026-04-06T07:03:21.99Z</time></trkpt><trkpt lat="44.32048236923628" lon="11.904277636964995"><ele>22.0</ele><time>2026-04-06T07:03:22.99Z</time></trkpt><trkpt lat="44.32036862401928" lon="11.904182708232984"><ele>22.0</ele><time>2026-04-06T07:03:23.99Z</time></trkpt><trkpt lat="44.32026874608197" lon="11.904083106701881"><ele>22.200000000000003</ele><time>2026-04-06T07:03:24.99Z</time></trkpt><trkpt lat="44.32019908009144" lon="11.903979325057323"><ele>22.4</ele><time>2026-04-06T07:03:25.99Z</time></trkpt><trkpt lat="44.32016104873925" lon="11.903869606494169"><ele>22.6</ele><time>2026-04-06T07:03:26.99Z</time></trkpt><trkpt lat="44.32015338491121" lon="11.903745323080209"><ele>22.799999999999997</ele><time>2026-04-06T07:03:27.99Z</time></trkpt><trkpt lat="44.32017330042984" lon="11.903603162109906"><ele>23.0</ele><time>2026-04-06T07:03:28.99Z</time></trkpt><trkpt lat="44.32025595847145" lon="11.903459534653443"><ele>23.25</ele><time>2026-04-06T07:03:29.99Z</time></trkpt><trkpt lat="44.320302931747385" lon="11.903311761829357"><ele>23.5</ele><time>2026-04-06T07:03:30.99Z</time></trkpt><trkpt lat="44.32032806999161" lon="11.903167616959333"><ele>23.75</ele><time>2026-04-06T07:03:31.99Z</time></trkpt><trkpt lat="44.320304177329234" lon="11.90298464009091"><ele>24.0</ele><time>2026-04-06T07:03:32.99Z</time></trkpt><trkpt lat="44.320245676872204" lon="11.902805982676888"><ele>24.0</ele><time>2026-04-06T07:03:33.99Z</time></trkpt><trkpt lat="44.32014613232441" lon="11.902666809710007"><ele>24.0</ele><time>2026-04-06T07:03:34.99Z</time></trkpt><trkpt lat="44.32004913535146" lon="11.902539746517213"><ele>24.0</ele><time>2026-04-06T07:03:35.99Z</time></trkpt><trkpt lat="44.31995321424406" lon="11.902419873431418"><ele>24.0</ele><time>2026-04-06T07:03:36.99Z</time></trkpt><trkpt lat="44.31989310837741" lon="11.902278380644729"><ele>24.0</ele><time>2026-04-06T07:03:37.99Z</time></trkpt><trkpt lat="44.31983987559285" lon="11.902135025353424"><ele>24.0</ele><time>2026-04-06T07:03:38.99Z</time></trkpt><trkpt lat="44.319910502438795" lon="11.901928080249668"><ele>24.0</ele><time>2026-04-06T07:03:39.99Z</time></trkpt><trkpt lat="44.31994485180233" lon="11.9017230517442"><ele>24.0</ele><time>2026-04-06T07:03:40.99Z</time></trkpt><trkpt lat="44.31998321717211" lon="11.901507694120516"><ele>24.0</ele><time>2026-04-06T07:03:41.99Z</time></trkpt><trkpt lat="44.31998498919166" lon="11.901287203982994"><ele>24.0</ele><time>2026-04-06T07:03:42.99Z</time></trkpt><trkpt lat="44.319941743625144" lon="11.901064507205474"><ele>24.0</ele><time>2026-04-06T07:03:43.99Z</time></trkpt><trkpt lat="44.31986922879718" lon="11.900845785053365"><ele>24.333333333333336</ele><time>2026-04-06T07:03:44.99Z</time></trkpt><trkpt lat="44.31977633834667" lon="11.900630142889034"><ele>24.666666666666668</ele><time>2026-04-06T07:03:45.99Z</time></trkpt><trkpt lat="44.319672432411274" lon="11.900416365880718"><ele>25.0</ele><time>2026-04-06T07:03:46.99Z</time></trkpt><trkpt lat="44.31956810113511" lon="11.900188428110528"><ele>24.666666666666668</ele><time>2026-04-06T07:03:47.99Z</time></trkpt><trkpt lat="44.31946160950078" lon="11.899952292913907"><ele>24.333333333333336</ele><time>2026-04-06T07:03:48.99Z</time></trkpt><trkpt lat="44.31934902232675" lon="11.899710787070447"><ele>24.0</ele><time>2026-04-06T07:03:49.99Z</time></trkpt><trkpt lat="44.31924054187364" lon="11.899464861630127"><ele>24.0</ele><time>2026-04-06T07:03:50.99Z</time></trkpt><trkpt lat="44.319133342012364" lon="11.899215299936186"><ele>24.0</ele><time>2026-04-06T07:03:51.99Z</time></trkpt><trkpt lat="44.319033110337244" lon="11.898974827505949"><ele>24.0</ele><time>2026-04-06T07:03:52.99Z</time></trkpt><trkpt lat="44.31892657132061" lon="11.898745125932377"><ele>24.0</ele><time>2026-04-06T07:03:53.99Z</time></trkpt><trkpt lat="44.3188214535462" lon="11.898517077119307"><ele>24.0</ele><time>2026-04-06T07:03:54.99Z</time></trkpt><trkpt lat="44.31872412921921" lon="11.898299416119837"><ele>24.0</ele><time>2026-04-06T07:03:55.99Z</time></trkpt><trkpt lat="44.31863079841598" lon="11.898096247572438"><ele>23.5</ele><time>2026-04-06T07:03:56.99Z</time></trkpt><trkpt lat="44.31854272413732" lon="11.89790104750908"><ele>23.0</ele><time>2026-04-06T07:03:57.99Z</time></trkpt><trkpt lat="44.318462375700264" lon="11.897729481498795"><ele>22.5</ele><time>2026-04-06T07:03:58.99Z</time></trkpt><trkpt lat="44.31839919533861" lon="11.897584212980101"><ele>22.0</ele><time>2026-04-06T07:03:59.99Z</time></trkpt><trkpt lat="44.31835717435357" lon="11.897460933360511"><ele>22.0</ele><time>2026-04-06T07:04:00.99Z</time></trkpt><trkpt lat="44.318338380022595" lon="11.897362121103027"><ele>22.0</ele><time>2026-04-06T07:04:01.99Z</time></trkpt><trkpt lat="44.31833717168668" lon="11.897188503404662"><ele>22.0</ele><time>2026-04-06T07:04:03.99Z</time></trkpt><trkpt lat="44.318338236099635" lon="11.897076809174221"><ele>22.0</ele><time>2026-04-06T07:04:04.99Z</time></trkpt><trkpt lat="44.318333646630705" lon="11.896949763064606"><ele>22.0</ele><time>2026-04-06T07:04:05.99Z</time></trkpt><trkpt lat="44.31825941561323" lon="11.896688767751447"><ele>21.75</ele><time>2026-04-06T07:04:07.99Z</time></trkpt><trkpt lat="44.318154021153205" lon="11.896616397825516"><ele>21.5</ele><time>2026-04-06T07:04:08.99Z</time></trkpt><trkpt lat="44.3180405844762" lon="11.896556769683208"><ele>21.25</ele><time>2026-04-06T07:04:09.99Z</time></trkpt><trkpt lat="44.31791876764323" lon="11.896500122633192"><ele>21.0</ele><time>2026-04-06T07:04:10.99Z</time></trkpt><trkpt lat="44.31778974645452" lon="11.896423382523434"><ele>21.666666666666668</ele><time>2026-04-06T07:04:11.99Z</time></trkpt><trkpt lat="44.31767806223972" lon="11.896292593644521"><ele>22.333333333333336</ele><time>2026-04-06T07:04:12.99Z</time></trkpt><trkpt lat="44.317572075911244" lon="11.89612859282592"><ele>23.0</ele><time>2026-04-06T07:04:13.99Z</time></trkpt><trkpt lat="44.31748837144158" lon="11.895942847169898"><ele>23.0</ele><time>2026-04-06T07:04:14.99Z</time></trkpt><trkpt lat="44.31739416350821" lon="11.89577596146241"><ele>23.0</ele><time>2026-04-06T07:04:15.99Z</time></trkpt><trkpt lat="44.31730730709503" lon="11.895622098670993"><ele>23.0</ele><time>2026-04-06T07:04:16.99Z</time></trkpt><trkpt lat="44.317224524257675" lon="11.89547475068388"><ele>23.0</ele><time>2026-04-06T07:04:17.99Z</time></trkpt><trkpt lat="44.31714298624126" lon="11.895328724642496"><ele>23.25</ele><time>2026-04-06T07:04:18.99Z</time></trkpt><trkpt lat="44.317059734091785" lon="11.895180267537683"><ele>23.5</ele><time>2026-04-06T07:04:19.99Z</time></trkpt><trkpt lat="44.31697710425957" lon="11.895038274188748"><ele>23.75</ele><time>2026-04-06T07:04:20.99Z</time></trkpt><trkpt lat="44.31688682412604" lon="11.894888090437417"><ele>24.0</ele><time>2026-04-06T07:04:21.99Z</time></trkpt><trkpt lat="44.316779979992134" lon="11.894748612817287"><ele>23.333333333333332</ele><time>2026-04-06T07:04:22.99Z</time></trkpt><trkpt lat="44.31667737189263" lon="11.894582363377928"><ele>22.666666666666664</ele><time>2026-04-06T07:04:23.99Z</time></trkpt><trkpt lat="44.316559872421834" lon="11.894410412971075"><ele>22.0</ele><time>2026-04-06T07:04:24.99Z</time></trkpt><trkpt lat="44.31641825172648" lon="11.894216443502238"><ele>22.666666666666664</ele><time>2026-04-06T07:04:25.99Z</time></trkpt><trkpt lat="44.316275238857514" lon="11.894007819442596"><ele>23.333333333333332</ele><time>2026-04-06T07:04:26.989Z</time></trkpt><trkpt lat="44.316121441449795" lon="11.893775856477768"><ele>24.0</ele><time>2026-04-06T07:04:27.99Z</time></trkpt><trkpt lat="44.31596880499292" lon="11.893522779494313"><ele>23.0</ele><time>2026-04-06T07:04:28.99Z</time></trkpt><trkpt lat="44.31581289208848" lon="11.893269793505482"><ele>22.0</ele><time>2026-04-06T07:04:29.99Z</time></trkpt><trkpt lat="44.31566038463569" lon="11.893023558425627"><ele>23.0</ele><time>2026-04-06T07:04:30.99Z</time></trkpt><trkpt lat="44.31549971449526" lon="11.892784262055246"><ele>24.0</ele><time>2026-04-06T07:04:31.99Z</time></trkpt><trkpt lat="44.31534289432758" lon="11.892551418951795"><ele>24.0</ele><time>2026-04-06T07:04:32.99Z</time></trkpt><trkpt lat="44.315188154178365" lon="11.892318625814376"><ele>24.0</ele><time>2026-04-06T07:04:33.99Z</time></trkpt><trkpt lat="44.31503168841905" lon="11.892083744074567"><ele>24.0</ele><time>2026-04-06T07:04:34.99Z</time></trkpt><trkpt lat="44.314890391854725" lon="11.891837187746402"><ele>24.0</ele><time>2026-04-06T07:04:35.99Z</time></trkpt><trkpt lat="44.314731332242275" lon="11.891626257357785"><ele>24.0</ele><time>2026-04-06T07:04:36.99Z</time></trkpt><trkpt lat="44.31458813748846" lon="11.891413797047681"><ele>24.333333333333336</ele><time>2026-04-06T07:04:37.99Z</time></trkpt><trkpt lat="44.3144484294627" lon="11.891204202097294"><ele>24.666666666666668</ele><time>2026-04-06T07:04:38.99Z</time></trkpt><trkpt lat="44.31431695805862" lon="11.890980259001381"><ele>25.0</ele><time>2026-04-06T07:04:39.99Z</time></trkpt><trkpt lat="44.314160108993214" lon="11.89077296596016"><ele>25.0</ele><time>2026-04-06T07:04:40.99Z</time></trkpt><trkpt lat="44.31399798823804" lon="11.890561242063674"><ele>25.0</ele><time>2026-04-06T07:04:41.99Z</time></trkpt><trkpt lat="44.313823213753636" lon="11.890354912962026"><ele>25.0</ele><time>2026-04-06T07:04:42.99Z</time></trkpt><trkpt lat="44.313640926675056" lon="11.890156619268074"><ele>25.0</ele><time>2026-04-06T07:04:43.99Z</time></trkpt><trkpt lat="44.31345200927718" lon="11.889971862843568"><ele>25.0</ele><time>2026-04-06T07:04:44.99Z</time></trkpt><trkpt lat="44.313254720647635" lon="11.889798592838716"><ele>25.0</ele><time>2026-04-06T07:04:45.99Z</time></trkpt><trkpt lat="44.31305205783449" lon="11.889629882297333"><ele>25.0</ele><time>2026-04-06T07:04:46.99Z</time></trkpt><trkpt lat="44.31284370470318" lon="11.88947295567685"><ele>25.0</ele><time>2026-04-06T07:04:47.99Z</time></trkpt><trkpt lat="44.312629514200054" lon="11.889328467931767"><ele>24.5</ele><time>2026-04-06T07:04:48.99Z</time></trkpt><trkpt lat="44.31240804192492" lon="11.88918427697889"><ele>24.0</ele><time>2026-04-06T07:04:49.99Z</time></trkpt><trkpt lat="44.312188196868796" lon="11.889045652895025"><ele>23.0</ele><time>2026-04-06T07:04:50.99Z</time></trkpt><trkpt lat="44.311969931311246" lon="11.88890469509492"><ele>22.0</ele><time>2026-04-06T07:04:51.99Z</time></trkpt><trkpt lat="44.3117523890426" lon="11.888763611822458"><ele>22.0</ele><time>2026-04-06T07:04:52.99Z</time></trkpt><trkpt lat="44.31153785450131" lon="11.888622155503223"><ele>22.0</ele><time>2026-04-06T07:04:53.99Z</time></trkpt><trkpt lat="44.31132154664176" lon="11.88847969477714"><ele>22.5</ele><time>2026-04-06T07:04:54.99Z</time></trkpt><trkpt lat="44.31110411241915" lon="11.88833643122239"><ele>23.0</ele><time>2026-04-06T07:04:55.99Z</time></trkpt><trkpt lat="44.310888731388005" lon="11.888191799716912"><ele>23.0</ele><time>2026-04-06T07:04:56.99Z</time></trkpt><trkpt lat="44.310670051108445" lon="11.888047613082875"><ele>23.0</ele><time>2026-04-06T07:04:57.99Z</time></trkpt><trkpt lat="44.31044968648695" lon="11.88790381178392"><ele>23.0</ele><time>2026-04-06T07:04:58.99Z</time></trkpt><trkpt lat="44.310229129129006" lon="11.887760866339022"><ele>23.0</ele><time>2026-04-06T07:04:59.99Z</time></trkpt><trkpt lat="44.31001190419035" lon="11.887619227696117"><ele>23.0</ele><time>2026-04-06T07:05:00.99Z</time></trkpt><trkpt lat="44.30979179142244" lon="11.887476916319166"><ele>23.0</ele><time>2026-04-06T07:05:01.99Z</time></trkpt><trkpt lat="44.309572768727186" lon="11.88734175593532"><ele>23.5</ele><time>2026-04-06T07:05:02.99Z</time></trkpt><trkpt lat="44.3093523951813" lon="11.887214242939425"><ele>24.0</ele><time>2026-04-06T07:05:03.99Z</time></trkpt><trkpt lat="44.30912740492242" lon="11.887097473964475"><ele>24.5</ele><time>2026-04-06T07:05:04.99Z</time></trkpt><trkpt lat="44.308900514160214" lon="11.88698924627703"><ele>25.0</ele><time>2026-04-06T07:05:05.99Z</time></trkpt><trkpt lat="44.30867088163274" lon="11.886887187233423"><ele>25.0</ele><time>2026-04-06T07:05:06.99Z</time></trkpt><trkpt lat="44.308440431275216" lon="11.886790058505154"><ele>25.0</ele><time>2026-04-06T07:05:07.99Z</time></trkpt><trkpt lat="44.30820850931793" lon="11.886702279602964"><ele>26.0</ele><time>2026-04-06T07:05:08.99Z</time></trkpt><trkpt lat="44.307972229392696" lon="11.886618673674008"><ele>27.0</ele><time>2026-04-06T07:05:09.99Z</time></trkpt><trkpt lat="44.30774258291641" lon="11.886546231117473"><ele>27.0</ele><time>2026-04-06T07:05:10.99Z</time></trkpt><trkpt lat="44.30752102165469" lon="11.886478363556447"><ele>27.0</ele><time>2026-04-06T07:05:11.99Z</time></trkpt><trkpt lat="44.307316009997436" lon="11.886418332596264"><ele>27.0</ele><time>2026-04-06T07:05:12.99Z</time></trkpt><trkpt lat="44.307116357209146" lon="11.886361536879143"><ele>27.0</ele><time>2026-04-06T07:05:13.99Z</time></trkpt><trkpt lat="44.30693056402176" lon="11.886310917003904"><ele>27.0</ele><time>2026-04-06T07:05:14.99Z</time></trkpt><trkpt lat="44.30675742933722" lon="11.886262616122327"><ele>27.0</ele><time>2026-04-06T07:05:15.99Z</time></trkpt><trkpt lat="44.30659322155671" lon="11.886213412976918"><ele>27.0</ele><time>2026-04-06T07:05:16.99Z</time></trkpt><trkpt lat="44.30642926102502" lon="11.886166411962419"><ele>27.0</ele><time>2026-04-06T07:05:17.99Z</time></trkpt><trkpt lat="44.30627518188696" lon="11.886122811964619"><ele>27.0</ele><time>2026-04-06T07:05:18.99Z</time></trkpt><trkpt lat="44.30614115056929" lon="11.886085379344225"><ele>26.8</ele><time>2026-04-06T07:05:19.99Z</time></trkpt><trkpt lat="44.306019283863904" lon="11.886053875621439"><ele>26.6</ele><time>2026-04-06T07:05:20.99Z</time></trkpt><trkpt lat="44.30590553732022" lon="11.886022966820864"><ele>26.400000000000002</ele><time>2026-04-06T07:05:21.99Z</time></trkpt><trkpt lat="44.30581118317502" lon="11.8859945940741"><ele>26.200000000000003</ele><time>2026-04-06T07:05:22.99Z</time></trkpt><trkpt lat="44.30574845827702" lon="11.885972035679691"><ele>26.0</ele><time>2026-04-06T07:05:23.99Z</time></trkpt><trkpt lat="44.30563917346406" lon="11.885917491403367"><ele>26.0</ele><time>2026-04-06T07:05:25.99Z</time></trkpt><trkpt lat="44.305589021211965" lon="11.88586194092328"><ele>26.0</ele><time>2026-04-06T07:05:26.99Z</time></trkpt><trkpt lat="44.30554909634269" lon="11.885783990799766"><ele>26.0</ele><time>2026-04-06T07:05:27.99Z</time></trkpt><trkpt lat="44.305508065530546" lon="11.885701372635946"><ele>26.0</ele><time>2026-04-06T07:05:28.99Z</time></trkpt><trkpt lat="44.305460005488" lon="11.885626819529678"><ele>26.0</ele><time>2026-04-06T07:05:29.99Z</time></trkpt><trkpt lat="44.30539558547858" lon="11.88556817418878"><ele>26.0</ele><time>2026-04-06T07:05:30.99Z</time></trkpt><trkpt lat="44.305324875249035" lon="11.885531983446139"><ele>26.0</ele><time>2026-04-06T07:05:31.99Z</time></trkpt><trkpt lat="44.305258454378084" lon="11.885517810431638"><ele>26.0</ele><time>2026-04-06T07:05:32.99Z</time></trkpt><trkpt lat="44.305194847456875" lon="11.885529962809363"><ele>26.0</ele><time>2026-04-06T07:05:33.99Z</time></trkpt><trkpt lat="44.30513217727677" lon="11.885569097650547"><ele>26.0</ele><time>2026-04-06T07:05:34.99Z</time></trkpt><trkpt lat="44.30507325912578" lon="11.885622599063526"><ele>26.0</ele><time>2026-04-06T07:05:35.99Z</time></trkpt><trkpt lat="44.30500895415977" lon="11.885672607722146"><ele>26.0</ele><time>2026-04-06T07:05:36.99Z</time></trkpt><trkpt lat="44.30493701265182" lon="11.8856963230296"><ele>26.0</ele><time>2026-04-06T07:05:37.99Z</time></trkpt><trkpt lat="44.30486325200329" lon="11.885698573165435"><ele>26.0</ele><time>2026-04-06T07:05:38.99Z</time></trkpt><trkpt lat="44.30478885992188" lon="11.885689634071692"><ele>25.999999999999996</ele><time>2026-04-06T07:05:39.99Z</time></trkpt><trkpt lat="44.30471413265983" lon="11.88567239703731"><ele>26.0</ele><time>2026-04-06T07:05:40.99Z</time></trkpt><trkpt lat="44.304649633835496" lon="11.88564787617901"><ele>26.0</ele><time>2026-04-06T07:05:41.99Z</time></trkpt><trkpt lat="44.3045331397915" lon="11.88561325106736"><ele>26.0</ele><time>2026-04-06T07:05:43.99Z</time></trkpt><trkpt lat="44.3044597062575" lon="11.885592217869657"><ele>25.999999999999996</ele><time>2026-04-06T07:05:44.99Z</time></trkpt><trkpt lat="44.3043765283934" lon="11.885563383183829"><ele>26.0</ele><time>2026-04-06T07:05:45.99Z</time></trkpt><trkpt lat="44.30429221555021" lon="11.885534755878707"><ele>26.0</ele><time>2026-04-06T07:05:46.99Z</time></trkpt><trkpt lat="44.304203455456005" lon="11.885506967391489"><ele>26.0</ele><time>2026-04-06T07:05:47.99Z</time></trkpt><trkpt lat="44.30410518485243" lon="11.885477921085013"><ele>26.0</ele><time>2026-04-06T07:05:48.99Z</time></trkpt><trkpt lat="44.30399848497953" lon="11.885445547567576"><ele>26.0</ele><time>2026-04-06T07:05:49.99Z</time></trkpt><trkpt lat="44.30388838669731" lon="11.88541275123546"><ele>26.0</ele><time>2026-04-06T07:05:50.99Z</time></trkpt><trkpt lat="44.30377921922708" lon="11.885380469845133"><ele>26.5</ele><time>2026-04-06T07:05:51.99Z</time></trkpt><trkpt lat="44.30366990848092" lon="11.885342804623715"><ele>27.0</ele><time>2026-04-06T07:05:52.99Z</time></trkpt><trkpt lat="44.30355785515368" lon="11.885303038043471"><ele>27.5</ele><time>2026-04-06T07:05:53.99Z</time></trkpt><trkpt lat="44.3034404087794" lon="11.885260719039136"><ele>28.0</ele><time>2026-04-06T07:05:54.99Z</time></trkpt><trkpt lat="44.30331871759995" lon="11.885216352253467"><ele>28.0</ele><time>2026-04-06T07:05:55.99Z</time></trkpt><trkpt lat="44.30318839367513" lon="11.885176844250779"><ele>28.0</ele><time>2026-04-06T07:05:56.99Z</time></trkpt><trkpt lat="44.30305998770886" lon="11.885133319143241"><ele>28.0</ele><time>2026-04-06T07:05:57.99Z</time></trkpt><trkpt lat="44.30292738423531" lon="11.885089477844065"><ele>28.0</ele><time>2026-04-06T07:05:58.99Z</time></trkpt><trkpt lat="44.302789629744034" lon="11.885049359053648"><ele>28.0</ele><time>2026-04-06T07:05:59.99Z</time></trkpt><trkpt lat="44.30265800460908" lon="11.884999837152003"><ele>28.0</ele><time>2026-04-06T07:06:00.99Z</time></trkpt><trkpt lat="44.30252356726499" lon="11.88494860115755"><ele>28.0</ele><time>2026-04-06T07:06:01.99Z</time></trkpt><trkpt lat="44.30238210577475" lon="11.884895949425525"><ele>28.0</ele><time>2026-04-06T07:06:02.99Z</time></trkpt><trkpt lat="44.30223858062797" lon="11.884844809589914"><ele>28.0</ele><time>2026-04-06T07:06:03.99Z</time></trkpt><trkpt lat="44.30208783399" lon="11.88479892165435"><ele>28.0</ele><time>2026-04-06T07:06:04.99Z</time></trkpt><trkpt lat="44.30192087665252" lon="11.884748749776083"><ele>28.0</ele><time>2026-04-06T07:06:05.99Z</time></trkpt><trkpt lat="44.30174380002552" lon="11.884691108760979"><ele>28.0</ele><time>2026-04-06T07:06:06.99Z</time></trkpt><trkpt lat="44.30156549801814" lon="11.884623354276581"><ele>28.0</ele><time>2026-04-06T07:06:07.99Z</time></trkpt><trkpt lat="44.30137538016955" lon="11.884543449982946"><ele>28.0</ele><time>2026-04-06T07:06:08.989Z</time></trkpt><trkpt lat="44.301186662621134" lon="11.884457996487525"><ele>28.333333333333336</ele><time>2026-04-06T07:06:09.989Z</time></trkpt><trkpt lat="44.300992466761535" lon="11.88437423609692"><ele>28.666666666666664</ele><time>2026-04-06T07:06:10.989Z</time></trkpt><trkpt lat="44.30080259009351" lon="11.88429327756994"><ele>29.0</ele><time>2026-04-06T07:06:11.989Z</time></trkpt><trkpt lat="44.30061270870988" lon="11.884217424248272"><ele>28.333333333333332</ele><time>2026-04-06T07:06:12.989Z</time></trkpt><trkpt lat="44.30041693397845" lon="11.88414008217371"><ele>27.666666666666664</ele><time>2026-04-06T07:06:13.989Z</time></trkpt><trkpt lat="44.30021709878326" lon="11.884069124649281"><ele>27.0</ele><time>2026-04-06T07:06:14.989Z</time></trkpt><trkpt lat="44.30001704426341" lon="11.883994070095412"><ele>27.0</ele><time>2026-04-06T07:06:15.989Z</time></trkpt><trkpt lat="44.29981983869079" lon="11.883919163206055"><ele>27.0</ele><time>2026-04-06T07:06:16.989Z</time></trkpt><trkpt lat="44.29962948391234" lon="11.88384307155964"><ele>27.0</ele><time>2026-04-06T07:06:17.989Z</time></trkpt><trkpt lat="44.299444274976" lon="11.883767514522837"><ele>28.0</ele><time>2026-04-06T07:06:18.989Z</time></trkpt><trkpt lat="44.299265892330254" lon="11.883695651526269"><ele>29.0</ele><time>2026-04-06T07:06:19.989Z</time></trkpt><trkpt lat="44.299090448109446" lon="11.883626879361621"><ele>30.0</ele><time>2026-04-06T07:06:20.989Z</time></trkpt><trkpt lat="44.29892541324029" lon="11.883562849122054"><ele>30.25</ele><time>2026-04-06T07:06:21.989Z</time></trkpt><trkpt lat="44.29877196542204" lon="11.883504328546747"><ele>30.5</ele><time>2026-04-06T07:06:22.989Z</time></trkpt><trkpt lat="44.29863280477708" lon="11.883444544559945"><ele>30.75</ele><time>2026-04-06T07:06:23.989Z</time></trkpt><trkpt lat="44.2985167698967" lon="11.883387560162298"><ele>31.0</ele><time>2026-04-06T07:06:24.989Z</time></trkpt><trkpt lat="44.29842026520063" lon="11.883319179588584"><ele>31.0</ele><time>2026-04-06T07:06:25.989Z</time></trkpt><trkpt lat="44.29833763582844" lon="11.883231579617236"><ele>31.0</ele><time>2026-04-06T07:06:26.989Z</time></trkpt><trkpt lat="44.29826984501677" lon="11.883124636058696"><ele>31.0</ele><time>2026-04-06T07:06:27.989Z</time></trkpt><trkpt lat="44.29821106817715" lon="11.882991985426248"><ele>31.0</ele><time>2026-04-06T07:06:28.989Z</time></trkpt><trkpt lat="44.298155343998246" lon="11.882845506065554"><ele>31.0</ele><time>2026-04-06T07:06:29.989Z</time></trkpt><trkpt lat="44.29811926689414" lon="11.882698322517971"><ele>30.8</ele><time>2026-04-06T07:06:30.99Z</time></trkpt><trkpt lat="44.298058287065494" lon="11.88259601243255"><ele>30.6</ele><time>2026-04-06T07:06:31.989Z</time></trkpt><trkpt lat="44.297977973761085" lon="11.88253184760498"><ele>30.4</ele><time>2026-04-06T07:06:32.989Z</time></trkpt><trkpt lat="44.2978797211354" lon="11.882513889463741"><ele>30.2</ele><time>2026-04-06T07:06:33.99Z</time></trkpt><trkpt lat="44.29778042100363" lon="11.88257182629113"><ele>30.0</ele><time>2026-04-06T07:06:34.989Z</time></trkpt><trkpt lat="44.297701123178186" lon="11.882636996841038"><ele>30.0</ele><time>2026-04-06T07:06:35.989Z</time></trkpt><trkpt lat="44.297645010003315" lon="11.882742615522012"><ele>30.0</ele><time>2026-04-06T07:06:36.99Z</time></trkpt><trkpt lat="44.29761246144064" lon="11.882879538686524"><ele>30.0</ele><time>2026-04-06T07:06:37.989Z</time></trkpt><trkpt lat="44.297615330981785" lon="11.883030401860477"><ele>30.0</ele><time>2026-04-06T07:06:38.989Z</time></trkpt><trkpt lat="44.29765314236408" lon="11.883168696122796"><ele>30.0</ele><time>2026-04-06T07:06:39.989Z</time></trkpt><trkpt lat="44.29759940664105" lon="11.883322877694733"><ele>31.0</ele><time>2026-04-06T07:06:40.989Z</time></trkpt><trkpt lat="44.29754818164377" lon="11.88346412679954"><ele>32.0</ele><time>2026-04-06T07:06:41.989Z</time></trkpt><trkpt lat="44.297416826223504" lon="11.883749846083859"><ele>33.0</ele><time>2026-04-06T07:06:43.989Z</time></trkpt><trkpt lat="44.297340868178345" lon="11.88390386248383"><ele>33.0</ele><time>2026-04-06T07:06:44.989Z</time></trkpt><trkpt lat="44.29726413680809" lon="11.884068537535105"><ele>33.0</ele><time>2026-04-06T07:06:45.989Z</time></trkpt><trkpt lat="44.29718644386956" lon="11.884240498576954"><ele>33.0</ele><time>2026-04-06T07:06:46.989Z</time></trkpt><trkpt lat="44.29711061498656" lon="11.884413887186415"><ele>33.0</ele><time>2026-04-06T07:06:47.989Z</time></trkpt><trkpt lat="44.297011470285135" lon="11.884573400196627"><ele>32.666666666666664</ele><time>2026-04-06T07:06:48.989Z</time></trkpt><trkpt lat="44.296924679075595" lon="11.88475494030667"><ele>32.33333333333333</ele><time>2026-04-06T07:06:49.989Z</time></trkpt><trkpt lat="44.29684937145478" lon="11.884939939736094"><ele>32.0</ele><time>2026-04-06T07:06:50.989Z</time></trkpt><trkpt lat="44.29677652846699" lon="11.885116257034666"><ele>32.0</ele><time>2026-04-06T07:06:51.989Z</time></trkpt><trkpt lat="44.29670255028136" lon="11.885286514998484"><ele>32.0</ele><time>2026-04-06T07:06:52.989Z</time></trkpt><trkpt lat="44.29664060972837" lon="11.885458498618988"><ele>32.0</ele><time>2026-04-06T07:06:53.989Z</time></trkpt><trkpt lat="44.296580204397" lon="11.885618814242234"><ele>32.0</ele><time>2026-04-06T07:06:54.989Z</time></trkpt><trkpt lat="44.29651546263308" lon="11.885786687580788"><ele>32.25</ele><time>2026-04-06T07:06:55.989Z</time></trkpt><trkpt lat="44.2964530357867" lon="11.885956123495106"><ele>32.5</ele><time>2026-04-06T07:06:56.989Z</time></trkpt><trkpt lat="44.29638777444552" lon="11.886124023928463"><ele>32.75</ele><time>2026-04-06T07:06:57.989Z</time></trkpt><trkpt lat="44.29632594960429" lon="11.88629680469107"><ele>33.0</ele><time>2026-04-06T07:06:58.989Z</time></trkpt><trkpt lat="44.29624984630059" lon="11.886468586286984"><ele>33.0</ele><time>2026-04-06T07:06:59.989Z</time></trkpt><trkpt lat="44.296172825122774" lon="11.886635037805897"><ele>33.0</ele><time>2026-04-06T07:07:00.989Z</time></trkpt><trkpt lat="44.296111866393915" lon="11.886803174565708"><ele>33.0</ele><time>2026-04-06T07:07:01.989Z</time></trkpt><trkpt lat="44.29606165059796" lon="11.886961832795848"><ele>33.0</ele><time>2026-04-06T07:07:02.989Z</time></trkpt><trkpt lat="44.29601501244812" lon="11.887116791900846"><ele>32.8</ele><time>2026-04-06T07:07:03.989Z</time></trkpt><trkpt lat="44.29597225288728" lon="11.887264265583557"><ele>32.599999999999994</ele><time>2026-04-06T07:07:04.989Z</time></trkpt><trkpt lat="44.29593151272635" lon="11.887390106790612"><ele>32.400000000000006</ele><time>2026-04-06T07:07:05.989Z</time></trkpt><trkpt lat="44.295830544256376" lon="11.887480088105905"><ele>32.2</ele><time>2026-04-06T07:07:06.989Z</time></trkpt><trkpt lat="44.29579330049817" lon="11.88759525770093"><ele>32.0</ele><time>2026-04-06T07:07:07.989Z</time></trkpt><trkpt lat="44.29575177189374" lon="11.887697699957096"><ele>31.999999999999996</ele><time>2026-04-06T07:07:08.989Z</time></trkpt><trkpt lat="44.29570412991483" lon="11.887776553095335"><ele>32.0</ele><time>2026-04-06T07:07:09.989Z</time></trkpt><trkpt lat="44.29564649727229" lon="11.887866921781715"><ele>32.0</ele><time>2026-04-06T07:07:10.989Z</time></trkpt><trkpt lat="44.29559032129559" lon="11.887963235747495"><ele>32.0</ele><time>2026-04-06T07:07:11.989Z</time></trkpt><trkpt lat="44.29553633562595" lon="11.88803716471059"><ele>31.999999999999996</ele><time>2026-04-06T07:07:12.989Z</time></trkpt><trkpt lat="44.29546490403428" lon="11.888085556186844"><ele>32.0</ele><time>2026-04-06T07:07:13.989Z</time></trkpt><trkpt lat="44.29530210722311" lon="11.888123492924235"><ele>32.0</ele><time>2026-04-06T07:07:15.989Z</time></trkpt><trkpt lat="44.295208949883616" lon="11.888065617016016"><ele>32.0</ele><time>2026-04-06T07:07:16.989Z</time></trkpt><trkpt lat="44.29511279406399" lon="11.887991929434413"><ele>32.0</ele><time>2026-04-06T07:07:17.989Z</time></trkpt><trkpt lat="44.29500769104479" lon="11.887920461696055"><ele>32.0</ele><time>2026-04-06T07:07:18.989Z</time></trkpt><trkpt lat="44.29489736210345" lon="11.887855384590798"><ele>32.0</ele><time>2026-04-06T07:07:19.989Z</time></trkpt><trkpt lat="44.29478891661766" lon="11.887789239879902"><ele>32.25</ele><time>2026-04-06T07:07:20.989Z</time></trkpt><trkpt lat="44.29468609329758" lon="11.88772495500744"><ele>32.5</ele><time>2026-04-06T07:07:21.989Z</time></trkpt><trkpt lat="44.294588182787344" lon="11.887656960215597"><ele>32.75</ele><time>2026-04-06T07:07:22.989Z</time></trkpt><trkpt lat="44.29448340513803" lon="11.887591527018245"><ele>33.0</ele><time>2026-04-06T07:07:23.989Z</time></trkpt><trkpt lat="44.294372808527804" lon="11.887520222533523"><ele>33.0</ele><time>2026-04-06T07:07:24.989Z</time></trkpt><trkpt lat="44.294260736598076" lon="11.887448641069206"><ele>33.0</ele><time>2026-04-06T07:07:25.989Z</time></trkpt><trkpt lat="44.294147251071614" lon="11.887376651784804"><ele>33.0</ele><time>2026-04-06T07:07:26.989Z</time></trkpt><trkpt lat="44.29403323774274" lon="11.887304299838389"><ele>33.0</ele><time>2026-04-06T07:07:27.989Z</time></trkpt><trkpt lat="44.29391991996786" lon="11.887228600248354"><ele>33.75</ele><time>2026-04-06T07:07:28.989Z</time></trkpt><trkpt lat="44.293806723169" lon="11.887148619889999"><ele>34.5</ele><time>2026-04-06T07:07:29.989Z</time></trkpt><trkpt lat="44.293694640792936" lon="11.887069887761617"><ele>35.25</ele><time>2026-04-06T07:07:30.989Z</time></trkpt><trkpt lat="44.29357973456958" lon="11.88699303671852"><ele>36.0</ele><time>2026-04-06T07:07:31.989Z</time></trkpt><trkpt lat="44.29346693418815" lon="11.886924768160775"><ele>36.0</ele><time>2026-04-06T07:07:32.989Z</time></trkpt><trkpt lat="44.29335325837484" lon="11.88685125560186"><ele>36.0</ele><time>2026-04-06T07:07:33.989Z</time></trkpt><trkpt lat="44.2932317465657" lon="11.886770905465216"><ele>36.0</ele><time>2026-04-06T07:07:34.989Z</time></trkpt><trkpt lat="44.29310653424255" lon="11.886686555928325"><ele>36.0</ele><time>2026-04-06T07:07:35.989Z</time></trkpt><trkpt lat="44.29298319554213" lon="11.886599897836435"><ele>35.5</ele><time>2026-04-06T07:07:36.989Z</time></trkpt><trkpt lat="44.292856574550754" lon="11.886521321194728"><ele>35.0</ele><time>2026-04-06T07:07:37.989Z</time></trkpt><trkpt lat="44.29272963559027" lon="11.886444018031332"><ele>34.5</ele><time>2026-04-06T07:07:38.989Z</time></trkpt><trkpt lat="44.292614433887806" lon="11.886372981729586"><ele>34.0</ele><time>2026-04-06T07:07:39.989Z</time></trkpt><trkpt lat="44.29250113003607" lon="11.886297516402301"><ele>34.0</ele><time>2026-04-06T07:07:40.989Z</time></trkpt><trkpt lat="44.29239958302487" lon="11.886210208122728"><ele>34.0</ele><time>2026-04-06T07:07:41.989Z</time></trkpt><trkpt lat="44.29228816036942" lon="11.886144853051597"><ele>34.0</ele><time>2026-04-06T07:07:42.989Z</time></trkpt><trkpt lat="44.29217192545951" lon="11.886068521338665"><ele>34.0</ele><time>2026-04-06T07:07:43.989Z</time></trkpt><trkpt lat="44.292048019273096" lon="11.885988047968736"><ele>34.75</ele><time>2026-04-06T07:07:44.989Z</time></trkpt><trkpt lat="44.29193081672986" lon="11.88591724720135"><ele>35.5</ele><time>2026-04-06T07:07:45.989Z</time></trkpt><trkpt lat="44.29180967280646" lon="11.885845686497817"><ele>36.25</ele><time>2026-04-06T07:07:46.989Z</time></trkpt><trkpt lat="44.29169443496567" lon="11.885770857387262"><ele>37.0</ele><time>2026-04-06T07:07:47.989Z</time></trkpt><trkpt lat="44.29158090939923" lon="11.885696417571427"><ele>37.0</ele><time>2026-04-06T07:07:48.989Z</time></trkpt><trkpt lat="44.29146707135458" lon="11.885627251887136"><ele>37.0</ele><time>2026-04-06T07:07:49.989Z</time></trkpt><trkpt lat="44.2913624864066" lon="11.885562758589106"><ele>37.0</ele><time>2026-04-06T07:07:50.989Z</time></trkpt><trkpt lat="44.29126610408252" lon="11.885501564653518"><ele>37.0</ele><time>2026-04-06T07:07:51.989Z</time></trkpt><trkpt lat="44.29117116261424" lon="11.885437603262766"><ele>36.833333333333336</ele><time>2026-04-06T07:07:52.989Z</time></trkpt><trkpt lat="44.291083100194754" lon="11.885378235364676"><ele>36.66666666666667</ele><time>2026-04-06T07:07:53.989Z</time></trkpt><trkpt lat="44.29099605734242" lon="11.885326479107995"><ele>36.5</ele><time>2026-04-06T07:07:54.989Z</time></trkpt><trkpt lat="44.290920703611825" lon="11.885275544141535"><ele>36.333333333333336</ele><time>2026-04-06T07:07:55.989Z</time></trkpt><trkpt lat="44.290848867520104" lon="11.885218478923743"><ele>36.166666666666664</ele><time>2026-04-06T07:07:56.989Z</time></trkpt><trkpt lat="44.290790602235994" lon="11.885150862210383"><ele>36.0</ele><time>2026-04-06T07:07:57.989Z</time></trkpt><trkpt lat="44.29073280721334" lon="11.885073916246068"><ele>36.333333333333336</ele><time>2026-04-06T07:07:58.989Z</time></trkpt><trkpt lat="44.290683565193504" lon="11.885005307260752"><ele>36.666666666666664</ele><time>2026-04-06T07:07:59.989Z</time></trkpt><trkpt lat="44.29063043300079" lon="11.884937338688085"><ele>37.0</ele><time>2026-04-06T07:08:00.989Z</time></trkpt><trkpt lat="44.29058974607596" lon="11.884853882880593"><ele>37.33333333333333</ele><time>2026-04-06T07:08:01.989Z</time></trkpt><trkpt lat="44.290524497559716" lon="11.884776928476587"><ele>37.666666666666664</ele><time>2026-04-06T07:08:02.989Z</time></trkpt><trkpt lat="44.29046175064058" lon="11.884697302976239"><ele>38.0</ele><time>2026-04-06T07:08:03.989Z</time></trkpt><trkpt lat="44.2903988768392" lon="11.884612943217274"><ele>38.25</ele><time>2026-04-06T07:08:04.989Z</time></trkpt><trkpt lat="44.29034655529213" lon="11.88454396984158"><ele>38.5</ele><time>2026-04-06T07:08:05.989Z</time></trkpt><trkpt lat="44.29027898220504" lon="11.88441259552801"><ele>38.75</ele><time>2026-04-06T07:08:07.989Z</time></trkpt><trkpt lat="44.290159105324946" lon="11.884595130341902"><ele>39.0</ele><time>2026-04-06T07:08:09.989Z</time></trkpt><trkpt lat="44.290121253240564" lon="11.884732033502882"><ele>39.0</ele><time>2026-04-06T07:08:10.989Z</time></trkpt><trkpt lat="44.290079961195545" lon="11.88487609557999"><ele>39.0</ele><time>2026-04-06T07:08:11.989Z</time></trkpt><trkpt lat="44.290021715996595" lon="11.885024745642136"><ele>39.0</ele><time>2026-04-06T07:08:12.989Z</time></trkpt><trkpt lat="44.28997733129313" lon="11.88516546273102"><ele>39.0</ele><time>2026-04-06T07:08:13.989Z</time></trkpt><trkpt lat="44.28993519959802" lon="11.885299936663047"><ele>39.0</ele><time>2026-04-06T07:08:14.989Z</time></trkpt><trkpt lat="44.28990070520794" lon="11.885427424541156"><ele>39.0</ele><time>2026-04-06T07:08:15.989Z</time></trkpt><trkpt lat="44.28986041461221" lon="11.88554572955344"><ele>39.0</ele><time>2026-04-06T07:08:16.989Z</time></trkpt><trkpt lat="44.2898006186555" lon="11.885656730131322"><ele>39.0</ele><time>2026-04-06T07:08:17.989Z</time></trkpt><trkpt lat="44.28976491774858" lon="11.885755861778945"><ele>39.0</ele><time>2026-04-06T07:08:18.989Z</time></trkpt><trkpt lat="44.289712908273465" lon="11.885884835600185"><ele>39.0</ele><time>2026-04-06T07:08:20.989Z</time></trkpt><trkpt lat="44.28967482312862" lon="11.886017938942974"><ele>38.85714285714286</ele><time>2026-04-06T07:08:22.989Z</time></trkpt><trkpt lat="44.28962762249883" lon="11.886076750408861"><ele>38.71428571428571</ele><time>2026-04-06T07:08:23.989Z</time></trkpt><trkpt lat="44.28959020530277" lon="11.886155315347771"><ele>38.57142857142857</ele><time>2026-04-06T07:08:24.989Z</time></trkpt><trkpt lat="44.28954873524207" lon="11.886244536343728"><ele>38.42857142857143</ele><time>2026-04-06T07:08:25.989Z</time></trkpt><trkpt lat="44.28951954870154" lon="11.886339080464642"><ele>38.28571428571429</ele><time>2026-04-06T07:08:26.989Z</time></trkpt><trkpt lat="44.28950133207912" lon="11.886448665337062"><ele>38.14285714285714</ele><time>2026-04-06T07:08:27.989Z</time></trkpt><trkpt lat="44.28947811705835" lon="11.886556513203377"><ele>38.0</ele><time>2026-04-06T07:08:28.989Z</time></trkpt><trkpt lat="44.289431455525154" lon="11.886666900605839"><ele>37.6</ele><time>2026-04-06T07:08:29.989Z</time></trkpt><trkpt lat="44.289377434160706" lon="11.886766337710174"><ele>37.199999999999996</ele><time>2026-04-06T07:08:30.989Z</time></trkpt><trkpt lat="44.28932064838287" lon="11.886876365274778"><ele>36.8</ele><time>2026-04-06T07:08:31.989Z</time></trkpt><trkpt lat="44.28926620169592" lon="11.886976119085837"><ele>36.4</ele><time>2026-04-06T07:08:32.989Z</time></trkpt><trkpt lat="44.28920735491617" lon="11.887073396954788"><ele>36.0</ele><time>2026-04-06T07:08:33.989Z</time></trkpt><trkpt lat="44.28914967617324" lon="11.887161607658713"><ele>36.0</ele><time>2026-04-06T07:08:34.989Z</time></trkpt><trkpt lat="44.28909690870974" lon="11.887264783665309"><ele>36.0</ele><time>2026-04-06T07:08:35.989Z</time></trkpt><trkpt lat="44.28903261422679" lon="11.887374344216427"><ele>36.0</ele><time>2026-04-06T07:08:36.988Z</time></trkpt><trkpt lat="44.288957584693215" lon="11.887493317802166"><ele>36.0</ele><time>2026-04-06T07:08:37.987Z</time></trkpt><trkpt lat="44.28888408490097" lon="11.887592310067342"><ele>36.0</ele><time>2026-04-06T07:08:38.987Z</time></trkpt><trkpt lat="44.28881402169911" lon="11.887697142209092"><ele>35.6</ele><time>2026-04-06T07:08:39.988Z</time></trkpt><trkpt lat="44.28875692014842" lon="11.887807105292975"><ele>35.2</ele><time>2026-04-06T07:08:40.988Z</time></trkpt><trkpt lat="44.28870689484612" lon="11.887909278076645"><ele>34.8</ele><time>2026-04-06T07:08:41.988Z</time></trkpt><trkpt lat="44.288653827291306" lon="11.887993150539366"><ele>34.4</ele><time>2026-04-06T07:08:42.988Z</time></trkpt><trkpt lat="44.28857693607632" lon="11.888103486985683"><ele>34.0</ele><time>2026-04-06T07:08:44.988Z</time></trkpt><trkpt lat="44.28851483882691" lon="11.888169425634949"><ele>34.0</ele><time>2026-04-06T07:08:46.988Z</time></trkpt><trkpt lat="44.288470966277686" lon="11.888236484262663"><ele>34.0</ele><time>2026-04-06T07:08:48.988Z</time></trkpt><trkpt lat="44.2884210467514" lon="11.88829956584708"><ele>34.0</ele><time>2026-04-06T07:08:50.988Z</time></trkpt><trkpt lat="44.28836141446136" lon="11.888407555709732"><ele>34.0</ele><time>2026-04-06T07:09:27.987Z</time></trkpt><trkpt lat="44.288285091141134" lon="11.88852856316942"><ele>34.0</ele><time>2026-04-06T07:09:29.987Z</time></trkpt><trkpt lat="44.28824031768276" lon="11.888601890387584"><ele>34.0</ele><time>2026-04-06T07:09:30.987Z</time></trkpt><trkpt lat="44.28819561730328" lon="11.888675258460143"><ele>34.0</ele><time>2026-04-06T07:09:31.987Z</time></trkpt><trkpt lat="44.28811486269296" lon="11.888693634675896"><ele>34.0</ele><time>2026-04-06T07:09:32.987Z</time></trkpt><trkpt lat="44.28802135038658" lon="11.8887360247055"><ele>34.0</ele><time>2026-04-06T07:09:33.987Z</time></trkpt><trkpt lat="44.287922921187885" lon="11.888787472078274"><ele>34.0</ele><time>2026-04-06T07:09:34.987Z</time></trkpt><trkpt lat="44.28781706471243" lon="11.88879393903783"><ele>34.0</ele><time>2026-04-06T07:09:35.987Z</time></trkpt><trkpt lat="44.28771618034129" lon="11.888840106044096"><ele>34.0</ele><time>2026-04-06T07:09:36.987Z</time></trkpt><trkpt lat="44.28761693488649" lon="11.888884173777859"><ele>34.0</ele><time>2026-04-06T07:09:37.987Z</time></trkpt><trkpt lat="44.287512286467866" lon="11.888911757569199"><ele>34.0</ele><time>2026-04-06T07:09:38.987Z</time></trkpt><trkpt lat="44.28741473605903" lon="11.888939767084976"><ele>34.0</ele><time>2026-04-06T07:09:39.987Z</time></trkpt><trkpt lat="44.28731845322888" lon="11.888971918510737"><ele>34.0</ele><time>2026-04-06T07:09:40.987Z</time></trkpt><trkpt lat="44.28721363552515" lon="11.888997743700047"><ele>34.25</ele><time>2026-04-06T07:09:41.987Z</time></trkpt><trkpt lat="44.28710595104801" lon="11.889010009374005"><ele>34.5</ele><time>2026-04-06T07:09:42.987Z</time></trkpt><trkpt lat="44.28700134114455" lon="11.889008891044876"><ele>34.75</ele><time>2026-04-06T07:09:43.987Z</time></trkpt><trkpt lat="44.28686199268144" lon="11.888976808547117"><ele>35.0</ele><time>2026-04-06T07:09:44.987Z</time></trkpt><trkpt lat="44.286725616439576" lon="11.888953870822634"><ele>35.0</ele><time>2026-04-06T07:09:45.987Z</time></trkpt><trkpt lat="44.28659743130585" lon="11.888936511641583"><ele>35.0</ele><time>2026-04-06T07:09:46.987Z</time></trkpt><trkpt lat="44.28647131473693" lon="11.888917389395019"><ele>35.0</ele><time>2026-04-06T07:09:47.987Z</time></trkpt><trkpt lat="44.2863485594271" lon="11.88889008985278"><ele>35.0</ele><time>2026-04-06T07:09:48.987Z</time></trkpt><trkpt lat="44.286232862117075" lon="11.888870814201546"><ele>34.5</ele><time>2026-04-06T07:09:49.987Z</time></trkpt><trkpt lat="44.28612814163329" lon="11.888839574063672"><ele>34.0</ele><time>2026-04-06T07:09:50.987Z</time></trkpt><trkpt lat="44.28601350530624" lon="11.888797182442428"><ele>33.5</ele><time>2026-04-06T07:09:51.987Z</time></trkpt><trkpt lat="44.28590587045193" lon="11.888739747584019"><ele>33.0</ele><time>2026-04-06T07:09:52.987Z</time></trkpt><trkpt lat="44.28580394460053" lon="11.888680946736384"><ele>33.0</ele><time>2026-04-06T07:09:53.987Z</time></trkpt><trkpt lat="44.285683791216734" lon="11.888621686895377"><ele>33.0</ele><time>2026-04-06T07:09:54.987Z</time></trkpt><trkpt lat="44.285562520626804" lon="11.888544891788055"><ele>33.0</ele><time>2026-04-06T07:09:55.987Z</time></trkpt><trkpt lat="44.285445010388315" lon="11.888463576473702"><ele>33.0</ele><time>2026-04-06T07:09:56.987Z</time></trkpt><trkpt lat="44.28534601230701" lon="11.88836121008847"><ele>33.75</ele><time>2026-04-06T07:09:57.987Z</time></trkpt><trkpt lat="44.28524316036406" lon="11.888286815191194"><ele>34.5</ele><time>2026-04-06T07:09:58.987Z</time></trkpt><trkpt lat="44.28513089094589" lon="11.888221162035636"><ele>35.25</ele><time>2026-04-06T07:09:59.987Z</time></trkpt><trkpt lat="44.28502332273296" lon="11.888153074259895"><ele>36.0</ele><time>2026-04-06T07:10:00.987Z</time></trkpt><trkpt lat="44.28491584432833" lon="11.88808948980442"><ele>36.0</ele><time>2026-04-06T07:10:01.987Z</time></trkpt><trkpt lat="44.28482015690815" lon="11.888016807429276"><ele>36.0</ele><time>2026-04-06T07:10:02.987Z</time></trkpt><trkpt lat="44.284738107751124" lon="11.887946953915995"><ele>36.0</ele><time>2026-04-06T07:10:03.987Z</time></trkpt><trkpt lat="44.284658185152594" lon="11.887879206089325"><ele>36.0</ele><time>2026-04-06T07:10:04.987Z</time></trkpt><trkpt lat="44.28458422894437" lon="11.887819607103163"><ele>36.0</ele><time>2026-04-06T07:10:05.987Z</time></trkpt><trkpt lat="44.28452105845799" lon="11.887764241898358"><ele>35.833333333333336</ele><time>2026-04-06T07:10:06.987Z</time></trkpt><trkpt lat="44.2844300499352" lon="11.887687439940516"><ele>35.666666666666664</ele><time>2026-04-06T07:10:08.987Z</time></trkpt><trkpt lat="44.284357355613714" lon="11.887607579837937"><ele>35.5</ele><time>2026-04-06T07:10:11.987Z</time></trkpt><trkpt lat="44.28428736429155" lon="11.887567735371947"><ele>35.33333333333333</ele><time>2026-04-06T07:10:32.987Z</time></trkpt><trkpt lat="44.28418865142995" lon="11.887500386307227"><ele>35.166666666666664</ele><time>2026-04-06T07:10:34.987Z</time></trkpt><trkpt lat="44.28412721149822" lon="11.887472161103265"><ele>35.0</ele><time>2026-04-06T07:10:35.987Z</time></trkpt><trkpt lat="44.28399799996255" lon="11.887437481127392"><ele>34.2</ele><time>2026-04-06T07:10:37.987Z</time></trkpt><trkpt lat="44.28392018445319" lon="11.887405910068148"><ele>33.4</ele><time>2026-04-06T07:10:38.987Z</time></trkpt><trkpt lat="44.28382819269397" lon="11.887356970237292"><ele>32.6</ele><time>2026-04-06T07:10:39.987Z</time></trkpt><trkpt lat="44.28373293140483" lon="11.887307720640962"><ele>31.8</ele><time>2026-04-06T07:10:40.987Z</time></trkpt><trkpt lat="44.283627415288" lon="11.887255564088901"><ele>31.0</ele><time>2026-04-06T07:10:41.987Z</time></trkpt><trkpt lat="44.28351667332503" lon="11.887201620743305"><ele>31.0</ele><time>2026-04-06T07:10:42.986Z</time></trkpt><trkpt lat="44.28339996551321" lon="11.887138591959951"><ele>31.0</ele><time>2026-04-06T07:10:43.986Z</time></trkpt><trkpt lat="44.28328589202894" lon="11.887077209842946"><ele>31.0</ele><time>2026-04-06T07:10:44.986Z</time></trkpt><trkpt lat="44.28317518402183" lon="11.887016884128197"><ele>31.0</ele><time>2026-04-06T07:10:45.986Z</time></trkpt><trkpt lat="44.28307337140297" lon="11.886969495033329"><ele>30.4</ele><time>2026-04-06T07:10:46.987Z</time></trkpt><trkpt lat="44.28297841055177" lon="11.886927478681296"><ele>29.8</ele><time>2026-04-06T07:10:47.987Z</time></trkpt><trkpt lat="44.28289154388924" lon="11.886880145018912"><ele>29.199999999999996</ele><time>2026-04-06T07:10:48.986Z</time></trkpt><trkpt lat="44.28280804217247" lon="11.886853913270711"><ele>28.599999999999998</ele><time>2026-04-06T07:10:49.986Z</time></trkpt><trkpt lat="44.28271438770326" lon="11.886850724094916"><ele>28.0</ele><time>2026-04-06T07:10:50.986Z</time></trkpt><trkpt lat="44.282611065279056" lon="11.88685951703803"><ele>28.0</ele><time>2026-04-06T07:10:51.987Z</time></trkpt><trkpt lat="44.28250712220977" lon="11.886855888419262"><ele>28.0</ele><time>2026-04-06T07:10:52.987Z</time></trkpt><trkpt lat="44.28239520699289" lon="11.886828663452482"><ele>28.0</ele><time>2026-04-06T07:10:53.987Z</time></trkpt><trkpt lat="44.28227518676627" lon="11.886794912382822"><ele>28.0</ele><time>2026-04-06T07:10:54.987Z</time></trkpt><trkpt lat="44.28215087050354" lon="11.886757623978006"><ele>28.25</ele><time>2026-04-06T07:10:55.986Z</time></trkpt><trkpt lat="44.28202374701413" lon="11.886713781001182"><ele>28.5</ele><time>2026-04-06T07:10:56.986Z</time></trkpt><trkpt lat="44.281896523988976" lon="11.886646961748822"><ele>28.75</ele><time>2026-04-06T07:10:57.986Z</time></trkpt><trkpt lat="44.28177106286665" lon="11.886568500754615"><ele>29.0</ele><time>2026-04-06T07:10:58.986Z</time></trkpt><trkpt lat="44.28164434554144" lon="11.886483752749692"><ele>29.0</ele><time>2026-04-06T07:10:59.986Z</time></trkpt><trkpt lat="44.281521054617706" lon="11.886398907678634"><ele>29.0</ele><time>2026-04-06T07:11:00.986Z</time></trkpt><trkpt lat="44.28140073863268" lon="11.886315544127362"><ele>29.0</ele><time>2026-04-06T07:11:01.986Z</time></trkpt><trkpt lat="44.28127724337263" lon="11.886223248387038"><ele>29.0</ele><time>2026-04-06T07:11:02.986Z</time></trkpt><trkpt lat="44.28115268302661" lon="11.886123397643813"><ele>29.25</ele><time>2026-04-06T07:11:03.986Z</time></trkpt><trkpt lat="44.28102627662731" lon="11.88601905287742"><ele>29.5</ele><time>2026-04-06T07:11:04.986Z</time></trkpt><trkpt lat="44.28090332237154" lon="11.88592365852761"><ele>29.75</ele><time>2026-04-06T07:11:05.986Z</time></trkpt><trkpt lat="44.280794066672975" lon="11.885837444811052"><ele>30.0</ele><time>2026-04-06T07:11:06.986Z</time></trkpt><trkpt lat="44.28068750056865" lon="11.88575305903532"><ele>29.75</ele><time>2026-04-06T07:11:07.986Z</time></trkpt><trkpt lat="44.280577607788985" lon="11.885665842907645"><ele>29.5</ele><time>2026-04-06T07:11:08.986Z</time></trkpt><trkpt lat="44.280461548242066" lon="11.885579059993937"><ele>29.25</ele><time>2026-04-06T07:11:09.986Z</time></trkpt><trkpt lat="44.28034507131848" lon="11.885481292169846"><ele>29.0</ele><time>2026-04-06T07:11:10.986Z</time></trkpt><trkpt lat="44.28022667937139" lon="11.88537881102587"><ele>29.0</ele><time>2026-04-06T07:11:11.986Z</time></trkpt><trkpt lat="44.28010181257678" lon="11.885269607787585"><ele>29.0</ele><time>2026-04-06T07:11:12.986Z</time></trkpt><trkpt lat="44.27997049203461" lon="11.885157208229458"><ele>29.0</ele><time>2026-04-06T07:11:13.986Z</time></trkpt><trkpt lat="44.27983836301817" lon="11.885039326733493"><ele>29.5</ele><time>2026-04-06T07:11:14.986Z</time></trkpt><trkpt lat="44.27971431537726" lon="11.884913796691515"><ele>30.0</ele><time>2026-04-06T07:11:15.986Z</time></trkpt><trkpt lat="44.27960185657594" lon="11.884800661200005"><ele>30.5</ele><time>2026-04-06T07:11:16.986Z</time></trkpt><trkpt lat="44.27950192118297" lon="11.884698812301776"><ele>31.0</ele><time>2026-04-06T07:11:17.986Z</time></trkpt><trkpt lat="44.2794184855148" lon="11.88459388408116"><ele>31.0</ele><time>2026-04-06T07:11:18.986Z</time></trkpt><trkpt lat="44.27933386497655" lon="11.884500379187404"><ele>31.0</ele><time>2026-04-06T07:11:19.986Z</time></trkpt><trkpt lat="44.27924928993977" lon="11.884412410110098"><ele>31.0</ele><time>2026-04-06T07:11:20.986Z</time></trkpt><trkpt lat="44.2791668182685" lon="11.884325322465191"><ele>31.0</ele><time>2026-04-06T07:11:21.986Z</time></trkpt><trkpt lat="44.27907742975584" lon="11.884231573324456"><ele>31.0</ele><time>2026-04-06T07:11:22.986Z</time></trkpt><trkpt lat="44.278987093171736" lon="11.884128425070992"><ele>31.0</ele><time>2026-04-06T07:11:23.986Z</time></trkpt><trkpt lat="44.27889311794425" lon="11.884020198742215"><ele>31.0</ele><time>2026-04-06T07:11:24.986Z</time></trkpt><trkpt lat="44.27879379800162" lon="11.883903214073094"><ele>31.0</ele><time>2026-04-06T07:11:25.986Z</time></trkpt><trkpt lat="44.278686055817815" lon="11.883783061206298"><ele>31.0</ele><time>2026-04-06T07:11:26.986Z</time></trkpt><trkpt lat="44.278585517764384" lon="11.883653388152613"><ele>31.0</ele><time>2026-04-06T07:11:27.986Z</time></trkpt><trkpt lat="44.27848805811651" lon="11.883518870101629"><ele>31.0</ele><time>2026-04-06T07:11:28.986Z</time></trkpt><trkpt lat="44.27838943091594" lon="11.88337939024398"><ele>31.0</ele><time>2026-04-06T07:11:29.986Z</time></trkpt><trkpt lat="44.27828047146931" lon="11.883233416478406"><ele>31.0</ele><time>2026-04-06T07:11:30.986Z</time></trkpt><trkpt lat="44.278141237998206" lon="11.883086446453413"><ele>30.666666666666668</ele><time>2026-04-06T07:11:31.986Z</time></trkpt><trkpt lat="44.27799626907898" lon="11.882957470698166"><ele>30.333333333333336</ele><time>2026-04-06T07:11:32.986Z</time></trkpt><trkpt lat="44.277868990153294" lon="11.882826056326543"><ele>30.0</ele><time>2026-04-06T07:11:33.986Z</time></trkpt><trkpt lat="44.27774974651791" lon="11.882687440215737"><ele>30.25</ele><time>2026-04-06T07:11:34.986Z</time></trkpt><trkpt lat="44.27763964760514" lon="11.88255133908236"><ele>30.5</ele><time>2026-04-06T07:11:35.986Z</time></trkpt><trkpt lat="44.27753233312794" lon="11.882413760133964"><ele>30.75</ele><time>2026-04-06T07:11:36.986Z</time></trkpt><trkpt lat="44.27743014124324" lon="11.882280038467623"><ele>31.0</ele><time>2026-04-06T07:11:37.986Z</time></trkpt><trkpt lat="44.27734137824621" lon="11.882138076586124"><ele>30.75</ele><time>2026-04-06T07:11:38.986Z</time></trkpt><trkpt lat="44.277252834530934" lon="11.882004312327313"><ele>30.5</ele><time>2026-04-06T07:11:39.986Z</time></trkpt><trkpt lat="44.277169420158444" lon="11.881875259594047"><ele>30.25</ele><time>2026-04-06T07:11:40.986Z</time></trkpt><trkpt lat="44.277088208625" lon="11.881729683868633"><ele>30.0</ele><time>2026-04-06T07:11:41.986Z</time></trkpt><trkpt lat="44.27704115957067" lon="11.881575678181273"><ele>30.0</ele><time>2026-04-06T07:11:42.986Z</time></trkpt><trkpt lat="44.27697417677414" lon="11.881418059676413"><ele>30.0</ele><time>2026-04-06T07:11:43.986Z</time></trkpt><trkpt lat="44.27698046846952" lon="11.88121827889482"><ele>30.0</ele><time>2026-04-06T07:11:44.986Z</time></trkpt><trkpt lat="44.27700616395094" lon="11.881022464608998"><ele>30.0</ele><time>2026-04-06T07:11:45.986Z</time></trkpt><trkpt lat="44.27704502861267" lon="11.88082554202241"><ele>30.333333333333336</ele><time>2026-04-06T07:11:46.986Z</time></trkpt><trkpt lat="44.27712161673601" lon="11.880645580770302"><ele>30.666666666666668</ele><time>2026-04-06T07:11:47.986Z</time></trkpt><trkpt lat="44.27719831282777" lon="11.88045617503568"><ele>31.0</ele><time>2026-04-06T07:11:48.986Z</time></trkpt><trkpt lat="44.27728024931034" lon="11.880262974064486"><ele>31.0</ele><time>2026-04-06T07:11:49.986Z</time></trkpt><trkpt lat="44.277342678842174" lon="11.880079190057392"><ele>31.0</ele><time>2026-04-06T07:11:50.986Z</time></trkpt><trkpt lat="44.27741864234889" lon="11.879921300758964"><ele>31.0</ele><time>2026-04-06T07:11:51.986Z</time></trkpt><trkpt lat="44.27749102877541" lon="11.879781741668657"><ele>31.0</ele><time>2026-04-06T07:11:52.986Z</time></trkpt><trkpt lat="44.27756072635204" lon="11.87965559808608"><ele>31.000000000000004</ele><time>2026-04-06T07:11:53.986Z</time></trkpt><trkpt lat="44.277622788462345" lon="11.879541317734247"><ele>31.0</ele><time>2026-04-06T07:11:54.986Z</time></trkpt><trkpt lat="44.27767541803934" lon="11.879432749246806"><ele>31.0</ele><time>2026-04-06T07:11:55.986Z</time></trkpt><trkpt lat="44.27772577659514" lon="11.879331098761053"><ele>31.0</ele><time>2026-04-06T07:11:56.986Z</time></trkpt><trkpt lat="44.27777178514438" lon="11.879246819063617"><ele>31.000000000000004</ele><time>2026-04-06T07:11:57.986Z</time></trkpt><trkpt lat="44.277815439579854" lon="11.879166345857717"><ele>31.0</ele><time>2026-04-06T07:11:58.986Z</time></trkpt><trkpt lat="44.27785226378594" lon="11.879094641065397"><ele>30.857142857142858</ele><time>2026-04-06T07:11:59.986Z</time></trkpt><trkpt lat="44.27792174258821" lon="11.879006226999497"><ele>30.714285714285715</ele><time>2026-04-06T07:12:01.986Z</time></trkpt><trkpt lat="44.277965522161075" lon="11.87893275836135"><ele>30.571428571428573</ele><time>2026-04-06T07:12:03.986Z</time></trkpt><trkpt lat="44.27800677157037" lon="11.878856219663572"><ele>30.42857142857143</ele><time>2026-04-06T07:12:06.986Z</time></trkpt><trkpt lat="44.27805039622832" lon="11.878775453407922"><ele>30.285714285714285</ele><time>2026-04-06T07:12:10.986Z</time></trkpt><trkpt lat="44.2781042452012" lon="11.878702739597987"><ele>30.142857142857146</ele><time>2026-04-06T07:12:34.985Z</time></trkpt><trkpt lat="44.27814625213617" lon="11.878622933831315"><ele>30.0</ele><time>2026-04-06T07:12:38.985Z</time></trkpt><trkpt lat="44.278185367593615" lon="11.87854692680653"><ele>30.0</ele><time>2026-04-06T07:12:41.985Z</time></trkpt><trkpt lat="44.27822952817774" lon="11.878478913294007"><ele>30.0</ele><time>2026-04-06T07:12:44.985Z</time></trkpt><trkpt lat="44.278128650001555" lon="11.87834053737183"><ele>30.0</ele><time>2026-04-06T07:12:47.985Z</time></trkpt><trkpt lat="44.27804924578465" lon="11.8782491884701"><ele>30.0</ele><time>2026-04-06T07:12:49.986Z</time></trkpt><trkpt lat="44.27799653910256" lon="11.87820019050121"><ele>30.0</ele><time>2026-04-06T07:12:50.986Z</time></trkpt><trkpt lat="44.27789747016288" lon="11.878114719288172"><ele>30.0</ele><time>2026-04-06T07:12:52.985Z</time></trkpt><trkpt lat="44.27779912893898" lon="11.878030162391433"><ele>30.0</ele><time>2026-04-06T07:12:54.985Z</time></trkpt><trkpt lat="44.27770242417551" lon="11.877938057900593"><ele>30.0</ele><time>2026-04-06T07:12:56.985Z</time></trkpt><trkpt lat="44.27759365914993" lon="11.877843433676505"><ele>30.0</ele><time>2026-04-06T07:12:58.985Z</time></trkpt><trkpt lat="44.277535866688304" lon="11.877793670605884"><ele>30.0</ele><time>2026-04-06T07:12:59.985Z</time></trkpt><trkpt lat="44.27747437327237" lon="11.877741434594252"><ele>30.0</ele><time>2026-04-06T07:13:00.985Z</time></trkpt><trkpt lat="44.27741502180954" lon="11.87768764180534"><ele>30.0</ele><time>2026-04-06T07:13:01.985Z</time></trkpt><trkpt lat="44.277361533087884" lon="11.87763851681461"><ele>30.0</ele><time>2026-04-06T07:13:02.985Z</time></trkpt><trkpt lat="44.277307988360526" lon="11.87759041175636"><ele>30.0</ele><time>2026-04-06T07:13:03.985Z</time></trkpt><trkpt lat="44.277243853710466" lon="11.877529094063284"><ele>30.0</ele><time>2026-04-06T07:13:04.985Z</time></trkpt><trkpt lat="44.27717563177917" lon="11.8774573579686"><ele>30.0</ele><time>2026-04-06T07:13:05.985Z</time></trkpt><trkpt lat="44.277107652160836" lon="11.877382508099112"><ele>30.0</ele><time>2026-04-06T07:13:06.985Z</time></trkpt><trkpt lat="44.2770343628567" lon="11.877308059698594"><ele>30.2</ele><time>2026-04-06T07:13:07.985Z</time></trkpt><trkpt lat="44.27695647805542" lon="11.87723458897053"><ele>30.4</ele><time>2026-04-06T07:13:08.985Z</time></trkpt><trkpt lat="44.27687909313191" lon="11.8771516315651"><ele>30.6</ele><time>2026-04-06T07:13:09.985Z</time></trkpt><trkpt lat="44.276796881753924" lon="11.87705597843842"><ele>30.8</ele><time>2026-04-06T07:13:10.985Z</time></trkpt><trkpt lat="44.27670573473314" lon="11.876953045431959"><ele>31.0</ele><time>2026-04-06T07:13:11.985Z</time></trkpt><trkpt lat="44.27660999052716" lon="11.876848966339287"><ele>31.0</ele><time>2026-04-06T07:13:12.985Z</time></trkpt><trkpt lat="44.2765302430837" lon="11.876726866204113"><ele>31.0</ele><time>2026-04-06T07:13:13.985Z</time></trkpt><trkpt lat="44.27643615552322" lon="11.876643949281034"><ele>31.0</ele><time>2026-04-06T07:13:14.985Z</time></trkpt><trkpt lat="44.276352854650256" lon="11.876545353819266"><ele>31.0</ele><time>2026-04-06T07:13:15.985Z</time></trkpt><trkpt lat="44.276270704001504" lon="11.876447740661378"><ele>31.0</ele><time>2026-04-06T07:13:16.985Z</time></trkpt><trkpt lat="44.27617945542464" lon="11.876343956860147"><ele>31.25</ele><time>2026-04-06T07:13:17.985Z</time></trkpt><trkpt lat="44.276077425815366" lon="11.876226890806988"><ele>31.5</ele><time>2026-04-06T07:13:18.985Z</time></trkpt><trkpt lat="44.2759700797518" lon="11.87609881115831"><ele>31.75</ele><time>2026-04-06T07:13:19.985Z</time></trkpt><trkpt lat="44.27587267450877" lon="11.875950851807197"><ele>32.0</ele><time>2026-04-06T07:13:20.985Z</time></trkpt><trkpt lat="44.27575863758971" lon="11.87581526438979"><ele>32.25</ele><time>2026-04-06T07:13:21.985Z</time></trkpt><trkpt lat="44.275646034627805" lon="11.875684805156858"><ele>32.5</ele><time>2026-04-06T07:13:22.985Z</time></trkpt><trkpt lat="44.27554263550927" lon="11.875593840463907"><ele>32.75</ele><time>2026-04-06T07:13:23.985Z</time></trkpt><trkpt lat="44.275471654786195" lon="11.875475521541356"><ele>33.0</ele><time>2026-04-06T07:13:24.985Z</time></trkpt><trkpt lat="44.2753716073295" lon="11.87537114653748"><ele>32.75</ele><time>2026-04-06T07:13:25.985Z</time></trkpt><trkpt lat="44.275265497142925" lon="11.87525937339896"><ele>32.5</ele><time>2026-04-06T07:13:26.985Z</time></trkpt><trkpt lat="44.275147153846916" lon="11.875144202414937"><ele>32.25</ele><time>2026-04-06T07:13:27.985Z</time></trkpt><trkpt lat="44.27500637517411" lon="11.875038712113529"><ele>32.0</ele><time>2026-04-06T07:13:28.985Z</time></trkpt><trkpt lat="44.27484940758035" lon="11.874954003110027"><ele>31.0</ele><time>2026-04-06T07:13:29.985Z</time></trkpt><trkpt lat="44.27467794880184" lon="11.874887161978124"><ele>30.0</ele><time>2026-04-06T07:13:30.985Z</time></trkpt><trkpt lat="44.27451193217823" lon="11.874857046818374"><ele>29.0</ele><time>2026-04-06T07:13:31.985Z</time></trkpt><trkpt lat="44.27435478709151" lon="11.874840592191697"><ele>29.0</ele><time>2026-04-06T07:13:32.985Z</time></trkpt><trkpt lat="44.27421480759241" lon="11.874833036291095"><ele>29.0</ele><time>2026-04-06T07:13:33.985Z</time></trkpt><trkpt lat="44.274089188509315" lon="11.874826480886863"><ele>29.0</ele><time>2026-04-06T07:13:34.985Z</time></trkpt><trkpt lat="44.273970047158215" lon="11.874818676797254"><ele>29.0</ele><time>2026-04-06T07:13:35.985Z</time></trkpt><trkpt lat="44.27383237366716" lon="11.874801769103408"><ele>29.333333333333332</ele><time>2026-04-06T07:13:36.985Z</time></trkpt><trkpt lat="44.27366966789197" lon="11.874799245274813"><ele>29.666666666666664</ele><time>2026-04-06T07:13:37.985Z</time></trkpt><trkpt lat="44.27349876187706" lon="11.874831501922525"><ele>30.0</ele><time>2026-04-06T07:13:38.985Z</time></trkpt><trkpt lat="44.27332150183192" lon="11.874862190014444"><ele>30.0</ele><time>2026-04-06T07:13:39.985Z</time></trkpt><trkpt lat="44.2731274798362" lon="11.874895405442421"><ele>30.0</ele><time>2026-04-06T07:13:40.985Z</time></trkpt><trkpt lat="44.272933111612545" lon="11.874927609242622"><ele>30.0</ele><time>2026-04-06T07:13:41.985Z</time></trkpt><trkpt lat="44.27274019500358" lon="11.87496528093123"><ele>31.666666666666664</ele><time>2026-04-06T07:13:42.985Z</time></trkpt><trkpt lat="44.272544780824404" lon="11.875002514148642"><ele>33.33333333333333</ele><time>2026-04-06T07:13:43.985Z</time></trkpt><trkpt lat="44.27234548457076" lon="11.875037147763146"><ele>35.0</ele><time>2026-04-06T07:13:44.985Z</time></trkpt><trkpt lat="44.27214329987966" lon="11.875051367358113"><ele>35.33333333333333</ele><time>2026-04-06T07:13:45.985Z</time></trkpt><trkpt lat="44.271937728991794" lon="11.875010963897978"><ele>35.666666666666664</ele><time>2026-04-06T07:13:46.985Z</time></trkpt><trkpt lat="44.27172552153738" lon="11.874937189222049"><ele>36.0</ele><time>2026-04-06T07:13:47.985Z</time></trkpt><trkpt lat="44.27150661160749" lon="11.87484253434378"><ele>36.0</ele><time>2026-04-06T07:13:48.985Z</time></trkpt><trkpt lat="44.27129092290778" lon="11.874754198898088"><ele>36.0</ele><time>2026-04-06T07:13:49.985Z</time></trkpt><trkpt lat="44.271074963044086" lon="11.874669711134514"><ele>36.0</ele><time>2026-04-06T07:13:50.985Z</time></trkpt><trkpt lat="44.27085845305023" lon="11.874583194645888"><ele>36.0</ele><time>2026-04-06T07:13:51.985Z</time></trkpt><trkpt lat="44.270641701057905" lon="11.87449331854169"><ele>36.0</ele><time>2026-04-06T07:13:52.985Z</time></trkpt><trkpt lat="44.2704283543132" lon="11.874403186314346"><ele>36.0</ele><time>2026-04-06T07:13:53.985Z</time></trkpt><trkpt lat="44.27021672602815" lon="11.87431409812129"><ele>37.0</ele><time>2026-04-06T07:13:54.985Z</time></trkpt><trkpt lat="44.270011423345686" lon="11.874217706399879"><ele>38.0</ele><time>2026-04-06T07:13:55.985Z</time></trkpt><trkpt lat="44.269794914070886" lon="11.874115906141451"><ele>39.0</ele><time>2026-04-06T07:13:56.985Z</time></trkpt><trkpt lat="44.26957778330022" lon="11.874025283289535"><ele>39.0</ele><time>2026-04-06T07:13:57.985Z</time></trkpt><trkpt lat="44.26936036584022" lon="11.873930277220563"><ele>39.0</ele><time>2026-04-06T07:13:58.985Z</time></trkpt><trkpt lat="44.269143661107414" lon="11.873841072797793"><ele>39.5</ele><time>2026-04-06T07:13:59.985Z</time></trkpt><trkpt lat="44.26892627217611" lon="11.873743495929467"><ele>40.0</ele><time>2026-04-06T07:14:00.985Z</time></trkpt><trkpt lat="44.268714270689685" lon="11.87365171488778"><ele>40.0</ele><time>2026-04-06T07:14:01.985Z</time></trkpt><trkpt lat="44.26850387383428" lon="11.873560402333979"><ele>40.0</ele><time>2026-04-06T07:14:02.985Z</time></trkpt><trkpt lat="44.26830056576527" lon="11.87347203972623"><ele>40.0</ele><time>2026-04-06T07:14:03.985Z</time></trkpt><trkpt lat="44.26810199531114" lon="11.873384818194955"><ele>41.0</ele><time>2026-04-06T07:14:04.985Z</time></trkpt><trkpt lat="44.26790706217814" lon="11.873307496518741"><ele>42.0</ele><time>2026-04-06T07:14:05.985Z</time></trkpt><trkpt lat="44.2677100460771" lon="11.873252409906614"><ele>43.0</ele><time>2026-04-06T07:14:06.985Z</time></trkpt><trkpt lat="44.267507067211895" lon="11.873226661043589"><ele>43.0</ele><time>2026-04-06T07:14:07.985Z</time></trkpt><trkpt lat="44.26729748147137" lon="11.87323017458023"><ele>43.0</ele><time>2026-04-06T07:14:08.985Z</time></trkpt><trkpt lat="44.26708672370901" lon="11.873255153347552"><ele>43.0</ele><time>2026-04-06T07:14:09.985Z</time></trkpt><trkpt lat="44.26686811648112" lon="11.87331986586573"><ele>44.5</ele><time>2026-04-06T07:14:10.985Z</time></trkpt><trkpt lat="44.266649426218095" lon="11.87338145134301"><ele>46.0</ele><time>2026-04-06T07:14:11.985Z</time></trkpt><trkpt lat="44.2664229157012" lon="11.873444868303219"><ele>46.0</ele><time>2026-04-06T07:14:12.985Z</time></trkpt><trkpt lat="44.2661974330969" lon="11.87350028648921"><ele>46.0</ele><time>2026-04-06T07:14:13.985Z</time></trkpt><trkpt lat="44.265972998449165" lon="11.873554528721233"><ele>46.0</ele><time>2026-04-06T07:14:14.985Z</time></trkpt><trkpt lat="44.265753562668266" lon="11.873608853474728"><ele>46.0</ele><time>2026-04-06T07:14:15.985Z</time></trkpt><trkpt lat="44.26554050223767" lon="11.87366330642822"><ele>46.0</ele><time>2026-04-06T07:14:16.985Z</time></trkpt><trkpt lat="44.26532911386274" lon="11.87371546755055"><ele>46.66666666666667</ele><time>2026-04-06T07:14:17.985Z</time></trkpt><trkpt lat="44.265124599723364" lon="11.873764940843627"><ele>47.333333333333336</ele><time>2026-04-06T07:14:18.985Z</time></trkpt><trkpt lat="44.264919349763225" lon="11.873810010542469"><ele>48.0</ele><time>2026-04-06T07:14:19.985Z</time></trkpt><trkpt lat="44.26471097056436" lon="11.873856382824375"><ele>48.0</ele><time>2026-04-06T07:14:20.985Z</time></trkpt><trkpt lat="44.26450694505965" lon="11.873904007623116"><ele>48.0</ele><time>2026-04-06T07:14:21.985Z</time></trkpt><trkpt lat="44.26429510873214" lon="11.873944771041097"><ele>48.0</ele><time>2026-04-06T07:14:22.985Z</time></trkpt><trkpt lat="44.26408175593664" lon="11.873991938752932"><ele>47.333333333333336</ele><time>2026-04-06T07:14:23.985Z</time></trkpt><trkpt lat="44.26386896206648" lon="11.874036355086291"><ele>46.66666666666667</ele><time>2026-04-06T07:14:24.985Z</time></trkpt><trkpt lat="44.263652271431305" lon="11.874081306729"><ele>46.0</ele><time>2026-04-06T07:14:25.985Z</time></trkpt><trkpt lat="44.26343522692419" lon="11.874142843986872"><ele>46.0</ele><time>2026-04-06T07:14:26.985Z</time></trkpt><trkpt lat="44.26321985374245" lon="11.87421147332457"><ele>46.0</ele><time>2026-04-06T07:14:27.985Z</time></trkpt><trkpt lat="44.26300720795437" lon="11.874286207804875"><ele>46.0</ele><time>2026-04-06T07:14:28.985Z</time></trkpt><trkpt lat="44.26280616423131" lon="11.874361397260301"><ele>46.333333333333336</ele><time>2026-04-06T07:14:29.985Z</time></trkpt><trkpt lat="44.26261166717756" lon="11.874447545182322"><ele>46.666666666666664</ele><time>2026-04-06T07:14:30.985Z</time></trkpt><trkpt lat="44.26242082159962" lon="11.874554902911562"><ele>47.0</ele><time>2026-04-06T07:14:31.985Z</time></trkpt><trkpt lat="44.26224997718877" lon="11.874698343416746"><ele>47.33333333333333</ele><time>2026-04-06T07:14:32.985Z</time></trkpt><trkpt lat="44.26209527794939" lon="11.874880577826156"><ele>47.666666666666664</ele><time>2026-04-06T07:14:33.985Z</time></trkpt><trkpt lat="44.26195398284291" lon="11.87510192589919"><ele>48.0</ele><time>2026-04-06T07:14:34.985Z</time></trkpt><trkpt lat="44.261808085197444" lon="11.875335082010167"><ele>48.33333333333333</ele><time>2026-04-06T07:14:35.985Z</time></trkpt><trkpt lat="44.261660708108856" lon="11.875549976379755"><ele>48.666666666666664</ele><time>2026-04-06T07:14:36.985Z</time></trkpt><trkpt lat="44.261497348427795" lon="11.875751869219085"><ele>49.0</ele><time>2026-04-06T07:14:37.985Z</time></trkpt><trkpt lat="44.26132368009662" lon="11.875935978716624"><ele>50.33333333333333</ele><time>2026-04-06T07:14:38.985Z</time></trkpt><trkpt lat="44.261139012316725" lon="11.87610571849819"><ele>51.66666666666667</ele><time>2026-04-06T07:14:39.985Z</time></trkpt><trkpt lat="44.2609468102122" lon="11.876265277838494"><ele>53.0</ele><time>2026-04-06T07:14:40.985Z</time></trkpt><trkpt lat="44.26075285822267" lon="11.876421287546465"><ele>53.0</ele><time>2026-04-06T07:14:41.985Z</time></trkpt><trkpt lat="44.260560691142196" lon="11.876566307178312"><ele>53.0</ele><time>2026-04-06T07:14:42.985Z</time></trkpt><trkpt lat="44.26036712748531" lon="11.87669961998887"><ele>53.0</ele><time>2026-04-06T07:14:43.985Z</time></trkpt><trkpt lat="44.2601739033622" lon="11.876830576068398"><ele>52.66666666666667</ele><time>2026-04-06T07:14:44.985Z</time></trkpt><trkpt lat="44.25997964024779" lon="11.876958527409737"><ele>52.33333333333333</ele><time>2026-04-06T07:14:45.985Z</time></trkpt><trkpt lat="44.25978483102366" lon="11.877077601220739"><ele>52.0</ele><time>2026-04-06T07:14:46.985Z</time></trkpt><trkpt lat="44.25958424227711" lon="11.877172424722032"><ele>52.0</ele><time>2026-04-06T07:14:47.985Z</time></trkpt><trkpt lat="44.259383538909745" lon="11.877239122185134"><ele>52.0</ele><time>2026-04-06T07:14:48.985Z</time></trkpt><trkpt lat="44.25918287083492" lon="11.877294356295906"><ele>52.0</ele><time>2026-04-06T07:14:49.985Z</time></trkpt><trkpt lat="44.25898694243711" lon="11.877354662154328"><ele>52.33333333333333</ele><time>2026-04-06T07:14:50.985Z</time></trkpt><trkpt lat="44.258797135853065" lon="11.8774258039747"><ele>52.66666666666667</ele><time>2026-04-06T07:14:51.985Z</time></trkpt><trkpt lat="44.25861617053529" lon="11.877512926263538"><ele>53.0</ele><time>2026-04-06T07:14:52.985Z</time></trkpt><trkpt lat="44.25844547568768" lon="11.87761787368402"><ele>53.0</ele><time>2026-04-06T07:14:53.985Z</time></trkpt><trkpt lat="44.25828149688915" lon="11.87774567691632"><ele>53.0</ele><time>2026-04-06T07:14:54.983Z</time></trkpt><trkpt lat="44.258114285444364" lon="11.877885484919059"><ele>53.0</ele><time>2026-04-06T07:14:55.984Z</time></trkpt><trkpt lat="44.2579456339299" lon="11.878023964650119"><ele>53.0</ele><time>2026-04-06T07:14:56.984Z</time></trkpt><trkpt lat="44.25776589802705" lon="11.87813748266585"><ele>53.0</ele><time>2026-04-06T07:14:57.984Z</time></trkpt><trkpt lat="44.25757414792114" lon="11.878225288552086"><ele>53.0</ele><time>2026-04-06T07:14:58.984Z</time></trkpt><trkpt lat="44.25737868521447" lon="11.878297956995349"><ele>53.66666666666667</ele><time>2026-04-06T07:14:59.984Z</time></trkpt><trkpt lat="44.25718605705556" lon="11.87838240027299"><ele>54.33333333333333</ele><time>2026-04-06T07:15:00.984Z</time></trkpt><trkpt lat="44.256994879739274" lon="11.878479696571699"><ele>55.0</ele><time>2026-04-06T07:15:01.983Z</time></trkpt><trkpt lat="44.25680937735295" lon="11.878576036026445"><ele>55.0</ele><time>2026-04-06T07:15:02.983Z</time></trkpt><trkpt lat="44.25663506686141" lon="11.878666206188143"><ele>55.0</ele><time>2026-04-06T07:15:03.984Z</time></trkpt><trkpt lat="44.256468469774866" lon="11.878751807346475"><ele>55.0</ele><time>2026-04-06T07:15:04.984Z</time></trkpt><trkpt lat="44.25630490859067" lon="11.878850258320247"><ele>55.0</ele><time>2026-04-06T07:15:05.984Z</time></trkpt><trkpt lat="44.25614584648127" lon="11.878981914717938"><ele>55.0</ele><time>2026-04-06T07:15:06.984Z</time></trkpt><trkpt lat="44.25600367636991" lon="11.879151951049476"><ele>55.0</ele><time>2026-04-06T07:15:07.984Z</time></trkpt><trkpt lat="44.25586424511698" lon="11.879340205165054"><ele>55.0</ele><time>2026-04-06T07:15:08.984Z</time></trkpt><trkpt lat="44.255720121513285" lon="11.879527855506016"><ele>55.0</ele><time>2026-04-06T07:15:09.984Z</time></trkpt><trkpt lat="44.25557359218355" lon="11.87970608925707"><ele>55.0</ele><time>2026-04-06T07:15:10.984Z</time></trkpt><trkpt lat="44.25542259148615" lon="11.879867761579096"><ele>55.33333333333333</ele><time>2026-04-06T07:15:11.984Z</time></trkpt><trkpt lat="44.25525350047353" lon="11.88001244059328"><ele>55.66666666666667</ele><time>2026-04-06T07:15:12.984Z</time></trkpt><trkpt lat="44.255070022237305" lon="11.88013515932395"><ele>56.0</ele><time>2026-04-06T07:15:13.984Z</time></trkpt><trkpt lat="44.25487417772603" lon="11.880221260185083"><ele>57.0</ele><time>2026-04-06T07:15:14.984Z</time></trkpt><trkpt lat="44.25467941196826" lon="11.880297438460886"><ele>58.0</ele><time>2026-04-06T07:15:15.984Z</time></trkpt><trkpt lat="44.254487113444476" lon="11.880396818696079"><ele>59.0</ele><time>2026-04-06T07:15:16.984Z</time></trkpt><trkpt lat="44.254303207625156" lon="11.88052200950132"><ele>59.0</ele><time>2026-04-06T07:15:17.984Z</time></trkpt><trkpt lat="44.254125538428404" lon="11.880660086159704"><ele>59.0</ele><time>2026-04-06T07:15:18.984Z</time></trkpt><trkpt lat="44.25395307925687" lon="11.880820951401631"><ele>59.0</ele><time>2026-04-06T07:15:19.984Z</time></trkpt><trkpt lat="44.25378874615356" lon="11.881001457708663"><ele>59.66666666666667</ele><time>2026-04-06T07:15:20.984Z</time></trkpt><trkpt lat="44.25362711943773" lon="11.881171414257436"><ele>60.33333333333333</ele><time>2026-04-06T07:15:21.984Z</time></trkpt><trkpt lat="44.25345931869309" lon="11.881328238120116"><ele>61.0</ele><time>2026-04-06T07:15:22.984Z</time></trkpt><trkpt lat="44.25328078335874" lon="11.88146586797755"><ele>61.666666666666664</ele><time>2026-04-06T07:15:23.984Z</time></trkpt><trkpt lat="44.25308936558796" lon="11.881579298603423"><ele>62.33333333333333</ele><time>2026-04-06T07:15:24.984Z</time></trkpt><trkpt lat="44.25289361798903" lon="11.881672701950862"><ele>63.0</ele><time>2026-04-06T07:15:25.984Z</time></trkpt><trkpt lat="44.25269477821591" lon="11.881763309612667"><ele>62.33333333333333</ele><time>2026-04-06T07:15:26.984Z</time></trkpt><trkpt lat="44.252500292864504" lon="11.881854718224062"><ele>61.666666666666664</ele><time>2026-04-06T07:15:27.984Z</time></trkpt><trkpt lat="44.252307097776544" lon="11.881951133604675"><ele>61.0</ele><time>2026-04-06T07:15:28.984Z</time></trkpt><trkpt lat="44.25211809996183" lon="11.882052520464798"><ele>61.0</ele><time>2026-04-06T07:15:29.984Z</time></trkpt><trkpt lat="44.25192871926155" lon="11.882142820949772"><ele>61.0</ele><time>2026-04-06T07:15:30.984Z</time></trkpt><trkpt lat="44.25173760895575" lon="11.882228571843864"><ele>61.0</ele><time>2026-04-06T07:15:31.984Z</time></trkpt><trkpt lat="44.25154474353634" lon="11.882306204547625"><ele>62.33333333333333</ele><time>2026-04-06T07:15:32.984Z</time></trkpt><trkpt lat="44.25134956715812" lon="11.882376681837775"><ele>63.66666666666667</ele><time>2026-04-06T07:15:33.984Z</time></trkpt><trkpt lat="44.251152607086155" lon="11.882449079773924"><ele>65.0</ele><time>2026-04-06T07:15:34.984Z</time></trkpt><trkpt lat="44.250956829361265" lon="11.882523192265513"><ele>64.66666666666667</ele><time>2026-04-06T07:15:35.984Z</time></trkpt><trkpt lat="44.250758249786486" lon="11.882607183123987"><ele>64.33333333333333</ele><time>2026-04-06T07:15:36.984Z</time></trkpt><trkpt lat="44.2505586035394" lon="11.882698944717866"><ele>64.0</ele><time>2026-04-06T07:15:37.984Z</time></trkpt><trkpt lat="44.25036050122787" lon="11.882795117830181"><ele>65.0</ele><time>2026-04-06T07:15:38.984Z</time></trkpt><trkpt lat="44.2501679054105" lon="11.882887124003297"><ele>66.0</ele><time>2026-04-06T07:15:39.984Z</time></trkpt><trkpt lat="44.24998077535561" lon="11.88298517021035"><ele>67.0</ele><time>2026-04-06T07:15:40.984Z</time></trkpt><trkpt lat="44.24980075483765" lon="11.883092393842878"><ele>66.66666666666666</ele><time>2026-04-06T07:15:41.984Z</time></trkpt><trkpt lat="44.24963245124439" lon="11.883220828083545"><ele>66.33333333333333</ele><time>2026-04-06T07:15:42.984Z</time></trkpt><trkpt lat="44.249471843151454" lon="11.8833492672813"><ele>66.0</ele><time>2026-04-06T07:15:43.984Z</time></trkpt><trkpt lat="44.24932844928253" lon="11.883490364594467"><ele>66.0</ele><time>2026-04-06T07:15:44.984Z</time></trkpt><trkpt lat="44.249178688850186" lon="11.883622417052164"><ele>66.0</ele><time>2026-04-06T07:15:45.984Z</time></trkpt><trkpt lat="44.24901588697094" lon="11.883731914155497"><ele>66.0</ele><time>2026-04-06T07:15:46.984Z</time></trkpt><trkpt lat="44.24883660021422" lon="11.883816681635404"><ele>66.0</ele><time>2026-04-06T07:15:47.984Z</time></trkpt><trkpt lat="44.248644743010715" lon="11.883877133076535"><ele>66.0</ele><time>2026-04-06T07:15:48.984Z</time></trkpt><trkpt lat="44.24845232771252" lon="11.883922633511123"><ele>66.0</ele><time>2026-04-06T07:15:49.984Z</time></trkpt><trkpt lat="44.24825153941904" lon="11.883972481011114"><ele>66.33333333333333</ele><time>2026-04-06T07:15:50.984Z</time></trkpt><trkpt lat="44.24804962563608" lon="11.884031621061958"><ele>66.66666666666666</ele><time>2026-04-06T07:15:51.984Z</time></trkpt><trkpt lat="44.247843240356694" lon="11.884093434808069"><ele>67.0</ele><time>2026-04-06T07:15:52.984Z</time></trkpt><trkpt lat="44.24763606006647" lon="11.884153164669291"><ele>67.0</ele><time>2026-04-06T07:15:53.984Z</time></trkpt><trkpt lat="44.24743166174594" lon="11.884208969334455"><ele>67.0</ele><time>2026-04-06T07:15:54.984Z</time></trkpt><trkpt lat="44.24722273133234" lon="11.884250999855702"><ele>67.0</ele><time>2026-04-06T07:15:55.984Z</time></trkpt><trkpt lat="44.24701386987054" lon="11.884267572953753"><ele>67.33333333333333</ele><time>2026-04-06T07:15:56.984Z</time></trkpt><trkpt lat="44.246811337363816" lon="11.884239035235668"><ele>67.66666666666667</ele><time>2026-04-06T07:15:57.984Z</time></trkpt><trkpt lat="44.246609181840846" lon="11.884174195814687"><ele>68.0</ele><time>2026-04-06T07:15:58.984Z</time></trkpt><trkpt lat="44.246412461064544" lon="11.884066601881756"><ele>68.66666666666667</ele><time>2026-04-06T07:15:59.984Z</time></trkpt><trkpt lat="44.2462262715392" lon="11.883919488862798"><ele>69.33333333333333</ele><time>2026-04-06T07:16:00.984Z</time></trkpt><trkpt lat="44.24606214555045" lon="11.883718653362187"><ele>70.0</ele><time>2026-04-06T07:16:01.984Z</time></trkpt><trkpt lat="44.245895597962516" lon="11.883531367236724"><ele>70.5</ele><time>2026-04-06T07:16:02.984Z</time></trkpt><trkpt lat="44.24574859401115" lon="11.88329912287478"><ele>71.0</ele><time>2026-04-06T07:16:03.984Z</time></trkpt><trkpt lat="44.24559796586587" lon="11.883060974809364"><ele>70.0</ele><time>2026-04-06T07:16:04.984Z</time></trkpt><trkpt lat="44.24544175365958" lon="11.882816042631696"><ele>69.0</ele><time>2026-04-06T07:16:05.984Z</time></trkpt><trkpt lat="44.245293658677966" lon="11.882575005556275"><ele>68.66666666666667</ele><time>2026-04-06T07:16:06.984Z</time></trkpt><trkpt lat="44.24514846505165" lon="11.882341436928199"><ele>68.33333333333334</ele><time>2026-04-06T07:16:07.984Z</time></trkpt><trkpt lat="44.245005968056624" lon="11.882119621293397"><ele>68.0</ele><time>2026-04-06T07:16:08.984Z</time></trkpt><trkpt lat="44.24487182874245" lon="11.881908282347489"><ele>69.33333333333334</ele><time>2026-04-06T07:16:09.984Z</time></trkpt><trkpt lat="44.24473751812764" lon="11.881707117265126"><ele>70.66666666666667</ele><time>2026-04-06T07:16:10.984Z</time></trkpt><trkpt lat="44.244592851606455" lon="11.881523885377838"><ele>72.0</ele><time>2026-04-06T07:16:11.984Z</time></trkpt><trkpt lat="44.24442478540372" lon="11.881368551736708"><ele>72.0</ele><time>2026-04-06T07:16:12.984Z</time></trkpt><trkpt lat="44.24423856777206" lon="11.881245307197089"><ele>72.0</ele><time>2026-04-06T07:16:13.984Z</time></trkpt><trkpt lat="44.24404736524843" lon="11.881144551437847"><ele>72.0</ele><time>2026-04-06T07:16:14.984Z</time></trkpt><trkpt lat="44.243848691436725" lon="11.881050342763084"><ele>72.0</ele><time>2026-04-06T07:16:15.984Z</time></trkpt><trkpt lat="44.24363359227144" lon="11.88099037947232"><ele>72.0</ele><time>2026-04-06T07:16:16.984Z</time></trkpt><trkpt lat="44.243407363232635" lon="11.880937992801442"><ele>72.0</ele><time>2026-04-06T07:16:17.984Z</time></trkpt><trkpt lat="44.24317951216066" lon="11.88088291495547"><ele>70.0</ele><time>2026-04-06T07:16:18.984Z</time></trkpt><trkpt lat="44.242947509133465" lon="11.880829668731588"><ele>68.0</ele><time>2026-04-06T07:16:19.984Z</time></trkpt><trkpt lat="44.24271743831374" lon="11.880771630416366"><ele>68.0</ele><time>2026-04-06T07:16:20.984Z</time></trkpt><trkpt lat="44.242494877867685" lon="11.880712652086261"><ele>68.0</ele><time>2026-04-06T07:16:21.984Z</time></trkpt><trkpt lat="44.24227216301965" lon="11.88065472752778"><ele>66.33333333333334</ele><time>2026-04-06T07:16:22.984Z</time></trkpt><trkpt lat="44.24205301184216" lon="11.880596423714124"><ele>64.66666666666667</ele><time>2026-04-06T07:16:23.984Z</time></trkpt><trkpt lat="44.24183636385194" lon="11.880543786718006"><ele>63.0</ele><time>2026-04-06T07:16:24.984Z</time></trkpt><trkpt lat="44.241616440366805" lon="11.88048929218168"><ele>61.5</ele><time>2026-04-06T07:16:25.984Z</time></trkpt><trkpt lat="44.24139409363621" lon="11.880434321678772"><ele>60.0</ele><time>2026-04-06T07:16:26.984Z</time></trkpt><trkpt lat="44.241172567783494" lon="11.880372753635122"><ele>60.0</ele><time>2026-04-06T07:16:27.984Z</time></trkpt><trkpt lat="44.24095295847244" lon="11.880312395192158"><ele>60.0</ele><time>2026-04-06T07:16:28.984Z</time></trkpt><trkpt lat="44.24072962579909" lon="11.88025481218291"><ele>60.0</ele><time>2026-04-06T07:16:29.984Z</time></trkpt><trkpt lat="44.24050755964442" lon="11.880198441795757"><ele>60.0</ele><time>2026-04-06T07:16:30.984Z</time></trkpt><trkpt lat="44.240288442800384" lon="11.880145029617854"><ele>60.0</ele><time>2026-04-06T07:16:31.984Z</time></trkpt><trkpt lat="44.240076894557966" lon="11.880089520608392"><ele>60.66666666666667</ele><time>2026-04-06T07:16:32.984Z</time></trkpt><trkpt lat="44.239879573581206" lon="11.880039368439078"><ele>61.333333333333336</ele><time>2026-04-06T07:16:33.984Z</time></trkpt><trkpt lat="44.23968500174043" lon="11.879983591556174"><ele>62.0</ele><time>2026-04-06T07:16:34.984Z</time></trkpt><trkpt lat="44.23948657690641" lon="11.879930057613388"><ele>62.0</ele><time>2026-04-06T07:16:35.984Z</time></trkpt><trkpt lat="44.239291694696774" lon="11.879880805227977"><ele>62.0</ele><time>2026-04-06T07:16:36.984Z</time></trkpt><trkpt lat="44.23909625780645" lon="11.87982730018491"><ele>62.0</ele><time>2026-04-06T07:16:37.984Z</time></trkpt><trkpt lat="44.23890188298598" lon="11.879775935252638"><ele>62.66666666666667</ele><time>2026-04-06T07:16:38.984Z</time></trkpt><trkpt lat="44.238699503865426" lon="11.879721335376352"><ele>63.33333333333333</ele><time>2026-04-06T07:16:39.984Z</time></trkpt><trkpt lat="44.23849980681357" lon="11.879662935037562"><ele>64.0</ele><time>2026-04-06T07:16:40.984Z</time></trkpt><trkpt lat="44.23830051371505" lon="11.879602453513215"><ele>63.0</ele><time>2026-04-06T07:16:41.984Z</time></trkpt><trkpt lat="44.23810329528187" lon="11.879541172769972"><ele>62.0</ele><time>2026-04-06T07:16:42.984Z</time></trkpt><trkpt lat="44.237904220926175" lon="11.879472369384883"><ele>61.0</ele><time>2026-04-06T07:16:43.984Z</time></trkpt><trkpt lat="44.237707255364406" lon="11.879394612963408"><ele>61.0</ele><time>2026-04-06T07:16:44.984Z</time></trkpt><trkpt lat="44.237504297630046" lon="11.879300086267671"><ele>61.0</ele><time>2026-04-06T07:16:45.984Z</time></trkpt><trkpt lat="44.23729984967056" lon="11.879226168842578"><ele>61.0</ele><time>2026-04-06T07:16:46.984Z</time></trkpt><trkpt lat="44.23710290572802" lon="11.879080043282949"><ele>61.0</ele><time>2026-04-06T07:16:47.984Z</time></trkpt><trkpt lat="44.23690813524516" lon="11.878955501541641"><ele>61.0</ele><time>2026-04-06T07:16:48.984Z</time></trkpt><trkpt lat="44.23671843651983" lon="11.878805734248095"><ele>61.0</ele><time>2026-04-06T07:16:49.984Z</time></trkpt><trkpt lat="44.23653152130847" lon="11.878645798766225"><ele>61.0</ele><time>2026-04-06T07:16:50.984Z</time></trkpt><trkpt lat="44.23634434759092" lon="11.878481934239902"><ele>61.0</ele><time>2026-04-06T07:16:51.984Z</time></trkpt><trkpt lat="44.23615280909429" lon="11.878313362074275"><ele>61.0</ele><time>2026-04-06T07:16:52.984Z</time></trkpt><trkpt lat="44.235955530392374" lon="11.878139843813411"><ele>61.0</ele><time>2026-04-06T07:16:53.984Z</time></trkpt><trkpt lat="44.235762306664384" lon="11.87796779576985"><ele>61.0</ele><time>2026-04-06T07:16:54.984Z</time></trkpt><trkpt lat="44.235572317188954" lon="11.877796192803928"><ele>61.0</ele><time>2026-04-06T07:16:55.984Z</time></trkpt><trkpt lat="44.235388123662865" lon="11.87763055083516"><ele>61.0</ele><time>2026-04-06T07:16:56.984Z</time></trkpt><trkpt lat="44.23520459976755" lon="11.877471063303737"><ele>61.0</ele><time>2026-04-06T07:16:57.984Z</time></trkpt><trkpt lat="44.235019997393174" lon="11.877321139172276"><ele>61.0</ele><time>2026-04-06T07:16:58.984Z</time></trkpt><trkpt lat="44.23482469426208" lon="11.877191337782426"><ele>61.0</ele><time>2026-04-06T07:16:59.984Z</time></trkpt><trkpt lat="44.23462355513202" lon="11.877088614753808"><ele>61.0</ele><time>2026-04-06T07:17:00.983Z</time></trkpt><trkpt lat="44.234416393642775" lon="11.877019415038689"><ele>61.0</ele><time>2026-04-06T07:17:01.983Z</time></trkpt><trkpt lat="44.234201148348404" lon="11.876980450612901"><ele>61.0</ele><time>2026-04-06T07:17:02.983Z</time></trkpt><trkpt lat="44.233986573445556" lon="11.876967915135818"><ele>61.0</ele><time>2026-04-06T07:17:03.983Z</time></trkpt><trkpt lat="44.233766390222776" lon="11.876964307709873"><ele>61.33333333333333</ele><time>2026-04-06T07:17:04.983Z</time></trkpt><trkpt lat="44.23355398679891" lon="11.876955034740588"><ele>61.66666666666667</ele><time>2026-04-06T07:17:05.983Z</time></trkpt><trkpt lat="44.23335393298029" lon="11.876939477335544"><ele>62.0</ele><time>2026-04-06T07:17:06.983Z</time></trkpt><trkpt lat="44.23316072983256" lon="11.876906956597033"><ele>62.0</ele><time>2026-04-06T07:17:07.983Z</time></trkpt><trkpt lat="44.23296817737606" lon="11.876831070833356"><ele>62.0</ele><time>2026-04-06T07:17:08.983Z</time></trkpt><trkpt lat="44.23277877432951" lon="11.876716485923392"><ele>62.0</ele><time>2026-04-06T07:17:09.983Z</time></trkpt><trkpt lat="44.23259729222266" lon="11.876569643190747"><ele>62.0</ele><time>2026-04-06T07:17:10.983Z</time></trkpt><trkpt lat="44.23241722956503" lon="11.876384338916333"><ele>62.0</ele><time>2026-04-06T07:17:11.983Z</time></trkpt><trkpt lat="44.232246072818995" lon="11.876197784377485"><ele>62.0</ele><time>2026-04-06T07:17:12.983Z</time></trkpt><trkpt lat="44.23206658954666" lon="11.876031231231117"><ele>62.0</ele><time>2026-04-06T07:17:13.982Z</time></trkpt><trkpt lat="44.23186739792694" lon="11.875891317462523"><ele>62.0</ele><time>2026-04-06T07:17:14.982Z</time></trkpt><trkpt lat="44.231660601392804" lon="11.875770169925573"><ele>62.0</ele><time>2026-04-06T07:17:15.982Z</time></trkpt><trkpt lat="44.23145358272202" lon="11.875660150763922"><ele>62.0</ele><time>2026-04-06T07:17:16.982Z</time></trkpt><trkpt lat="44.23124641944138" lon="11.875565065324514"><ele>62.0</ele><time>2026-04-06T07:17:17.982Z</time></trkpt><trkpt lat="44.231034355927555" lon="11.875487257625974"><ele>62.0</ele><time>2026-04-06T07:17:18.982Z</time></trkpt><trkpt lat="44.23082904379571" lon="11.875413613716523"><ele>62.0</ele><time>2026-04-06T07:17:19.982Z</time></trkpt><trkpt lat="44.23063118040232" lon="11.875332183013214"><ele>62.0</ele><time>2026-04-06T07:17:20.982Z</time></trkpt><trkpt lat="44.230447948695044" lon="11.875211626625461"><ele>62.0</ele><time>2026-04-06T07:17:21.982Z</time></trkpt><trkpt lat="44.23027857834171" lon="11.87504643268317"><ele>63.0</ele><time>2026-04-06T07:17:22.982Z</time></trkpt><trkpt lat="44.230116714141374" lon="11.874852983766344"><ele>64.0</ele><time>2026-04-06T07:17:23.982Z</time></trkpt><trkpt lat="44.22995852910408" lon="11.874656134930182"><ele>65.0</ele><time>2026-04-06T07:17:24.982Z</time></trkpt><trkpt lat="44.22980924696044" lon="11.87445743192829"><ele>65.0</ele><time>2026-04-06T07:17:25.982Z</time></trkpt><trkpt lat="44.2296623254448" lon="11.874244019060118"><ele>65.0</ele><time>2026-04-06T07:17:26.982Z</time></trkpt><trkpt lat="44.22952547062105" lon="11.874013291086877"><ele>65.0</ele><time>2026-04-06T07:17:27.982Z</time></trkpt><trkpt lat="44.229406633061096" lon="11.87375949795311"><ele>65.0</ele><time>2026-04-06T07:17:28.982Z</time></trkpt><trkpt lat="44.22930215346239" lon="11.873488978505826"><ele>65.0</ele><time>2026-04-06T07:17:29.982Z</time></trkpt><trkpt lat="44.229207552103574" lon="11.87320269966827"><ele>65.0</ele><time>2026-04-06T07:17:30.982Z</time></trkpt><trkpt lat="44.22910996196091" lon="11.872920190994831"><ele>65.0</ele><time>2026-04-06T07:17:31.982Z</time></trkpt><trkpt lat="44.229021082515565" lon="11.87264631660808"><ele>65.0</ele><time>2026-04-06T07:17:32.982Z</time></trkpt><trkpt lat="44.22893276217849" lon="11.872376653649498"><ele>65.0</ele><time>2026-04-06T07:17:33.982Z</time></trkpt><trkpt lat="44.22885367524191" lon="11.872124384173"><ele>65.0</ele><time>2026-04-06T07:17:34.982Z</time></trkpt><trkpt lat="44.22877447012683" lon="11.871878426547715"><ele>65.0</ele><time>2026-04-06T07:17:35.982Z</time></trkpt><trkpt lat="44.22869324531484" lon="11.871631658587765"><ele>65.0</ele><time>2026-04-06T07:17:36.982Z</time></trkpt><trkpt lat="44.22861826748694" lon="11.871396142586663"><ele>64.66666666666667</ele><time>2026-04-06T07:17:37.982Z</time></trkpt><trkpt lat="44.22855160060948" lon="11.871174471042814"><ele>64.33333333333333</ele><time>2026-04-06T07:17:38.982Z</time></trkpt><trkpt lat="44.22848729922226" lon="11.870962512158272"><ele>64.0</ele><time>2026-04-06T07:17:39.982Z</time></trkpt><trkpt lat="44.2284290020981" lon="11.870765341938101"><ele>64.5</ele><time>2026-04-06T07:17:40.982Z</time></trkpt><trkpt lat="44.2283798348449" lon="11.87057247313126"><ele>65.0</ele><time>2026-04-06T07:17:41.982Z</time></trkpt><trkpt lat="44.228333155325565" lon="11.870390064111655"><ele>65.5</ele><time>2026-04-06T07:17:42.982Z</time></trkpt><trkpt lat="44.22829274150709" lon="11.870210504496702"><ele>66.0</ele><time>2026-04-06T07:17:43.982Z</time></trkpt><trkpt lat="44.22826501273875" lon="11.870018762700544"><ele>66.33333333333333</ele><time>2026-04-06T07:17:44.982Z</time></trkpt><trkpt lat="44.22824343249635" lon="11.869810263322071"><ele>66.66666666666666</ele><time>2026-04-06T07:17:45.982Z</time></trkpt><trkpt lat="44.228235330294204" lon="11.869596254133757"><ele>67.0</ele><time>2026-04-06T07:17:46.982Z</time></trkpt><trkpt lat="44.22823504110946" lon="11.869371117430957"><ele>67.0</ele><time>2026-04-06T07:17:47.982Z</time></trkpt><trkpt lat="44.22824499717515" lon="11.869152148291318"><ele>67.0</ele><time>2026-04-06T07:17:48.982Z</time></trkpt><trkpt lat="44.2282568903159" lon="11.86894484091952"><ele>67.0</ele><time>2026-04-06T07:17:49.982Z</time></trkpt><trkpt lat="44.228266147044664" lon="11.868756192980179"><ele>67.0</ele><time>2026-04-06T07:17:50.982Z</time></trkpt><trkpt lat="44.22826991452647" lon="11.868567339410339"><ele>67.5</ele><time>2026-04-06T07:17:51.982Z</time></trkpt><trkpt lat="44.22827027863298" lon="11.868384190226255"><ele>68.0</ele><time>2026-04-06T07:17:52.982Z</time></trkpt><trkpt lat="44.22827345323011" lon="11.868194432475685"><ele>68.5</ele><time>2026-04-06T07:17:53.982Z</time></trkpt><trkpt lat="44.22829782069209" lon="11.867992107596459"><ele>69.0</ele><time>2026-04-06T07:17:54.982Z</time></trkpt><trkpt lat="44.2282912724399" lon="11.867782052984127"><ele>69.0</ele><time>2026-04-06T07:17:55.982Z</time></trkpt><trkpt lat="44.22826777837503" lon="11.867563656297893"><ele>69.0</ele><time>2026-04-06T07:17:56.982Z</time></trkpt><trkpt lat="44.22827712903042" lon="11.86736383665812"><ele>69.0</ele><time>2026-04-06T07:17:57.982Z</time></trkpt><trkpt lat="44.22825896652658" lon="11.867156732518534"><ele>69.0</ele><time>2026-04-06T07:17:58.982Z</time></trkpt><trkpt lat="44.22824084752672" lon="11.866959366180284"><ele>69.0</ele><time>2026-04-06T07:17:59.982Z</time></trkpt><trkpt lat="44.228224773581005" lon="11.866769936647355"><ele>69.0</ele><time>2026-04-06T07:18:00.982Z</time></trkpt><trkpt lat="44.228201467153475" lon="11.866593376355155"><ele>69.0</ele><time>2026-04-06T07:18:01.982Z</time></trkpt><trkpt lat="44.228179368353025" lon="11.866423083660102"><ele>68.75</ele><time>2026-04-06T07:18:02.982Z</time></trkpt><trkpt lat="44.228159298041426" lon="11.866251135487676"><ele>68.5</ele><time>2026-04-06T07:18:03.982Z</time></trkpt><trkpt lat="44.228128732620576" lon="11.866066005475005"><ele>68.25</ele><time>2026-04-06T07:18:04.982Z</time></trkpt><trkpt lat="44.22810537419152" lon="11.865878671048351"><ele>68.0</ele><time>2026-04-06T07:18:05.982Z</time></trkpt><trkpt lat="44.22807714681895" lon="11.865677668302476"><ele>67.0</ele><time>2026-04-06T07:18:06.982Z</time></trkpt><trkpt lat="44.228075356805775" lon="11.865461106828175"><ele>66.0</ele><time>2026-04-06T07:18:07.982Z</time></trkpt><trkpt lat="44.22806642260099" lon="11.865244228064308"><ele>65.0</ele><time>2026-04-06T07:18:08.982Z</time></trkpt><trkpt lat="44.22806122621478" lon="11.865018653543645"><ele>65.0</ele><time>2026-04-06T07:18:09.982Z</time></trkpt><trkpt lat="44.228052959501085" lon="11.864800739116037"><ele>65.0</ele><time>2026-04-06T07:18:10.982Z</time></trkpt><trkpt lat="44.22802542914082" lon="11.864582617093484"><ele>65.0</ele><time>2026-04-06T07:18:11.982Z</time></trkpt><trkpt lat="44.22800209991834" lon="11.864367963282444"><ele>65.33333333333334</ele><time>2026-04-06T07:18:12.982Z</time></trkpt><trkpt lat="44.22796711720319" lon="11.864163705911766"><ele>65.66666666666667</ele><time>2026-04-06T07:18:13.982Z</time></trkpt><trkpt lat="44.22791735405895" lon="11.863965301649309"><ele>66.0</ele><time>2026-04-06T07:18:14.982Z</time></trkpt><trkpt lat="44.22784702723757" lon="11.863776603612399"><ele>66.0</ele><time>2026-04-06T07:18:15.982Z</time></trkpt><trkpt lat="44.227763228254425" lon="11.863608994709477"><ele>66.0</ele><time>2026-04-06T07:18:16.982Z</time></trkpt><trkpt lat="44.22767605495549" lon="11.86345349452403"><ele>66.0</ele><time>2026-04-06T07:18:17.982Z</time></trkpt><trkpt lat="44.22758509478484" lon="11.86329158254438"><ele>66.0</ele><time>2026-04-06T07:18:18.982Z</time></trkpt><trkpt lat="44.227504269314174" lon="11.863120856267127"><ele>66.0</ele><time>2026-04-06T07:18:19.982Z</time></trkpt><trkpt lat="44.22743224533069" lon="11.862948867302752"><ele>66.0</ele><time>2026-04-06T07:18:20.982Z</time></trkpt><trkpt lat="44.227368020904294" lon="11.862748272705351"><ele>66.0</ele><time>2026-04-06T07:18:21.982Z</time></trkpt><trkpt lat="44.22735578973278" lon="11.862524596237643"><ele>66.0</ele><time>2026-04-06T07:18:22.982Z</time></trkpt><trkpt lat="44.22731206266692" lon="11.862312038552565"><ele>66.0</ele><time>2026-04-06T07:18:23.982Z</time></trkpt><trkpt lat="44.227289620506056" lon="11.862100394542711"><ele>66.0</ele><time>2026-04-06T07:18:24.982Z</time></trkpt><trkpt lat="44.227258001394304" lon="11.861901405238976"><ele>65.25</ele><time>2026-04-06T07:18:25.982Z</time></trkpt><trkpt lat="44.227229232222044" lon="11.861704833000612"><ele>64.5</ele><time>2026-04-06T07:18:26.982Z</time></trkpt><trkpt lat="44.22719922397806" lon="11.861513538815068"><ele>63.75</ele><time>2026-04-06T07:18:27.982Z</time></trkpt><trkpt lat="44.22716521845809" lon="11.861319795365441"><ele>63.0</ele><time>2026-04-06T07:18:28.982Z</time></trkpt><trkpt lat="44.22714164382014" lon="11.861124071331579"><ele>63.75</ele><time>2026-04-06T07:18:29.982Z</time></trkpt><trkpt lat="44.22711445989422" lon="11.860936130640669"><ele>64.5</ele><time>2026-04-06T07:18:30.981Z</time></trkpt><trkpt lat="44.227110705228746" lon="11.860757858246208"><ele>65.25</ele><time>2026-04-06T07:18:31.981Z</time></trkpt><trkpt lat="44.22708046795025" lon="11.860584057287948"><ele>66.0</ele><time>2026-04-06T07:18:32.981Z</time></trkpt><trkpt lat="44.22705128945627" lon="11.86043271751201"><ele>66.0</ele><time>2026-04-06T07:18:33.981Z</time></trkpt><trkpt lat="44.22702590478834" lon="11.860281532951657"><ele>66.0</ele><time>2026-04-06T07:18:34.98Z</time></trkpt><trkpt lat="44.22700553761222" lon="11.86014140852145"><ele>66.0</ele><time>2026-04-06T07:18:35.98Z</time></trkpt><trkpt lat="44.22697474489211" lon="11.860007464912732"><ele>66.0</ele><time>2026-04-06T07:18:36.98Z</time></trkpt><trkpt lat="44.22696127865635" lon="11.859878423578357"><ele>66.0</ele><time>2026-04-06T07:18:37.98Z</time></trkpt><trkpt lat="44.22692932748181" lon="11.859730882558596"><ele>66.0</ele><time>2026-04-06T07:18:39.979Z</time></trkpt><trkpt lat="44.226797243379835" lon="11.859684427028332"><ele>66.0</ele><time>2026-04-06T07:18:42.979Z</time></trkpt><trkpt lat="44.22672476260292" lon="11.859664785664721"><ele>66.0</ele><time>2026-04-06T07:18:43.978Z</time></trkpt><trkpt lat="44.22663901194831" lon="11.859605240688243"><ele>66.0</ele><time>2026-04-06T07:18:44.978Z</time></trkpt><trkpt lat="44.22653291309141" lon="11.859562111831403"><ele>66.0</ele><time>2026-04-06T07:18:45.978Z</time></trkpt><trkpt lat="44.226412302312134" lon="11.859513461413984"><ele>65.75</ele><time>2026-04-06T07:18:46.978Z</time></trkpt><trkpt lat="44.22629980130261" lon="11.859468488023161"><ele>65.5</ele><time>2026-04-06T07:18:47.978Z</time></trkpt><trkpt lat="44.226169833644576" lon="11.859434238103773"><ele>65.25</ele><time>2026-04-06T07:18:48.978Z</time></trkpt><trkpt lat="44.22604274991666" lon="11.859376704452028"><ele>65.0</ele><time>2026-04-06T07:18:49.978Z</time></trkpt><trkpt lat="44.22590590936647" lon="11.859318792226412"><ele>65.0</ele><time>2026-04-06T07:18:50.978Z</time></trkpt><trkpt lat="44.225766754823916" lon="11.859257250211964"><ele>65.0</ele><time>2026-04-06T07:18:51.978Z</time></trkpt><trkpt lat="44.22563922975835" lon="11.859201512199242"><ele>65.0</ele><time>2026-04-06T07:18:52.977Z</time></trkpt><trkpt lat="44.22550413600942" lon="11.859157617304756"><ele>65.0</ele><time>2026-04-06T07:18:53.977Z</time></trkpt><trkpt lat="44.225362500205506" lon="11.859104632159658"><ele>65.0</ele><time>2026-04-06T07:18:54.977Z</time></trkpt><trkpt lat="44.225222603658636" lon="11.859059227205906"><ele>65.0</ele><time>2026-04-06T07:18:55.977Z</time></trkpt><trkpt lat="44.22509518968165" lon="11.858985805747341"><ele>65.0</ele><time>2026-04-06T07:18:56.977Z</time></trkpt><trkpt lat="44.22496905224207" lon="11.858937035558428"><ele>65.0</ele><time>2026-04-06T07:18:57.977Z</time></trkpt><trkpt lat="44.22485325662951" lon="11.858890197927082"><ele>64.75</ele><time>2026-04-06T07:18:58.977Z</time></trkpt><trkpt lat="44.22474284221428" lon="11.858851522783903"><ele>64.5</ele><time>2026-04-06T07:18:59.977Z</time></trkpt><trkpt lat="44.22462142815582" lon="11.858798319255802"><ele>64.25</ele><time>2026-04-06T07:19:00.977Z</time></trkpt><trkpt lat="44.22449831119681" lon="11.858729284914643"><ele>64.0</ele><time>2026-04-06T07:19:01.977Z</time></trkpt><trkpt lat="44.22438166000272" lon="11.858617842477418"><ele>64.0</ele><time>2026-04-06T07:19:02.977Z</time></trkpt><trkpt lat="44.224258098485116" lon="11.858511965704533"><ele>64.0</ele><time>2026-04-06T07:19:03.977Z</time></trkpt><trkpt lat="44.22413156246011" lon="11.85841652647012"><ele>64.0</ele><time>2026-04-06T07:19:04.977Z</time></trkpt><trkpt lat="44.224015989632655" lon="11.8583471925235"><ele>64.0</ele><time>2026-04-06T07:19:05.977Z</time></trkpt><trkpt lat="44.223927520727045" lon="11.858285735910245"><ele>63.99999999999999</ele><time>2026-04-06T07:19:06.977Z</time></trkpt><trkpt lat="44.223850322977995" lon="11.858252749569447"><ele>64.0</ele><time>2026-04-06T07:19:07.976Z</time></trkpt><trkpt lat="44.22377911539972" lon="11.858243644972038"><ele>64.0</ele><time>2026-04-06T07:19:08.976Z</time></trkpt><trkpt lat="44.22371529441506" lon="11.85827464027623"><ele>64.0</ele><time>2026-04-06T07:19:09.977Z</time></trkpt><trkpt lat="44.22365223674761" lon="11.858351950740188"><ele>63.99999999999999</ele><time>2026-04-06T07:19:10.977Z</time></trkpt><trkpt lat="44.2235872190582" lon="11.858487584590453"><ele>64.0</ele><time>2026-04-06T07:19:11.977Z</time></trkpt><trkpt lat="44.22349973482614" lon="11.858597211423978"><ele>64.0</ele><time>2026-04-06T07:19:12.977Z</time></trkpt><trkpt lat="44.22343462852951" lon="11.85870116616721"><ele>64.0</ele><time>2026-04-06T07:19:13.976Z</time></trkpt><trkpt lat="44.223375479759206" lon="11.858773883397252"><ele>64.0</ele><time>2026-04-06T07:19:14.976Z</time></trkpt><trkpt lat="44.22330859345313" lon="11.858822545584786"><ele>64.0</ele><time>2026-04-06T07:19:15.976Z</time></trkpt><trkpt lat="44.22321181488548" lon="11.858810774314705"><ele>64.0</ele><time>2026-04-06T07:19:16.976Z</time></trkpt><trkpt lat="44.22309254571128" lon="11.858802586742538"><ele>64.0</ele><time>2026-04-06T07:19:17.976Z</time></trkpt><trkpt lat="44.22296337434057" lon="11.858794027064887"><ele>64.0</ele><time>2026-04-06T07:19:18.976Z</time></trkpt><trkpt lat="44.22282936425519" lon="11.858818348673056"><ele>64.0</ele><time>2026-04-06T07:19:19.977Z</time></trkpt><trkpt lat="44.22269069009479" lon="11.858887906420252"><ele>64.0</ele><time>2026-04-06T07:19:20.976Z</time></trkpt><trkpt lat="44.22255492471495" lon="11.858975014232925"><ele>64.0</ele><time>2026-04-06T07:19:21.976Z</time></trkpt><trkpt lat="44.22241855728801" lon="11.85908359054177"><ele>64.0</ele><time>2026-04-06T07:19:22.976Z</time></trkpt><trkpt lat="44.22227335831126" lon="11.85916068385265"><ele>64.0</ele><time>2026-04-06T07:19:23.976Z</time></trkpt><trkpt lat="44.22212646286731" lon="11.859254591757006"><ele>64.33333333333333</ele><time>2026-04-06T07:19:24.976Z</time></trkpt><trkpt lat="44.22198374184157" lon="11.859373722593078"><ele>64.66666666666667</ele><time>2026-04-06T07:19:25.976Z</time></trkpt><trkpt lat="44.221834342721635" lon="11.85947166566188"><ele>65.0</ele><time>2026-04-06T07:19:26.976Z</time></trkpt><trkpt lat="44.221687337602546" lon="11.859568723662333"><ele>65.0</ele><time>2026-04-06T07:19:27.976Z</time></trkpt><trkpt lat="44.221537393380764" lon="11.859628377980483"><ele>65.0</ele><time>2026-04-06T07:19:28.976Z</time></trkpt><trkpt lat="44.22138618913929" lon="11.85968569650461"><ele>65.0</ele><time>2026-04-06T07:19:29.976Z</time></trkpt><trkpt lat="44.221239921923036" lon="11.859740815519947"><ele>66.33333333333334</ele><time>2026-04-06T07:19:30.976Z</time></trkpt><trkpt lat="44.22109071593348" lon="11.859813987552718"><ele>67.66666666666667</ele><time>2026-04-06T07:19:31.976Z</time></trkpt><trkpt lat="44.22094909509577" lon="11.859914307444189"><ele>69.0</ele><time>2026-04-06T07:19:32.976Z</time></trkpt><trkpt lat="44.22080718687161" lon="11.859970875517563"><ele>69.0</ele><time>2026-04-06T07:19:33.976Z</time></trkpt><trkpt lat="44.22067249522048" lon="11.860073237949246"><ele>69.0</ele><time>2026-04-06T07:19:34.976Z</time></trkpt><trkpt lat="44.22053504162088" lon="11.86014906250734"><ele>69.0</ele><time>2026-04-06T07:19:35.976Z</time></trkpt><trkpt lat="44.22041599368393" lon="11.860245002929327"><ele>69.0</ele><time>2026-04-06T07:19:36.976Z</time></trkpt><trkpt lat="44.2202986283984" lon="11.860344877223033"><ele>70.0</ele><time>2026-04-06T07:19:37.976Z</time></trkpt><trkpt lat="44.22019025202703" lon="11.860407826441634"><ele>71.0</ele><time>2026-04-06T07:19:38.976Z</time></trkpt><trkpt lat="44.22008078506461" lon="11.860453762509358"><ele>72.0</ele><time>2026-04-06T07:19:39.976Z</time></trkpt><trkpt lat="44.21996106212407" lon="11.860476521682454"><ele>73.0</ele><time>2026-04-06T07:19:40.976Z</time></trkpt><trkpt lat="44.219856306329326" lon="11.8604296692902"><ele>75.8</ele><time>2026-04-06T07:19:41.976Z</time></trkpt><trkpt lat="44.219770490296014" lon="11.860359963681047"><ele>78.6</ele><time>2026-04-06T07:19:42.976Z</time></trkpt><trkpt lat="44.21969931488197" lon="11.860290493551586"><ele>81.39999999999999</ele><time>2026-04-06T07:19:43.976Z</time></trkpt><trkpt lat="44.21966534062643" lon="11.860154041378037"><ele>84.19999999999999</ele><time>2026-04-06T07:19:45.976Z</time></trkpt><trkpt lat="44.21966230971808" lon="11.860059432079286"><ele>87.0</ele><time>2026-04-06T07:19:46.976Z</time></trkpt><trkpt lat="44.21972118326596" lon="11.859943911467868"><ele>87.25</ele><time>2026-04-06T07:19:47.976Z</time></trkpt><trkpt lat="44.2197443429424" lon="11.859793567120446"><ele>87.5</ele><time>2026-04-06T07:19:48.976Z</time></trkpt><trkpt lat="44.2197649149416" lon="11.85963073625481"><ele>87.75</ele><time>2026-04-06T07:19:49.976Z</time></trkpt><trkpt lat="44.2197702815803" lon="11.859463083258214"><ele>88.0</ele><time>2026-04-06T07:19:50.976Z</time></trkpt><trkpt lat="44.21975742843329" lon="11.859286122729442"><ele>88.25</ele><time>2026-04-06T07:19:51.976Z</time></trkpt><trkpt lat="44.219722891946674" lon="11.859130639990516"><ele>88.5</ele><time>2026-04-06T07:19:52.976Z</time></trkpt><trkpt lat="44.21966609859147" lon="11.85899004706696"><ele>88.75</ele><time>2026-04-06T07:19:53.976Z</time></trkpt><trkpt lat="44.21958384537395" lon="11.858862481790505"><ele>89.0</ele><time>2026-04-06T07:19:54.976Z</time></trkpt><trkpt lat="44.219486834034115" lon="11.858732116106731"><ele>89.0</ele><time>2026-04-06T07:19:55.976Z</time></trkpt><trkpt lat="44.21940325610519" lon="11.858560891474037"><ele>89.0</ele><time>2026-04-06T07:19:56.976Z</time></trkpt><trkpt lat="44.219308636549975" lon="11.858391064423627"><ele>89.0</ele><time>2026-04-06T07:19:57.976Z</time></trkpt><trkpt lat="44.219213948601855" lon="11.858227273699612"><ele>89.0</ele><time>2026-04-06T07:19:58.976Z</time></trkpt><trkpt lat="44.21912749505066" lon="11.858081544359873"><ele>89.0</ele><time>2026-04-06T07:19:59.976Z</time></trkpt><trkpt lat="44.219043841273304" lon="11.857931350403078"><ele>89.0</ele><time>2026-04-06T07:20:00.976Z</time></trkpt><trkpt lat="44.21895989100296" lon="11.857784244556747"><ele>89.0</ele><time>2026-04-06T07:20:01.976Z</time></trkpt><trkpt lat="44.21888871888155" lon="11.857645915133464"><ele>89.75</ele><time>2026-04-06T07:20:02.976Z</time></trkpt><trkpt lat="44.21880508777075" lon="11.857496536982564"><ele>90.5</ele><time>2026-04-06T07:20:03.976Z</time></trkpt><trkpt lat="44.21872345920888" lon="11.857345952063138"><ele>91.25</ele><time>2026-04-06T07:20:04.976Z</time></trkpt><trkpt lat="44.21864213160245" lon="11.857201809619678"><ele>92.0</ele><time>2026-04-06T07:20:05.976Z</time></trkpt><trkpt lat="44.2185684202072" lon="11.85706543426308"><ele>92.0</ele><time>2026-04-06T07:20:06.976Z</time></trkpt><trkpt lat="44.21850656654478" lon="11.856945076712021"><ele>92.0</ele><time>2026-04-06T07:20:07.976Z</time></trkpt><trkpt lat="44.2184476907127" lon="11.856833081687652"><ele>92.0</ele><time>2026-04-06T07:20:08.976Z</time></trkpt><trkpt lat="44.21839610735343" lon="11.856745040475705"><ele>92.0</ele><time>2026-04-06T07:20:09.976Z</time></trkpt><trkpt lat="44.21834451678705" lon="11.856682787850657"><ele>92.0</ele><time>2026-04-06T07:20:10.976Z</time></trkpt><trkpt lat="44.218267940311996" lon="11.856635142628667"><ele>92.0</ele><time>2026-04-06T07:20:11.976Z</time></trkpt><trkpt lat="44.218166520453885" lon="11.856600296021488"><ele>93.0</ele><time>2026-04-06T07:20:12.976Z</time></trkpt><trkpt lat="44.218052431602345" lon="11.856564172150176"><ele>94.0</ele><time>2026-04-06T07:20:13.976Z</time></trkpt><trkpt lat="44.21792915422135" lon="11.856524515999736"><ele>95.0</ele><time>2026-04-06T07:20:14.976Z</time></trkpt><trkpt lat="44.21780535209041" lon="11.856493007032354"><ele>96.0</ele><time>2026-04-06T07:20:15.976Z</time></trkpt><trkpt lat="44.21769947051315" lon="11.856460794277773"><ele>96.0</ele><time>2026-04-06T07:20:16.976Z</time></trkpt><trkpt lat="44.21760560741337" lon="11.856452208503159"><ele>96.0</ele><time>2026-04-06T07:20:17.976Z</time></trkpt><trkpt lat="44.21752192556116" lon="11.856466191112812"><ele>96.0</ele><time>2026-04-06T07:20:18.976Z</time></trkpt><trkpt lat="44.217447900364355" lon="11.856528707219173"><ele>96.0</ele><time>2026-04-06T07:20:19.976Z</time></trkpt><trkpt lat="44.217376918145256" lon="11.85663892402332"><ele>96.0</ele><time>2026-04-06T07:20:20.976Z</time></trkpt><trkpt lat="44.21731118866691" lon="11.856780721853287"><ele>96.6</ele><time>2026-04-06T07:20:21.976Z</time></trkpt><trkpt lat="44.2172479243769" lon="11.856874771178951"><ele>97.19999999999999</ele><time>2026-04-06T07:20:22.976Z</time></trkpt><trkpt lat="44.217177618943154" lon="11.85690112829036"><ele>97.80000000000001</ele><time>2026-04-06T07:20:23.976Z</time></trkpt><trkpt lat="44.21704423431142" lon="11.856864982386186"><ele>98.4</ele><time>2026-04-06T07:20:25.976Z</time></trkpt><trkpt lat="44.2169660311442" lon="11.856784337124592"><ele>99.0</ele><time>2026-04-06T07:20:26.976Z</time></trkpt><trkpt lat="44.21688585934356" lon="11.8566987680821"><ele>99.25</ele><time>2026-04-06T07:20:27.976Z</time></trkpt><trkpt lat="44.21678855833286" lon="11.856608943456665"><ele>99.5</ele><time>2026-04-06T07:20:28.976Z</time></trkpt><trkpt lat="44.21668232393421" lon="11.85651125310625"><ele>99.75</ele><time>2026-04-06T07:20:29.976Z</time></trkpt><trkpt lat="44.2165739422875" lon="11.856413152534556"><ele>100.0</ele><time>2026-04-06T07:20:30.976Z</time></trkpt><trkpt lat="44.21646642203599" lon="11.856315443493385"><ele>100.25</ele><time>2026-04-06T07:20:31.976Z</time></trkpt><trkpt lat="44.21636512651584" lon="11.856222979217183"><ele>100.5</ele><time>2026-04-06T07:20:32.976Z</time></trkpt><trkpt lat="44.2162620396782" lon="11.856145245079137"><ele>100.75</ele><time>2026-04-06T07:20:33.976Z</time></trkpt><trkpt lat="44.216150782121545" lon="11.85607862258736"><ele>101.0</ele><time>2026-04-06T07:20:34.976Z</time></trkpt><trkpt lat="44.2160360949597" lon="11.856029082804541"><ele>101.0</ele><time>2026-04-06T07:20:35.976Z</time></trkpt><trkpt lat="44.215915734312844" lon="11.855987679470838"><ele>101.0</ele><time>2026-04-06T07:20:36.976Z</time></trkpt><trkpt lat="44.21579922662649" lon="11.855957841776474"><ele>101.0</ele><time>2026-04-06T07:20:37.976Z</time></trkpt><trkpt lat="44.21570552584089" lon="11.855931328538643"><ele>101.0</ele><time>2026-04-06T07:20:38.976Z</time></trkpt><trkpt lat="44.21562792895801" lon="11.855906700179563"><ele>101.0</ele><time>2026-04-06T07:20:39.976Z</time></trkpt><trkpt lat="44.215549220131386" lon="11.85586302988589"><ele>101.19999999999999</ele><time>2026-04-06T07:20:40.976Z</time></trkpt><trkpt lat="44.21547009146754" lon="11.855833475730218"><ele>101.39999999999999</ele><time>2026-04-06T07:20:41.976Z</time></trkpt><trkpt lat="44.21538557011529" lon="11.855838908722767"><ele>101.6</ele><time>2026-04-06T07:20:42.976Z</time></trkpt><trkpt lat="44.21527850745772" lon="11.855902779026675"><ele>101.8</ele><time>2026-04-06T07:20:43.976Z</time></trkpt><trkpt lat="44.21518173497479" lon="11.855996359729444"><ele>102.0</ele><time>2026-04-06T07:20:44.976Z</time></trkpt><trkpt lat="44.215062467658065" lon="11.856079196425506"><ele>102.0</ele><time>2026-04-06T07:20:45.976Z</time></trkpt><trkpt lat="44.2149467055582" lon="11.856166993044775"><ele>102.0</ele><time>2026-04-06T07:20:46.976Z</time></trkpt><trkpt lat="44.214849081729476" lon="11.856251526868864"><ele>102.0</ele><time>2026-04-06T07:20:47.976Z</time></trkpt><trkpt lat="44.21475572985449" lon="11.8562952672769"><ele>102.0</ele><time>2026-04-06T07:20:48.976Z</time></trkpt><trkpt lat="44.21465841258212" lon="11.856317343238691"><ele>102.0</ele><time>2026-04-06T07:20:49.976Z</time></trkpt><trkpt lat="44.21455587656785" lon="11.85627162075908"><ele>103.25</ele><time>2026-04-06T07:20:50.976Z</time></trkpt><trkpt lat="44.2144441543049" lon="11.856256081374863"><ele>104.5</ele><time>2026-04-06T07:20:51.976Z</time></trkpt><trkpt lat="44.214332162043384" lon="11.856195292095764"><ele>105.75</ele><time>2026-04-06T07:20:52.976Z</time></trkpt><trkpt lat="44.21421021819156" lon="11.8561529249449"><ele>107.0</ele><time>2026-04-06T07:20:53.976Z</time></trkpt><trkpt lat="44.214083435630684" lon="11.856106414951913"><ele>109.8</ele><time>2026-04-06T07:20:54.976Z</time></trkpt><trkpt lat="44.2139692922765" lon="11.85606799104971"><ele>112.6</ele><time>2026-04-06T07:20:55.976Z</time></trkpt><trkpt lat="44.213869102029804" lon="11.856064316021687"><ele>115.39999999999999</ele><time>2026-04-06T07:20:56.976Z</time></trkpt><trkpt lat="44.21376971622184" lon="11.856069529464644"><ele>118.19999999999999</ele><time>2026-04-06T07:20:57.976Z</time></trkpt><trkpt lat="44.21369527015502" lon="11.856202581119183"><ele>121.0</ele><time>2026-04-06T07:20:58.976Z</time></trkpt><trkpt lat="44.21360407023662" lon="11.85631205205353"><ele>121.0</ele><time>2026-04-06T07:20:59.976Z</time></trkpt><trkpt lat="44.21350574493354" lon="11.856416666442366"><ele>121.0</ele><time>2026-04-06T07:21:00.976Z</time></trkpt><trkpt lat="44.21338856419188" lon="11.856488793048943"><ele>121.0</ele><time>2026-04-06T07:21:01.976Z</time></trkpt><trkpt lat="44.213252038417586" lon="11.856529366629454"><ele>121.0</ele><time>2026-04-06T07:21:02.976Z</time></trkpt><trkpt lat="44.213114969214296" lon="11.856566863620994"><ele>123.0</ele><time>2026-04-06T07:21:03.976Z</time></trkpt><trkpt lat="44.212983119525084" lon="11.856599868522894"><ele>125.0</ele><time>2026-04-06T07:21:04.976Z</time></trkpt><trkpt lat="44.21286697205144" lon="11.856626792191184"><ele>127.0</ele><time>2026-04-06T07:21:05.976Z</time></trkpt><trkpt lat="44.21277190051585" lon="11.856642584892093"><ele>129.0</ele><time>2026-04-06T07:21:06.976Z</time></trkpt><trkpt lat="44.21269771447063" lon="11.856659270653946"><ele>131.0</ele><time>2026-04-06T07:21:07.976Z</time></trkpt><trkpt lat="44.21263347135298" lon="11.856611621383143"><ele>131.0</ele><time>2026-04-06T07:21:08.976Z</time></trkpt><trkpt lat="44.21257108037444" lon="11.856555680132969"><ele>131.0</ele><time>2026-04-06T07:21:09.976Z</time></trkpt><trkpt lat="44.212501253523605" lon="11.85647896614663"><ele>131.0</ele><time>2026-04-06T07:21:10.975Z</time></trkpt><trkpt lat="44.21241813435509" lon="11.856379180170025"><ele>131.0</ele><time>2026-04-06T07:21:11.975Z</time></trkpt><trkpt lat="44.21231627212592" lon="11.856276604123888"><ele>131.0</ele><time>2026-04-06T07:21:12.975Z</time></trkpt><trkpt lat="44.2121945286023" lon="11.85616566833504"><ele>129.33333333333331</ele><time>2026-04-06T07:21:13.975Z</time></trkpt><trkpt lat="44.212070038634984" lon="11.85605757768022"><ele>127.66666666666666</ele><time>2026-04-06T07:21:14.975Z</time></trkpt><trkpt lat="44.21193466472602" lon="11.855947358733696"><ele>126.0</ele><time>2026-04-06T07:21:15.975Z</time></trkpt><trkpt lat="44.211805946143166" lon="11.855831214613668"><ele>128.66666666666666</ele><time>2026-04-06T07:21:16.975Z</time></trkpt><trkpt lat="44.2116643551427" lon="11.855723805431069"><ele>131.33333333333331</ele><time>2026-04-06T07:21:17.975Z</time></trkpt><trkpt lat="44.21152654077737" lon="11.855622512295856"><ele>134.0</ele><time>2026-04-06T07:21:18.975Z</time></trkpt><trkpt lat="44.21140180711897" lon="11.855528919573725"><ele>134.0</ele><time>2026-04-06T07:21:19.975Z</time></trkpt><trkpt lat="44.211286854486254" lon="11.855452241867752"><ele>134.0</ele><time>2026-04-06T07:21:20.975Z</time></trkpt><trkpt lat="44.211171330594176" lon="11.855415742078042"><ele>134.0</ele><time>2026-04-06T07:21:21.975Z</time></trkpt><trkpt lat="44.211052102254435" lon="11.855403011587288"><ele>134.0</ele><time>2026-04-06T07:21:22.975Z</time></trkpt><trkpt lat="44.210929172124175" lon="11.855429313133229"><ele>134.0</ele><time>2026-04-06T07:21:23.975Z</time></trkpt><trkpt lat="44.2107774173809" lon="11.855489521297168"><ele>134.0</ele><time>2026-04-06T07:21:24.975Z</time></trkpt><trkpt lat="44.21061827529026" lon="11.85553874662447"><ele>134.0</ele><time>2026-04-06T07:21:25.974Z</time></trkpt><trkpt lat="44.21045147212877" lon="11.85557127482645"><ele>136.0</ele><time>2026-04-06T07:21:26.974Z</time></trkpt><trkpt lat="44.21027765445336" lon="11.855605162271912"><ele>138.0</ele><time>2026-04-06T07:21:27.974Z</time></trkpt><trkpt lat="44.2100973593715" lon="11.855635529044894"><ele>140.0</ele><time>2026-04-06T07:21:28.974Z</time></trkpt><trkpt lat="44.20991980128807" lon="11.85567235872764"><ele>142.0</ele><time>2026-04-06T07:21:29.974Z</time></trkpt><trkpt lat="44.20975273384274" lon="11.855711737613213"><ele>144.0</ele><time>2026-04-06T07:21:30.974Z</time></trkpt><trkpt lat="44.20959830570047" lon="11.85576795360624"><ele>146.0</ele><time>2026-04-06T07:21:31.974Z</time></trkpt><trkpt lat="44.20945750175016" lon="11.855840040391703"><ele>146.0</ele><time>2026-04-06T07:21:32.974Z</time></trkpt><trkpt lat="44.20931539908331" lon="11.855904957635508"><ele>146.0</ele><time>2026-04-06T07:21:33.974Z</time></trkpt><trkpt lat="44.20917526506936" lon="11.855959510141314"><ele>146.0</ele><time>2026-04-06T07:21:34.974Z</time></trkpt><trkpt lat="44.20903138021417" lon="11.855990780854345"><ele>146.0</ele><time>2026-04-06T07:21:35.974Z</time></trkpt><trkpt lat="44.20888117632633" lon="11.856003166398684"><ele>147.0</ele><time>2026-04-06T07:21:36.974Z</time></trkpt><trkpt lat="44.208729050039935" lon="11.855999408813275"><ele>148.0</ele><time>2026-04-06T07:21:37.974Z</time></trkpt><trkpt lat="44.20858239693972" lon="11.855985729278029"><ele>149.0</ele><time>2026-04-06T07:21:38.974Z</time></trkpt><trkpt lat="44.2084392607576" lon="11.855919779352968"><ele>152.0</ele><time>2026-04-06T07:21:39.974Z</time></trkpt><trkpt lat="44.20829800417417" lon="11.855923243174335"><ele>155.0</ele><time>2026-04-06T07:21:40.974Z</time></trkpt><trkpt lat="44.20815863724979" lon="11.855939307288459"><ele>158.0</ele><time>2026-04-06T07:21:41.974Z</time></trkpt><trkpt lat="44.20801222802907" lon="11.856000343152994"><ele>161.0</ele><time>2026-04-06T07:21:42.974Z</time></trkpt><trkpt lat="44.2078645718891" lon="11.856049665962386"><ele>161.0</ele><time>2026-04-06T07:21:43.974Z</time></trkpt><trkpt lat="44.20770974620725" lon="11.856077929815054"><ele>161.0</ele><time>2026-04-06T07:21:44.974Z</time></trkpt><trkpt lat="44.20756258447724" lon="11.8560868282605"><ele>161.0</ele><time>2026-04-06T07:21:45.974Z</time></trkpt><trkpt lat="44.207408079164374" lon="11.856071952604488"><ele>168.0</ele><time>2026-04-06T07:21:46.974Z</time></trkpt><trkpt lat="44.20724468501683" lon="11.856030392547407"><ele>175.0</ele><time>2026-04-06T07:21:47.974Z</time></trkpt><trkpt lat="44.20707843587815" lon="11.856001718183702"><ele>182.0</ele><time>2026-04-06T07:21:48.974Z</time></trkpt><trkpt lat="44.20691842064339" lon="11.855999827322202"><ele>182.0</ele><time>2026-04-06T07:21:49.974Z</time></trkpt><trkpt lat="44.20677512677691" lon="11.856021320991285"><ele>182.0</ele><time>2026-04-06T07:21:50.974Z</time></trkpt><trkpt lat="44.206654236622136" lon="11.856055614273973"><ele>182.0</ele><time>2026-04-06T07:21:51.974Z</time></trkpt><trkpt lat="44.20654871162246" lon="11.856115670465071"><ele>182.0</ele><time>2026-04-06T07:21:52.974Z</time></trkpt><trkpt lat="44.20645848533221" lon="11.856210746204537"><ele>185.25</ele><time>2026-04-06T07:21:53.974Z</time></trkpt><trkpt lat="44.206375024739" lon="11.856345137478533"><ele>188.5</ele><time>2026-04-06T07:21:54.974Z</time></trkpt><trkpt lat="44.2063124534762" lon="11.856512754814021"><ele>191.75</ele><time>2026-04-06T07:21:55.974Z</time></trkpt><trkpt lat="44.20626669683248" lon="11.856703661269426"><ele>195.0</ele><time>2026-04-06T07:21:56.974Z</time></trkpt><trkpt lat="44.20621026066982" lon="11.856902952486852"><ele>196.0</ele><time>2026-04-06T07:21:57.974Z</time></trkpt><trkpt lat="44.206126670997584" lon="11.857074866212175"><ele>197.0</ele><time>2026-04-06T07:21:58.974Z</time></trkpt><trkpt lat="44.20603662188877" lon="11.857235281161925"><ele>198.0</ele><time>2026-04-06T07:21:59.974Z</time></trkpt><trkpt lat="44.20594212016316" lon="11.857382682779187"><ele>199.0</ele><time>2026-04-06T07:22:00.974Z</time></trkpt><trkpt lat="44.20587707698371" lon="11.85753189839945"><ele>200.5</ele><time>2026-04-06T07:22:01.974Z</time></trkpt><trkpt lat="44.20582204329556" lon="11.857685442620637"><ele>202.0</ele><time>2026-04-06T07:22:02.974Z</time></trkpt><trkpt lat="44.2058001593636" lon="11.857867868663979"><ele>203.5</ele><time>2026-04-06T07:22:03.974Z</time></trkpt><trkpt lat="44.20580051019936" lon="11.858067926070362"><ele>205.0</ele><time>2026-04-06T07:22:04.974Z</time></trkpt><trkpt lat="44.2057968075346" lon="11.858275437337188"><ele>205.33333333333331</ele><time>2026-04-06T07:22:05.974Z</time></trkpt><trkpt lat="44.205759928504534" lon="11.858463448404706"><ele>205.66666666666669</ele><time>2026-04-06T07:22:06.974Z</time></trkpt><trkpt lat="44.205713716404965" lon="11.858660460918019"><ele>206.0</ele><time>2026-04-06T07:22:07.974Z</time></trkpt><trkpt lat="44.20566505706974" lon="11.858876388120475"><ele>206.0</ele><time>2026-04-06T07:22:08.974Z</time></trkpt><trkpt lat="44.20559551729963" lon="11.859078113461216"><ele>206.0</ele><time>2026-04-06T07:22:09.974Z</time></trkpt><trkpt lat="44.20553702742685" lon="11.859285726272477"><ele>206.0</ele><time>2026-04-06T07:22:10.974Z</time></trkpt><trkpt lat="44.20548198274094" lon="11.859491096535631"><ele>206.0</ele><time>2026-04-06T07:22:11.974Z</time></trkpt><trkpt lat="44.205445259463545" lon="11.859685007235507"><ele>206.0</ele><time>2026-04-06T07:22:12.974Z</time></trkpt><trkpt lat="44.20541971547057" lon="11.85987060595424"><ele>206.0</ele><time>2026-04-06T07:22:13.974Z</time></trkpt><trkpt lat="44.20540187398803" lon="11.860039212863976"><ele>206.0</ele><time>2026-04-06T07:22:14.974Z</time></trkpt><trkpt lat="44.20537300204062" lon="11.86018509551752"><ele>207.25</ele><time>2026-04-06T07:22:15.974Z</time></trkpt><trkpt lat="44.20533352490009" lon="11.860313059888618"><ele>208.5</ele><time>2026-04-06T07:22:16.974Z</time></trkpt><trkpt lat="44.20527610877111" lon="11.860430762259268"><ele>209.75</ele><time>2026-04-06T07:22:17.974Z</time></trkpt><trkpt lat="44.205194164894934" lon="11.86055374511349"><ele>211.0</ele><time>2026-04-06T07:22:18.974Z</time></trkpt><trkpt lat="44.20511114828923" lon="11.860692771759886"><ele>211.0</ele><time>2026-04-06T07:22:19.974Z</time></trkpt><trkpt lat="44.20502666806795" lon="11.860842109027688"><ele>211.0</ele><time>2026-04-06T07:22:20.974Z</time></trkpt><trkpt lat="44.20493498659907" lon="11.861003436406582"><ele>211.0</ele><time>2026-04-06T07:22:21.974Z</time></trkpt><trkpt lat="44.204842354803134" lon="11.86116969556324"><ele>211.0</ele><time>2026-04-06T07:22:22.974Z</time></trkpt><trkpt lat="44.20474666447119" lon="11.861331856437191"><ele>209.33333333333331</ele><time>2026-04-06T07:22:23.974Z</time></trkpt><trkpt lat="44.20463784159786" lon="11.861490510616164"><ele>207.66666666666669</ele><time>2026-04-06T07:22:24.974Z</time></trkpt><trkpt lat="44.20452586593256" lon="11.861637213579131"><ele>206.0</ele><time>2026-04-06T07:22:25.974Z</time></trkpt><trkpt lat="44.20441099226848" lon="11.861765509686514"><ele>206.66666666666669</ele><time>2026-04-06T07:22:26.974Z</time></trkpt><trkpt lat="44.2042840284175" lon="11.861894070181483"><ele>207.33333333333331</ele><time>2026-04-06T07:22:27.974Z</time></trkpt><trkpt lat="44.20414522466431" lon="11.862013153372887"><ele>208.0</ele><time>2026-04-06T07:22:28.974Z</time></trkpt><trkpt lat="44.20401113231368" lon="11.862121309923614"><ele>211.75</ele><time>2026-04-06T07:22:29.974Z</time></trkpt><trkpt lat="44.20388173092072" lon="11.8621848375468"><ele>215.5</ele><time>2026-04-06T07:22:30.974Z</time></trkpt><trkpt lat="44.2037554975981" lon="11.862232489270884"><ele>219.25</ele><time>2026-04-06T07:22:31.974Z</time></trkpt><trkpt lat="44.20362811503267" lon="11.862241113953345"><ele>223.0</ele><time>2026-04-06T07:22:32.974Z</time></trkpt><trkpt lat="44.20349617696251" lon="11.862243435013616"><ele>223.0</ele><time>2026-04-06T07:22:33.974Z</time></trkpt><trkpt lat="44.20336621113079" lon="11.862262693327157"><ele>223.0</ele><time>2026-04-06T07:22:34.974Z</time></trkpt><trkpt lat="44.203229234999654" lon="11.862273601805077"><ele>223.0</ele><time>2026-04-06T07:22:35.974Z</time></trkpt><trkpt lat="44.20309213529751" lon="11.86231081806196"><ele>223.0</ele><time>2026-04-06T07:22:36.974Z</time></trkpt><trkpt lat="44.202951722854976" lon="11.862361486071434"><ele>224.25</ele><time>2026-04-06T07:22:37.974Z</time></trkpt><trkpt lat="44.20281728952891" lon="11.862394514703379"><ele>225.5</ele><time>2026-04-06T07:22:38.974Z</time></trkpt><trkpt lat="44.20267903176569" lon="11.862435029876465"><ele>226.75</ele><time>2026-04-06T07:22:39.974Z</time></trkpt><trkpt lat="44.202554873753165" lon="11.862458560950184"><ele>228.0</ele><time>2026-04-06T07:22:40.974Z</time></trkpt><trkpt lat="44.20243297839061" lon="11.862435142922664"><ele>228.25</ele><time>2026-04-06T07:22:41.974Z</time></trkpt><trkpt lat="44.2023060242542" lon="11.86236407784156"><ele>228.5</ele><time>2026-04-06T07:22:42.974Z</time></trkpt><trkpt lat="44.2021748053816" lon="11.86229657543391"><ele>228.75</ele><time>2026-04-06T07:22:43.974Z</time></trkpt><trkpt lat="44.202038009627614" lon="11.86223221138167"><ele>229.0</ele><time>2026-04-06T07:22:44.974Z</time></trkpt><trkpt lat="44.20189919618371" lon="11.86217221622132"><ele>229.0</ele><time>2026-04-06T07:22:45.974Z</time></trkpt><trkpt lat="44.201762674755976" lon="11.862117795217202"><ele>229.0</ele><time>2026-04-06T07:22:46.974Z</time></trkpt><trkpt lat="44.20163068591333" lon="11.862040689954368"><ele>229.0</ele><time>2026-04-06T07:22:47.974Z</time></trkpt><trkpt lat="44.20149063995136" lon="11.862007312612619"><ele>229.0</ele><time>2026-04-06T07:22:48.974Z</time></trkpt><trkpt lat="44.20135459788798" lon="11.861948924793287"><ele>231.0</ele><time>2026-04-06T07:22:49.974Z</time></trkpt><trkpt lat="44.20120606058951" lon="11.861892250810534"><ele>233.0</ele><time>2026-04-06T07:22:50.974Z</time></trkpt><trkpt lat="44.20105234325651" lon="11.861821658913888"><ele>235.0</ele><time>2026-04-06T07:22:51.974Z</time></trkpt><trkpt lat="44.20089915085218" lon="11.861752814440132"><ele>235.0</ele><time>2026-04-06T07:22:52.974Z</time></trkpt><trkpt lat="44.20075574000822" lon="11.861693709281928"><ele>235.0</ele><time>2026-04-06T07:22:53.974Z</time></trkpt><trkpt lat="44.20062162608978" lon="11.861639042568155"><ele>235.0</ele><time>2026-04-06T07:22:54.974Z</time></trkpt><trkpt lat="44.20049474601961" lon="11.8615909710056"><ele>235.0</ele><time>2026-04-06T07:22:55.974Z</time></trkpt><trkpt lat="44.20037401725078" lon="11.861533115439824"><ele>231.25</ele><time>2026-04-06T07:22:56.974Z</time></trkpt><trkpt lat="44.20026989677342" lon="11.861463261059717"><ele>227.5</ele><time>2026-04-06T07:22:57.974Z</time></trkpt><trkpt lat="44.20017892541065" lon="11.861340741914546"><ele>223.75</ele><time>2026-04-06T07:22:58.974Z</time></trkpt><trkpt lat="44.200064854951776" lon="11.861248650819839"><ele>220.0</ele><time>2026-04-06T07:22:59.974Z</time></trkpt><trkpt lat="44.199950722527156" lon="11.861146145483392"><ele>220.5</ele><time>2026-04-06T07:23:00.974Z</time></trkpt><trkpt lat="44.19982631397925" lon="11.861075141796034"><ele>221.0</ele><time>2026-04-06T07:23:01.974Z</time></trkpt><trkpt lat="44.19969113619358" lon="11.861012603435714"><ele>221.5</ele><time>2026-04-06T07:23:02.974Z</time></trkpt><trkpt lat="44.199549936583594" lon="11.860950905582047"><ele>222.0</ele><time>2026-04-06T07:23:03.974Z</time></trkpt><trkpt lat="44.19941111068211" lon="11.860872011449592"><ele>222.0</ele><time>2026-04-06T07:23:04.974Z</time></trkpt><trkpt lat="44.199295046603154" lon="11.860764897378983"><ele>222.0</ele><time>2026-04-06T07:23:05.974Z</time></trkpt><trkpt lat="44.1991787550997" lon="11.860646157175335"><ele>222.0</ele><time>2026-04-06T07:23:06.974Z</time></trkpt><trkpt lat="44.199061332583796" lon="11.860503295347577"><ele>222.0</ele><time>2026-04-06T07:23:07.974Z</time></trkpt><trkpt lat="44.19894370657917" lon="11.860340618831748"><ele>220.66666666666669</ele><time>2026-04-06T07:23:08.974Z</time></trkpt><trkpt lat="44.19881949316789" lon="11.860173003574907"><ele>219.33333333333334</ele><time>2026-04-06T07:23:09.974Z</time></trkpt><trkpt lat="44.198700357210505" lon="11.860011436987094"><ele>218.0</ele><time>2026-04-06T07:23:10.974Z</time></trkpt><trkpt lat="44.19858015322272" lon="11.859845839520547"><ele>221.5</ele><time>2026-04-06T07:23:11.974Z</time></trkpt><trkpt lat="44.19847159612022" lon="11.859697868550413"><ele>225.0</ele><time>2026-04-06T07:23:12.974Z</time></trkpt><trkpt lat="44.19837555091833" lon="11.85957037781305"><ele>228.5</ele><time>2026-04-06T07:23:13.974Z</time></trkpt><trkpt lat="44.198300294085065" lon="11.859456351942937"><ele>232.0</ele><time>2026-04-06T07:23:14.974Z</time></trkpt><trkpt lat="44.198250561240656" lon="11.859327434434967"><ele>233.6</ele><time>2026-04-06T07:23:15.974Z</time></trkpt><trkpt lat="44.19823605865229" lon="11.859176120115343"><ele>235.2</ele><time>2026-04-06T07:23:16.974Z</time></trkpt><trkpt lat="44.19822724020986" lon="11.85900919055148"><ele>236.8</ele><time>2026-04-06T07:23:17.974Z</time></trkpt><trkpt lat="44.1981995292636" lon="11.85884978256531"><ele>238.4</ele><time>2026-04-06T07:23:18.974Z</time></trkpt><trkpt lat="44.19817197142167" lon="11.858729570732688"><ele>240.0</ele><time>2026-04-06T07:23:19.974Z</time></trkpt><trkpt lat="44.19812445792138" lon="11.85865141593027"><ele>241.8</ele><time>2026-04-06T07:23:20.974Z</time></trkpt><trkpt lat="44.1980432122267" lon="11.858603459578365"><ele>243.6</ele><time>2026-04-06T07:23:21.974Z</time></trkpt><trkpt lat="44.19794971689667" lon="11.858552022518829"><ele>245.39999999999998</ele><time>2026-04-06T07:23:22.974Z</time></trkpt><trkpt lat="44.19783685885869" lon="11.858515733126216"><ele>247.2</ele><time>2026-04-06T07:23:23.974Z</time></trkpt><trkpt lat="44.19769882420215" lon="11.858500370637637"><ele>249.0</ele><time>2026-04-06T07:23:24.974Z</time></trkpt><trkpt lat="44.19755720550675" lon="11.858475370908849"><ele>250.0</ele><time>2026-04-06T07:23:25.973Z</time></trkpt><trkpt lat="44.19741580099118" lon="11.858446832410612"><ele>251.0</ele><time>2026-04-06T07:23:26.973Z</time></trkpt><trkpt lat="44.19727355697453" lon="11.858415038158393"><ele>252.0</ele><time>2026-04-06T07:23:27.973Z</time></trkpt><trkpt lat="44.1971288568565" lon="11.858372765175305"><ele>253.0</ele><time>2026-04-06T07:23:28.973Z</time></trkpt><trkpt lat="44.19698383005175" lon="11.858338510073214"><ele>255.75</ele><time>2026-04-06T07:23:29.973Z</time></trkpt><trkpt lat="44.19684372088623" lon="11.858305055701802"><ele>258.5</ele><time>2026-04-06T07:23:30.974Z</time></trkpt><trkpt lat="44.196709543278736" lon="11.858279378144113"><ele>261.25</ele><time>2026-04-06T07:23:31.974Z</time></trkpt><trkpt lat="44.19658082470371" lon="11.85826809780621"><ele>264.0</ele><time>2026-04-06T07:23:32.974Z</time></trkpt><trkpt lat="44.19645043393211" lon="11.858275318255917"><ele>264.75</ele><time>2026-04-06T07:23:33.974Z</time></trkpt><trkpt lat="44.19632388327274" lon="11.85830709101232"><ele>265.5</ele><time>2026-04-06T07:23:34.974Z</time></trkpt><trkpt lat="44.19620664499791" lon="11.85837033032497"><ele>266.25</ele><time>2026-04-06T07:23:35.974Z</time></trkpt><trkpt lat="44.19610080143885" lon="11.858456895012543"><ele>267.0</ele><time>2026-04-06T07:23:36.974Z</time></trkpt><trkpt lat="44.195993985555255" lon="11.858542504920614"><ele>267.0</ele><time>2026-04-06T07:23:37.974Z</time></trkpt><trkpt lat="44.1958803310013" lon="11.858606101425565"><ele>267.0</ele><time>2026-04-06T07:23:38.974Z</time></trkpt><trkpt lat="44.19576812265073" lon="11.858701205951022"><ele>267.0</ele><time>2026-04-06T07:23:39.974Z</time></trkpt><trkpt lat="44.195636720229054" lon="11.858771116495163"><ele>267.0</ele><time>2026-04-06T07:23:40.974Z</time></trkpt><trkpt lat="44.19549266165773" lon="11.858845101161958"><ele>269.25</ele><time>2026-04-06T07:23:41.974Z</time></trkpt><trkpt lat="44.19535315222617" lon="11.858918997477772"><ele>271.5</ele><time>2026-04-06T07:23:42.974Z</time></trkpt><trkpt lat="44.1952211823886" lon="11.858987555403036"><ele>273.75</ele><time>2026-04-06T07:23:43.973Z</time></trkpt><trkpt lat="44.195109135394176" lon="11.859042777680981"><ele>276.0</ele><time>2026-04-06T07:23:44.973Z</time></trkpt><trkpt lat="44.19500582295491" lon="11.85909316464113"><ele>276.0</ele><time>2026-04-06T07:23:45.973Z</time></trkpt><trkpt lat="44.19491219700904" lon="11.859125832515078"><ele>276.0</ele><time>2026-04-06T07:23:46.973Z</time></trkpt><trkpt lat="44.1948188441104" lon="11.859109003794288"><ele>276.0</ele><time>2026-04-06T07:23:47.973Z</time></trkpt><trkpt lat="44.19471656832981" lon="11.85906168780704"><ele>276.0</ele><time>2026-04-06T07:23:48.973Z</time></trkpt><trkpt lat="44.19461183635232" lon="11.858991981836382"><ele>276.0</ele><time>2026-04-06T07:23:49.973Z</time></trkpt><trkpt lat="44.194515712878356" lon="11.85891170302191"><ele>275.8</ele><time>2026-04-06T07:23:50.973Z</time></trkpt><trkpt lat="44.194419497556005" lon="11.858847806592523"><ele>275.6</ele><time>2026-04-06T07:23:51.973Z</time></trkpt><trkpt lat="44.19432797807622" lon="11.858796194013161"><ele>275.4</ele><time>2026-04-06T07:23:52.973Z</time></trkpt><trkpt lat="44.19423906222919" lon="11.858769389628424"><ele>275.2</ele><time>2026-04-06T07:23:53.973Z</time></trkpt><trkpt lat="44.19413791030724" lon="11.858770199114428"><ele>275.0</ele><time>2026-04-06T07:23:54.973Z</time></trkpt><trkpt lat="44.19404291182752" lon="11.85881496378941"><ele>277.25</ele><time>2026-04-06T07:23:55.973Z</time></trkpt><trkpt lat="44.19394630517815" lon="11.858916804344222"><ele>279.5</ele><time>2026-04-06T07:23:56.973Z</time></trkpt><trkpt lat="44.19385876526932" lon="11.859041464107829"><ele>281.75</ele><time>2026-04-06T07:23:57.973Z</time></trkpt><trkpt lat="44.19377823249762" lon="11.859179001162929"><ele>284.0</ele><time>2026-04-06T07:23:58.973Z</time></trkpt><trkpt lat="44.19370800312875" lon="11.859333325803386"><ele>284.0</ele><time>2026-04-06T07:23:59.973Z</time></trkpt><trkpt lat="44.193632789944886" lon="11.859493621330394"><ele>284.0</ele><time>2026-04-06T07:24:00.973Z</time></trkpt><trkpt lat="44.19355386168833" lon="11.85967674679687"><ele>284.0</ele><time>2026-04-06T07:24:01.973Z</time></trkpt><trkpt lat="44.19346487726123" lon="11.8598579411697"><ele>284.0</ele><time>2026-04-06T07:24:02.973Z</time></trkpt><trkpt lat="44.193386709978" lon="11.860058072199582"><ele>287.6666666666667</ele><time>2026-04-06T07:24:03.973Z</time></trkpt><trkpt lat="44.19330900134284" lon="11.860255530524288"><ele>291.3333333333333</ele><time>2026-04-06T07:24:04.973Z</time></trkpt><trkpt lat="44.19323142383052" lon="11.860438413538747"><ele>295.0</ele><time>2026-04-06T07:24:05.973Z</time></trkpt><trkpt lat="44.19315408775055" lon="11.860609282149019"><ele>295.0</ele><time>2026-04-06T07:24:06.973Z</time></trkpt><trkpt lat="44.193073570689705" lon="11.860754727948304"><ele>295.0</ele><time>2026-04-06T07:24:07.973Z</time></trkpt><trkpt lat="44.19298286388325" lon="11.86086678834798"><ele>295.0</ele><time>2026-04-06T07:24:08.973Z</time></trkpt><trkpt lat="44.192892880177865" lon="11.86094334596577"><ele>295.0</ele><time>2026-04-06T07:24:09.973Z</time></trkpt><trkpt lat="44.19279604472134" lon="11.861018851748936"><ele>295.25</ele><time>2026-04-06T07:24:10.973Z</time></trkpt><trkpt lat="44.19267760357521" lon="11.861096591630446"><ele>295.5</ele><time>2026-04-06T07:24:11.973Z</time></trkpt><trkpt lat="44.19256152233093" lon="11.861173785553767"><ele>295.75</ele><time>2026-04-06T07:24:12.973Z</time></trkpt><trkpt lat="44.19243442394772" lon="11.861263800733143"><ele>296.0</ele><time>2026-04-06T07:24:13.973Z</time></trkpt><trkpt lat="44.192320501300635" lon="11.861339335084569"><ele>296.0</ele><time>2026-04-06T07:24:14.973Z</time></trkpt><trkpt lat="44.192210999693444" lon="11.86139198198653"><ele>296.0</ele><time>2026-04-06T07:24:15.973Z</time></trkpt><trkpt lat="44.19209532882202" lon="11.86138987499625"><ele>296.0</ele><time>2026-04-06T07:24:16.973Z</time></trkpt><trkpt lat="44.19198056613255" lon="11.86141821766794"><ele>296.0</ele><time>2026-04-06T07:24:17.973Z</time></trkpt><trkpt lat="44.191874518254075" lon="11.86142028230789"><ele>296.0</ele><time>2026-04-06T07:24:18.973Z</time></trkpt><trkpt lat="44.191803663242524" lon="11.86145941221483"><ele>296.0</ele><time>2026-04-06T07:24:19.973Z</time></trkpt><trkpt lat="44.19175362943453" lon="11.861521810787583"><ele>296.0</ele><time>2026-04-06T07:24:20.973Z</time></trkpt><trkpt lat="44.191693824387045" lon="11.861587132076867"><ele>296.0</ele><time>2026-04-06T07:24:21.973Z</time></trkpt><trkpt lat="44.19162801349444" lon="11.861658248082525"><ele>296.0</ele><time>2026-04-06T07:24:22.973Z</time></trkpt><trkpt lat="44.191601935128666" lon="11.861815221894423"><ele>296.0</ele><time>2026-04-06T07:24:23.973Z</time></trkpt><trkpt lat="44.19154075869012" lon="11.86194389712803"><ele>302.0</ele><time>2026-04-06T07:24:24.973Z</time></trkpt><trkpt lat="44.19147554249774" lon="11.862093747922708"><ele>308.0</ele><time>2026-04-06T07:24:25.973Z</time></trkpt><trkpt lat="44.191400639001884" lon="11.862247186602696"><ele>314.0</ele><time>2026-04-06T07:24:26.973Z</time></trkpt><trkpt lat="44.19131650703774" lon="11.862394366640672"><ele>320.0</ele><time>2026-04-06T07:24:27.973Z</time></trkpt><trkpt lat="44.19123651595064" lon="11.862556334896327"><ele>318.0</ele><time>2026-04-06T07:24:28.973Z</time></trkpt><trkpt lat="44.19115582982495" lon="11.862714981930093"><ele>316.0</ele><time>2026-04-06T07:24:29.973Z</time></trkpt><trkpt lat="44.19107226754582" lon="11.862869341172136"><ele>314.0</ele><time>2026-04-06T07:24:30.973Z</time></trkpt><trkpt lat="44.19098789218834" lon="11.863012813592384"><ele>312.0</ele><time>2026-04-06T07:24:31.973Z</time></trkpt><trkpt lat="44.19090284342601" lon="11.863127983144484"><ele>312.0</ele><time>2026-04-06T07:24:32.973Z</time></trkpt><trkpt lat="44.19081024260096" lon="11.863226578393093"><ele>312.0</ele><time>2026-04-06T07:24:33.973Z</time></trkpt><trkpt lat="44.19070703879838" lon="11.863324257494124"><ele>312.0</ele><time>2026-04-06T07:24:34.973Z</time></trkpt><trkpt lat="44.190588289452" lon="11.863409892153982"><ele>312.0</ele><time>2026-04-06T07:24:35.973Z</time></trkpt><trkpt lat="44.190465182803166" lon="11.863538687839638"><ele>312.3333333333333</ele><time>2026-04-06T07:24:36.973Z</time></trkpt><trkpt lat="44.19034296619081" lon="11.863681421778024"><ele>312.66666666666663</ele><time>2026-04-06T07:24:37.973Z</time></trkpt><trkpt lat="44.19022328802375" lon="11.863820973573954"><ele>313.0</ele><time>2026-04-06T07:24:38.973Z</time></trkpt><trkpt lat="44.19009894508933" lon="11.863965368514553"><ele>313.0</ele><time>2026-04-06T07:24:39.973Z</time></trkpt><trkpt lat="44.18998093521831" lon="11.864108350812879"><ele>313.0</ele><time>2026-04-06T07:24:40.973Z</time></trkpt><trkpt lat="44.189869783526035" lon="11.864267856668375"><ele>313.0</ele><time>2026-04-06T07:24:41.973Z</time></trkpt><trkpt lat="44.18976520474893" lon="11.86443484484456"><ele>315.0</ele><time>2026-04-06T07:24:42.973Z</time></trkpt><trkpt lat="44.18966759688191" lon="11.864603298242612"><ele>317.0</ele><time>2026-04-06T07:24:43.973Z</time></trkpt><trkpt lat="44.18957259497571" lon="11.864780026997728"><ele>319.0</ele><time>2026-04-06T07:24:44.973Z</time></trkpt><trkpt lat="44.1894818397561" lon="11.864949412580032"><ele>318.0</ele><time>2026-04-06T07:24:45.973Z</time></trkpt><trkpt lat="44.189397269750174" lon="11.865118831235664"><ele>317.0</ele><time>2026-04-06T07:24:46.973Z</time></trkpt><trkpt lat="44.18932494252707" lon="11.86529596620141"><ele>316.0</ele><time>2026-04-06T07:24:47.973Z</time></trkpt><trkpt lat="44.18925733290503" lon="11.865462271652946"><ele>315.0</ele><time>2026-04-06T07:24:48.973Z</time></trkpt><trkpt lat="44.18919448041499" lon="11.865611431631935"><ele>315.0</ele><time>2026-04-06T07:24:49.973Z</time></trkpt><trkpt lat="44.18914173277751" lon="11.86578669731096"><ele>315.0</ele><time>2026-04-06T07:24:50.973Z</time></trkpt><trkpt lat="44.189071648430165" lon="11.865934664403314"><ele>315.0</ele><time>2026-04-06T07:24:51.973Z</time></trkpt><trkpt lat="44.18902224911336" lon="11.866090020575976"><ele>315.0</ele><time>2026-04-06T07:24:52.973Z</time></trkpt><trkpt lat="44.18897365677271" lon="11.866247267856108"><ele>316.25</ele><time>2026-04-06T07:24:53.973Z</time></trkpt><trkpt lat="44.18892725100485" lon="11.866396802281358"><ele>317.5</ele><time>2026-04-06T07:24:54.973Z</time></trkpt><trkpt lat="44.18886286554246" lon="11.866548573639994"><ele>318.75</ele><time>2026-04-06T07:24:55.973Z</time></trkpt><trkpt lat="44.188794429664405" lon="11.8666778347768"><ele>320.0</ele><time>2026-04-06T07:24:56.973Z</time></trkpt><trkpt lat="44.18873571824482" lon="11.866810702115483"><ele>320.0</ele><time>2026-04-06T07:24:57.973Z</time></trkpt><trkpt lat="44.18868804684221" lon="11.866922201049563"><ele>320.0</ele><time>2026-04-06T07:24:58.973Z</time></trkpt><trkpt lat="44.18865487750658" lon="11.86701958148069"><ele>320.0</ele><time>2026-04-06T07:24:59.973Z</time></trkpt><trkpt lat="44.18864889625878" lon="11.867189200413009"><ele>320.0</ele><time>2026-04-06T07:25:01.973Z</time></trkpt><trkpt lat="44.1887324690774" lon="11.867306810709382"><ele>320.0</ele><time>2026-04-06T07:25:03.973Z</time></trkpt><trkpt lat="44.18880111771784" lon="11.867392081893524"><ele>320.0</ele><time>2026-04-06T07:25:04.973Z</time></trkpt><trkpt lat="44.18889227032319" lon="11.867482193439722"><ele>320.0</ele><time>2026-04-06T07:25:05.973Z</time></trkpt><trkpt lat="44.18898627978392" lon="11.867567438229106"><ele>320.0</ele><time>2026-04-06T07:25:06.973Z</time></trkpt><trkpt lat="44.189087898428106" lon="11.867664887158726"><ele>320.0</ele><time>2026-04-06T07:25:07.973Z</time></trkpt><trkpt lat="44.189188785913316" lon="11.867762292387894"><ele>315.5</ele><time>2026-04-06T07:25:08.973Z</time></trkpt><trkpt lat="44.189289187754795" lon="11.867867863493746"><ele>311.0</ele><time>2026-04-06T07:25:09.973Z</time></trkpt><trkpt lat="44.18937251747871" lon="11.867991242572316"><ele>306.5</ele><time>2026-04-06T07:25:10.973Z</time></trkpt><trkpt lat="44.18948264931385" lon="11.868093890107497"><ele>302.0</ele><time>2026-04-06T07:25:11.973Z</time></trkpt><trkpt lat="44.18958884460766" lon="11.868187562589906"><ele>302.0</ele><time>2026-04-06T07:25:12.973Z</time></trkpt><trkpt lat="44.189694796170734" lon="11.868278342666482"><ele>302.0</ele><time>2026-04-06T07:25:13.973Z</time></trkpt><trkpt lat="44.18980987358858" lon="11.868360854904736"><ele>302.0</ele><time>2026-04-06T07:25:14.973Z</time></trkpt><trkpt lat="44.1899225468898" lon="11.86843825081109"><ele>302.0</ele><time>2026-04-06T07:25:15.973Z</time></trkpt><trkpt lat="44.19003381158568" lon="11.86851482526141"><ele>298.5</ele><time>2026-04-06T07:25:16.973Z</time></trkpt><trkpt lat="44.19013256957579" lon="11.868585932107345"><ele>295.0</ele><time>2026-04-06T07:25:17.973Z</time></trkpt><trkpt lat="44.190240646831754" lon="11.868661564789353"><ele>291.5</ele><time>2026-04-06T07:25:18.973Z</time></trkpt><trkpt lat="44.19034379214836" lon="11.868742212735306"><ele>288.0</ele><time>2026-04-06T07:25:19.973Z</time></trkpt><trkpt lat="44.19045264430989" lon="11.868829474563237"><ele>288.0</ele><time>2026-04-06T07:25:20.973Z</time></trkpt><trkpt lat="44.19054824434053" lon="11.868908834076079"><ele>288.0</ele><time>2026-04-06T07:25:21.973Z</time></trkpt><trkpt lat="44.190631430399556" lon="11.868985280901859"><ele>288.0</ele><time>2026-04-06T07:25:22.973Z</time></trkpt><trkpt lat="44.1907028262535" lon="11.86904750775378"><ele>288.0</ele><time>2026-04-06T07:25:23.972Z</time></trkpt><trkpt lat="44.19077690660736" lon="11.869106502393644"><ele>288.0</ele><time>2026-04-06T07:25:24.972Z</time></trkpt><trkpt lat="44.190848269725" lon="11.869158294025086"><ele>286.8</ele><time>2026-04-06T07:25:25.972Z</time></trkpt><trkpt lat="44.19090687580696" lon="11.8692067466782"><ele>285.6</ele><time>2026-04-06T07:25:26.973Z</time></trkpt><trkpt lat="44.1909838706011" lon="11.869294688609346"><ele>284.4</ele><time>2026-04-06T07:25:28.972Z</time></trkpt><trkpt lat="44.1910300005227" lon="11.869394316191203"><ele>283.2</ele><time>2026-04-06T07:25:30.972Z</time></trkpt><trkpt lat="44.191069914115666" lon="11.869550727747903"><ele>282.0</ele><time>2026-04-06T07:25:32.972Z</time></trkpt><trkpt lat="44.191082299935324" lon="11.869664666261345"><ele>281.1666666666667</ele><time>2026-04-06T07:25:33.972Z</time></trkpt><trkpt lat="44.19107559007983" lon="11.869796867242915"><ele>280.3333333333333</ele><time>2026-04-06T07:25:34.972Z</time></trkpt><trkpt lat="44.19107007424673" lon="11.869916861446992"><ele>279.5</ele><time>2026-04-06T07:25:35.972Z</time></trkpt><trkpt lat="44.19106191149752" lon="11.870017103840452"><ele>278.66666666666663</ele><time>2026-04-06T07:25:36.972Z</time></trkpt><trkpt lat="44.191064480944604" lon="11.870108233828908"><ele>277.8333333333333</ele><time>2026-04-06T07:25:37.972Z</time></trkpt><trkpt lat="44.19107248989065" lon="11.870270430110766"><ele>277.0</ele><time>2026-04-06T07:25:39.972Z</time></trkpt><trkpt lat="44.1911042243657" lon="11.87042304421343"><ele>274.3333333333333</ele><time>2026-04-06T07:25:41.972Z</time></trkpt><trkpt lat="44.19113314990148" lon="11.870548960656045"><ele>271.66666666666663</ele><time>2026-04-06T07:25:43.972Z</time></trkpt><trkpt lat="44.19117344889426" lon="11.870622845418305"><ele>269.0</ele><time>2026-04-06T07:25:44.972Z</time></trkpt><trkpt lat="44.19122884244275" lon="11.870674782531529"><ele>266.3333333333333</ele><time>2026-04-06T07:25:45.972Z</time></trkpt><trkpt lat="44.19133776878947" lon="11.870690010838361"><ele>263.6666666666667</ele><time>2026-04-06T07:25:47.972Z</time></trkpt><trkpt lat="44.19140243330455" lon="11.870682164697689"><ele>261.0</ele><time>2026-04-06T07:25:48.972Z</time></trkpt><trkpt lat="44.19149617167007" lon="11.870641427269138"><ele>260.8333333333333</ele><time>2026-04-06T07:25:49.972Z</time></trkpt><trkpt lat="44.191569318330785" lon="11.870605035087314"><ele>260.6666666666667</ele><time>2026-04-06T07:25:50.972Z</time></trkpt><trkpt lat="44.19164790628599" lon="11.87056358689742"><ele>260.5</ele><time>2026-04-06T07:25:51.972Z</time></trkpt><trkpt lat="44.19173407183839" lon="11.870517018839662"><ele>260.33333333333337</ele><time>2026-04-06T07:25:52.972Z</time></trkpt><trkpt lat="44.191823534875645" lon="11.870467636156128"><ele>260.1666666666667</ele><time>2026-04-06T07:25:53.972Z</time></trkpt><trkpt lat="44.19191238363865" lon="11.87041859272221"><ele>260.0</ele><time>2026-04-06T07:25:54.972Z</time></trkpt><trkpt lat="44.19197026218534" lon="11.870361288704766"><ele>260.0</ele><time>2026-04-06T07:25:55.972Z</time></trkpt><trkpt lat="44.1920857012322" lon="11.870314478173048"><ele>260.0</ele><time>2026-04-06T07:25:57.972Z</time></trkpt><trkpt lat="44.19216105876678" lon="11.870287310426042"><ele>260.0</ele><time>2026-04-06T07:25:58.972Z</time></trkpt><trkpt lat="44.192248619661875" lon="11.870279010990474"><ele>260.0</ele><time>2026-04-06T07:25:59.972Z</time></trkpt><trkpt lat="44.19234620076814" lon="11.870275853313474"><ele>260.0</ele><time>2026-04-06T07:26:00.972Z</time></trkpt><trkpt lat="44.19245452848169" lon="11.87028028241361"><ele>257.8</ele><time>2026-04-06T07:26:01.972Z</time></trkpt><trkpt lat="44.19255858376564" lon="11.870278683885928"><ele>255.6</ele><time>2026-04-06T07:26:02.972Z</time></trkpt><trkpt lat="44.19266516368259" lon="11.870269427541544"><ele>253.39999999999998</ele><time>2026-04-06T07:26:03.972Z</time></trkpt><trkpt lat="44.19277960218836" lon="11.870260234460927"><ele>251.2</ele><time>2026-04-06T07:26:04.972Z</time></trkpt><trkpt lat="44.19289537476187" lon="11.870246283571468"><ele>249.0</ele><time>2026-04-06T07:26:05.972Z</time></trkpt><trkpt lat="44.19299481654732" lon="11.870235343518804"><ele>249.0</ele><time>2026-04-06T07:26:06.972Z</time></trkpt><trkpt lat="44.19307270947129" lon="11.870226146115794"><ele>248.99999999999997</ele><time>2026-04-06T07:26:07.972Z</time></trkpt><trkpt lat="44.19313771993406" lon="11.870223154765126"><ele>248.99999999999997</ele><time>2026-04-06T07:26:08.972Z</time></trkpt><trkpt lat="44.19327391125792" lon="11.870229962950864"><ele>249.0</ele><time>2026-04-06T07:26:10.972Z</time></trkpt><trkpt lat="44.19337562701016" lon="11.87025834194479"><ele>249.0</ele><time>2026-04-06T07:26:11.972Z</time></trkpt><trkpt lat="44.19348366700035" lon="11.870285634609727"><ele>248.0</ele><time>2026-04-06T07:26:12.972Z</time></trkpt><trkpt lat="44.193587557089174" lon="11.870313895900455"><ele>246.99999999999997</ele><time>2026-04-06T07:26:13.972Z</time></trkpt><trkpt lat="44.19369019529038" lon="11.870351891364484"><ele>245.99999999999997</ele><time>2026-04-06T07:26:14.972Z</time></trkpt><trkpt lat="44.193781460913854" lon="11.870391884727036"><ele>245.0</ele><time>2026-04-06T07:26:15.972Z</time></trkpt><trkpt lat="44.19386194491273" lon="11.87044342001023"><ele>244.0</ele><time>2026-04-06T07:26:16.972Z</time></trkpt><trkpt lat="44.193949392696005" lon="11.87051187698856"><ele>244.0</ele><time>2026-04-06T07:26:17.972Z</time></trkpt><trkpt lat="44.19404266953925" lon="11.87059457142207"><ele>244.0</ele><time>2026-04-06T07:26:18.972Z</time></trkpt><trkpt lat="44.194129182613594" lon="11.870705450341365"><ele>244.0</ele><time>2026-04-06T07:26:19.972Z</time></trkpt><trkpt lat="44.194228673136905" lon="11.870802701973004"><ele>244.0</ele><time>2026-04-06T07:26:20.972Z</time></trkpt><trkpt lat="44.194332280745826" lon="11.870910684391063"><ele>244.0</ele><time>2026-04-06T07:26:21.972Z</time></trkpt><trkpt lat="44.194425618246136" lon="11.87101458098647"><ele>244.0</ele><time>2026-04-06T07:26:22.972Z</time></trkpt><trkpt lat="44.19450780846115" lon="11.87112804129466"><ele>244.0</ele><time>2026-04-06T07:26:23.972Z</time></trkpt><trkpt lat="44.19458012164713" lon="11.871259137103452"><ele>244.0</ele><time>2026-04-06T07:26:24.972Z</time></trkpt><trkpt lat="44.194643911369404" lon="11.871412023488592"><ele>244.0</ele><time>2026-04-06T07:26:25.972Z</time></trkpt><trkpt lat="44.19470464188147" lon="11.87157839360646"><ele>244.0</ele><time>2026-04-06T07:26:26.972Z</time></trkpt><trkpt lat="44.19476668819506" lon="11.871750550815275"><ele>244.0</ele><time>2026-04-06T07:26:27.972Z</time></trkpt><trkpt lat="44.19482886927094" lon="11.87192889385318"><ele>244.0</ele><time>2026-04-06T07:26:28.972Z</time></trkpt><trkpt lat="44.194892412086816" lon="11.872108032296822"><ele>245.39999999999998</ele><time>2026-04-06T07:26:29.972Z</time></trkpt><trkpt lat="44.19494663259341" lon="11.872261385249816"><ele>246.79999999999998</ele><time>2026-04-06T07:26:30.972Z</time></trkpt><trkpt lat="44.194994576424826" lon="11.872399273291746"><ele>248.20000000000002</ele><time>2026-04-06T07:26:31.972Z</time></trkpt><trkpt lat="44.195031640166775" lon="11.872504692353093"><ele>249.60000000000002</ele><time>2026-04-06T07:26:32.972Z</time></trkpt><trkpt lat="44.19507297265679" lon="11.872626641040476"><ele>251.0</ele><time>2026-04-06T07:26:34.972Z</time></trkpt><trkpt lat="44.19509676574463" lon="11.872744276169144"><ele>251.83333333333334</ele><time>2026-04-06T07:26:36.972Z</time></trkpt><trkpt lat="44.19518603575998" lon="11.872749613972404"><ele>252.66666666666669</ele><time>2026-04-06T07:26:37.972Z</time></trkpt><trkpt lat="44.19526003167325" lon="11.872802316268785"><ele>253.5</ele><time>2026-04-06T07:26:39.972Z</time></trkpt><trkpt lat="44.195310930318946" lon="11.872856293166647"><ele>254.33333333333331</ele><time>2026-04-06T07:26:41.972Z</time></trkpt><trkpt lat="44.19536954562005" lon="11.872916029800932"><ele>255.16666666666666</ele><time>2026-04-06T07:26:43.972Z</time></trkpt><trkpt lat="44.19548259896279" lon="11.873021653494977"><ele>256.0</ele><time>2026-04-06T07:26:45.972Z</time></trkpt><trkpt lat="44.19554595553615" lon="11.873083948718662"><ele>255.99999999999997</ele><time>2026-04-06T07:26:46.972Z</time></trkpt><trkpt lat="44.19559433682097" lon="11.873145256705758"><ele>256.0</ele><time>2026-04-06T07:26:47.972Z</time></trkpt><trkpt lat="44.19565585336429" lon="11.87321514405329"><ele>256.0</ele><time>2026-04-06T07:26:48.972Z</time></trkpt><trkpt lat="44.19571974063328" lon="11.873284451038074"><ele>256.0</ele><time>2026-04-06T07:26:49.972Z</time></trkpt><trkpt lat="44.195787527106276" lon="11.873349506497162"><ele>255.99999999999997</ele><time>2026-04-06T07:26:50.972Z</time></trkpt><trkpt lat="44.19585744370801" lon="11.87340396738994"><ele>256.0</ele><time>2026-04-06T07:26:51.972Z</time></trkpt><trkpt lat="44.195926227743165" lon="11.873449038227845"><ele>256.66666666666663</ele><time>2026-04-06T07:26:52.972Z</time></trkpt><trkpt lat="44.195995510827345" lon="11.873496864067809"><ele>257.3333333333333</ele><time>2026-04-06T07:26:53.972Z</time></trkpt><trkpt lat="44.19606182628137" lon="11.873541373369381"><ele>258.0</ele><time>2026-04-06T07:26:54.972Z</time></trkpt><trkpt lat="44.19612760186696" lon="11.873590294343215"><ele>258.6666666666667</ele><time>2026-04-06T07:26:55.972Z</time></trkpt><trkpt lat="44.196194796364345" lon="11.87364587416665"><ele>259.33333333333337</ele><time>2026-04-06T07:26:56.972Z</time></trkpt><trkpt lat="44.1962676894359" lon="11.87369355733425"><ele>260.0</ele><time>2026-04-06T07:26:57.972Z</time></trkpt><trkpt lat="44.19634209180381" lon="11.873745833157965"><ele>260.0</ele><time>2026-04-06T07:26:58.972Z</time></trkpt><trkpt lat="44.19640792690355" lon="11.8737922062081"><ele>260.0</ele><time>2026-04-06T07:26:59.972Z</time></trkpt><trkpt lat="44.19646888577906" lon="11.873828766946863"><ele>260.0</ele><time>2026-04-06T07:27:00.972Z</time></trkpt><trkpt lat="44.196590311859715" lon="11.873896840640336"><ele>260.0</ele><time>2026-04-06T07:27:02.972Z</time></trkpt><trkpt lat="44.196652391916885" lon="11.873933989241038"><ele>260.0</ele><time>2026-04-06T07:27:03.972Z</time></trkpt><trkpt lat="44.196710857782286" lon="11.873971280160854"><ele>260.0</ele><time>2026-04-06T07:27:04.972Z</time></trkpt><trkpt lat="44.19676851683665" lon="11.874012134693707"><ele>258.6</ele><time>2026-04-06T07:27:05.972Z</time></trkpt><trkpt lat="44.19682508490646" lon="11.874055892313413"><ele>257.2</ele><time>2026-04-06T07:27:06.972Z</time></trkpt><trkpt lat="44.19693242429186" lon="11.874125396982572"><ele>255.8</ele><time>2026-04-06T07:27:08.972Z</time></trkpt><trkpt lat="44.19701888033878" lon="11.87418431928842"><ele>254.4</ele><time>2026-04-06T07:27:10.972Z</time></trkpt><trkpt lat="44.197114946829366" lon="11.87423855812202"><ele>253.0</ele><time>2026-04-06T07:27:12.972Z</time></trkpt><trkpt lat="44.19719369843659" lon="11.874303240199463"><ele>251.4</ele><time>2026-04-06T07:27:14.972Z</time></trkpt><trkpt lat="44.197298103878765" lon="11.874371295901492"><ele>249.8</ele><time>2026-04-06T07:27:16.972Z</time></trkpt><trkpt lat="44.197395153592964" lon="11.874431006857128"><ele>248.2</ele><time>2026-04-06T07:27:18.971Z</time></trkpt><trkpt lat="44.197488390009745" lon="11.874494127323889"><ele>246.6</ele><time>2026-04-06T07:27:20.971Z</time></trkpt><trkpt lat="44.19758748255044" lon="11.874553481199026"><ele>245.0</ele><time>2026-04-06T07:27:22.971Z</time></trkpt><trkpt lat="44.19767066933269" lon="11.874606690877586"><ele>245.00000000000003</ele><time>2026-04-06T07:27:24.971Z</time></trkpt><trkpt lat="44.19774491370822" lon="11.874651093005054"><ele>245.0</ele><time>2026-04-06T07:27:26.971Z</time></trkpt><trkpt lat="44.19781586431152" lon="11.874692023809507"><ele>245.0</ele><time>2026-04-06T07:27:28.971Z</time></trkpt><trkpt lat="44.19789069404382" lon="11.874739570012979"><ele>245.0</ele><time>2026-04-06T07:27:30.971Z</time></trkpt><trkpt lat="44.19797029057445" lon="11.874795993152421"><ele>245.00000000000003</ele><time>2026-04-06T07:27:32.971Z</time></trkpt><trkpt lat="44.19805723025252" lon="11.874865343994305"><ele>245.0</ele><time>2026-04-06T07:27:34.971Z</time></trkpt><trkpt lat="44.19814518983493" lon="11.874929264900185"><ele>244.4</ele><time>2026-04-06T07:27:36.97Z</time></trkpt><trkpt lat="44.198230424777215" lon="11.874978364083642"><ele>243.8</ele><time>2026-04-06T07:27:38.971Z</time></trkpt><trkpt lat="44.198320374556" lon="11.87501478821681"><ele>243.2</ele><time>2026-04-06T07:27:40.97Z</time></trkpt><trkpt lat="44.19841083337379" lon="11.875034628799627"><ele>242.6</ele><time>2026-04-06T07:27:42.97Z</time></trkpt><trkpt lat="44.19850460120163" lon="11.875031431532797"><ele>242.0</ele><time>2026-04-06T07:27:44.97Z</time></trkpt><trkpt lat="44.19860406416105" lon="11.875009135765872"><ele>242.0</ele><time>2026-04-06T07:27:46.97Z</time></trkpt><trkpt lat="44.198694713947226" lon="11.874980542458864"><ele>242.0</ele><time>2026-04-06T07:27:48.97Z</time></trkpt><trkpt lat="44.19878769418274" lon="11.874935786906127"><ele>242.0</ele><time>2026-04-06T07:27:50.97Z</time></trkpt><trkpt lat="44.198879478838386" lon="11.874903372877965"><ele>242.0</ele><time>2026-04-06T07:27:52.97Z</time></trkpt><trkpt lat="44.19898240457906" lon="11.874867576850765"><ele>242.0</ele><time>2026-04-06T07:27:54.97Z</time></trkpt><trkpt lat="44.19908041975122" lon="11.874828866127375"><ele>239.2</ele><time>2026-04-06T07:27:56.97Z</time></trkpt><trkpt lat="44.199173682397664" lon="11.874788662365232"><ele>236.39999999999998</ele><time>2026-04-06T07:27:58.97Z</time></trkpt><trkpt lat="44.199268189068384" lon="11.87475410136317"><ele>233.60000000000002</ele><time>2026-04-06T07:28:00.97Z</time></trkpt><trkpt lat="44.199359839206686" lon="11.874713688138565"><ele>230.8</ele><time>2026-04-06T07:28:02.97Z</time></trkpt><trkpt lat="44.19944881702955" lon="11.874691732475855"><ele>228.0</ele><time>2026-04-06T07:28:04.97Z</time></trkpt><trkpt lat="44.19954490187199" lon="11.874648466630607"><ele>228.0</ele><time>2026-04-06T07:28:06.97Z</time></trkpt><trkpt lat="44.199643725441604" lon="11.874583233353755"><ele>228.0</ele><time>2026-04-06T07:28:08.97Z</time></trkpt><trkpt lat="44.19976374212435" lon="11.874533816868025"><ele>228.0</ele><time>2026-04-06T07:28:10.97Z</time></trkpt><trkpt lat="44.19982646575773" lon="11.874476598444536"><ele>228.0</ele><time>2026-04-06T07:28:11.97Z</time></trkpt><trkpt lat="44.19988166175499" lon="11.874430503211856"><ele>228.0</ele><time>2026-04-06T07:28:12.97Z</time></trkpt><trkpt lat="44.199935418150105" lon="11.874379806217673"><ele>228.0</ele><time>2026-04-06T07:28:13.97Z</time></trkpt><trkpt lat="44.20004295200624" lon="11.874305874606506"><ele>226.0</ele><time>2026-04-06T07:28:15.97Z</time></trkpt><trkpt lat="44.20009509296685" lon="11.874250190245672"><ele>224.0</ele><time>2026-04-06T07:28:16.97Z</time></trkpt><trkpt lat="44.20014859160413" lon="11.874203123501735"><ele>222.0</ele><time>2026-04-06T07:28:17.97Z</time></trkpt><trkpt lat="44.20025978863779" lon="11.874118480352493"><ele>220.0</ele><time>2026-04-06T07:28:19.97Z</time></trkpt><trkpt lat="44.20033140460463" lon="11.87408868225942"><ele>218.0</ele><time>2026-04-06T07:28:20.97Z</time></trkpt><trkpt lat="44.200401637015396" lon="11.87403959622758"><ele>216.0</ele><time>2026-04-06T07:28:21.97Z</time></trkpt><trkpt lat="44.20046299724134" lon="11.873951062769448"><ele>216.0</ele><time>2026-04-06T07:28:22.97Z</time></trkpt><trkpt lat="44.20053314005964" lon="11.87389692667377"><ele>216.0</ele><time>2026-04-06T07:28:23.97Z</time></trkpt><trkpt lat="44.20060673086659" lon="11.873854394395618"><ele>216.0</ele><time>2026-04-06T07:28:24.97Z</time></trkpt><trkpt lat="44.20068310805024" lon="11.873829698108795"><ele>216.0</ele><time>2026-04-06T07:28:25.97Z</time></trkpt><trkpt lat="44.200764674358595" lon="11.873821293358379"><ele>216.0</ele><time>2026-04-06T07:28:26.97Z</time></trkpt><trkpt lat="44.20084617565219" lon="11.873825559964715"><ele>216.0</ele><time>2026-04-06T07:28:27.97Z</time></trkpt><trkpt lat="44.20092258453051" lon="11.873823516142064"><ele>216.16666666666666</ele><time>2026-04-06T07:28:28.97Z</time></trkpt><trkpt lat="44.20100071281388" lon="11.87380828725126"><ele>216.33333333333331</ele><time>2026-04-06T07:28:29.97Z</time></trkpt><trkpt lat="44.20108742191226" lon="11.873778274279264"><ele>216.5</ele><time>2026-04-06T07:28:30.97Z</time></trkpt><trkpt lat="44.20116481360574" lon="11.873750558129839"><ele>216.66666666666666</ele><time>2026-04-06T07:28:31.97Z</time></trkpt><trkpt lat="44.201236385104195" lon="11.873725811851436"><ele>216.83333333333331</ele><time>2026-04-06T07:28:32.97Z</time></trkpt><trkpt lat="44.201352207199264" lon="11.873696341635553"><ele>217.0</ele><time>2026-04-06T07:28:34.97Z</time></trkpt><trkpt lat="44.20144175255993" lon="11.873682694115361"><ele>218.0</ele><time>2026-04-06T07:28:36.97Z</time></trkpt><trkpt lat="44.201546517413085" lon="11.87366624767593"><ele>219.0</ele><time>2026-04-06T07:28:38.97Z</time></trkpt><trkpt lat="44.20165339676523" lon="11.873667833627437"><ele>220.0</ele><time>2026-04-06T07:28:40.97Z</time></trkpt><trkpt lat="44.20173900408318" lon="11.873672779610475"><ele>221.0</ele><time>2026-04-06T07:28:42.97Z</time></trkpt><trkpt lat="44.2018314385679" lon="11.873692553379072"><ele>222.0</ele><time>2026-04-06T07:28:44.97Z</time></trkpt><trkpt lat="44.201924067766136" lon="11.87371174060337"><ele>222.0</ele><time>2026-04-06T07:28:46.97Z</time></trkpt><trkpt lat="44.202008064291746" lon="11.87373100905483"><ele>222.0</ele><time>2026-04-06T07:28:48.97Z</time></trkpt><trkpt lat="44.20210288999324" lon="11.873757168368266"><ele>222.0</ele><time>2026-04-06T07:28:50.97Z</time></trkpt><trkpt lat="44.20221323101529" lon="11.8737835599655"><ele>222.0</ele><time>2026-04-06T07:28:52.97Z</time></trkpt><trkpt lat="44.20232288589735" lon="11.873805337734229"><ele>222.0</ele><time>2026-04-06T07:28:54.97Z</time></trkpt><trkpt lat="44.20243164736297" lon="11.873835326791143"><ele>221.39999999999998</ele><time>2026-04-06T07:28:56.97Z</time></trkpt><trkpt lat="44.2025445564061" lon="11.873864758927638"><ele>220.79999999999998</ele><time>2026-04-06T07:28:58.97Z</time></trkpt><trkpt lat="44.20265855728261" lon="11.87389388813931"><ele>220.2</ele><time>2026-04-06T07:29:00.97Z</time></trkpt><trkpt lat="44.20278193275214" lon="11.87392898334083"><ele>219.6</ele><time>2026-04-06T07:29:02.97Z</time></trkpt><trkpt lat="44.20284548845521" lon="11.873944464238596"><ele>219.0</ele><time>2026-04-06T07:29:03.97Z</time></trkpt><trkpt lat="44.20290829210409" lon="11.873960244369522"><ele>219.0</ele><time>2026-04-06T07:29:04.969Z</time></trkpt><trkpt lat="44.20297495585191" lon="11.873976081840663"><ele>219.0</ele><time>2026-04-06T07:29:05.969Z</time></trkpt><trkpt lat="44.20304243469494" lon="11.873992814312269"><ele>219.0</ele><time>2026-04-06T07:29:06.969Z</time></trkpt><trkpt lat="44.20310549864646" lon="11.874010946979155"><ele>219.0</ele><time>2026-04-06T07:29:07.969Z</time></trkpt><trkpt lat="44.20317544377597" lon="11.874031882076983"><ele>219.0</ele><time>2026-04-06T07:29:08.969Z</time></trkpt><trkpt lat="44.203256789454734" lon="11.874051568417432"><ele>219.0</ele><time>2026-04-06T07:29:09.969Z</time></trkpt><trkpt lat="44.203342148845366" lon="11.874075746941498"><ele>219.0</ele><time>2026-04-06T07:29:10.969Z</time></trkpt><trkpt lat="44.203418441520796" lon="11.874095038585608"><ele>218.0</ele><time>2026-04-06T07:29:11.969Z</time></trkpt><trkpt lat="44.20348425160961" lon="11.874110934101957"><ele>217.0</ele><time>2026-04-06T07:29:12.969Z</time></trkpt><trkpt lat="44.203596760702965" lon="11.874151300724744"><ele>216.0</ele><time>2026-04-06T07:29:14.969Z</time></trkpt><trkpt lat="44.203664289595864" lon="11.874168411316218"><ele>215.0</ele><time>2026-04-06T07:29:15.969Z</time></trkpt><trkpt lat="44.203733833828586" lon="11.874185244897927"><ele>214.0</ele><time>2026-04-06T07:29:16.969Z</time></trkpt><trkpt lat="44.20379966911991" lon="11.874198892559244"><ele>213.0</ele><time>2026-04-06T07:29:17.969Z</time></trkpt><trkpt lat="44.20391933734889" lon="11.874217909690282"><ele>212.83333333333334</ele><time>2026-04-06T07:29:19.969Z</time></trkpt><trkpt lat="44.20402549340243" lon="11.874234471250638"><ele>212.66666666666669</ele><time>2026-04-06T07:29:21.969Z</time></trkpt><trkpt lat="44.20413511799273" lon="11.87425938157957"><ele>212.5</ele><time>2026-04-06T07:29:23.969Z</time></trkpt><trkpt lat="44.20419696160257" lon="11.874279432805608"><ele>212.33333333333334</ele><time>2026-04-06T07:29:24.969Z</time></trkpt><trkpt lat="44.204256533523974" lon="11.87430833391629"><ele>212.16666666666669</ele><time>2026-04-06T07:29:25.969Z</time></trkpt><trkpt lat="44.204318326501166" lon="11.874343602591614"><ele>212.0</ele><time>2026-04-06T07:29:26.969Z</time></trkpt><trkpt lat="44.20437963377254" lon="11.874382902392062"><ele>210.39999999999998</ele><time>2026-04-06T07:29:27.969Z</time></trkpt><trkpt lat="44.20444114336992" lon="11.874431921088437"><ele>208.79999999999998</ele><time>2026-04-06T07:29:28.969Z</time></trkpt><trkpt lat="44.20450444579117" lon="11.874488315545308"><ele>207.2</ele><time>2026-04-06T07:29:29.969Z</time></trkpt><trkpt lat="44.20456536537878" lon="11.874544332658658"><ele>205.6</ele><time>2026-04-06T07:29:30.969Z</time></trkpt><trkpt lat="44.2046778962362" lon="11.874613109725487"><ele>204.0</ele><time>2026-04-06T07:29:32.969Z</time></trkpt><trkpt lat="44.204804279729665" lon="11.874633887553045"><ele>204.79999999999998</ele><time>2026-04-06T07:29:34.969Z</time></trkpt><trkpt lat="44.204874401731665" lon="11.874627566847854"><ele>205.6</ele><time>2026-04-06T07:29:35.969Z</time></trkpt><trkpt lat="44.2049859833573" lon="11.874623262033474"><ele>206.4</ele><time>2026-04-06T07:29:37.968Z</time></trkpt><trkpt lat="44.20510208567514" lon="11.87464741844008"><ele>207.2</ele><time>2026-04-06T07:29:39.969Z</time></trkpt><trkpt lat="44.205210758905515" lon="11.874736563871899"><ele>208.0</ele><time>2026-04-06T07:29:41.968Z</time></trkpt><trkpt lat="44.20525892700969" lon="11.874796078708327"><ele>208.0</ele><time>2026-04-06T07:29:42.969Z</time></trkpt><trkpt lat="44.205308005433245" lon="11.874851595805566"><ele>208.0</ele><time>2026-04-06T07:29:43.969Z</time></trkpt><trkpt lat="44.20535625706924" lon="11.87491021218314"><ele>208.0</ele><time>2026-04-06T07:29:44.969Z</time></trkpt><trkpt lat="44.205406789857385" lon="11.87497127371977"><ele>208.0</ele><time>2026-04-06T07:29:45.968Z</time></trkpt><trkpt lat="44.205452614542075" lon="11.875033227082008"><ele>208.0</ele><time>2026-04-06T07:29:46.968Z</time></trkpt><trkpt lat="44.20549966048508" lon="11.875098020936457"><ele>208.0</ele><time>2026-04-06T07:29:47.969Z</time></trkpt><trkpt lat="44.20554693946208" lon="11.87516582244576"><ele>208.0</ele><time>2026-04-06T07:29:48.968Z</time></trkpt><trkpt lat="44.20559778222881" lon="11.87523815819521"><ele>208.28571428571428</ele><time>2026-04-06T07:29:49.968Z</time></trkpt><trkpt lat="44.20565258187061" lon="11.87531398374582"><ele>208.57142857142858</ele><time>2026-04-06T07:29:50.968Z</time></trkpt><trkpt lat="44.205702270616015" lon="11.87538611727926"><ele>208.85714285714286</ele><time>2026-04-06T07:29:51.968Z</time></trkpt><trkpt lat="44.205751494000694" lon="11.875452038966927"><ele>209.14285714285714</ele><time>2026-04-06T07:29:52.968Z</time></trkpt><trkpt lat="44.205807908551684" lon="11.875520895691018"><ele>209.42857142857144</ele><time>2026-04-06T07:29:53.968Z</time></trkpt><trkpt lat="44.205859703667905" lon="11.875596875004687"><ele>209.71428571428572</ele><time>2026-04-06T07:29:54.968Z</time></trkpt><trkpt lat="44.205903923240676" lon="11.875673505508871"><ele>210.0</ele><time>2026-04-06T07:29:55.968Z</time></trkpt><trkpt lat="44.205944417699996" lon="11.875761670383291"><ele>210.0</ele><time>2026-04-06T07:29:56.968Z</time></trkpt><trkpt lat="44.20598018435464" lon="11.875859499988374"><ele>210.0</ele><time>2026-04-06T07:29:57.968Z</time></trkpt><trkpt lat="44.206006756108195" lon="11.875964717987506"><ele>210.0</ele><time>2026-04-06T07:29:58.968Z</time></trkpt><trkpt lat="44.206028824672224" lon="11.876079596828227"><ele>210.0</ele><time>2026-04-06T07:29:59.968Z</time></trkpt><trkpt lat="44.206045736427306" lon="11.876183004421458"><ele>210.0</ele><time>2026-04-06T07:30:00.968Z</time></trkpt><trkpt lat="44.20606273365547" lon="11.87628075143599"><ele>210.0</ele><time>2026-04-06T07:30:01.968Z</time></trkpt><trkpt lat="44.20607898800612" lon="11.876374731640915"><ele>209.66666666666666</ele><time>2026-04-06T07:30:02.968Z</time></trkpt><trkpt lat="44.20609727655092" lon="11.876472286748692"><ele>209.33333333333331</ele><time>2026-04-06T07:30:03.968Z</time></trkpt><trkpt lat="44.20611461592284" lon="11.876557259390053"><ele>209.0</ele><time>2026-04-06T07:30:04.968Z</time></trkpt><trkpt lat="44.20614527240909" lon="11.876716911946993"><ele>208.66666666666666</ele><time>2026-04-06T07:30:06.968Z</time></trkpt><trkpt lat="44.20616819838944" lon="11.876810833225639"><ele>208.33333333333331</ele><time>2026-04-06T07:30:07.968Z</time></trkpt><trkpt lat="44.20618445207017" lon="11.876898443650287"><ele>208.0</ele><time>2026-04-06T07:30:08.968Z</time></trkpt><trkpt lat="44.20620923726793" lon="11.877036316538822"><ele>205.99999999999997</ele><time>2026-04-06T07:30:10.968Z</time></trkpt><trkpt lat="44.20624004454269" lon="11.877185479374583"><ele>204.0</ele><time>2026-04-06T07:30:12.968Z</time></trkpt><trkpt lat="44.206257690485295" lon="11.877280996319131"><ele>202.0</ele><time>2026-04-06T07:30:13.968Z</time></trkpt><trkpt lat="44.206272380226245" lon="11.877376048755126"><ele>200.0</ele><time>2026-04-06T07:30:14.968Z</time></trkpt><trkpt lat="44.20628203966156" lon="11.87746576563546"><ele>197.99999999999997</ele><time>2026-04-06T07:30:15.968Z</time></trkpt><trkpt lat="44.206295453559314" lon="11.87763866460989"><ele>196.0</ele><time>2026-04-06T07:30:17.968Z</time></trkpt><trkpt lat="44.20630242809936" lon="11.87781237353233"><ele>196.60000000000002</ele><time>2026-04-06T07:30:19.968Z</time></trkpt><trkpt lat="44.20630678771732" lon="11.877975496362906"><ele>197.2</ele><time>2026-04-06T07:30:21.968Z</time></trkpt><trkpt lat="44.206309638301754" lon="11.87812735893995"><ele>197.8</ele><time>2026-04-06T07:30:23.968Z</time></trkpt><trkpt lat="44.20631304654087" lon="11.878285085904954"><ele>198.39999999999998</ele><time>2026-04-06T07:30:25.968Z</time></trkpt><trkpt lat="44.20631674928822" lon="11.878382324354774"><ele>199.0</ele><time>2026-04-06T07:30:26.968Z</time></trkpt><trkpt lat="44.20631948753758" lon="11.878488385388897"><ele>199.0</ele><time>2026-04-06T07:30:27.968Z</time></trkpt><trkpt lat="44.20631963495923" lon="11.878601763814576"><ele>199.0</ele><time>2026-04-06T07:30:28.968Z</time></trkpt><trkpt lat="44.20631252825701" lon="11.878720201049603"><ele>199.0</ele><time>2026-04-06T07:30:29.968Z</time></trkpt><trkpt lat="44.206301169781106" lon="11.878856541550222"><ele>199.0</ele><time>2026-04-06T07:30:30.968Z</time></trkpt><trkpt lat="44.206296402817905" lon="11.878994557120722"><ele>199.0</ele><time>2026-04-06T07:30:31.968Z</time></trkpt><trkpt lat="44.20628732210539" lon="11.879127291677856"><ele>198.99999999999997</ele><time>2026-04-06T07:30:32.968Z</time></trkpt><trkpt lat="44.20627514008549" lon="11.879249272488805"><ele>199.0</ele><time>2026-04-06T07:30:33.968Z</time></trkpt><trkpt lat="44.20626331086441" lon="11.879367021702251"><ele>199.0</ele><time>2026-04-06T07:30:34.968Z</time></trkpt><trkpt lat="44.206253756907074" lon="11.879475003301577"><ele>199.0</ele><time>2026-04-06T07:30:35.968Z</time></trkpt><trkpt lat="44.20625016263477" lon="11.879578383302698"><ele>198.99999999999997</ele><time>2026-04-06T07:30:36.968Z</time></trkpt><trkpt lat="44.20624974436539" lon="11.879693482307621"><ele>199.0</ele><time>2026-04-06T07:30:37.968Z</time></trkpt><trkpt lat="44.20624886213708" lon="11.87981681508358"><ele>199.16666666666666</ele><time>2026-04-06T07:30:38.968Z</time></trkpt><trkpt lat="44.20624534804656" lon="11.879934430881367"><ele>199.33333333333331</ele><time>2026-04-06T07:30:39.968Z</time></trkpt><trkpt lat="44.206239979416424" lon="11.880057328375825"><ele>199.5</ele><time>2026-04-06T07:30:40.968Z</time></trkpt><trkpt lat="44.20623022108553" lon="11.880169746838966"><ele>199.66666666666669</ele><time>2026-04-06T07:30:41.968Z</time></trkpt><trkpt lat="44.20621935190387" lon="11.8802683749392"><ele>199.83333333333334</ele><time>2026-04-06T07:30:42.968Z</time></trkpt><trkpt lat="44.20620888974826" lon="11.880369033644811"><ele>200.0</ele><time>2026-04-06T07:30:43.968Z</time></trkpt><trkpt lat="44.20620071559677" lon="11.880473549756594"><ele>200.00000000000003</ele><time>2026-04-06T07:30:44.968Z</time></trkpt><trkpt lat="44.20619045559236" lon="11.880571964459428"><ele>200.0</ele><time>2026-04-06T07:30:45.968Z</time></trkpt><trkpt lat="44.20617667833941" lon="11.880675895558191"><ele>200.0</ele><time>2026-04-06T07:30:46.968Z</time></trkpt><trkpt lat="44.206166866152245" lon="11.880784262056604"><ele>200.0</ele><time>2026-04-06T07:30:47.968Z</time></trkpt><trkpt lat="44.206155483131255" lon="11.880876830866784"><ele>200.00000000000003</ele><time>2026-04-06T07:30:48.968Z</time></trkpt><trkpt lat="44.20614809168219" lon="11.881040650730245"><ele>200.0</ele><time>2026-04-06T07:30:50.968Z</time></trkpt><trkpt lat="44.206137810267464" lon="11.881129574848153"><ele>199.6</ele><time>2026-04-06T07:30:51.968Z</time></trkpt><trkpt lat="44.20612791550181" lon="11.881294355432955"><ele>199.2</ele><time>2026-04-06T07:30:53.968Z</time></trkpt><trkpt lat="44.206105595871996" lon="11.881443353888242"><ele>198.8</ele><time>2026-04-06T07:30:55.968Z</time></trkpt><trkpt lat="44.20609447294231" lon="11.881586118006759"><ele>198.4</ele><time>2026-04-06T07:30:57.968Z</time></trkpt><trkpt lat="44.206082329930005" lon="11.881722322550946"><ele>198.0</ele><time>2026-04-06T07:30:59.968Z</time></trkpt><trkpt lat="44.20610589498957" lon="11.881844935691726"><ele>197.16666666666666</ele><time>2026-04-06T07:31:01.968Z</time></trkpt><trkpt lat="44.206171617577006" lon="11.881946662915274"><ele>196.33333333333331</ele><time>2026-04-06T07:31:03.968Z</time></trkpt><trkpt lat="44.20625597957385" lon="11.882005204590785"><ele>195.5</ele><time>2026-04-06T07:31:05.968Z</time></trkpt><trkpt lat="44.20634080501906" lon="11.882022758869711"><ele>194.66666666666666</ele><time>2026-04-06T07:31:07.968Z</time></trkpt><trkpt lat="44.2064182460048" lon="11.882032006894356"><ele>193.83333333333331</ele><time>2026-04-06T07:31:09.968Z</time></trkpt><trkpt lat="44.2064908760903" lon="11.882042987145843"><ele>193.0</ele><time>2026-04-06T07:31:11.968Z</time></trkpt><trkpt lat="44.20642785250244" lon="11.882019924646324"><ele>192.99999999999997</ele><time>2026-04-06T07:31:52.966Z</time></trkpt><trkpt lat="44.20632109215437" lon="11.882005075121766"><ele>193.0</ele><time>2026-04-06T07:31:54.967Z</time></trkpt><trkpt lat="44.20625593158847" lon="11.881990504381537"><ele>193.0</ele><time>2026-04-06T07:31:55.967Z</time></trkpt><trkpt lat="44.20617434330559" lon="11.881947500159981"><ele>193.0</ele><time>2026-04-06T07:31:57.967Z</time></trkpt><trkpt lat="44.20612635705823" lon="11.881888710477574"><ele>192.99999999999997</ele><time>2026-04-06T07:32:00.966Z</time></trkpt><trkpt lat="44.20606755113208" lon="11.881967514137548"><ele>193.0</ele><time>2026-04-06T07:32:07.966Z</time></trkpt><trkpt lat="44.206020811679295" lon="11.882037839983782"><ele>192.99999999999997</ele><time>2026-04-06T07:32:09.966Z</time></trkpt><trkpt lat="44.2059668001378" lon="11.882102879358618"><ele>193.0</ele><time>2026-04-06T07:32:11.966Z</time></trkpt><trkpt lat="44.20591899688287" lon="11.8821763336062"><ele>193.0</ele><time>2026-04-06T07:32:13.966Z</time></trkpt><trkpt lat="44.20585367770548" lon="11.882274437336"><ele>193.0</ele><time>2026-04-06T07:32:15.966Z</time></trkpt><trkpt lat="44.20577474521858" lon="11.882389124597701"><ele>192.99999999999997</ele><time>2026-04-06T07:32:17.966Z</time></trkpt><trkpt lat="44.20570572469463" lon="11.882481730379467"><ele>193.0</ele><time>2026-04-06T07:32:19.966Z</time></trkpt><trkpt lat="44.205618479997334" lon="11.882591833621355"><ele>189.60000000000002</ele><time>2026-04-06T07:32:21.966Z</time></trkpt><trkpt lat="44.20555195663732" lon="11.882700716675487"><ele>186.20000000000002</ele><time>2026-04-06T07:32:23.966Z</time></trkpt><trkpt lat="44.20550676740958" lon="11.882818934712008"><ele>182.8</ele><time>2026-04-06T07:32:25.966Z</time></trkpt><trkpt lat="44.20547846677656" lon="11.882940448777923"><ele>179.4</ele><time>2026-04-06T07:32:27.966Z</time></trkpt><trkpt lat="44.20545871162123" lon="11.883047906611555"><ele>176.0</ele><time>2026-04-06T07:32:29.966Z</time></trkpt><trkpt lat="44.205425760394256" lon="11.883171457976914"><ele>176.0</ele><time>2026-04-06T07:32:31.966Z</time></trkpt><trkpt lat="44.20537896048761" lon="11.883263711632077"><ele>176.0</ele><time>2026-04-06T07:32:33.966Z</time></trkpt><trkpt lat="44.20531911362301" lon="11.883331402453647"><ele>176.0</ele><time>2026-04-06T07:32:35.966Z</time></trkpt><trkpt lat="44.20523938381465" lon="11.883408569903809"><ele>176.0</ele><time>2026-04-06T07:32:37.966Z</time></trkpt><trkpt lat="44.2051440202345" lon="11.883501279252028"><ele>176.0</ele><time>2026-04-06T07:32:39.966Z</time></trkpt><trkpt lat="44.20508789164763" lon="11.883555702844756"><ele>176.0</ele><time>2026-04-06T07:32:40.966Z</time></trkpt><trkpt lat="44.205033705118055" lon="11.883611018848228"><ele>175.83333333333331</ele><time>2026-04-06T07:32:41.966Z</time></trkpt><trkpt lat="44.20497877212984" lon="11.883664926085155"><ele>175.66666666666666</ele><time>2026-04-06T07:32:42.966Z</time></trkpt><trkpt lat="44.20491686288768" lon="11.883724192637796"><ele>175.5</ele><time>2026-04-06T07:32:43.966Z</time></trkpt><trkpt lat="44.20484598553083" lon="11.883790354457775"><ele>175.33333333333334</ele><time>2026-04-06T07:32:44.966Z</time></trkpt><trkpt lat="44.204772277760554" lon="11.883866509886944"><ele>175.16666666666669</ele><time>2026-04-06T07:32:45.966Z</time></trkpt><trkpt lat="44.2047057850436" lon="11.883948597669345"><ele>175.0</ele><time>2026-04-06T07:32:46.966Z</time></trkpt><trkpt lat="44.2046428191771" lon="11.884022056353796"><ele>176.33333333333334</ele><time>2026-04-06T07:32:47.966Z</time></trkpt><trkpt lat="44.20458888437842" lon="11.884097295583336"><ele>177.66666666666669</ele><time>2026-04-06T07:32:48.966Z</time></trkpt><trkpt lat="44.20453263886567" lon="11.88417173343293"><ele>179.0</ele><time>2026-04-06T07:32:49.966Z</time></trkpt><trkpt lat="44.204467358688184" lon="11.884249329321458"><ele>180.33333333333334</ele><time>2026-04-06T07:32:50.966Z</time></trkpt><trkpt lat="44.204404181096855" lon="11.88433187901117"><ele>181.66666666666666</ele><time>2026-04-06T07:32:51.966Z</time></trkpt><trkpt lat="44.20434112553449" lon="11.884411538044134"><ele>183.0</ele><time>2026-04-06T07:32:52.966Z</time></trkpt><trkpt lat="44.204278795191264" lon="11.884488992853917"><ele>183.0</ele><time>2026-04-06T07:32:53.966Z</time></trkpt><trkpt lat="44.20422407457297" lon="11.884563280128571"><ele>183.0</ele><time>2026-04-06T07:32:54.966Z</time></trkpt><trkpt lat="44.20417037496644" lon="11.884640573861486"><ele>183.0</ele><time>2026-04-06T07:32:55.966Z</time></trkpt><trkpt lat="44.20412032298911" lon="11.884711244100368"><ele>183.0</ele><time>2026-04-06T07:32:56.966Z</time></trkpt><trkpt lat="44.20406580390461" lon="11.88478743020895"><ele>183.0</ele><time>2026-04-06T07:32:57.966Z</time></trkpt><trkpt lat="44.20401300285468" lon="11.884866682646239"><ele>183.0</ele><time>2026-04-06T07:32:58.966Z</time></trkpt><trkpt lat="44.20396374341055" lon="11.88493726270017"><ele>180.4</ele><time>2026-04-06T07:32:59.966Z</time></trkpt><trkpt lat="44.203916962757994" lon="11.884999620064049"><ele>177.8</ele><time>2026-04-06T07:33:00.966Z</time></trkpt><trkpt lat="44.20384429127321" lon="11.88512457999778"><ele>175.2</ele><time>2026-04-06T07:33:02.966Z</time></trkpt><trkpt lat="44.203799127183345" lon="11.885227311495923"><ele>172.6</ele><time>2026-04-06T07:33:04.966Z</time></trkpt><trkpt lat="44.20375779482474" lon="11.885340445325728"><ele>170.0</ele><time>2026-04-06T07:33:06.966Z</time></trkpt><trkpt lat="44.203733598469995" lon="11.885476298432152"><ele>170.0</ele><time>2026-04-06T07:33:08.966Z</time></trkpt><trkpt lat="44.20371854735806" lon="11.885581186995635"><ele>170.0</ele><time>2026-04-06T07:33:09.966Z</time></trkpt><trkpt lat="44.20370506492056" lon="11.885686763456125"><ele>170.0</ele><time>2026-04-06T07:33:10.966Z</time></trkpt><trkpt lat="44.20368939001946" lon="11.885789051807732"><ele>170.0</ele><time>2026-04-06T07:33:11.966Z</time></trkpt><trkpt lat="44.20367440342722" lon="11.885879694844125"><ele>170.0</ele><time>2026-04-06T07:33:12.966Z</time></trkpt><trkpt lat="44.20366023223842" lon="11.885967125025642"><ele>170.0</ele><time>2026-04-06T07:33:13.966Z</time></trkpt><trkpt lat="44.20364834504643" lon="11.886053814114247"><ele>170.0</ele><time>2026-04-06T07:33:14.966Z</time></trkpt><trkpt lat="44.20363697862148" lon="11.886190218126059"><ele>170.0</ele><time>2026-04-06T07:33:16.966Z</time></trkpt><trkpt lat="44.20360450056323" lon="11.88630029048342"><ele>170.0</ele><time>2026-04-06T07:33:18.966Z</time></trkpt><trkpt lat="44.20351857147837" lon="11.886427087944845"><ele>170.0</ele><time>2026-04-06T07:33:20.966Z</time></trkpt><trkpt lat="44.20346164389778" lon="11.886482994376367"><ele>170.0</ele><time>2026-04-06T07:33:21.966Z</time></trkpt><trkpt lat="44.20339661849528" lon="11.88654238422725"><ele>170.0</ele><time>2026-04-06T07:33:22.966Z</time></trkpt><trkpt lat="44.203326460921886" lon="11.886606531074106"><ele>170.0</ele><time>2026-04-06T07:33:23.966Z</time></trkpt><trkpt lat="44.20325465878818" lon="11.886673411821729"><ele>170.0</ele><time>2026-04-06T07:33:24.966Z</time></trkpt><trkpt lat="44.2031860181427" lon="11.88673528089104"><ele>170.0</ele><time>2026-04-06T07:33:25.966Z</time></trkpt><trkpt lat="44.203129545960515" lon="11.886787657236262"><ele>170.0</ele><time>2026-04-06T07:33:26.966Z</time></trkpt><trkpt lat="44.203029971482785" lon="11.886888789424908"><ele>170.0</ele><time>2026-04-06T07:33:28.966Z</time></trkpt><trkpt lat="44.202971114223494" lon="11.886936273717353"><ele>170.0</ele><time>2026-04-06T07:33:29.966Z</time></trkpt><trkpt lat="44.202905316971936" lon="11.886984059624615"><ele>170.0</ele><time>2026-04-06T07:33:30.966Z</time></trkpt><trkpt lat="44.20284606690864" lon="11.887034297518067"><ele>171.33333333333331</ele><time>2026-04-06T07:33:31.966Z</time></trkpt><trkpt lat="44.20278814936532" lon="11.887084320028515"><ele>172.66666666666666</ele><time>2026-04-06T07:33:32.966Z</time></trkpt><trkpt lat="44.202722258266284" lon="11.88714842797058"><ele>174.0</ele><time>2026-04-06T07:33:34.966Z</time></trkpt><trkpt lat="44.202641666625134" lon="11.887222584204427"><ele>175.33333333333334</ele><time>2026-04-06T07:33:36.966Z</time></trkpt><trkpt lat="44.20258521907305" lon="11.887268933141906"><ele>176.66666666666669</ele><time>2026-04-06T07:33:37.966Z</time></trkpt><trkpt lat="44.20252408316228" lon="11.887325480095319"><ele>178.0</ele><time>2026-04-06T07:33:38.966Z</time></trkpt><trkpt lat="44.20245981847064" lon="11.88738289204803"><ele>178.0</ele><time>2026-04-06T07:33:39.966Z</time></trkpt><trkpt lat="44.20240404108284" lon="11.88744001653405"><ele>178.0</ele><time>2026-04-06T07:33:40.966Z</time></trkpt><trkpt lat="44.20230897114686" lon="11.887533230537816"><ele>178.0</ele><time>2026-04-06T07:33:42.966Z</time></trkpt><trkpt lat="44.20222557848782" lon="11.887615946110426"><ele>178.0</ele><time>2026-04-06T07:33:44.966Z</time></trkpt><trkpt lat="44.202166064041315" lon="11.887661248555627"><ele>178.0</ele><time>2026-04-06T07:33:46.966Z</time></trkpt><trkpt lat="44.20208267316639" lon="11.88773532409201"><ele>177.8</ele><time>2026-04-06T07:33:48.965Z</time></trkpt><trkpt lat="44.2019861025983" lon="11.887810038122003"><ele>177.60000000000002</ele><time>2026-04-06T07:33:50.965Z</time></trkpt><trkpt lat="44.20188733787391" lon="11.887875586615694"><ele>177.39999999999998</ele><time>2026-04-06T07:33:52.964Z</time></trkpt><trkpt lat="44.20180243017973" lon="11.887933672136736"><ele>177.2</ele><time>2026-04-06T07:33:54.964Z</time></trkpt><trkpt lat="44.201742530527895" lon="11.887996469993826"><ele>177.0</ele><time>2026-04-06T07:33:57.965Z</time></trkpt><trkpt lat="44.20172878685865" lon="11.888111655764662"><ele>177.0</ele><time>2026-04-06T07:34:00.964Z</time></trkpt><trkpt lat="44.20171432536463" lon="11.888233539093084"><ele>177.0</ele><time>2026-04-06T07:34:02.964Z</time></trkpt><trkpt lat="44.201701400991055" lon="11.88835812104803"><ele>177.0</ele><time>2026-04-06T07:34:04.964Z</time></trkpt><trkpt lat="44.201692633366385" lon="11.888482112559371"><ele>177.0</ele><time>2026-04-06T07:34:07.964Z</time></trkpt><trkpt lat="44.20168105331389" lon="11.88860377935384"><ele>177.0</ele><time>2026-04-06T07:34:09.964Z</time></trkpt><trkpt lat="44.201667217884506" lon="11.888742768380235"><ele>175.39999999999998</ele><time>2026-04-06T07:34:11.964Z</time></trkpt><trkpt lat="44.201655950783014" lon="11.888870326669682"><ele>173.79999999999998</ele><time>2026-04-06T07:34:13.964Z</time></trkpt><trkpt lat="44.20164809618765" lon="11.889013905956876"><ele>172.2</ele><time>2026-04-06T07:34:15.964Z</time></trkpt><trkpt lat="44.2016453886863" lon="11.889158230852141"><ele>170.6</ele><time>2026-04-06T07:34:17.964Z</time></trkpt><trkpt lat="44.201653226260035" lon="11.889280682516018"><ele>169.0</ele><time>2026-04-06T07:34:19.964Z</time></trkpt><trkpt lat="44.201669856908126" lon="11.889412590443623"><ele>166.79999999999998</ele><time>2026-04-06T07:34:21.964Z</time></trkpt><trkpt lat="44.201690377811076" lon="11.889534409028043"><ele>164.6</ele><time>2026-04-06T07:34:23.964Z</time></trkpt><trkpt lat="44.20171619474096" lon="11.889656107727363"><ele>162.4</ele><time>2026-04-06T07:34:25.964Z</time></trkpt><trkpt lat="44.20175094372318" lon="11.889786168817933"><ele>160.2</ele><time>2026-04-06T07:34:27.964Z</time></trkpt><trkpt lat="44.20178698517468" lon="11.889916529960988"><ele>158.0</ele><time>2026-04-06T07:34:29.964Z</time></trkpt><trkpt lat="44.20183623631893" lon="11.890107962062345"><ele>155.4</ele><time>2026-04-06T07:34:32.964Z</time></trkpt><trkpt lat="44.20186716245064" lon="11.890227889515023"><ele>152.8</ele><time>2026-04-06T07:34:34.964Z</time></trkpt><trkpt lat="44.20190442699095" lon="11.890354700014878"><ele>150.2</ele><time>2026-04-06T07:34:36.964Z</time></trkpt><trkpt lat="44.20194983946812" lon="11.89048831361978"><ele>147.6</ele><time>2026-04-06T07:34:38.964Z</time></trkpt><trkpt lat="44.201995030025856" lon="11.89061699003516"><ele>145.0</ele><time>2026-04-06T07:34:40.964Z</time></trkpt><trkpt lat="44.20203309575847" lon="11.890727981922002"><ele>145.0</ele><time>2026-04-06T07:34:42.964Z</time></trkpt><trkpt lat="44.2020660737527" lon="11.890843381731987"><ele>145.0</ele><time>2026-04-06T07:34:44.964Z</time></trkpt><trkpt lat="44.202088566479134" lon="11.890991793030011"><ele>145.0</ele><time>2026-04-06T07:34:46.964Z</time></trkpt><trkpt lat="44.20210265368503" lon="11.891134142604455"><ele>145.0</ele><time>2026-04-06T07:34:48.964Z</time></trkpt><trkpt lat="44.20210992022382" lon="11.891268129300872"><ele>145.0</ele><time>2026-04-06T07:34:50.964Z</time></trkpt><trkpt lat="44.20211004895146" lon="11.891408855534674"><ele>142.2</ele><time>2026-04-06T07:34:52.964Z</time></trkpt><trkpt lat="44.20210675611112" lon="11.891534246320392"><ele>139.4</ele><time>2026-04-06T07:34:54.964Z</time></trkpt><trkpt lat="44.20210556692268" lon="11.891639231636473"><ele>136.6</ele><time>2026-04-06T07:34:56.964Z</time></trkpt><trkpt lat="44.20210231565973" lon="11.89177876114607"><ele>133.8</ele><time>2026-04-06T07:34:58.964Z</time></trkpt><trkpt lat="44.20210316541776" lon="11.891939021780088"><ele>131.0</ele><time>2026-04-06T07:35:00.964Z</time></trkpt><trkpt lat="44.2020967443917" lon="11.89209780780702"><ele>129.16666666666666</ele><time>2026-04-06T07:35:02.964Z</time></trkpt><trkpt lat="44.20209454277683" lon="11.892271365889584"><ele>127.33333333333333</ele><time>2026-04-06T07:35:04.964Z</time></trkpt><trkpt lat="44.20209314662198" lon="11.892366051357667"><ele>125.5</ele><time>2026-04-06T07:35:05.964Z</time></trkpt><trkpt lat="44.202091573148934" lon="11.89246034382555"><ele>123.66666666666666</ele><time>2026-04-06T07:35:06.964Z</time></trkpt><trkpt lat="44.20209152289619" lon="11.892553625657778"><ele>121.83333333333333</ele><time>2026-04-06T07:35:07.964Z</time></trkpt><trkpt lat="44.20208641400948" lon="11.892646619786392"><ele>120.0</ele><time>2026-04-06T07:35:08.964Z</time></trkpt><trkpt lat="44.20208346581609" lon="11.892810688084957"><ele>117.8</ele><time>2026-04-06T07:35:10.964Z</time></trkpt><trkpt lat="44.202085719355914" lon="11.892938216491384"><ele>115.6</ele><time>2026-04-06T07:35:12.964Z</time></trkpt><trkpt lat="44.20209011144548" lon="11.893049032473723"><ele>113.4</ele><time>2026-04-06T07:35:14.964Z</time></trkpt><trkpt lat="44.202123209320504" lon="11.893174403714216"><ele>111.2</ele><time>2026-04-06T07:35:16.964Z</time></trkpt><trkpt lat="44.20219795790728" lon="11.893274261259311"><ele>109.0</ele><time>2026-04-06T07:35:18.964Z</time></trkpt><trkpt lat="44.20227899550744" lon="11.893334764989707"><ele>109.00000000000001</ele><time>2026-04-06T07:35:20.964Z</time></trkpt><trkpt lat="44.20233305423535" lon="11.893398011156982"><ele>109.0</ele><time>2026-04-06T07:35:30.964Z</time></trkpt><trkpt lat="44.20232696959299" lon="11.8935193999469"><ele>109.0</ele><time>2026-04-06T07:35:34.963Z</time></trkpt><trkpt lat="44.20227132197806" lon="11.893619326047828"><ele>109.0</ele><time>2026-04-06T07:35:37.963Z</time></trkpt><trkpt lat="44.202242158786305" lon="11.893741896238254"><ele>109.00000000000001</ele><time>2026-04-06T07:35:41.963Z</time></trkpt><trkpt lat="44.20221696886486" lon="11.893849715235664"><ele>109.0</ele><time>2026-04-06T07:35:44.963Z</time></trkpt><trkpt lat="44.202196777236914" lon="11.893946795802666"><ele>107.33333333333334</ele><time>2026-04-06T07:35:47.963Z</time></trkpt><trkpt lat="44.20218603505729" lon="11.894039696862126"><ele>105.66666666666667</ele><time>2026-04-06T07:35:50.963Z</time></trkpt><trkpt lat="44.202164616306156" lon="11.894154414618923"><ele>104.0</ele><time>2026-04-06T07:35:53.962Z</time></trkpt><trkpt lat="44.202151275667134" lon="11.894266076316166"><ele>102.33333333333334</ele><time>2026-04-06T07:35:56.962Z</time></trkpt><trkpt lat="44.20213448016117" lon="11.894358922612426"><ele>100.66666666666667</ele><time>2026-04-06T07:35:58.962Z</time></trkpt><trkpt lat="44.20210913781142" lon="11.894470110019133"><ele>99.0</ele><time>2026-04-06T07:36:01.963Z</time></trkpt><trkpt lat="44.20209152416837" lon="11.894569659534836"><ele>97.33333333333333</ele><time>2026-04-06T07:36:04.962Z</time></trkpt><trkpt lat="44.20206814405991" lon="11.894667933884117"><ele>95.66666666666667</ele><time>2026-04-06T07:36:06.962Z</time></trkpt><trkpt lat="44.20204503436816" lon="11.894770137203112"><ele>94.0</ele><time>2026-04-06T07:36:08.962Z</time></trkpt><trkpt lat="44.202018041755515" lon="11.894884822230658"><ele>92.33333333333334</ele><time>2026-04-06T07:36:11.962Z</time></trkpt><trkpt lat="44.20199612607451" lon="11.894998409920476"><ele>90.66666666666667</ele><time>2026-04-06T07:36:14.962Z</time></trkpt><trkpt lat="44.201975926635214" lon="11.895092336503009"><ele>89.0</ele><time>2026-04-06T07:36:17.962Z</time></trkpt><trkpt lat="44.20192434749756" lon="11.895164174298186"><ele>89.0</ele><time>2026-04-06T07:36:24.961Z</time></trkpt><trkpt lat="44.201797243334106" lon="11.895120084111683"><ele>89.0</ele><time>2026-04-06T07:36:26.961Z</time></trkpt><trkpt lat="44.20172810709906" lon="11.895086792298217"><ele>89.0</ele><time>2026-04-06T07:36:27.961Z</time></trkpt><trkpt lat="44.20164973572215" lon="11.895053087190913"><ele>89.0</ele><time>2026-04-06T07:36:28.961Z</time></trkpt><trkpt lat="44.2015746456963" lon="11.895009558623158"><ele>89.0</ele><time>2026-04-06T07:36:29.961Z</time></trkpt><trkpt lat="44.20149446176308" lon="11.89496349172093"><ele>89.0</ele><time>2026-04-06T07:36:30.961Z</time></trkpt><trkpt lat="44.2014106175226" lon="11.89490450909667"><ele>89.0</ele><time>2026-04-06T07:36:31.961Z</time></trkpt><trkpt lat="44.20132630275312" lon="11.89484383303383"><ele>89.0</ele><time>2026-04-06T07:36:32.961Z</time></trkpt><trkpt lat="44.20123546844786" lon="11.894768574295675"><ele>89.0</ele><time>2026-04-06T07:36:33.961Z</time></trkpt><trkpt lat="44.20114667012737" lon="11.894698275122638"><ele>89.0</ele><time>2026-04-06T07:36:34.961Z</time></trkpt><trkpt lat="44.20105164449748" lon="11.894640138662115"><ele>89.0</ele><time>2026-04-06T07:36:35.961Z</time></trkpt><trkpt lat="44.20094339268385" lon="11.89459232434346"><ele>89.0</ele><time>2026-04-06T07:36:36.961Z</time></trkpt><trkpt lat="44.20082429680999" lon="11.894559479956603"><ele>89.0</ele><time>2026-04-06T07:36:37.961Z</time></trkpt><trkpt lat="44.20069977847931" lon="11.894529841843337"><ele>89.0</ele><time>2026-04-06T07:36:38.961Z</time></trkpt><trkpt lat="44.20056965678503" lon="11.894494585764507"><ele>89.25</ele><time>2026-04-06T07:36:39.961Z</time></trkpt><trkpt lat="44.20043295920288" lon="11.894465692543122"><ele>89.5</ele><time>2026-04-06T07:36:40.961Z</time></trkpt><trkpt lat="44.20029372123672" lon="11.894443727697723"><ele>89.75</ele><time>2026-04-06T07:36:41.961Z</time></trkpt><trkpt lat="44.200153058341456" lon="11.894420367301763"><ele>90.0</ele><time>2026-04-06T07:36:42.961Z</time></trkpt><trkpt lat="44.20000938902033" lon="11.894394183540845"><ele>90.0</ele><time>2026-04-06T07:36:43.961Z</time></trkpt><trkpt lat="44.199859020216444" lon="11.894377590401648"><ele>90.0</ele><time>2026-04-06T07:36:44.961Z</time></trkpt><trkpt lat="44.19970318065361" lon="11.89437430679518"><ele>90.0</ele><time>2026-04-06T07:36:45.961Z</time></trkpt><trkpt lat="44.19954432123288" lon="11.894379409081946"><ele>90.0</ele><time>2026-04-06T07:36:46.961Z</time></trkpt><trkpt lat="44.19938464863976" lon="11.894381898787575"><ele>90.0</ele><time>2026-04-06T07:36:47.961Z</time></trkpt><trkpt lat="44.19922097157614" lon="11.894375870069311"><ele>90.0</ele><time>2026-04-06T07:36:48.961Z</time></trkpt><trkpt lat="44.19906218878859" lon="11.894366115703951"><ele>90.66666666666667</ele><time>2026-04-06T07:36:49.961Z</time></trkpt><trkpt lat="44.198901788880306" lon="11.89435266303434"><ele>91.33333333333334</ele><time>2026-04-06T07:36:50.961Z</time></trkpt><trkpt lat="44.19874481796734" lon="11.894337592583623"><ele>92.0</ele><time>2026-04-06T07:36:51.961Z</time></trkpt><trkpt lat="44.198596100767006" lon="11.894325027311336"><ele>92.0</ele><time>2026-04-06T07:36:52.961Z</time></trkpt><trkpt lat="44.19845318137121" lon="11.894314114884166"><ele>92.0</ele><time>2026-04-06T07:36:53.961Z</time></trkpt><trkpt lat="44.19831504151364" lon="11.89430531547729"><ele>92.0</ele><time>2026-04-06T07:36:54.961Z</time></trkpt><trkpt lat="44.19818008194512" lon="11.894298280313054"><ele>92.0</ele><time>2026-04-06T07:36:55.961Z</time></trkpt><trkpt lat="44.19804706669026" lon="11.894301370392117"><ele>92.0</ele><time>2026-04-06T07:36:56.961Z</time></trkpt><trkpt lat="44.19791432736145" lon="11.894318570751969"><ele>92.0</ele><time>2026-04-06T07:36:57.961Z</time></trkpt><trkpt lat="44.197784309655184" lon="11.894356919165086"><ele>92.0</ele><time>2026-04-06T07:36:58.961Z</time></trkpt><trkpt lat="44.19765186060583" lon="11.894424676558573"><ele>92.0</ele><time>2026-04-06T07:36:59.961Z</time></trkpt><trkpt lat="44.19752458517939" lon="11.894494437788865"><ele>92.0</ele><time>2026-04-06T07:37:00.961Z</time></trkpt><trkpt lat="44.19740689685246" lon="11.894560576871468"><ele>92.0</ele><time>2026-04-06T07:37:01.961Z</time></trkpt><trkpt lat="44.19729277266314" lon="11.894616114780366"><ele>92.0</ele><time>2026-04-06T07:37:02.961Z</time></trkpt><trkpt lat="44.197186533129376" lon="11.894665395708422"><ele>92.0</ele><time>2026-04-06T07:37:03.961Z</time></trkpt><trkpt lat="44.197079522826165" lon="11.894712352559031"><ele>91.5</ele><time>2026-04-06T07:37:04.961Z</time></trkpt><trkpt lat="44.19695731453149" lon="11.894740824886444"><ele>91.0</ele><time>2026-04-06T07:37:05.961Z</time></trkpt><trkpt lat="44.19682349588377" lon="11.894750970251438"><ele>90.5</ele><time>2026-04-06T07:37:06.961Z</time></trkpt><trkpt lat="44.19668335801226" lon="11.894751993479533"><ele>90.0</ele><time>2026-04-06T07:37:07.961Z</time></trkpt><trkpt lat="44.19655298529678" lon="11.894758945616669"><ele>90.6</ele><time>2026-04-06T07:37:08.961Z</time></trkpt><trkpt lat="44.196434382345196" lon="11.894767330687257"><ele>91.2</ele><time>2026-04-06T07:37:09.961Z</time></trkpt><trkpt lat="44.196330784651074" lon="11.894799325286243"><ele>91.80000000000001</ele><time>2026-04-06T07:37:10.961Z</time></trkpt><trkpt lat="44.196234021276986" lon="11.89486014884031"><ele>92.4</ele><time>2026-04-06T07:37:11.961Z</time></trkpt><trkpt lat="44.19614556125376" lon="11.894949297619632"><ele>93.0</ele><time>2026-04-06T07:37:12.961Z</time></trkpt><trkpt lat="44.19606704522151" lon="11.89507329128279"><ele>92.80000000000001</ele><time>2026-04-06T07:37:13.961Z</time></trkpt><trkpt lat="44.19600015083951" lon="11.895201840819517"><ele>92.6</ele><time>2026-04-06T07:37:14.961Z</time></trkpt><trkpt lat="44.19594330083021" lon="11.895308509843787"><ele>92.4</ele><time>2026-04-06T07:37:15.961Z</time></trkpt><trkpt lat="44.19589917697835" lon="11.895414534762095"><ele>92.19999999999999</ele><time>2026-04-06T07:37:16.961Z</time></trkpt><trkpt lat="44.19585441305694" lon="11.895508342328844"><ele>92.0</ele><time>2026-04-06T07:37:17.961Z</time></trkpt><trkpt lat="44.19580724333553" lon="11.895602167452994"><ele>92.0</ele><time>2026-04-06T07:37:18.961Z</time></trkpt><trkpt lat="44.19575672948511" lon="11.89571865838337"><ele>92.0</ele><time>2026-04-06T07:37:19.961Z</time></trkpt><trkpt lat="44.19570841190193" lon="11.89585466434791"><ele>92.0</ele><time>2026-04-06T07:37:20.961Z</time></trkpt><trkpt lat="44.195666966087714" lon="11.89600237531937"><ele>92.0</ele><time>2026-04-06T07:37:21.961Z</time></trkpt><trkpt lat="44.19563375850576" lon="11.896157493142024"><ele>92.0</ele><time>2026-04-06T07:37:22.961Z</time></trkpt><trkpt lat="44.19560597324238" lon="11.896321997852514"><ele>93.75</ele><time>2026-04-06T07:37:23.961Z</time></trkpt><trkpt lat="44.19557448620492" lon="11.89649664395876"><ele>95.5</ele><time>2026-04-06T07:37:24.961Z</time></trkpt><trkpt lat="44.195547132946686" lon="11.89668619283609"><ele>97.25</ele><time>2026-04-06T07:37:25.961Z</time></trkpt><trkpt lat="44.195517338032424" lon="11.896875407480437"><ele>99.0</ele><time>2026-04-06T07:37:26.961Z</time></trkpt><trkpt lat="44.1954893706821" lon="11.897047178305465"><ele>100.0</ele><time>2026-04-06T07:37:27.961Z</time></trkpt><trkpt lat="44.19545243242817" lon="11.897186435773987"><ele>101.0</ele><time>2026-04-06T07:37:28.961Z</time></trkpt><trkpt lat="44.19541415607061" lon="11.89730179696122"><ele>102.0</ele><time>2026-04-06T07:37:29.961Z</time></trkpt><trkpt lat="44.19536674109091" lon="11.89740125916659"><ele>103.0</ele><time>2026-04-06T07:37:30.961Z</time></trkpt><trkpt lat="44.19530323031948" lon="11.89748292531038"><ele>104.0</ele><time>2026-04-06T07:37:31.961Z</time></trkpt><trkpt lat="44.19522207208252" lon="11.897532625841958"><ele>103.99999999999999</ele><time>2026-04-06T07:37:32.961Z</time></trkpt><trkpt lat="44.195136226163626" lon="11.89756525943456"><ele>104.0</ele><time>2026-04-06T07:37:33.961Z</time></trkpt><trkpt lat="44.19505993545577" lon="11.89758132616457"><ele>104.0</ele><time>2026-04-06T07:37:34.961Z</time></trkpt><trkpt lat="44.194980869107226" lon="11.897603955300408"><ele>104.0</ele><time>2026-04-06T07:37:36.961Z</time></trkpt><trkpt lat="44.19497489428588" lon="11.897733083418592"><ele>103.99999999999999</ele><time>2026-04-06T07:37:38.961Z</time></trkpt><trkpt lat="44.19497670163309" lon="11.897852309839129"><ele>104.0</ele><time>2026-04-06T07:37:39.961Z</time></trkpt><trkpt lat="44.19497343699656" lon="11.897984073274804"><ele>105.5</ele><time>2026-04-06T07:37:40.961Z</time></trkpt><trkpt lat="44.194971230245855" lon="11.898133838998419"><ele>107.0</ele><time>2026-04-06T07:37:41.961Z</time></trkpt><trkpt lat="44.19496162988147" lon="11.898290948457422"><ele>108.5</ele><time>2026-04-06T07:37:42.961Z</time></trkpt><trkpt lat="44.19495407792118" lon="11.898454890762098"><ele>110.0</ele><time>2026-04-06T07:37:43.961Z</time></trkpt><trkpt lat="44.194942025088764" lon="11.898616896669804"><ele>112.25</ele><time>2026-04-06T07:37:44.961Z</time></trkpt><trkpt lat="44.194930986265106" lon="11.898781120909986"><ele>114.5</ele><time>2026-04-06T07:37:45.961Z</time></trkpt><trkpt lat="44.19491770504373" lon="11.898950216160149"><ele>116.75</ele><time>2026-04-06T07:37:46.961Z</time></trkpt><trkpt lat="44.194899372995756" lon="11.899126571893909"><ele>119.0</ele><time>2026-04-06T07:37:47.961Z</time></trkpt><trkpt lat="44.19488959644448" lon="11.899299480170292"><ele>120.75</ele><time>2026-04-06T07:37:48.961Z</time></trkpt><trkpt lat="44.19489195215244" lon="11.899478868629071"><ele>122.5</ele><time>2026-04-06T07:37:49.961Z</time></trkpt><trkpt lat="44.194896797217076" lon="11.899649724437245"><ele>124.25</ele><time>2026-04-06T07:37:50.961Z</time></trkpt><trkpt lat="44.19491594032148" lon="11.899811842128589"><ele>126.0</ele><time>2026-04-06T07:37:51.961Z</time></trkpt><trkpt lat="44.19493906827984" lon="11.899971419054939"><ele>128.0</ele><time>2026-04-06T07:37:52.961Z</time></trkpt><trkpt lat="44.19496241638724" lon="11.900104162234657"><ele>130.0</ele><time>2026-04-06T07:37:53.961Z</time></trkpt><trkpt lat="44.19498048686163" lon="11.90021006817708"><ele>132.0</ele><time>2026-04-06T07:37:54.961Z</time></trkpt><trkpt lat="44.194979217808665" lon="11.90035616330701"><ele>134.0</ele><time>2026-04-06T07:37:56.961Z</time></trkpt><trkpt lat="44.19489301821925" lon="11.90047208874209"><ele>136.0</ele><time>2026-04-06T07:37:58.961Z</time></trkpt><trkpt lat="44.19482121823311" lon="11.900482804320175"><ele>136.0</ele><time>2026-04-06T07:37:59.96Z</time></trkpt><trkpt lat="44.19473371709116" lon="11.90045434274794"><ele>136.0</ele><time>2026-04-06T07:38:00.96Z</time></trkpt><trkpt lat="44.19464151447878" lon="11.900412202821078"><ele>136.0</ele><time>2026-04-06T07:38:01.96Z</time></trkpt><trkpt lat="44.19456104590939" lon="11.900396184156147"><ele>136.0</ele><time>2026-04-06T07:38:02.959Z</time></trkpt><trkpt lat="44.19445979559966" lon="11.90046376859721"><ele>136.0</ele><time>2026-04-06T07:38:04.96Z</time></trkpt><trkpt lat="44.194389816336944" lon="11.900600950844636"><ele>136.0</ele><time>2026-04-06T07:38:06.96Z</time></trkpt><trkpt lat="44.1943603614997" lon="11.900694625320842"><ele>136.0</ele><time>2026-04-06T07:38:07.96Z</time></trkpt><trkpt lat="44.19434491641822" lon="11.90080213152136"><ele>136.0</ele><time>2026-04-06T07:38:08.96Z</time></trkpt><trkpt lat="44.19435777344401" lon="11.900912796293486"><ele>136.0</ele><time>2026-04-06T07:38:09.96Z</time></trkpt><trkpt lat="44.19440250926743" lon="11.901002558332708"><ele>136.0</ele><time>2026-04-06T07:38:10.96Z</time></trkpt><trkpt lat="44.194476988969996" lon="11.901092862971788"><ele>136.0</ele><time>2026-04-06T07:38:11.96Z</time></trkpt><trkpt lat="44.1945661517111" lon="11.90118560884491"><ele>137.83333333333334</ele><time>2026-04-06T07:38:12.959Z</time></trkpt><trkpt lat="44.19465281633806" lon="11.901282644944223"><ele>139.66666666666669</ele><time>2026-04-06T07:38:13.959Z</time></trkpt><trkpt lat="44.194732727124254" lon="11.901373849684603"><ele>141.5</ele><time>2026-04-06T07:38:14.959Z</time></trkpt><trkpt lat="44.19478912545504" lon="11.90145705789908"><ele>143.33333333333334</ele><time>2026-04-06T07:38:15.959Z</time></trkpt><trkpt lat="44.19481542407598" lon="11.901549623852024"><ele>145.16666666666666</ele><time>2026-04-06T07:38:16.959Z</time></trkpt><trkpt lat="44.19482480700566" lon="11.901655787080971"><ele>147.0</ele><time>2026-04-06T07:38:17.959Z</time></trkpt><trkpt lat="44.194789050890066" lon="11.901768760295777"><ele>149.8</ele><time>2026-04-06T07:38:18.959Z</time></trkpt><trkpt lat="44.194734433978375" lon="11.901884100390696"><ele>152.6</ele><time>2026-04-06T07:38:19.959Z</time></trkpt><trkpt lat="44.194696688094496" lon="11.902020304888678"><ele>155.4</ele><time>2026-04-06T07:38:20.959Z</time></trkpt><trkpt lat="44.194675777111634" lon="11.90218060800654"><ele>158.20000000000002</ele><time>2026-04-06T07:38:21.959Z</time></trkpt><trkpt lat="44.194648105898054" lon="11.902346616755164"><ele>161.0</ele><time>2026-04-06T07:38:22.959Z</time></trkpt><trkpt lat="44.19460977859613" lon="11.902509879837908"><ele>164.75</ele><time>2026-04-06T07:38:23.959Z</time></trkpt><trkpt lat="44.19456824334244" lon="11.90268044759018"><ele>168.5</ele><time>2026-04-06T07:38:24.959Z</time></trkpt><trkpt lat="44.19452331119972" lon="11.902846256301423"><ele>172.25</ele><time>2026-04-06T07:38:25.959Z</time></trkpt><trkpt lat="44.194476282149445" lon="11.902984239731602"><ele>176.0</ele><time>2026-04-06T07:38:26.959Z</time></trkpt><trkpt lat="44.19443819617696" lon="11.903097070448727"><ele>176.0</ele><time>2026-04-06T07:38:27.959Z</time></trkpt><trkpt lat="44.194421255028054" lon="11.90319766478471"><ele>176.0</ele><time>2026-04-06T07:38:28.959Z</time></trkpt><trkpt lat="44.194432027742714" lon="11.903295712773145"><ele>176.0</ele><time>2026-04-06T07:38:29.959Z</time></trkpt><trkpt lat="44.194465370363254" lon="11.903381595701642"><ele>176.0</ele><time>2026-04-06T07:38:30.959Z</time></trkpt><trkpt lat="44.194523529820245" lon="11.903433294246105"><ele>176.0</ele><time>2026-04-06T07:38:31.959Z</time></trkpt><trkpt lat="44.194593886574715" lon="11.90343625992188"><ele>176.0</ele><time>2026-04-06T07:38:32.959Z</time></trkpt><trkpt lat="44.19465852123118" lon="11.9033804851467"><ele>176.0</ele><time>2026-04-06T07:38:33.959Z</time></trkpt><trkpt lat="44.194722344739" lon="11.903275887756228"><ele>176.0</ele><time>2026-04-06T07:38:34.959Z</time></trkpt><trkpt lat="44.19479471353835" lon="11.903179554296015"><ele>176.0</ele><time>2026-04-06T07:38:35.959Z</time></trkpt><trkpt lat="44.194886447348374" lon="11.903077060376948"><ele>176.0</ele><time>2026-04-06T07:38:36.959Z</time></trkpt><trkpt lat="44.194987910223375" lon="11.90299879871306"><ele>176.0</ele><time>2026-04-06T07:38:37.959Z</time></trkpt><trkpt lat="44.19508603203327" lon="11.902947495708606"><ele>176.0</ele><time>2026-04-06T07:38:38.959Z</time></trkpt><trkpt lat="44.19518274083076" lon="11.902943362152133"><ele>176.66666666666666</ele><time>2026-04-06T07:38:39.959Z</time></trkpt><trkpt lat="44.19526321677477" lon="11.902969848105771"><ele>177.33333333333331</ele><time>2026-04-06T07:38:40.959Z</time></trkpt><trkpt lat="44.19532086145012" lon="11.903012301510465"><ele>178.0</ele><time>2026-04-06T07:38:41.959Z</time></trkpt><trkpt lat="44.19534852232027" lon="11.903118798831963"><ele>178.66666666666666</ele><time>2026-04-06T07:38:43.959Z</time></trkpt><trkpt lat="44.195275280085504" lon="11.90321638926197"><ele>179.33333333333334</ele><time>2026-04-06T07:38:45.959Z</time></trkpt><trkpt lat="44.195202818247886" lon="11.90324192166732"><ele>180.0</ele><time>2026-04-06T07:38:46.959Z</time></trkpt><trkpt lat="44.19512240878858" lon="11.903296320752188"><ele>180.0</ele><time>2026-04-06T07:38:47.959Z</time></trkpt><trkpt lat="44.19505606416497" lon="11.903369490178594"><ele>180.0</ele><time>2026-04-06T07:38:48.959Z</time></trkpt><trkpt lat="44.19501464965238" lon="11.903442841159151"><ele>180.0</ele><time>2026-04-06T07:38:49.959Z</time></trkpt><trkpt lat="44.195006272313485" lon="11.903566752831868"><ele>180.0</ele><time>2026-04-06T07:38:51.959Z</time></trkpt><trkpt lat="44.195114086388195" lon="11.903635066530255"><ele>180.0</ele><time>2026-04-06T07:38:53.959Z</time></trkpt><trkpt lat="44.195198316305074" lon="11.903613071955418"><ele>180.0</ele><time>2026-04-06T07:38:54.959Z</time></trkpt><trkpt lat="44.195289437681325" lon="11.903566831518853"><ele>183.2</ele><time>2026-04-06T07:38:55.959Z</time></trkpt><trkpt lat="44.195384002384934" lon="11.903545174311207"><ele>186.4</ele><time>2026-04-06T07:38:56.959Z</time></trkpt><trkpt lat="44.195491244926686" lon="11.903560346019779"><ele>189.60000000000002</ele><time>2026-04-06T07:38:57.959Z</time></trkpt><trkpt lat="44.19559854285566" lon="11.903601759379658"><ele>192.8</ele><time>2026-04-06T07:38:58.959Z</time></trkpt><trkpt lat="44.195710418904795" lon="11.903641344720759"><ele>196.0</ele><time>2026-04-06T07:38:59.959Z</time></trkpt><trkpt lat="44.19582509646434" lon="11.903683324933994"><ele>197.0</ele><time>2026-04-06T07:39:00.959Z</time></trkpt><trkpt lat="44.195944191381855" lon="11.903699756854822"><ele>198.0</ele><time>2026-04-06T07:39:01.959Z</time></trkpt><trkpt lat="44.19606963684915" lon="11.903709188338842"><ele>199.0</ele><time>2026-04-06T07:39:02.959Z</time></trkpt><trkpt lat="44.19618443259794" lon="11.903712620324884"><ele>200.0</ele><time>2026-04-06T07:39:03.959Z</time></trkpt><trkpt lat="44.196270682828796" lon="11.903713959830272"><ele>201.0</ele><time>2026-04-06T07:39:04.959Z</time></trkpt><trkpt lat="44.19636957605846" lon="11.903739014110316"><ele>201.0</ele><time>2026-04-06T07:39:06.959Z</time></trkpt><trkpt lat="44.19638374653872" lon="11.903856838520213"><ele>201.0</ele><time>2026-04-06T07:39:09.959Z</time></trkpt><trkpt lat="44.19629275455173" lon="11.903910500514648"><ele>201.0</ele><time>2026-04-06T07:39:11.959Z</time></trkpt><trkpt lat="44.19621407666673" lon="11.903912118839989"><ele>201.0</ele><time>2026-04-06T07:39:12.959Z</time></trkpt><trkpt lat="44.19611995698115" lon="11.903911745099863"><ele>201.0</ele><time>2026-04-06T07:39:13.959Z</time></trkpt><trkpt lat="44.1960118186741" lon="11.90392766634879"><ele>201.0</ele><time>2026-04-06T07:39:14.959Z</time></trkpt><trkpt lat="44.195889752370114" lon="11.90395840588977"><ele>201.0</ele><time>2026-04-06T07:39:15.959Z</time></trkpt><trkpt lat="44.19576026586217" lon="11.903994894594895"><ele>201.0</ele><time>2026-04-06T07:39:16.959Z</time></trkpt><trkpt lat="44.19562455828153" lon="11.904037585108927"><ele>201.0</ele><time>2026-04-06T07:39:17.959Z</time></trkpt><trkpt lat="44.19548519978469" lon="11.904078706366956"><ele>199.75</ele><time>2026-04-06T07:39:18.959Z</time></trkpt><trkpt lat="44.19535023628022" lon="11.904126613723351"><ele>198.5</ele><time>2026-04-06T07:39:19.959Z</time></trkpt><trkpt lat="44.19522096416313" lon="11.904177206498021"><ele>197.25</ele><time>2026-04-06T07:39:20.959Z</time></trkpt><trkpt lat="44.19510097251596" lon="11.904238964450894"><ele>196.0</ele><time>2026-04-06T07:39:21.959Z</time></trkpt><trkpt lat="44.194987254295874" lon="11.90431384509296"><ele>195.20000000000002</ele><time>2026-04-06T07:39:22.959Z</time></trkpt><trkpt lat="44.19487697241716" lon="11.904371855992002"><ele>194.4</ele><time>2026-04-06T07:39:23.959Z</time></trkpt><trkpt lat="44.19476986076622" lon="11.90443770912401"><ele>193.6</ele><time>2026-04-06T07:39:24.959Z</time></trkpt><trkpt lat="44.19467466620036" lon="11.904497085604321"><ele>192.8</ele><time>2026-04-06T07:39:25.959Z</time></trkpt><trkpt lat="44.194592727865114" lon="11.904574288173663"><ele>192.0</ele><time>2026-04-06T07:39:26.959Z</time></trkpt><trkpt lat="44.194499361020625" lon="11.90464627719192"><ele>193.0</ele><time>2026-04-06T07:39:27.959Z</time></trkpt><trkpt lat="44.19440169972273" lon="11.904755153686915"><ele>194.0</ele><time>2026-04-06T07:39:28.959Z</time></trkpt><trkpt lat="44.19431159878386" lon="11.90488628311065"><ele>195.0</ele><time>2026-04-06T07:39:29.959Z</time></trkpt><trkpt lat="44.194222123294786" lon="11.905033640867295"><ele>196.0</ele><time>2026-04-06T07:39:30.959Z</time></trkpt><trkpt lat="44.19414553365958" lon="11.905185779861737"><ele>196.0</ele><time>2026-04-06T07:39:31.959Z</time></trkpt><trkpt lat="44.19406853443729" lon="11.905352116204792"><ele>196.0</ele><time>2026-04-06T07:39:32.959Z</time></trkpt><trkpt lat="44.19398496222401" lon="11.905530067571641"><ele>196.0</ele><time>2026-04-06T07:39:33.959Z</time></trkpt><trkpt lat="44.1938976659367" lon="11.905691803521936"><ele>196.0</ele><time>2026-04-06T07:39:34.959Z</time></trkpt><trkpt lat="44.193813486208356" lon="11.90583255439167"><ele>199.20000000000002</ele><time>2026-04-06T07:39:35.959Z</time></trkpt><trkpt lat="44.19373628909095" lon="11.905955714132539"><ele>202.4</ele><time>2026-04-06T07:39:36.959Z</time></trkpt><trkpt lat="44.1936707576643" lon="11.906070247980988"><ele>205.6</ele><time>2026-04-06T07:39:37.959Z</time></trkpt><trkpt lat="44.193620986443335" lon="11.90617399892518"><ele>208.8</ele><time>2026-04-06T07:39:38.959Z</time></trkpt><trkpt lat="44.193586297854274" lon="11.906269149681869"><ele>212.0</ele><time>2026-04-06T07:39:39.959Z</time></trkpt><trkpt lat="44.19356832565327" lon="11.906360969006691"><ele>212.00000000000003</ele><time>2026-04-06T07:39:40.959Z</time></trkpt><trkpt lat="44.193572483260404" lon="11.90645525835899"><ele>212.0</ele><time>2026-04-06T07:39:41.959Z</time></trkpt><trkpt lat="44.193600973917476" lon="11.906550877204984"><ele>212.0</ele><time>2026-04-06T07:39:42.959Z</time></trkpt><trkpt lat="44.193627379072566" lon="11.906643634079648"><ele>212.0</ele><time>2026-04-06T07:39:43.959Z</time></trkpt><trkpt lat="44.19366604566934" lon="11.906740797738685"><ele>212.00000000000003</ele><time>2026-04-06T07:39:44.959Z</time></trkpt><trkpt lat="44.19371770931737" lon="11.906847977965272"><ele>212.0</ele><time>2026-04-06T07:39:45.959Z</time></trkpt><trkpt lat="44.19378213528822" lon="11.906969764999564"><ele>211.6</ele><time>2026-04-06T07:39:46.959Z</time></trkpt><trkpt lat="44.193859965036985" lon="11.907110041161983"><ele>211.2</ele><time>2026-04-06T07:39:47.959Z</time></trkpt><trkpt lat="44.19393469436209" lon="11.90725613193496"><ele>210.8</ele><time>2026-04-06T07:39:48.959Z</time></trkpt><trkpt lat="44.193996426510026" lon="11.907380194782899"><ele>210.4</ele><time>2026-04-06T07:39:49.959Z</time></trkpt><trkpt lat="44.19404312526105" lon="11.907479119424476"><ele>210.0</ele><time>2026-04-06T07:39:50.959Z</time></trkpt><trkpt lat="44.19409363005935" lon="11.907605780979825"><ele>210.0</ele><time>2026-04-06T07:39:52.959Z</time></trkpt><trkpt lat="44.19416744337247" lon="11.907695640574085"><ele>210.0</ele><time>2026-04-06T07:39:54.959Z</time></trkpt><trkpt lat="44.19422832101527" lon="11.907747612751624"><ele>210.0</ele><time>2026-04-06T07:39:55.959Z</time></trkpt><trkpt lat="44.19429267627918" lon="11.907823975121312"><ele>210.0</ele><time>2026-04-06T07:39:56.959Z</time></trkpt><trkpt lat="44.19435766508188" lon="11.907893662479124"><ele>210.0</ele><time>2026-04-06T07:39:57.959Z</time></trkpt><trkpt lat="44.194418284435464" lon="11.907964542029186"><ele>210.0</ele><time>2026-04-06T07:39:58.959Z</time></trkpt><trkpt lat="44.19447820717577" lon="11.908037508934068"><ele>210.0</ele><time>2026-04-06T07:39:59.959Z</time></trkpt><trkpt lat="44.194537556383125" lon="11.908102825854883"><ele>210.0</ele><time>2026-04-06T07:40:00.959Z</time></trkpt><trkpt lat="44.19460118861139" lon="11.908177773370442"><ele>210.0</ele><time>2026-04-06T07:40:01.959Z</time></trkpt><trkpt lat="44.19467153954535" lon="11.908254219497522"><ele>210.0</ele><time>2026-04-06T07:40:02.959Z</time></trkpt><trkpt lat="44.19474443775322" lon="11.908335563339865"><ele>210.0</ele><time>2026-04-06T07:40:03.959Z</time></trkpt><trkpt lat="44.19481001311473" lon="11.908404892567768"><ele>210.0</ele><time>2026-04-06T07:40:04.959Z</time></trkpt><trkpt lat="44.194864482927166" lon="11.90846897462734"><ele>210.33333333333334</ele><time>2026-04-06T07:40:05.958Z</time></trkpt><trkpt lat="44.19491304828278" lon="11.908528519194935"><ele>210.66666666666669</ele><time>2026-04-06T07:40:06.957Z</time></trkpt><trkpt lat="44.19496588848961" lon="11.908590584439729"><ele>211.0</ele><time>2026-04-06T07:40:07.957Z</time></trkpt><trkpt lat="44.19505779209759" lon="11.908709599976483"><ele>211.33333333333334</ele><time>2026-04-06T07:40:09.958Z</time></trkpt><trkpt lat="44.19512719965719" lon="11.908829230242615"><ele>211.66666666666669</ele><time>2026-04-06T07:40:11.957Z</time></trkpt><trkpt lat="44.195170180082684" lon="11.908900355219012"><ele>212.0</ele><time>2026-04-06T07:40:12.957Z</time></trkpt><trkpt lat="44.19525309681876" lon="11.909032947515806"><ele>212.0</ele><time>2026-04-06T07:40:14.957Z</time></trkpt><trkpt lat="44.19533900622538" lon="11.909153143056503"><ele>212.0</ele><time>2026-04-06T07:40:16.957Z</time></trkpt><trkpt lat="44.19539454365262" lon="11.909259501524657"><ele>212.0</ele><time>2026-04-06T07:40:18.957Z</time></trkpt><trkpt lat="44.19546356613363" lon="11.909388562122475"><ele>212.0</ele><time>2026-04-06T07:40:20.957Z</time></trkpt><trkpt lat="44.19551946887696" lon="11.909540400023388"><ele>211.14285714285714</ele><time>2026-04-06T07:40:22.957Z</time></trkpt><trkpt lat="44.19554120054543" lon="11.909634966682932"><ele>210.28571428571428</ele><time>2026-04-06T07:40:23.957Z</time></trkpt><trkpt lat="44.195561465264824" lon="11.909732234818874"><ele>209.42857142857142</ele><time>2026-04-06T07:40:24.957Z</time></trkpt><trkpt lat="44.195586344152346" lon="11.909823469386462"><ele>208.57142857142856</ele><time>2026-04-06T07:40:25.957Z</time></trkpt><trkpt lat="44.19561372619633" lon="11.909909816125017"><ele>207.71428571428572</ele><time>2026-04-06T07:40:26.957Z</time></trkpt><trkpt lat="44.195645578277095" lon="11.909989790724556"><ele>206.85714285714283</ele><time>2026-04-06T07:40:27.957Z</time></trkpt><trkpt lat="44.19569069202503" lon="11.910056899014686"><ele>206.0</ele><time>2026-04-06T07:40:28.957Z</time></trkpt><trkpt lat="44.195746739319674" lon="11.910125508233955"><ele>204.66666666666669</ele><time>2026-04-06T07:40:29.957Z</time></trkpt><trkpt lat="44.19581282289035" lon="11.910201874907994"><ele>203.33333333333334</ele><time>2026-04-06T07:40:30.957Z</time></trkpt><trkpt lat="44.195878145220355" lon="11.910281931796904"><ele>202.0</ele><time>2026-04-06T07:40:31.957Z</time></trkpt><trkpt lat="44.19593565271748" lon="11.910353813296227"><ele>200.66666666666669</ele><time>2026-04-06T07:40:32.957Z</time></trkpt><trkpt lat="44.195991097315584" lon="11.91042241697956"><ele>199.33333333333334</ele><time>2026-04-06T07:40:33.957Z</time></trkpt><trkpt lat="44.19604923880097" lon="11.910495606599648"><ele>198.0</ele><time>2026-04-06T07:40:34.957Z</time></trkpt><trkpt lat="44.196107953595174" lon="11.910574507226785"><ele>198.0</ele><time>2026-04-06T07:40:35.957Z</time></trkpt><trkpt lat="44.19616898162286" lon="11.910659106039132"><ele>198.0</ele><time>2026-04-06T07:40:36.957Z</time></trkpt><trkpt lat="44.19623278674192" lon="11.910742515911512"><ele>198.0</ele><time>2026-04-06T07:40:37.957Z</time></trkpt><trkpt lat="44.19629170669614" lon="11.910831136637235"><ele>198.0</ele><time>2026-04-06T07:40:38.957Z</time></trkpt><trkpt lat="44.19634886383886" lon="11.910910494037685"><ele>198.0</ele><time>2026-04-06T07:40:39.957Z</time></trkpt><trkpt lat="44.196415165516306" lon="11.910995275141218"><ele>198.0</ele><time>2026-04-06T07:40:40.957Z</time></trkpt><trkpt lat="44.196473070648885" lon="11.911076198906217"><ele>197.60000000000002</ele><time>2026-04-06T07:40:41.957Z</time></trkpt><trkpt lat="44.19653482153054" lon="11.911159484229682"><ele>197.20000000000002</ele><time>2026-04-06T07:40:42.957Z</time></trkpt><trkpt lat="44.19660225528461" lon="11.911255520485131"><ele>196.8</ele><time>2026-04-06T07:40:43.957Z</time></trkpt><trkpt lat="44.19666724219577" lon="11.911339327912296"><ele>196.4</ele><time>2026-04-06T07:40:44.957Z</time></trkpt><trkpt lat="44.196740963956806" lon="11.911426896364542"><ele>196.0</ele><time>2026-04-06T07:40:45.957Z</time></trkpt><trkpt lat="44.19680746733174" lon="11.911509682482707"><ele>195.99999999999997</ele><time>2026-04-06T07:40:46.957Z</time></trkpt><trkpt lat="44.19686428280831" lon="11.911585090461433"><ele>196.0</ele><time>2026-04-06T07:40:47.957Z</time></trkpt><trkpt lat="44.19691907898544" lon="11.911658223168622"><ele>196.0</ele><time>2026-04-06T07:40:48.957Z</time></trkpt><trkpt lat="44.19697683484023" lon="11.911729082541068"><ele>196.0</ele><time>2026-04-06T07:40:49.957Z</time></trkpt><trkpt lat="44.19703905488078" lon="11.911803590014586"><ele>195.99999999999997</ele><time>2026-04-06T07:40:50.957Z</time></trkpt><trkpt lat="44.19710235040885" lon="11.911885707887812"><ele>196.0</ele><time>2026-04-06T07:40:51.957Z</time></trkpt><trkpt lat="44.19717016754058" lon="11.91197937293785"><ele>196.8</ele><time>2026-04-06T07:40:52.957Z</time></trkpt><trkpt lat="44.197237990172695" lon="11.912076778972715"><ele>197.60000000000002</ele><time>2026-04-06T07:40:53.957Z</time></trkpt><trkpt lat="44.19729875435061" lon="11.91217378948029"><ele>198.4</ele><time>2026-04-06T07:40:54.957Z</time></trkpt><trkpt lat="44.19735259973967" lon="11.912271542475684"><ele>199.2</ele><time>2026-04-06T07:40:55.957Z</time></trkpt><trkpt lat="44.19740747053769" lon="11.91238165526169"><ele>200.0</ele><time>2026-04-06T07:40:56.957Z</time></trkpt><trkpt lat="44.19746860736336" lon="11.91250143816113"><ele>198.2</ele><time>2026-04-06T07:40:57.957Z</time></trkpt><trkpt lat="44.19752650734418" lon="11.912628478940197"><ele>196.4</ele><time>2026-04-06T07:40:58.957Z</time></trkpt><trkpt lat="44.19758079468474" lon="11.91275264673662"><ele>194.60000000000002</ele><time>2026-04-06T07:40:59.957Z</time></trkpt><trkpt lat="44.19763123950921" lon="11.912863958969842"><ele>192.8</ele><time>2026-04-06T07:41:00.957Z</time></trkpt><trkpt lat="44.19767887711749" lon="11.912973287196685"><ele>191.0</ele><time>2026-04-06T07:41:01.957Z</time></trkpt><trkpt lat="44.197726581543016" lon="11.91309159254084"><ele>191.0</ele><time>2026-04-06T07:41:02.957Z</time></trkpt><trkpt lat="44.19777529034501" lon="11.913204501079543"><ele>191.0</ele><time>2026-04-06T07:41:03.957Z</time></trkpt><trkpt lat="44.19782357525825" lon="11.913307264017572"><ele>191.0</ele><time>2026-04-06T07:41:04.957Z</time></trkpt><trkpt lat="44.19787356679138" lon="11.913406403153752"><ele>191.0</ele><time>2026-04-06T07:41:05.957Z</time></trkpt><trkpt lat="44.19792830433579" lon="11.91349704191634"><ele>191.0</ele><time>2026-04-06T07:41:06.957Z</time></trkpt><trkpt lat="44.19798702566317" lon="11.913577472244379"><ele>191.0</ele><time>2026-04-06T07:41:07.957Z</time></trkpt><trkpt lat="44.19804948669516" lon="11.913644033453759"><ele>189.0</ele><time>2026-04-06T07:41:08.957Z</time></trkpt><trkpt lat="44.19811810615966" lon="11.913699763148294"><ele>187.0</ele><time>2026-04-06T07:41:09.957Z</time></trkpt><trkpt lat="44.198197727094005" lon="11.91374921345835"><ele>185.0</ele><time>2026-04-06T07:41:10.957Z</time></trkpt><trkpt lat="44.198271595021204" lon="11.9137925894316"><ele>183.0</ele><time>2026-04-06T07:41:11.957Z</time></trkpt><trkpt lat="44.19834691286195" lon="11.913838414336393"><ele>181.0</ele><time>2026-04-06T07:41:12.957Z</time></trkpt><trkpt lat="44.198423805848684" lon="11.913883251238985"><ele>179.0</ele><time>2026-04-06T07:41:13.957Z</time></trkpt><trkpt lat="44.198499274152276" lon="11.913931133307615"><ele>183.83333333333331</ele><time>2026-04-06T07:41:14.957Z</time></trkpt><trkpt lat="44.19857572872843" lon="11.913980042123745"><ele>188.66666666666666</ele><time>2026-04-06T07:41:15.957Z</time></trkpt><trkpt lat="44.19864904858065" lon="11.914035405209011"><ele>193.5</ele><time>2026-04-06T07:41:16.957Z</time></trkpt><trkpt lat="44.19872309733853" lon="11.91409698380918"><ele>198.33333333333331</ele><time>2026-04-06T07:41:17.957Z</time></trkpt><trkpt lat="44.19878814359262" lon="11.91414568729204"><ele>203.16666666666666</ele><time>2026-04-06T07:41:18.956Z</time></trkpt><trkpt lat="44.19884847145697" lon="11.914190159856481"><ele>208.0</ele><time>2026-04-06T07:41:19.956Z</time></trkpt><trkpt lat="44.198913449402994" lon="11.914247094832062"><ele>209.33333333333331</ele><time>2026-04-06T07:41:20.956Z</time></trkpt><trkpt lat="44.198975964070996" lon="11.914300931449088"><ele>210.66666666666666</ele><time>2026-04-06T07:41:21.956Z</time></trkpt><trkpt lat="44.199036665942444" lon="11.914359560906865"><ele>212.0</ele><time>2026-04-06T07:41:22.956Z</time></trkpt><trkpt lat="44.19909992789055" lon="11.91442685239064"><ele>213.33333333333331</ele><time>2026-04-06T07:41:23.956Z</time></trkpt><trkpt lat="44.199160734796024" lon="11.914510207686474"><ele>214.66666666666666</ele><time>2026-04-06T07:41:24.956Z</time></trkpt><trkpt lat="44.1992254140426" lon="11.914602181435024"><ele>216.0</ele><time>2026-04-06T07:41:25.956Z</time></trkpt><trkpt lat="44.19929374609647" lon="11.914692260499418"><ele>217.60000000000002</ele><time>2026-04-06T07:41:26.956Z</time></trkpt><trkpt lat="44.199368864183164" lon="11.914780897758533"><ele>219.20000000000002</ele><time>2026-04-06T07:41:27.956Z</time></trkpt><trkpt lat="44.199437836531715" lon="11.914860301808076"><ele>220.79999999999998</ele><time>2026-04-06T07:41:28.956Z</time></trkpt><trkpt lat="44.19949063845174" lon="11.91495200795438"><ele>222.39999999999998</ele><time>2026-04-06T07:41:29.956Z</time></trkpt><trkpt lat="44.19955887969221" lon="11.915037012814347"><ele>224.0</ele><time>2026-04-06T07:41:30.956Z</time></trkpt><trkpt lat="44.199629685455285" lon="11.915115755614295"><ele>224.6</ele><time>2026-04-06T07:41:31.956Z</time></trkpt><trkpt lat="44.19969181974077" lon="11.915185638055215"><ele>225.2</ele><time>2026-04-06T07:41:32.956Z</time></trkpt><trkpt lat="44.19978606307991" lon="11.915292840034427"><ele>225.79999999999998</ele><time>2026-04-06T07:41:34.956Z</time></trkpt><trkpt lat="44.19985048549669" lon="11.915409535022116"><ele>226.39999999999998</ele><time>2026-04-06T07:41:36.956Z</time></trkpt><trkpt lat="44.19986614995688" lon="11.915552946235854"><ele>227.0</ele><time>2026-04-06T07:41:38.956Z</time></trkpt><trkpt lat="44.199833984386736" lon="11.915697232641406"><ele>227.14285714285717</ele><time>2026-04-06T07:41:40.956Z</time></trkpt><trkpt lat="44.19978455860351" lon="11.915771593761786"><ele>227.2857142857143</ele><time>2026-04-06T07:41:41.956Z</time></trkpt><trkpt lat="44.19974113800346" lon="11.915847474727157"><ele>227.42857142857144</ele><time>2026-04-06T07:41:42.956Z</time></trkpt><trkpt lat="44.1996926975171" lon="11.915940253209317"><ele>227.57142857142856</ele><time>2026-04-06T07:41:43.956Z</time></trkpt><trkpt lat="44.19965227559436" lon="11.916028490178707"><ele>227.7142857142857</ele><time>2026-04-06T07:41:44.956Z</time></trkpt><trkpt lat="44.19961262591458" lon="11.9161101209433"><ele>227.85714285714283</ele><time>2026-04-06T07:41:45.956Z</time></trkpt><trkpt lat="44.199582269735025" lon="11.916197231503261"><ele>228.0</ele><time>2026-04-06T07:41:46.956Z</time></trkpt><trkpt lat="44.19951588245831" lon="11.91633091505984"><ele>226.25</ele><time>2026-04-06T07:41:48.956Z</time></trkpt><trkpt lat="44.1994449682835" lon="11.91647056840635"><ele>224.5</ele><time>2026-04-06T07:41:50.956Z</time></trkpt><trkpt lat="44.1993698261058" lon="11.91660095511775"><ele>222.75</ele><time>2026-04-06T07:41:52.956Z</time></trkpt><trkpt lat="44.19930715811124" lon="11.916722799491694"><ele>221.0</ele><time>2026-04-06T07:41:54.956Z</time></trkpt><trkpt lat="44.19924597920629" lon="11.916858818357024"><ele>219.00000000000003</ele><time>2026-04-06T07:41:56.956Z</time></trkpt><trkpt lat="44.199201908048856" lon="11.916937485866093"><ele>217.0</ele><time>2026-04-06T07:41:57.956Z</time></trkpt><trkpt lat="44.199162301375814" lon="11.917016978926567"><ele>215.0</ele><time>2026-04-06T07:41:58.956Z</time></trkpt><trkpt lat="44.199091880229425" lon="11.917146731390947"><ele>213.0</ele><time>2026-04-06T07:42:00.956Z</time></trkpt><trkpt lat="44.199044120403464" lon="11.917246719501225"><ele>211.00000000000003</ele><time>2026-04-06T07:42:02.956Z</time></trkpt><trkpt lat="44.1990220879019" lon="11.91734539295792"><ele>209.0</ele><time>2026-04-06T07:42:04.956Z</time></trkpt><trkpt lat="44.199017241831385" lon="11.917454132393916"><ele>209.00000000000003</ele><time>2026-04-06T07:42:06.956Z</time></trkpt><trkpt lat="44.1990333301808" lon="11.917565075359587"><ele>209.0</ele><time>2026-04-06T07:42:08.956Z</time></trkpt><trkpt lat="44.1990754831139" lon="11.917689410660142"><ele>209.0</ele><time>2026-04-06T07:42:10.956Z</time></trkpt><trkpt lat="44.19911978463259" lon="11.9178035006586"><ele>209.0</ele><time>2026-04-06T07:42:12.955Z</time></trkpt><trkpt lat="44.19915449401694" lon="11.917912827142155"><ele>209.00000000000003</ele><time>2026-04-06T07:42:14.955Z</time></trkpt><trkpt lat="44.199163722381634" lon="11.918028908789312"><ele>209.0</ele><time>2026-04-06T07:42:16.955Z</time></trkpt><trkpt lat="44.199163966931174" lon="11.918152129131592"><ele>206.39999999999998</ele><time>2026-04-06T07:42:18.955Z</time></trkpt><trkpt lat="44.19915738996915" lon="11.918277826275636"><ele>203.8</ele><time>2026-04-06T07:42:20.955Z</time></trkpt><trkpt lat="44.199142428387866" lon="11.91844521090581"><ele>201.2</ele><time>2026-04-06T07:42:22.955Z</time></trkpt><trkpt lat="44.199117263838005" lon="11.918606298536256"><ele>198.60000000000002</ele><time>2026-04-06T07:42:24.955Z</time></trkpt><trkpt lat="44.19910126378639" lon="11.918696174371114"><ele>196.0</ele><time>2026-04-06T07:42:25.955Z</time></trkpt><trkpt lat="44.1990885467817" lon="11.918788483409196"><ele>195.16666666666666</ele><time>2026-04-06T07:42:26.955Z</time></trkpt><trkpt lat="44.199084816019564" lon="11.91889329178926"><ele>194.33333333333331</ele><time>2026-04-06T07:42:27.955Z</time></trkpt><trkpt lat="44.19907701029656" lon="11.918990873248733"><ele>193.5</ele><time>2026-04-06T07:42:28.955Z</time></trkpt><trkpt lat="44.19906254780968" lon="11.919101391268093"><ele>192.66666666666666</ele><time>2026-04-06T07:42:29.955Z</time></trkpt><trkpt lat="44.19905075656858" lon="11.91921632035243"><ele>191.83333333333331</ele><time>2026-04-06T07:42:30.955Z</time></trkpt><trkpt lat="44.1990342635096" lon="11.919328638308606"><ele>191.0</ele><time>2026-04-06T07:42:31.955Z</time></trkpt><trkpt lat="44.199005133380666" lon="11.919441306643659"><ele>190.33333333333331</ele><time>2026-04-06T07:42:32.955Z</time></trkpt><trkpt lat="44.1989778235773" lon="11.919564640311439"><ele>189.66666666666666</ele><time>2026-04-06T07:42:33.955Z</time></trkpt><trkpt lat="44.19895255536139" lon="11.919673349947267"><ele>189.0</ele><time>2026-04-06T07:42:34.955Z</time></trkpt><trkpt lat="44.19892972876909" lon="11.919786332434883"><ele>188.33333333333334</ele><time>2026-04-06T07:42:35.955Z</time></trkpt><trkpt lat="44.19890119452069" lon="11.91990027894033"><ele>187.66666666666669</ele><time>2026-04-06T07:42:36.955Z</time></trkpt><trkpt lat="44.198872461786216" lon="11.920012593361035"><ele>187.0</ele><time>2026-04-06T07:42:37.955Z</time></trkpt><trkpt lat="44.198848604080425" lon="11.920122260305897"><ele>187.0</ele><time>2026-04-06T07:42:38.955Z</time></trkpt><trkpt lat="44.19882551735731" lon="11.920239289019127"><ele>187.0</ele><time>2026-04-06T07:42:39.955Z</time></trkpt><trkpt lat="44.19879713003858" lon="11.920346437123536"><ele>187.0</ele><time>2026-04-06T07:42:40.955Z</time></trkpt><trkpt lat="44.19876481672825" lon="11.92045533264044"><ele>187.0</ele><time>2026-04-06T07:42:41.955Z</time></trkpt><trkpt lat="44.19873889584629" lon="11.920563426806881"><ele>187.0</ele><time>2026-04-06T07:42:42.955Z</time></trkpt><trkpt lat="44.198715696943815" lon="11.92067096607772"><ele>187.0</ele><time>2026-04-06T07:42:43.955Z</time></trkpt><trkpt lat="44.198689892124435" lon="11.920778022171806"><ele>187.0</ele><time>2026-04-06T07:42:44.955Z</time></trkpt><trkpt lat="44.19867817885141" lon="11.920876152914811"><ele>187.0</ele><time>2026-04-06T07:42:45.955Z</time></trkpt><trkpt lat="44.19866039544244" lon="11.920981835605259"><ele>187.0</ele><time>2026-04-06T07:42:46.955Z</time></trkpt><trkpt lat="44.198648265648934" lon="11.921091551991607"><ele>187.0</ele><time>2026-04-06T07:42:47.955Z</time></trkpt><trkpt lat="44.19863465118712" lon="11.921208688909957"><ele>187.0</ele><time>2026-04-06T07:42:48.955Z</time></trkpt><trkpt lat="44.198619029821884" lon="11.921324124087521"><ele>187.0</ele><time>2026-04-06T07:42:49.955Z</time></trkpt><trkpt lat="44.19860134747849" lon="11.921438772661208"><ele>187.83333333333334</ele><time>2026-04-06T07:42:50.955Z</time></trkpt><trkpt lat="44.198587400323504" lon="11.921557330330925"><ele>188.66666666666669</ele><time>2026-04-06T07:42:51.955Z</time></trkpt><trkpt lat="44.19857642090146" lon="11.921672994533516"><ele>189.5</ele><time>2026-04-06T07:42:52.955Z</time></trkpt><trkpt lat="44.19856248517612" lon="11.92178126656914"><ele>190.33333333333334</ele><time>2026-04-06T07:42:53.955Z</time></trkpt><trkpt lat="44.198545858738534" lon="11.921888542152997"><ele>191.16666666666666</ele><time>2026-04-06T07:42:54.955Z</time></trkpt><trkpt lat="44.19853292667815" lon="11.921993206616682"><ele>192.0</ele><time>2026-04-06T07:42:55.955Z</time></trkpt><trkpt lat="44.19851372732268" lon="11.92209562628576"><ele>194.33333333333334</ele><time>2026-04-06T07:42:56.955Z</time></trkpt><trkpt lat="44.19850664182175" lon="11.922194845474875"><ele>196.66666666666669</ele><time>2026-04-06T07:42:57.955Z</time></trkpt><trkpt lat="44.19850578351023" lon="11.922289927804746"><ele>199.0</ele><time>2026-04-06T07:42:58.955Z</time></trkpt><trkpt lat="44.19850722752817" lon="11.922385456996771"><ele>201.33333333333334</ele><time>2026-04-06T07:42:59.955Z</time></trkpt><trkpt lat="44.198511260379114" lon="11.922475244350613"><ele>203.66666666666669</ele><time>2026-04-06T07:43:00.955Z</time></trkpt><trkpt lat="44.19848317247387" lon="11.922617826878207"><ele>206.0</ele><time>2026-04-06T07:43:02.955Z</time></trkpt><trkpt lat="44.198418187072036" lon="11.922722332776413"><ele>207.33333333333334</ele><time>2026-04-06T07:43:04.955Z</time></trkpt><trkpt lat="44.19831650762757" lon="11.922759853416263"><ele>208.66666666666669</ele><time>2026-04-06T07:43:06.955Z</time></trkpt><trkpt lat="44.19821267908818" lon="11.922740175914875"><ele>210.0</ele><time>2026-04-06T07:43:08.955Z</time></trkpt><trkpt lat="44.19814784679747" lon="11.922718450289535"><ele>211.33333333333331</ele><time>2026-04-06T07:43:09.955Z</time></trkpt><trkpt lat="44.1980750918078" lon="11.922706464356315"><ele>212.66666666666666</ele><time>2026-04-06T07:43:10.955Z</time></trkpt><trkpt lat="44.19800350923457" lon="11.922697264496113"><ele>214.0</ele><time>2026-04-06T07:43:11.955Z</time></trkpt><trkpt lat="44.19788679339945" lon="11.922727571350775"><ele>214.2</ele><time>2026-04-06T07:43:13.955Z</time></trkpt><trkpt lat="44.197774333423325" lon="11.922819767733207"><ele>214.39999999999998</ele><time>2026-04-06T07:43:15.955Z</time></trkpt><trkpt lat="44.197689284374775" lon="11.922925943996546"><ele>214.6</ele><time>2026-04-06T07:43:17.955Z</time></trkpt><trkpt lat="44.19759438837747" lon="11.923045183131391"><ele>214.8</ele><time>2026-04-06T07:43:19.955Z</time></trkpt><trkpt lat="44.19753561357573" lon="11.923111678901813"><ele>215.0</ele><time>2026-04-06T07:43:20.955Z</time></trkpt><trkpt lat="44.19747545666974" lon="11.923177209607667"><ele>215.00000000000003</ele><time>2026-04-06T07:43:21.955Z</time></trkpt><trkpt lat="44.197417982456635" lon="11.923244588062442"><ele>215.0</ele><time>2026-04-06T07:43:22.955Z</time></trkpt><trkpt lat="44.19735999839188" lon="11.923309295177479"><ele>215.0</ele><time>2026-04-06T07:43:23.955Z</time></trkpt><trkpt lat="44.197300829245776" lon="11.923371671993014"><ele>215.0</ele><time>2026-04-06T07:43:24.955Z</time></trkpt><trkpt lat="44.197252695814704" lon="11.923437737763141"><ele>215.00000000000003</ele><time>2026-04-06T07:43:25.955Z</time></trkpt><trkpt lat="44.197173994062936" lon="11.923526343335366"><ele>215.0</ele><time>2026-04-06T07:43:27.955Z</time></trkpt><trkpt lat="44.19713168973936" lon="11.923604555058695"><ele>213.2</ele><time>2026-04-06T07:43:29.955Z</time></trkpt><trkpt lat="44.19706329125094" lon="11.923695137170611"><ele>211.4</ele><time>2026-04-06T07:43:31.955Z</time></trkpt><trkpt lat="44.19699879043425" lon="11.92378108172681"><ele>209.60000000000002</ele><time>2026-04-06T07:43:33.955Z</time></trkpt><trkpt lat="44.196919838863444" lon="11.92385301708878"><ele>207.8</ele><time>2026-04-06T07:43:35.955Z</time></trkpt><trkpt lat="44.196849649596516" lon="11.923935239113526"><ele>206.0</ele><time>2026-04-06T07:43:37.955Z</time></trkpt><trkpt lat="44.196773344288744" lon="11.92400236132257"><ele>206.00000000000003</ele><time>2026-04-06T07:43:39.955Z</time></trkpt><trkpt lat="44.19669472395419" lon="11.924077245381605"><ele>206.0</ele><time>2026-04-06T07:43:41.955Z</time></trkpt><trkpt lat="44.19663289666127" lon="11.924129577993844"><ele>206.0</ele><time>2026-04-06T07:43:43.955Z</time></trkpt><trkpt lat="44.19654030925512" lon="11.924207153719225"><ele>206.0</ele><time>2026-04-06T07:43:45.955Z</time></trkpt><trkpt lat="44.19648518810713" lon="11.924255919671582"><ele>206.00000000000003</ele><time>2026-04-06T07:43:46.955Z</time></trkpt><trkpt lat="44.196409214708964" lon="11.924337460556904"><ele>206.0</ele><time>2026-04-06T07:43:48.955Z</time></trkpt><trkpt lat="44.19632946535398" lon="11.924436900071962"><ele>203.28571428571428</ele><time>2026-04-06T07:43:50.955Z</time></trkpt><trkpt lat="44.19628334118021" lon="11.924503971035469"><ele>200.57142857142856</ele><time>2026-04-06T07:43:51.955Z</time></trkpt><trkpt lat="44.196233191033855" lon="11.924587051089167"><ele>197.85714285714283</ele><time>2026-04-06T07:43:52.955Z</time></trkpt><trkpt lat="44.19617856227544" lon="11.924674122709366"><ele>195.14285714285714</ele><time>2026-04-06T07:43:53.955Z</time></trkpt><trkpt lat="44.19612836028944" lon="11.924756387929548"><ele>192.42857142857144</ele><time>2026-04-06T07:43:54.955Z</time></trkpt><trkpt lat="44.196081062075514" lon="11.924829789479768"><ele>189.7142857142857</ele><time>2026-04-06T07:43:55.955Z</time></trkpt><trkpt lat="44.19603069707763" lon="11.924895900022342"><ele>187.0</ele><time>2026-04-06T07:43:56.955Z</time></trkpt><trkpt lat="44.195984334558176" lon="11.92496012723483"><ele>187.0</ele><time>2026-04-06T07:43:57.955Z</time></trkpt><trkpt lat="44.195910850769515" lon="11.925079143380579"><ele>187.0</ele><time>2026-04-06T07:43:59.955Z</time></trkpt><trkpt lat="44.19586584503009" lon="11.925227299024849"><ele>187.0</ele><time>2026-04-06T07:44:01.955Z</time></trkpt><trkpt lat="44.19586824577542" lon="11.925412540823427"><ele>187.0</ele><time>2026-04-06T07:44:03.955Z</time></trkpt><trkpt lat="44.195878846444955" lon="11.92551839725618"><ele>187.0</ele><time>2026-04-06T07:44:04.955Z</time></trkpt><trkpt lat="44.195887531784315" lon="11.925674817051954"><ele>187.0</ele><time>2026-04-06T07:44:06.955Z</time></trkpt><trkpt lat="44.195882673543636" lon="11.925815905366434"><ele>187.0</ele><time>2026-04-06T07:44:08.955Z</time></trkpt><trkpt lat="44.19585976756017" lon="11.92598088509482"><ele>187.0</ele><time>2026-04-06T07:44:10.955Z</time></trkpt><trkpt lat="44.19583263476534" lon="11.926080430849046"><ele>187.0</ele><time>2026-04-06T07:44:11.955Z</time></trkpt><trkpt lat="44.1958089697214" lon="11.926199244206828"><ele>187.0</ele><time>2026-04-06T07:44:12.955Z</time></trkpt><trkpt lat="44.1957783894319" lon="11.92632262440952"><ele>187.33333333333334</ele><time>2026-04-06T07:44:13.955Z</time></trkpt><trkpt lat="44.19574755473437" lon="11.926442879255822"><ele>187.66666666666669</ele><time>2026-04-06T07:44:14.955Z</time></trkpt><trkpt lat="44.19572256585667" lon="11.926557926527538"><ele>188.0</ele><time>2026-04-06T07:44:15.955Z</time></trkpt><trkpt lat="44.19569587554656" lon="11.92667448828245"><ele>188.33333333333334</ele><time>2026-04-06T07:44:16.955Z</time></trkpt><trkpt lat="44.19566775830742" lon="11.926784466038807"><ele>188.66666666666666</ele><time>2026-04-06T07:44:17.954Z</time></trkpt><trkpt lat="44.19564736624011" lon="11.926885128204287"><ele>189.0</ele><time>2026-04-06T07:44:18.953Z</time></trkpt><trkpt lat="44.19562306077439" lon="11.92698529528037"><ele>190.71428571428572</ele><time>2026-04-06T07:44:19.953Z</time></trkpt><trkpt lat="44.19560431751551" lon="11.927071817160712"><ele>192.42857142857144</ele><time>2026-04-06T07:44:20.954Z</time></trkpt><trkpt lat="44.19559143285573" lon="11.927168216833117"><ele>194.14285714285714</ele><time>2026-04-06T07:44:21.953Z</time></trkpt><trkpt lat="44.1955749912486" lon="11.927260228699486"><ele>195.85714285714286</ele><time>2026-04-06T07:44:22.953Z</time></trkpt><trkpt lat="44.19555553039092" lon="11.927358563798798"><ele>197.57142857142858</ele><time>2026-04-06T07:44:23.953Z</time></trkpt><trkpt lat="44.19553895977276" lon="11.92745128098339"><ele>199.28571428571428</ele><time>2026-04-06T07:44:24.953Z</time></trkpt><trkpt lat="44.195523697041736" lon="11.927539073735637"><ele>201.0</ele><time>2026-04-06T07:44:25.953Z</time></trkpt><trkpt lat="44.19551354430693" lon="11.927636004924727"><ele>203.16666666666666</ele><time>2026-04-06T07:44:26.953Z</time></trkpt><trkpt lat="44.19550117525833" lon="11.927730034047968"><ele>205.33333333333331</ele><time>2026-04-06T07:44:27.953Z</time></trkpt><trkpt lat="44.19549401098905" lon="11.92782220993248"><ele>207.5</ele><time>2026-04-06T07:44:28.953Z</time></trkpt><trkpt lat="44.19549429914366" lon="11.927926743838542"><ele>209.66666666666666</ele><time>2026-04-06T07:44:29.953Z</time></trkpt><trkpt lat="44.19549879158813" lon="11.928047069930509"><ele>211.83333333333331</ele><time>2026-04-06T07:44:30.953Z</time></trkpt><trkpt lat="44.195501406367924" lon="11.928151718601777"><ele>214.0</ele><time>2026-04-06T07:44:31.953Z</time></trkpt><trkpt lat="44.195516794015205" lon="11.928321972052217"><ele>213.99999999999997</ele><time>2026-04-06T07:44:33.953Z</time></trkpt><trkpt lat="44.19553274035732" lon="11.928412252603279"><ele>214.0</ele><time>2026-04-06T07:44:34.953Z</time></trkpt><trkpt lat="44.19554492916314" lon="11.928513348976765"><ele>214.0</ele><time>2026-04-06T07:44:35.953Z</time></trkpt><trkpt lat="44.19555691672608" lon="11.928630644140652"><ele>214.0</ele><time>2026-04-06T07:44:36.953Z</time></trkpt><trkpt lat="44.19556878460438" lon="11.928745907780169"><ele>213.99999999999997</ele><time>2026-04-06T07:44:37.953Z</time></trkpt><trkpt lat="44.195582051503315" lon="11.928852884315901"><ele>214.0</ele><time>2026-04-06T07:44:38.953Z</time></trkpt><trkpt lat="44.195590994960874" lon="11.928961273849266"><ele>214.00000000000003</ele><time>2026-04-06T07:44:39.953Z</time></trkpt><trkpt lat="44.19559591216778" lon="11.929069677316058"><ele>214.0</ele><time>2026-04-06T07:44:40.953Z</time></trkpt><trkpt lat="44.19560497001487" lon="11.929167649092124"><ele>214.0</ele><time>2026-04-06T07:44:41.953Z</time></trkpt><trkpt lat="44.195613494161854" lon="11.929257448794223"><ele>214.0</ele><time>2026-04-06T07:44:42.953Z</time></trkpt><trkpt lat="44.19561953238537" lon="11.92934959712931"><ele>214.0</ele><time>2026-04-06T07:44:43.953Z</time></trkpt><trkpt lat="44.195623879344545" lon="11.929448916418025"><ele>214.00000000000003</ele><time>2026-04-06T07:44:44.953Z</time></trkpt><trkpt lat="44.19562882997705" lon="11.92955073362543"><ele>214.0</ele><time>2026-04-06T07:44:45.953Z</time></trkpt><trkpt lat="44.1956304033541" lon="11.929654315673918"><ele>212.33333333333331</ele><time>2026-04-06T07:44:46.953Z</time></trkpt><trkpt lat="44.19563399818117" lon="11.92975599911092"><ele>210.66666666666666</ele><time>2026-04-06T07:44:47.953Z</time></trkpt><trkpt lat="44.19563264117688" lon="11.9298718587779"><ele>209.0</ele><time>2026-04-06T07:44:48.953Z</time></trkpt><trkpt lat="44.19562906485896" lon="11.929987885416812"><ele>207.33333333333331</ele><time>2026-04-06T07:44:49.953Z</time></trkpt><trkpt lat="44.195619703692955" lon="11.93010364598535"><ele>205.66666666666666</ele><time>2026-04-06T07:44:50.953Z</time></trkpt><trkpt lat="44.19561157453896" lon="11.930220038115863"><ele>204.0</ele><time>2026-04-06T07:44:51.953Z</time></trkpt><trkpt lat="44.19560090827244" lon="11.930331293150319"><ele>203.16666666666666</ele><time>2026-04-06T07:44:52.953Z</time></trkpt><trkpt lat="44.19559390896747" lon="11.930445589643682"><ele>202.33333333333331</ele><time>2026-04-06T07:44:53.953Z</time></trkpt><trkpt lat="44.1955890957344" lon="11.930555299864123"><ele>201.5</ele><time>2026-04-06T07:44:54.953Z</time></trkpt><trkpt lat="44.19558237632726" lon="11.930661670479317"><ele>200.66666666666666</ele><time>2026-04-06T07:44:55.953Z</time></trkpt><trkpt lat="44.19558476492837" lon="11.930779234549247"><ele>199.83333333333331</ele><time>2026-04-06T07:44:56.953Z</time></trkpt><trkpt lat="44.19558211982516" lon="11.930892623731662"><ele>199.0</ele><time>2026-04-06T07:44:57.953Z</time></trkpt><trkpt lat="44.19557987041043" lon="11.931006337304055"><ele>198.57142857142856</ele><time>2026-04-06T07:44:58.953Z</time></trkpt><trkpt lat="44.19557651805171" lon="11.931106103293986"><ele>198.14285714285714</ele><time>2026-04-06T07:44:59.953Z</time></trkpt><trkpt lat="44.195568321355665" lon="11.931204228387752"><ele>197.71428571428572</ele><time>2026-04-06T07:45:00.953Z</time></trkpt><trkpt lat="44.1955616542114" lon="11.931298796360998"><ele>197.28571428571428</ele><time>2026-04-06T07:45:01.953Z</time></trkpt><trkpt lat="44.19555723450047" lon="11.93139165990209"><ele>196.85714285714286</ele><time>2026-04-06T07:45:02.953Z</time></trkpt><trkpt lat="44.19555449963558" lon="11.931484114052884"><ele>196.42857142857142</ele><time>2026-04-06T07:45:03.953Z</time></trkpt><trkpt lat="44.195550319570785" lon="11.931585400869617"><ele>196.0</ele><time>2026-04-06T07:45:04.953Z</time></trkpt><trkpt lat="44.19555020304393" lon="11.931682284408387"><ele>195.16666666666666</ele><time>2026-04-06T07:45:05.953Z</time></trkpt><trkpt lat="44.195559712309596" lon="11.931782966755414"><ele>194.33333333333331</ele><time>2026-04-06T07:45:06.953Z</time></trkpt><trkpt lat="44.19557074666669" lon="11.93188550044477"><ele>193.5</ele><time>2026-04-06T07:45:07.953Z</time></trkpt><trkpt lat="44.19558591999625" lon="11.932000475175498"><ele>192.66666666666666</ele><time>2026-04-06T07:45:08.953Z</time></trkpt><trkpt lat="44.195603970484775" lon="11.932102759234462"><ele>191.83333333333331</ele><time>2026-04-06T07:45:09.953Z</time></trkpt><trkpt lat="44.19564166704048" lon="11.932281988441254"><ele>191.0</ele><time>2026-04-06T07:45:11.953Z</time></trkpt><trkpt lat="44.195663819881716" lon="11.932386431067908"><ele>192.83333333333331</ele><time>2026-04-06T07:45:12.953Z</time></trkpt><trkpt lat="44.19567635994997" lon="11.932487035143899"><ele>194.66666666666666</ele><time>2026-04-06T07:45:13.953Z</time></trkpt><trkpt lat="44.19568021403082" lon="11.932583358802841"><ele>196.5</ele><time>2026-04-06T07:45:14.953Z</time></trkpt><trkpt lat="44.19568732724809" lon="11.932688260763637"><ele>198.33333333333331</ele><time>2026-04-06T07:45:15.953Z</time></trkpt><trkpt lat="44.19569615416429" lon="11.932794912798101"><ele>200.16666666666666</ele><time>2026-04-06T07:45:16.953Z</time></trkpt><trkpt lat="44.19570653086217" lon="11.93290787296202"><ele>202.0</ele><time>2026-04-06T07:45:17.953Z</time></trkpt><trkpt lat="44.19571613371576" lon="11.933018131089552"><ele>202.0</ele><time>2026-04-06T07:45:18.953Z</time></trkpt><trkpt lat="44.195719841456565" lon="11.933114329586688"><ele>202.0</ele><time>2026-04-06T07:45:19.953Z</time></trkpt><trkpt lat="44.19572362813098" lon="11.933218405109187"><ele>202.0</ele><time>2026-04-06T07:45:20.953Z</time></trkpt><trkpt lat="44.19572932543297" lon="11.933315885394812"><ele>202.0</ele><time>2026-04-06T07:45:21.953Z</time></trkpt><trkpt lat="44.19573475883303" lon="11.933424620014303"><ele>202.0</ele><time>2026-04-06T07:45:22.953Z</time></trkpt><trkpt lat="44.19573365907616" lon="11.933528682123532"><ele>202.0</ele><time>2026-04-06T07:45:23.952Z</time></trkpt><trkpt lat="44.195729455427355" lon="11.933635098141878"><ele>202.0</ele><time>2026-04-06T07:45:24.952Z</time></trkpt><trkpt lat="44.19571082716941" lon="11.933748617682722"><ele>202.16666666666666</ele><time>2026-04-06T07:45:25.952Z</time></trkpt><trkpt lat="44.19568665006118" lon="11.933854092062122"><ele>202.33333333333331</ele><time>2026-04-06T07:45:26.952Z</time></trkpt><trkpt lat="44.19566530057024" lon="11.933956964063201"><ele>202.5</ele><time>2026-04-06T07:45:27.952Z</time></trkpt><trkpt lat="44.19563504642905" lon="11.93405227864545"><ele>202.66666666666669</ele><time>2026-04-06T07:45:28.952Z</time></trkpt><trkpt lat="44.19559652636194" lon="11.93414870709498"><ele>202.83333333333334</ele><time>2026-04-06T07:45:29.952Z</time></trkpt><trkpt lat="44.19555368462387" lon="11.934237415504763"><ele>203.0</ele><time>2026-04-06T07:45:30.952Z</time></trkpt><trkpt lat="44.195505915153475" lon="11.93432081575577"><ele>203.00000000000003</ele><time>2026-04-06T07:45:31.952Z</time></trkpt><trkpt lat="44.19544692491679" lon="11.934405993801493"><ele>203.0</ele><time>2026-04-06T07:45:32.952Z</time></trkpt><trkpt lat="44.195380547863806" lon="11.934496320942042"><ele>203.0</ele><time>2026-04-06T07:45:33.952Z</time></trkpt><trkpt lat="44.19531754830484" lon="11.934582792801358"><ele>203.0</ele><time>2026-04-06T07:45:34.952Z</time></trkpt><trkpt lat="44.19525534014033" lon="11.934658942109518"><ele>203.00000000000003</ele><time>2026-04-06T07:45:35.952Z</time></trkpt><trkpt lat="44.19519507115289" lon="11.934729176343962"><ele>203.0</ele><time>2026-04-06T07:45:36.952Z</time></trkpt><trkpt lat="44.19513546073983" lon="11.934798740298463"><ele>203.00000000000003</ele><time>2026-04-06T07:45:37.952Z</time></trkpt><trkpt lat="44.195077974845624" lon="11.934870366028344"><ele>203.0</ele><time>2026-04-06T07:45:38.952Z</time></trkpt><trkpt lat="44.19501649678726" lon="11.934934856637303"><ele>203.0</ele><time>2026-04-06T07:45:39.952Z</time></trkpt><trkpt lat="44.19495492010352" lon="11.935004685732693"><ele>203.0</ele><time>2026-04-06T07:45:40.952Z</time></trkpt><trkpt lat="44.194895160507514" lon="11.935082584973404"><ele>203.00000000000003</ele><time>2026-04-06T07:45:41.952Z</time></trkpt><trkpt lat="44.194833413727736" lon="11.93515420600567"><ele>203.0</ele><time>2026-04-06T07:45:42.952Z</time></trkpt><trkpt lat="44.19477033319424" lon="11.93522303680853"><ele>205.16666666666669</ele><time>2026-04-06T07:45:43.952Z</time></trkpt><trkpt lat="44.194711232020694" lon="11.93529296317896"><ele>207.33333333333334</ele><time>2026-04-06T07:45:44.952Z</time></trkpt><trkpt lat="44.19465474750828" lon="11.93535839004638"><ele>209.5</ele><time>2026-04-06T07:45:45.952Z</time></trkpt><trkpt lat="44.194598303970274" lon="11.93542315962329"><ele>211.66666666666669</ele><time>2026-04-06T07:45:46.952Z</time></trkpt><trkpt lat="44.19453557691082" lon="11.935497630623464"><ele>213.83333333333334</ele><time>2026-04-06T07:45:47.952Z</time></trkpt><trkpt lat="44.19446736139843" lon="11.93556695145916"><ele>216.0</ele><time>2026-04-06T07:45:48.952Z</time></trkpt><trkpt lat="44.194406020132966" lon="11.935632468865768"><ele>216.0</ele><time>2026-04-06T07:45:49.952Z</time></trkpt><trkpt lat="44.194322254153455" lon="11.93571902121427"><ele>216.0</ele><time>2026-04-06T07:45:51.952Z</time></trkpt><trkpt lat="44.19425031470949" lon="11.935801013613867"><ele>216.0</ele><time>2026-04-06T07:45:53.952Z</time></trkpt><trkpt lat="44.194181603841855" lon="11.935866209028157"><ele>216.0</ele><time>2026-04-06T07:45:55.952Z</time></trkpt><trkpt lat="44.19408674075963" lon="11.935919250706478"><ele>216.0</ele><time>2026-04-06T07:45:57.952Z</time></trkpt><trkpt lat="44.1940255235269" lon="11.935952879132133"><ele>216.0</ele><time>2026-04-06T07:45:58.952Z</time></trkpt><trkpt lat="44.193961346137584" lon="11.935984558081888"><ele>217.4</ele><time>2026-04-06T07:45:59.952Z</time></trkpt><trkpt lat="44.1938908801884" lon="11.936008682112837"><ele>218.8</ele><time>2026-04-06T07:46:00.952Z</time></trkpt><trkpt lat="44.19382360096739" lon="11.936024434565825"><ele>220.20000000000002</ele><time>2026-04-06T07:46:01.952Z</time></trkpt><trkpt lat="44.193708483467404" lon="11.936074322631807"><ele>221.60000000000002</ele><time>2026-04-06T07:46:03.952Z</time></trkpt><trkpt lat="44.19361902197726" lon="11.936131540592395"><ele>223.0</ele><time>2026-04-06T07:46:05.952Z</time></trkpt><trkpt lat="44.19355905901531" lon="11.936227917188601"><ele>223.0</ele><time>2026-04-06T07:46:07.952Z</time></trkpt><trkpt lat="44.19352456429864" lon="11.936377654155853"><ele>223.0</ele><time>2026-04-06T07:46:09.952Z</time></trkpt><trkpt lat="44.19351908290005" lon="11.93647753664347"><ele>223.0</ele><time>2026-04-06T07:46:10.952Z</time></trkpt><trkpt lat="44.19351449245449" lon="11.936601002300275"><ele>223.0</ele><time>2026-04-06T07:46:11.952Z</time></trkpt><trkpt lat="44.19351274393156" lon="11.936740128597782"><ele>223.0</ele><time>2026-04-06T07:46:12.952Z</time></trkpt><trkpt lat="44.19350928619961" lon="11.936885319834314"><ele>223.0</ele><time>2026-04-06T07:46:13.952Z</time></trkpt><trkpt lat="44.193501024994276" lon="11.937009119552522"><ele>223.0</ele><time>2026-04-06T07:46:14.952Z</time></trkpt><trkpt lat="44.19349373449985" lon="11.937143451051137"><ele>223.0</ele><time>2026-04-06T07:46:15.952Z</time></trkpt><trkpt lat="44.19349612324089" lon="11.937280699438196"><ele>223.0</ele><time>2026-04-06T07:46:16.952Z</time></trkpt><trkpt lat="44.193496922007704" lon="11.937404826107345"><ele>223.0</ele><time>2026-04-06T07:46:17.952Z</time></trkpt><trkpt lat="44.19349359615445" lon="11.937542145842333"><ele>222.8</ele><time>2026-04-06T07:46:18.952Z</time></trkpt><trkpt lat="44.19348888435491" lon="11.937681548712552"><ele>222.60000000000002</ele><time>2026-04-06T07:46:19.952Z</time></trkpt><trkpt lat="44.19348980745707" lon="11.937820302250486"><ele>222.39999999999998</ele><time>2026-04-06T07:46:20.952Z</time></trkpt><trkpt lat="44.19348758351126" lon="11.937962001574725"><ele>222.2</ele><time>2026-04-06T07:46:21.952Z</time></trkpt><trkpt lat="44.19348347515754" lon="11.938103710797895"><ele>222.0</ele><time>2026-04-06T07:46:22.952Z</time></trkpt><trkpt lat="44.193473620904115" lon="11.938248013091956"><ele>222.0</ele><time>2026-04-06T07:46:23.951Z</time></trkpt><trkpt lat="44.19346532588887" lon="11.938376814650795"><ele>222.0</ele><time>2026-04-06T07:46:24.952Z</time></trkpt><trkpt lat="44.19346194460335" lon="11.938510235713782"><ele>222.0</ele><time>2026-04-06T07:46:25.952Z</time></trkpt><trkpt lat="44.193453111757584" lon="11.938631501810201"><ele>222.0</ele><time>2026-04-06T07:46:26.951Z</time></trkpt><trkpt lat="44.193435651926045" lon="11.93874940969307"><ele>222.0</ele><time>2026-04-06T07:46:27.952Z</time></trkpt><trkpt lat="44.19342631468303" lon="11.938871317837812"><ele>223.0</ele><time>2026-04-06T07:46:28.952Z</time></trkpt><trkpt lat="44.19341694312845" lon="11.938985780003291"><ele>224.0</ele><time>2026-04-06T07:46:29.951Z</time></trkpt><trkpt lat="44.19341348147847" lon="11.939092170489188"><ele>225.0</ele><time>2026-04-06T07:46:30.951Z</time></trkpt><trkpt lat="44.193419590571224" lon="11.93919564739155"><ele>226.0</ele><time>2026-04-06T07:46:31.951Z</time></trkpt><trkpt lat="44.19343176360432" lon="11.939300207080544"><ele>227.0</ele><time>2026-04-06T07:46:32.951Z</time></trkpt><trkpt lat="44.19346223953372" lon="11.939413098783351"><ele>228.0</ele><time>2026-04-06T07:46:33.951Z</time></trkpt><trkpt lat="44.19348912288084" lon="11.939533010847821"><ele>228.33333333333334</ele><time>2026-04-06T07:46:34.951Z</time></trkpt><trkpt lat="44.19352132316962" lon="11.93963327176802"><ele>228.66666666666669</ele><time>2026-04-06T07:46:35.951Z</time></trkpt><trkpt lat="44.19356369695769" lon="11.939717655614366"><ele>229.0</ele><time>2026-04-06T07:46:36.951Z</time></trkpt><trkpt lat="44.193589533484555" lon="11.939814403753731"><ele>229.33333333333334</ele><time>2026-04-06T07:46:37.951Z</time></trkpt><trkpt lat="44.19361162302665" lon="11.939896872857027"><ele>229.66666666666669</ele><time>2026-04-06T07:46:38.951Z</time></trkpt><trkpt lat="44.193649068042916" lon="11.94004343176665"><ele>230.0</ele><time>2026-04-06T07:46:40.951Z</time></trkpt><trkpt lat="44.19368807314778" lon="11.940185630262649"><ele>228.4</ele><time>2026-04-06T07:46:42.951Z</time></trkpt><trkpt lat="44.193703183963976" lon="11.940342296332155"><ele>226.8</ele><time>2026-04-06T07:46:44.951Z</time></trkpt><trkpt lat="44.193697872844766" lon="11.940489402076594"><ele>225.2</ele><time>2026-04-06T07:46:46.951Z</time></trkpt><trkpt lat="44.19368863222355" lon="11.94062034891616"><ele>223.6</ele><time>2026-04-06T07:46:48.951Z</time></trkpt><trkpt lat="44.19367304223841" lon="11.9407305489175"><ele>222.0</ele><time>2026-04-06T07:46:50.951Z</time></trkpt><trkpt lat="44.19364652788935" lon="11.940864998036862"><ele>220.6</ele><time>2026-04-06T07:46:52.951Z</time></trkpt><trkpt lat="44.19359248425961" lon="11.940981744194614"><ele>219.2</ele><time>2026-04-06T07:46:54.951Z</time></trkpt><trkpt lat="44.1935417373198" lon="11.94115183899347"><ele>217.8</ele><time>2026-04-06T07:46:56.951Z</time></trkpt><trkpt lat="44.19349934441063" lon="11.941236621427942"><ele>216.4</ele><time>2026-04-06T07:46:57.951Z</time></trkpt><trkpt lat="44.193449969944574" lon="11.94131647602889"><ele>215.0</ele><time>2026-04-06T07:46:58.951Z</time></trkpt><trkpt lat="44.19340545593636" lon="11.941398376980533"><ele>215.0</ele><time>2026-04-06T07:46:59.951Z</time></trkpt><trkpt lat="44.19332490327399" lon="11.941515161889578"><ele>215.0</ele><time>2026-04-06T07:47:01.951Z</time></trkpt><trkpt lat="44.19327009574659" lon="11.941654355280447"><ele>215.0</ele><time>2026-04-06T07:47:03.951Z</time></trkpt><trkpt lat="44.19323885998678" lon="11.941790246970411"><ele>215.0</ele><time>2026-04-06T07:47:05.951Z</time></trkpt><trkpt lat="44.19319623862464" lon="11.941951983006332"><ele>213.00000000000003</ele><time>2026-04-06T07:47:07.951Z</time></trkpt><trkpt lat="44.193170238656855" lon="11.942036031181097"><ele>211.0</ele><time>2026-04-06T07:47:08.951Z</time></trkpt><trkpt lat="44.19314838999648" lon="11.942122436528756"><ele>209.0</ele><time>2026-04-06T07:47:09.951Z</time></trkpt><trkpt lat="44.19312699530307" lon="11.942293611064192"><ele>207.0</ele><time>2026-04-06T07:47:11.951Z</time></trkpt><trkpt lat="44.19311978920363" lon="11.942387687255767"><ele>205.00000000000003</ele><time>2026-04-06T07:47:12.951Z</time></trkpt><trkpt lat="44.193116046408974" lon="11.94247945892917"><ele>203.0</ele><time>2026-04-06T07:47:13.951Z</time></trkpt><trkpt lat="44.19312269629459" lon="11.942569168307134"><ele>201.71428571428572</ele><time>2026-04-06T07:47:14.951Z</time></trkpt><trkpt lat="44.1931222053281" lon="11.94266222088416"><ele>200.42857142857144</ele><time>2026-04-06T07:47:15.95Z</time></trkpt><trkpt lat="44.193124260053736" lon="11.942759015121622"><ele>199.14285714285714</ele><time>2026-04-06T07:47:16.95Z</time></trkpt><trkpt lat="44.193124839644916" lon="11.942858063199571"><ele>197.85714285714286</ele><time>2026-04-06T07:47:17.95Z</time></trkpt><trkpt lat="44.193125338235085" lon="11.942953767417498"><ele>196.57142857142858</ele><time>2026-04-06T07:47:18.95Z</time></trkpt><trkpt lat="44.193125130337435" lon="11.943055893921288"><ele>195.28571428571428</ele><time>2026-04-06T07:47:19.95Z</time></trkpt><trkpt lat="44.193119692247464" lon="11.943158228237312"><ele>194.0</ele><time>2026-04-06T07:47:20.95Z</time></trkpt><trkpt lat="44.19311558490641" lon="11.943253348893782"><ele>194.0</ele><time>2026-04-06T07:47:21.95Z</time></trkpt><trkpt lat="44.19311636056584" lon="11.943342079893256"><ele>194.0</ele><time>2026-04-06T07:47:22.95Z</time></trkpt><trkpt lat="44.19311707693975" lon="11.943434491394392"><ele>194.0</ele><time>2026-04-06T07:47:23.95Z</time></trkpt><trkpt lat="44.19311641956524" lon="11.943528845780154"><ele>194.0</ele><time>2026-04-06T07:47:24.95Z</time></trkpt><trkpt lat="44.19311678788567" lon="11.94362129397637"><ele>194.0</ele><time>2026-04-06T07:47:25.95Z</time></trkpt><trkpt lat="44.19312020317144" lon="11.94372892932203"><ele>194.0</ele><time>2026-04-06T07:47:26.95Z</time></trkpt><trkpt lat="44.19312529825432" lon="11.943841245846729"><ele>194.0</ele><time>2026-04-06T07:47:27.95Z</time></trkpt><trkpt lat="44.19312614373404" lon="11.943946424241139"><ele>193.85714285714286</ele><time>2026-04-06T07:47:28.95Z</time></trkpt><trkpt lat="44.19312842529993" lon="11.944047375053927"><ele>193.71428571428572</ele><time>2026-04-06T07:47:29.95Z</time></trkpt><trkpt lat="44.19313525186226" lon="11.944142505295465"><ele>193.57142857142858</ele><time>2026-04-06T07:47:30.95Z</time></trkpt><trkpt lat="44.1931442076872" lon="11.944231139211004"><ele>193.42857142857144</ele><time>2026-04-06T07:47:31.95Z</time></trkpt><trkpt lat="44.19316472029336" lon="11.944324184108208"><ele>193.28571428571428</ele><time>2026-04-06T07:47:32.95Z</time></trkpt><trkpt lat="44.193191666358814" lon="11.944416430304706"><ele>193.14285714285717</ele><time>2026-04-06T07:47:33.95Z</time></trkpt><trkpt lat="44.193222490720395" lon="11.944505686107881"><ele>193.0</ele><time>2026-04-06T07:47:34.95Z</time></trkpt><trkpt lat="44.19325749693101" lon="11.944589844575956"><ele>192.99999999999997</ele><time>2026-04-06T07:47:35.95Z</time></trkpt><trkpt lat="44.1933007673801" lon="11.944669113126105"><ele>193.0</ele><time>2026-04-06T07:47:36.95Z</time></trkpt><trkpt lat="44.19334757425029" lon="11.944748155231023"><ele>193.0</ele><time>2026-04-06T07:47:37.95Z</time></trkpt><trkpt lat="44.19339583737168" lon="11.944825836963428"><ele>193.0</ele><time>2026-04-06T07:47:38.95Z</time></trkpt><trkpt lat="44.193439879868514" lon="11.944892929541274"><ele>192.99999999999997</ele><time>2026-04-06T07:47:39.95Z</time></trkpt><trkpt lat="44.19352711847779" lon="11.944998254141023"><ele>193.0</ele><time>2026-04-06T07:47:41.95Z</time></trkpt><trkpt lat="44.193606438840305" lon="11.94508213748534"><ele>192.0</ele><time>2026-04-06T07:47:43.95Z</time></trkpt><trkpt lat="44.193669143397386" lon="11.945152982002877"><ele>191.0</ele><time>2026-04-06T07:47:45.95Z</time></trkpt><trkpt lat="44.19372401600491" lon="11.945225384422788"><ele>190.0</ele><time>2026-04-06T07:47:47.95Z</time></trkpt><trkpt lat="44.193782265915026" lon="11.945315584338642"><ele>189.0</ele><time>2026-04-06T07:47:50.95Z</time></trkpt><trkpt lat="44.19382018790306" lon="11.945409208090805"><ele>188.0</ele><time>2026-04-06T07:47:54.95Z</time></trkpt><trkpt lat="44.1937467892773" lon="11.945674695246685"><ele>188.0</ele><time>2026-04-06T07:47:57.95Z</time></trkpt><trkpt lat="44.19373578691048" lon="11.945837691129269"><ele>188.0</ele><time>2026-04-06T07:47:59.95Z</time></trkpt><trkpt lat="44.19371467463313" lon="11.945970502854152"><ele>188.0</ele><time>2026-04-06T07:48:01.95Z</time></trkpt><trkpt lat="44.193707192459705" lon="11.946080244099075"><ele>188.0</ele><time>2026-04-06T07:48:03.95Z</time></trkpt><trkpt lat="44.193689646584836" lon="11.946178252131455"><ele>188.0</ele><time>2026-04-06T07:48:05.95Z</time></trkpt><trkpt lat="44.19366279509004" lon="11.946260795740313"><ele>188.0</ele><time>2026-04-06T07:48:07.95Z</time></trkpt><trkpt lat="44.19360365405532" lon="11.946357491114043"><ele>186.0</ele><time>2026-04-06T07:48:09.95Z</time></trkpt><trkpt lat="44.193528105271724" lon="11.946442441200848"><ele>184.0</ele><time>2026-04-06T07:48:11.95Z</time></trkpt><trkpt lat="44.19344600323314" lon="11.946511808756625"><ele>182.0</ele><time>2026-04-06T07:48:13.95Z</time></trkpt><trkpt lat="44.1933600951042" lon="11.946574105997916"><ele>180.0</ele><time>2026-04-06T07:48:15.95Z</time></trkpt><trkpt lat="44.19324927094433" lon="11.946642384163066"><ele>178.0</ele><time>2026-04-06T07:48:17.95Z</time></trkpt><trkpt lat="44.19313914693866" lon="11.94670311723878"><ele>175.60000000000002</ele><time>2026-04-06T07:48:19.95Z</time></trkpt><trkpt lat="44.19303790313575" lon="11.946762357892954"><ele>173.20000000000002</ele><time>2026-04-06T07:48:21.95Z</time></trkpt><trkpt lat="44.1929399353985" lon="11.9468231093563"><ele>170.8</ele><time>2026-04-06T07:48:23.95Z</time></trkpt><trkpt lat="44.19285674236511" lon="11.946875482628247"><ele>168.4</ele><time>2026-04-06T07:48:25.95Z</time></trkpt><trkpt lat="44.192785381937256" lon="11.946926110846244"><ele>166.0</ele><time>2026-04-06T07:48:27.95Z</time></trkpt><trkpt lat="44.19272427665919" lon="11.946968589036953"><ele>166.0</ele><time>2026-04-06T07:48:29.949Z</time></trkpt><trkpt lat="44.19267943303414" lon="11.947035103898628"><ele>166.0</ele><time>2026-04-06T07:48:37.949Z</time></trkpt><trkpt lat="44.19260510435447" lon="11.94710652212421"><ele>166.0</ele><time>2026-04-06T07:48:41.949Z</time></trkpt><trkpt lat="44.192551084228064" lon="11.947167951794174"><ele>166.0</ele><time>2026-04-06T07:48:43.949Z</time></trkpt><trkpt lat="44.192490568804786" lon="11.94724687811986"><ele>166.0</ele><time>2026-04-06T07:48:45.949Z</time></trkpt><trkpt lat="44.192436210666436" lon="11.947336780343825"><ele>166.0</ele><time>2026-04-06T07:48:47.949Z</time></trkpt><trkpt lat="44.192380059042726" lon="11.947440834627889"><ele>164.5</ele><time>2026-04-06T07:48:49.949Z</time></trkpt><trkpt lat="44.192331450517116" lon="11.94754453553837"><ele>163.0</ele><time>2026-04-06T07:48:51.949Z</time></trkpt><trkpt lat="44.19228608955715" lon="11.947646726890754"><ele>161.5</ele><time>2026-04-06T07:48:53.949Z</time></trkpt><trkpt lat="44.192254130943184" lon="11.947732819725397"><ele>160.0</ele><time>2026-04-06T07:48:56.949Z</time></trkpt><trkpt lat="44.192231160749564" lon="11.947836405395082"><ele>158.5</ele><time>2026-04-06T07:49:06.949Z</time></trkpt><trkpt lat="44.192196848907884" lon="11.947931266659493"><ele>157.0</ele><time>2026-04-06T07:49:16.949Z</time></trkpt><trkpt lat="44.19217721585259" lon="11.948015051104433"><ele>157.0</ele><time>2026-04-06T07:49:19.949Z</time></trkpt><trkpt lat="44.192156482807036" lon="11.948115403642236"><ele>157.0</ele><time>2026-04-06T07:49:27.949Z</time></trkpt><trkpt lat="44.19213133266617" lon="11.948244074786137"><ele>157.0</ele><time>2026-04-06T07:49:32.949Z</time></trkpt><trkpt lat="44.19211203768679" lon="11.948329598466804"><ele>157.0</ele><time>2026-04-06T07:49:34.949Z</time></trkpt><trkpt lat="44.19209545490603" lon="11.948419007080869"><ele>157.0</ele><time>2026-04-06T07:49:36.949Z</time></trkpt><trkpt lat="44.19206970969298" lon="11.948549441838455"><ele>157.0</ele><time>2026-04-06T07:49:39.949Z</time></trkpt><trkpt lat="44.19205027168213" lon="11.948674414462484"><ele>156.0</ele><time>2026-04-06T07:49:42.949Z</time></trkpt><trkpt lat="44.19204028188653" lon="11.948774357271637"><ele>155.0</ele><time>2026-04-06T07:49:44.949Z</time></trkpt><trkpt lat="44.19202634194681" lon="11.94888991957781"><ele>154.0</ele><time>2026-04-06T07:49:46.949Z</time></trkpt><trkpt lat="44.19200430220588" lon="11.949034932513586"><ele>153.0</ele><time>2026-04-06T07:49:48.949Z</time></trkpt><trkpt lat="44.19198803069227" lon="11.949173130942553"><ele>152.0</ele><time>2026-04-06T07:49:50.949Z</time></trkpt><trkpt lat="44.19197570074302" lon="11.949277913560788"><ele>151.0</ele><time>2026-04-06T07:49:52.949Z</time></trkpt><trkpt lat="44.1919641653853" lon="11.94938030476973"><ele>149.16666666666669</ele><time>2026-04-06T07:49:54.949Z</time></trkpt><trkpt lat="44.19194999441257" lon="11.949500564092656"><ele>147.33333333333334</ele><time>2026-04-06T07:49:56.949Z</time></trkpt><trkpt lat="44.19193927970775" lon="11.949615161827726"><ele>145.5</ele><time>2026-04-06T07:49:59.949Z</time></trkpt><trkpt lat="44.19192585610297" lon="11.949750208544964"><ele>143.66666666666666</ele><time>2026-04-06T07:50:02.949Z</time></trkpt><trkpt lat="44.1919120810293" lon="11.949855934451689"><ele>141.83333333333331</ele><time>2026-04-06T07:50:04.949Z</time></trkpt><trkpt lat="44.191902856620835" lon="11.949950731223872"><ele>140.0</ele><time>2026-04-06T07:50:06.949Z</time></trkpt><trkpt lat="44.19188616290885" lon="11.950069288886656"><ele>139.0</ele><time>2026-04-06T07:50:09.949Z</time></trkpt><trkpt lat="44.191886873843536" lon="11.95017093477766"><ele>138.0</ele><time>2026-04-06T07:50:12.949Z</time></trkpt><trkpt lat="44.19189753145069" lon="11.950286307211703"><ele>137.0</ele><time>2026-04-06T07:50:14.949Z</time></trkpt><trkpt lat="44.19190855418456" lon="11.950376464970264"><ele>136.0</ele><time>2026-04-06T07:50:15.949Z</time></trkpt><trkpt lat="44.19191825700477" lon="11.950469354672943"><ele>135.0</ele><time>2026-04-06T07:50:16.949Z</time></trkpt><trkpt lat="44.19193164501797" lon="11.950585838749168"><ele>134.0</ele><time>2026-04-06T07:50:17.949Z</time></trkpt><trkpt lat="44.19196379339688" lon="11.950715667918313"><ele>134.0</ele><time>2026-04-06T07:50:18.949Z</time></trkpt><trkpt lat="44.191984990318865" lon="11.950852018245968"><ele>134.0</ele><time>2026-04-06T07:50:19.949Z</time></trkpt><trkpt lat="44.19201924264427" lon="11.95099733030491"><ele>134.0</ele><time>2026-04-06T07:50:20.949Z</time></trkpt><trkpt lat="44.192045304092304" lon="11.951130287825197"><ele>134.0</ele><time>2026-04-06T07:50:21.949Z</time></trkpt><trkpt lat="44.19206755110131" lon="11.951263295645955"><ele>134.0</ele><time>2026-04-06T07:50:22.949Z</time></trkpt><trkpt lat="44.19209128691628" lon="11.951380612140222"><ele>134.0</ele><time>2026-04-06T07:50:23.949Z</time></trkpt><trkpt lat="44.19212979327217" lon="11.951503010562977"><ele>134.0</ele><time>2026-04-06T07:50:24.949Z</time></trkpt><trkpt lat="44.19217379201977" lon="11.95163391264463"><ele>134.0</ele><time>2026-04-06T07:50:25.949Z</time></trkpt><trkpt lat="44.19222795525976" lon="11.95178574685353"><ele>134.0</ele><time>2026-04-06T07:50:26.949Z</time></trkpt><trkpt lat="44.19228180936992" lon="11.951926643873033"><ele>134.0</ele><time>2026-04-06T07:50:27.949Z</time></trkpt><trkpt lat="44.19233997913067" lon="11.952050766249375"><ele>134.0</ele><time>2026-04-06T07:50:28.949Z</time></trkpt><trkpt lat="44.19238879198721" lon="11.95217910985035"><ele>134.0</ele><time>2026-04-06T07:50:29.949Z</time></trkpt><trkpt lat="44.19243689696475" lon="11.952307248747346"><ele>134.0</ele><time>2026-04-06T07:50:30.949Z</time></trkpt><trkpt lat="44.1924825684817" lon="11.952425403160804"><ele>134.0</ele><time>2026-04-06T07:50:31.949Z</time></trkpt><trkpt lat="44.19254085099013" lon="11.952540921633963"><ele>134.0</ele><time>2026-04-06T07:50:32.949Z</time></trkpt><trkpt lat="44.19259265243603" lon="11.952668581278632"><ele>133.6</ele><time>2026-04-06T07:50:33.949Z</time></trkpt><trkpt lat="44.19264835734377" lon="11.952801640170804"><ele>133.2</ele><time>2026-04-06T07:50:34.949Z</time></trkpt><trkpt lat="44.19270249061717" lon="11.95293058683491"><ele>132.79999999999998</ele><time>2026-04-06T07:50:35.947Z</time></trkpt><trkpt lat="44.19275759469767" lon="11.953064416708049"><ele>132.4</ele><time>2026-04-06T07:50:36.946Z</time></trkpt><trkpt lat="44.192809101731754" lon="11.95320402668336"><ele>132.0</ele><time>2026-04-06T07:50:37.946Z</time></trkpt><trkpt lat="44.19285331462375" lon="11.953347968183795"><ele>131.0</ele><time>2026-04-06T07:50:38.947Z</time></trkpt><trkpt lat="44.192916268508895" lon="11.953460099584968"><ele>130.0</ele><time>2026-04-06T07:50:39.947Z</time></trkpt><trkpt lat="44.19296272308566" lon="11.953574918295699"><ele>129.0</ele><time>2026-04-06T07:50:40.947Z</time></trkpt><trkpt lat="44.19300423718016" lon="11.95368186575945"><ele>128.0</ele><time>2026-04-06T07:50:41.947Z</time></trkpt><trkpt lat="44.19304088306285" lon="11.953786126053886"><ele>127.0</ele><time>2026-04-06T07:50:42.947Z</time></trkpt><trkpt lat="44.19306729025822" lon="11.953896190965787"><ele>127.0</ele><time>2026-04-06T07:50:43.947Z</time></trkpt><trkpt lat="44.193082547877246" lon="11.953996278108288"><ele>127.0</ele><time>2026-04-06T07:50:44.946Z</time></trkpt><trkpt lat="44.19308473383996" lon="11.954090313600409"><ele>127.0</ele><time>2026-04-06T07:50:45.947Z</time></trkpt><trkpt lat="44.193079114667505" lon="11.954197571005572"><ele>127.0</ele><time>2026-04-06T07:50:46.947Z</time></trkpt><trkpt lat="44.193070644252316" lon="11.954314112779777"><ele>127.0</ele><time>2026-04-06T07:50:47.946Z</time></trkpt><trkpt lat="44.193052376953" lon="11.95441862482651"><ele>127.0</ele><time>2026-04-06T07:50:48.947Z</time></trkpt><trkpt lat="44.193031972295636" lon="11.954510275434702"><ele>127.0</ele><time>2026-04-06T07:50:49.947Z</time></trkpt><trkpt lat="44.192988964115095" lon="11.954591713124389"><ele>125.50000000000001</ele><time>2026-04-06T07:50:50.947Z</time></trkpt><trkpt lat="44.19295151909003" lon="11.954688682741901"><ele>124.0</ele><time>2026-04-06T07:50:51.947Z</time></trkpt><trkpt lat="44.19291834473442" lon="11.954788996613345"><ele>122.5</ele><time>2026-04-06T07:50:52.947Z</time></trkpt><trkpt lat="44.192866365643695" lon="11.954886487323373"><ele>121.0</ele><time>2026-04-06T07:50:53.947Z</time></trkpt><trkpt lat="44.19281346087216" lon="11.954993364334507"><ele>119.50000000000001</ele><time>2026-04-06T07:50:54.947Z</time></trkpt><trkpt lat="44.192765441253094" lon="11.955090774371104"><ele>118.0</ele><time>2026-04-06T07:50:55.947Z</time></trkpt><trkpt lat="44.192712828921735" lon="11.955154827491576"><ele>116.16666666666667</ele><time>2026-04-06T07:50:56.947Z</time></trkpt><trkpt lat="44.192655178792776" lon="11.95531792109793"><ele>114.33333333333334</ele><time>2026-04-06T07:50:58.947Z</time></trkpt><trkpt lat="44.19263380538309" lon="11.955432775628859"><ele>112.5</ele><time>2026-04-06T07:50:59.947Z</time></trkpt><trkpt lat="44.1926370810623" lon="11.955550321652272"><ele>110.66666666666666</ele><time>2026-04-06T07:51:00.947Z</time></trkpt><trkpt lat="44.19265016501761" lon="11.95566078397006"><ele>108.83333333333333</ele><time>2026-04-06T07:51:01.947Z</time></trkpt><trkpt lat="44.19266427290227" lon="11.955754769880594"><ele>107.0</ele><time>2026-04-06T07:51:02.947Z</time></trkpt><trkpt lat="44.1926601898148" lon="11.955908095950681"><ele>106.0</ele><time>2026-04-06T07:51:04.946Z</time></trkpt><trkpt lat="44.19259771759666" lon="11.95597637457662"><ele>104.99999999999999</ele><time>2026-04-06T07:51:06.946Z</time></trkpt><trkpt lat="44.192475797356444" lon="11.956051697304098"><ele>104.0</ele><time>2026-04-06T07:51:08.946Z</time></trkpt><trkpt lat="44.192393162579776" lon="11.956094156240127"><ele>103.0</ele><time>2026-04-06T07:51:09.946Z</time></trkpt><trkpt lat="44.192315782290926" lon="11.956116571163196"><ele>102.0</ele><time>2026-04-06T07:51:10.946Z</time></trkpt><trkpt lat="44.192234023677706" lon="11.956162272432087"><ele>99.33333333333333</ele><time>2026-04-06T07:51:11.946Z</time></trkpt><trkpt lat="44.19215047377006" lon="11.956205856075073"><ele>96.66666666666667</ele><time>2026-04-06T07:51:12.946Z</time></trkpt><trkpt lat="44.19207620959425" lon="11.956236216273728"><ele>94.0</ele><time>2026-04-06T07:51:13.946Z</time></trkpt><trkpt lat="44.192003453973015" lon="11.956249421558287"><ele>91.33333333333334</ele><time>2026-04-06T07:51:14.946Z</time></trkpt><trkpt lat="44.19192440650779" lon="11.956257124308388"><ele>88.66666666666667</ele><time>2026-04-06T07:51:15.946Z</time></trkpt><trkpt lat="44.1918458910558" lon="11.956222280493938"><ele>86.0</ele><time>2026-04-06T07:51:16.946Z</time></trkpt><trkpt lat="44.19177281269444" lon="11.956204616815253"><ele>86.0</ele><time>2026-04-06T07:51:17.946Z</time></trkpt><trkpt lat="44.19168755378028" lon="11.956194527819914"><ele>86.0</ele><time>2026-04-06T07:51:18.946Z</time></trkpt><trkpt lat="44.191599538440926" lon="11.956164233426643"><ele>86.0</ele><time>2026-04-06T07:51:19.946Z</time></trkpt><trkpt lat="44.19152374245872" lon="11.956134646943099"><ele>86.0</ele><time>2026-04-06T07:51:20.946Z</time></trkpt><trkpt lat="44.191450159597714" lon="11.956108382013506"><ele>86.0</ele><time>2026-04-06T07:51:21.946Z</time></trkpt><trkpt lat="44.191390643743894" lon="11.95605984664626"><ele>86.0</ele><time>2026-04-06T07:51:22.946Z</time></trkpt><trkpt lat="44.191321884306525" lon="11.956094064594408"><ele>83.39999999999999</ele><time>2026-04-06T07:51:23.946Z</time></trkpt><trkpt lat="44.19120265392495" lon="11.956144419443545"><ele>80.8</ele><time>2026-04-06T07:51:25.946Z</time></trkpt><trkpt lat="44.19112294682786" lon="11.956204126959612"><ele>78.19999999999999</ele><time>2026-04-06T07:51:26.946Z</time></trkpt><trkpt lat="44.191049419353426" lon="11.95627802622445"><ele>75.6</ele><time>2026-04-06T07:51:27.946Z</time></trkpt><trkpt lat="44.19096820203763" lon="11.956388031837994"><ele>73.0</ele><time>2026-04-06T07:51:28.946Z</time></trkpt><trkpt lat="44.19087474735701" lon="11.956508028051234"><ele>73.0</ele><time>2026-04-06T07:51:29.946Z</time></trkpt><trkpt lat="44.190799368026646" lon="11.956639172181582"><ele>73.0</ele><time>2026-04-06T07:51:30.946Z</time></trkpt><trkpt lat="44.190726515662355" lon="11.956758577059382"><ele>73.0</ele><time>2026-04-06T07:51:31.946Z</time></trkpt><trkpt lat="44.190652179631996" lon="11.956867003520696"><ele>73.0</ele><time>2026-04-06T07:51:32.946Z</time></trkpt><trkpt lat="44.190582018144156" lon="11.956982398428517"><ele>73.0</ele><time>2026-04-06T07:51:33.946Z</time></trkpt><trkpt lat="44.190514251945835" lon="11.957091189732834"><ele>72.16666666666666</ele><time>2026-04-06T07:51:34.946Z</time></trkpt><trkpt lat="44.19044822645956" lon="11.957196474477252"><ele>71.33333333333333</ele><time>2026-04-06T07:51:35.946Z</time></trkpt><trkpt lat="44.19038661992014" lon="11.95729701544084"><ele>70.5</ele><time>2026-04-06T07:51:36.946Z</time></trkpt><trkpt lat="44.19032819372229" lon="11.957388106821535"><ele>69.66666666666667</ele><time>2026-04-06T07:51:37.946Z</time></trkpt><trkpt lat="44.19027616271491" lon="11.95747077839931"><ele>68.83333333333334</ele><time>2026-04-06T07:51:38.946Z</time></trkpt><trkpt lat="44.19022931090642" lon="11.957542981835386"><ele>68.0</ele><time>2026-04-06T07:51:39.946Z</time></trkpt><trkpt lat="44.190146747766796" lon="11.957620615741765"><ele>68.0</ele><time>2026-04-06T07:51:41.946Z</time></trkpt><trkpt lat="44.19000812804183" lon="11.95754467551214"><ele>68.0</ele><time>2026-04-06T07:51:45.946Z</time></trkpt><trkpt lat="44.18993878420951" lon="11.95750753824797"><ele>68.0</ele><time>2026-04-06T07:51:46.946Z</time></trkpt><trkpt lat="44.18983740015951" lon="11.957491984994006"><ele>68.0</ele><time>2026-04-06T07:51:47.946Z</time></trkpt><trkpt lat="44.1897418282651" lon="11.957454551604625"><ele>68.0</ele><time>2026-04-06T07:51:48.946Z</time></trkpt><trkpt lat="44.189645550983776" lon="11.957423726677945"><ele>67.6</ele><time>2026-04-06T07:51:49.946Z</time></trkpt><trkpt lat="44.189547803131134" lon="11.957386397271543"><ele>67.19999999999999</ele><time>2026-04-06T07:51:50.946Z</time></trkpt><trkpt lat="44.18944972480818" lon="11.957387822474749"><ele>66.8</ele><time>2026-04-06T07:51:51.946Z</time></trkpt><trkpt lat="44.189342115008685" lon="11.957400636613801"><ele>66.39999999999999</ele><time>2026-04-06T07:51:52.946Z</time></trkpt><trkpt lat="44.18922912305023" lon="11.95741580711488"><ele>66.0</ele><time>2026-04-06T07:51:53.946Z</time></trkpt><trkpt lat="44.18912024663032" lon="11.957429734647201"><ele>66.0</ele><time>2026-04-06T07:51:54.946Z</time></trkpt><trkpt lat="44.18902710022906" lon="11.957441649983016"><ele>66.0</ele><time>2026-04-06T07:51:55.946Z</time></trkpt><trkpt lat="44.1889578240824" lon="11.957450511824177"><ele>66.0</ele><time>2026-04-06T07:51:56.946Z</time></trkpt><trkpt lat="44.188839234841375" lon="11.957465681807571"><ele>66.0</ele><time>2026-04-06T07:51:58.946Z</time></trkpt><trkpt lat="44.18878702273705" lon="11.957623381713784"><ele>66.0</ele><time>2026-04-06T07:51:59.946Z</time></trkpt><trkpt lat="44.18872115368414" lon="11.95771860309749"><ele>65.2</ele><time>2026-04-06T07:52:00.946Z</time></trkpt><trkpt lat="44.18867754802458" lon="11.957844193795145"><ele>64.39999999999999</ele><time>2026-04-06T07:52:01.946Z</time></trkpt><trkpt lat="44.18862223244152" lon="11.957980641824562"><ele>63.6</ele><time>2026-04-06T07:52:02.946Z</time></trkpt><trkpt lat="44.18856452332364" lon="11.958122993998547"><ele>62.8</ele><time>2026-04-06T07:52:03.946Z</time></trkpt><trkpt lat="44.18850927993078" lon="11.95825926394246"><ele>62.0</ele><time>2026-04-06T07:52:04.946Z</time></trkpt><trkpt lat="44.188471536043615" lon="11.958396650835521"><ele>61.400000000000006</ele><time>2026-04-06T07:52:05.946Z</time></trkpt><trkpt lat="44.188398861068414" lon="11.958523368704027"><ele>60.800000000000004</ele><time>2026-04-06T07:52:06.946Z</time></trkpt><trkpt lat="44.18835482114106" lon="11.958669900274625"><ele>60.2</ele><time>2026-04-06T07:52:07.946Z</time></trkpt><trkpt lat="44.18830513830677" lon="11.958795978354242"><ele>59.6</ele><time>2026-04-06T07:52:08.946Z</time></trkpt><trkpt lat="44.188260189543264" lon="11.958914820303983"><ele>59.0</ele><time>2026-04-06T07:52:09.946Z</time></trkpt><trkpt lat="44.188209813089" lon="11.959027075373752"><ele>58.75</ele><time>2026-04-06T07:52:10.946Z</time></trkpt><trkpt lat="44.1881384842661" lon="11.959136962889758"><ele>58.5</ele><time>2026-04-06T07:52:11.946Z</time></trkpt><trkpt lat="44.1880591053669" lon="11.959254681933999"><ele>58.25</ele><time>2026-04-06T07:52:12.946Z</time></trkpt><trkpt lat="44.18797268437317" lon="11.959359577818784"><ele>58.0</ele><time>2026-04-06T07:52:13.946Z</time></trkpt><trkpt lat="44.18788971833366" lon="11.959485520202449"><ele>58.0</ele><time>2026-04-06T07:52:14.946Z</time></trkpt><trkpt lat="44.187800937140686" lon="11.959618968215711"><ele>58.0</ele><time>2026-04-06T07:52:15.946Z</time></trkpt><trkpt lat="44.187714755036346" lon="11.959744110647268"><ele>58.0</ele><time>2026-04-06T07:52:16.946Z</time></trkpt><trkpt lat="44.187630760756406" lon="11.959872493737159"><ele>58.0</ele><time>2026-04-06T07:52:17.946Z</time></trkpt><trkpt lat="44.187554995871345" lon="11.959990500387004"><ele>58.0</ele><time>2026-04-06T07:52:18.946Z</time></trkpt><trkpt lat="44.187479432512724" lon="11.960098529578145"><ele>58.0</ele><time>2026-04-06T07:52:19.946Z</time></trkpt><trkpt lat="44.1874124455383" lon="11.9602072203218"><ele>58.0</ele><time>2026-04-06T07:52:20.946Z</time></trkpt><trkpt lat="44.18734522096929" lon="11.960296399263637"><ele>58.0</ele><time>2026-04-06T07:52:21.946Z</time></trkpt><trkpt lat="44.18728870980896" lon="11.960385048955004"><ele>58.0</ele><time>2026-04-06T07:52:22.946Z</time></trkpt><trkpt lat="44.18721469573624" lon="11.960472893882844"><ele>58.0</ele><time>2026-04-06T07:52:24.946Z</time></trkpt><trkpt lat="44.18719022714331" lon="11.960560387378116"><ele>58.0</ele><time>2026-04-06T07:52:33.946Z</time></trkpt><trkpt lat="44.18729701639396" lon="11.960717178015022"><ele>58.0</ele><time>2026-04-06T07:52:35.946Z</time></trkpt><trkpt lat="44.187361942854395" lon="11.960768301341304"><ele>58.0</ele><time>2026-04-06T07:52:36.946Z</time></trkpt><trkpt lat="44.18744794580088" lon="11.960841086057517"><ele>58.0</ele><time>2026-04-06T07:52:37.946Z</time></trkpt><trkpt lat="44.18753206220548" lon="11.960896426715694"><ele>57.8</ele><time>2026-04-06T07:52:38.946Z</time></trkpt><trkpt lat="44.18761077476386" lon="11.960999033829331"><ele>57.599999999999994</ele><time>2026-04-06T07:52:40.946Z</time></trkpt><trkpt lat="44.187621032244046" lon="11.961087116400764"><ele>57.400000000000006</ele><time>2026-04-06T07:52:41.944Z</time></trkpt><trkpt lat="44.187605449594706" lon="11.961204831011555"><ele>57.2</ele><time>2026-04-06T07:52:42.944Z</time></trkpt><trkpt lat="44.18757649502193" lon="11.961334018678556"><ele>57.0</ele><time>2026-04-06T07:52:43.944Z</time></trkpt><trkpt lat="44.18753841092883" lon="11.96147127812905"><ele>57.0</ele><time>2026-04-06T07:52:44.944Z</time></trkpt><trkpt lat="44.187497956356154" lon="11.96161644105404"><ele>57.0</ele><time>2026-04-06T07:52:45.944Z</time></trkpt><trkpt lat="44.187454376516285" lon="11.961765571985849"><ele>57.0</ele><time>2026-04-06T07:52:46.944Z</time></trkpt><trkpt lat="44.187408081389556" lon="11.961906964439828"><ele>57.0</ele><time>2026-04-06T07:52:47.944Z</time></trkpt><trkpt lat="44.187367719400655" lon="11.962027686421566"><ele>57.0</ele><time>2026-04-06T07:52:48.944Z</time></trkpt><trkpt lat="44.187321165440956" lon="11.96215617083107"><ele>57.0</ele><time>2026-04-06T07:52:49.944Z</time></trkpt><trkpt lat="44.18727379467861" lon="11.96229826827042"><ele>57.0</ele><time>2026-04-06T07:52:50.944Z</time></trkpt><trkpt lat="44.187231179241216" lon="11.962452772421274"><ele>57.0</ele><time>2026-04-06T07:52:51.944Z</time></trkpt><trkpt lat="44.18719334958135" lon="11.962594507828817"><ele>57.0</ele><time>2026-04-06T07:52:52.944Z</time></trkpt><trkpt lat="44.18715702764863" lon="11.962730385862974"><ele>57.0</ele><time>2026-04-06T07:52:53.944Z</time></trkpt><trkpt lat="44.187117991133235" lon="11.962863569416927"><ele>56.400000000000006</ele><time>2026-04-06T07:52:54.944Z</time></trkpt><trkpt lat="44.187081228142745" lon="11.962995357492154"><ele>55.800000000000004</ele><time>2026-04-06T07:52:55.944Z</time></trkpt><trkpt lat="44.187046149584816" lon="11.96313860479318"><ele>55.2</ele><time>2026-04-06T07:52:56.944Z</time></trkpt><trkpt lat="44.18700699952387" lon="11.963279906228976"><ele>54.6</ele><time>2026-04-06T07:52:57.944Z</time></trkpt><trkpt lat="44.1869581127323" lon="11.96340469321098"><ele>54.0</ele><time>2026-04-06T07:52:58.944Z</time></trkpt><trkpt lat="44.186920555644384" lon="11.963511142026453"><ele>53.0</ele><time>2026-04-06T07:52:59.944Z</time></trkpt><trkpt lat="44.18687909448592" lon="11.963669044742705"><ele>52.00000000000001</ele><time>2026-04-06T07:53:01.944Z</time></trkpt><trkpt lat="44.18685536898536" lon="11.96376130896524"><ele>51.0</ele><time>2026-04-06T07:53:02.944Z</time></trkpt><trkpt lat="44.186819174451124" lon="11.96386396534792"><ele>50.0</ele><time>2026-04-06T07:53:03.944Z</time></trkpt><trkpt lat="44.18676631332605" lon="11.963956878835926"><ele>49.0</ele><time>2026-04-06T07:53:04.944Z</time></trkpt><trkpt lat="44.18668933848897" lon="11.964036450233758"><ele>49.0</ele><time>2026-04-06T07:53:05.944Z</time></trkpt><trkpt lat="44.18646256568205" lon="11.964146046436746"><ele>49.0</ele><time>2026-04-06T07:53:07.944Z</time></trkpt><trkpt lat="44.186329259647394" lon="11.964206152813853"><ele>49.0</ele><time>2026-04-06T07:53:08.944Z</time></trkpt><trkpt lat="44.186189432767804" lon="11.964275088024372"><ele>49.0</ele><time>2026-04-06T07:53:09.944Z</time></trkpt><trkpt lat="44.186041621488705" lon="11.964344342911035"><ele>49.0</ele><time>2026-04-06T07:53:10.944Z</time></trkpt><trkpt lat="44.18588982085296" lon="11.964416553798229"><ele>49.0</ele><time>2026-04-06T07:53:11.944Z</time></trkpt><trkpt lat="44.18573942666617" lon="11.964488493857106"><ele>50.0</ele><time>2026-04-06T07:53:12.944Z</time></trkpt><trkpt lat="44.185595147042356" lon="11.964560864524213"><ele>51.0</ele><time>2026-04-06T07:53:13.943Z</time></trkpt><trkpt lat="44.18545064658192" lon="11.964630301649755"><ele>52.0</ele><time>2026-04-06T07:53:14.943Z</time></trkpt><trkpt lat="44.18530315625113" lon="11.964701431399778"><ele>52.0</ele><time>2026-04-06T07:53:15.943Z</time></trkpt><trkpt lat="44.18515914875705" lon="11.964764801367128"><ele>52.0</ele><time>2026-04-06T07:53:16.943Z</time></trkpt><trkpt lat="44.185023535199086" lon="11.964822395600683"><ele>52.0</ele><time>2026-04-06T07:53:17.943Z</time></trkpt><trkpt lat="44.18488804819252" lon="11.964885337453083"><ele>52.0</ele><time>2026-04-06T07:53:18.943Z</time></trkpt><trkpt lat="44.184774425465335" lon="11.964954370500136"><ele>52.25</ele><time>2026-04-06T07:53:19.943Z</time></trkpt><trkpt lat="44.18467306396437" lon="11.965045506731325"><ele>52.5</ele><time>2026-04-06T07:53:20.943Z</time></trkpt><trkpt lat="44.18457106065756" lon="11.965177793713792"><ele>52.75</ele><time>2026-04-06T07:53:21.943Z</time></trkpt><trkpt lat="44.184460215385236" lon="11.965315163373704"><ele>53.0</ele><time>2026-04-06T07:53:22.943Z</time></trkpt><trkpt lat="44.184336289964406" lon="11.965463033369385"><ele>53.0</ele><time>2026-04-06T07:53:23.943Z</time></trkpt><trkpt lat="44.18421038358843" lon="11.965608441346134"><ele>53.0</ele><time>2026-04-06T07:53:24.943Z</time></trkpt><trkpt lat="44.18408311025176" lon="11.96576246074995"><ele>53.0</ele><time>2026-04-06T07:53:25.943Z</time></trkpt><trkpt lat="44.18396180374351" lon="11.965917203559952"><ele>55.0</ele><time>2026-04-06T07:53:26.943Z</time></trkpt><trkpt lat="44.183850612873314" lon="11.966066355642667"><ele>57.0</ele><time>2026-04-06T07:53:27.943Z</time></trkpt><trkpt lat="44.18375301589746" lon="11.966206854884684"><ele>59.0</ele><time>2026-04-06T07:53:28.943Z</time></trkpt><trkpt lat="44.18366546981772" lon="11.966344801565477"><ele>61.0</ele><time>2026-04-06T07:53:29.943Z</time></trkpt><trkpt lat="44.18357608552222" lon="11.966473335943501"><ele>61.0</ele><time>2026-04-06T07:53:30.943Z</time></trkpt><trkpt lat="44.18350040384634" lon="11.966592465345988"><ele>60.99999999999999</ele><time>2026-04-06T07:53:31.943Z</time></trkpt><trkpt lat="44.18342613963547" lon="11.966703495283511"><ele>60.99999999999999</ele><time>2026-04-06T07:53:32.943Z</time></trkpt><trkpt lat="44.18337403448851" lon="11.966807359965292"><ele>61.0</ele><time>2026-04-06T07:53:33.943Z</time></trkpt><trkpt lat="44.18333343950982" lon="11.96689116432839"><ele>61.0</ele><time>2026-04-06T07:53:34.943Z</time></trkpt><trkpt lat="44.18330692769594" lon="11.966978689293038"><ele>61.5</ele><time>2026-04-06T07:53:35.943Z</time></trkpt><trkpt lat="44.18322810956118" lon="11.967096846293503"><ele>62.0</ele><time>2026-04-06T07:53:37.943Z</time></trkpt><trkpt lat="44.183172121011545" lon="11.967176196395707"><ele>62.5</ele><time>2026-04-06T07:53:38.943Z</time></trkpt><trkpt lat="44.18303074423306" lon="11.967162518495293"><ele>63.0</ele><time>2026-04-06T07:53:39.943Z</time></trkpt><trkpt lat="44.1829121757717" lon="11.967203808831924"><ele>63.5</ele><time>2026-04-06T07:53:40.943Z</time></trkpt><trkpt lat="44.182792409300475" lon="11.967250781899883"><ele>64.0</ele><time>2026-04-06T07:53:41.943Z</time></trkpt><trkpt lat="44.182662223138806" lon="11.967308530914892"><ele>64.5</ele><time>2026-04-06T07:53:42.943Z</time></trkpt><trkpt lat="44.182524972277044" lon="11.967364332029875"><ele>65.0</ele><time>2026-04-06T07:53:43.943Z</time></trkpt><trkpt lat="44.18238374142235" lon="11.967418963178543"><ele>64.75</ele><time>2026-04-06T07:53:44.943Z</time></trkpt><trkpt lat="44.18224748297602" lon="11.967471883227185"><ele>64.5</ele><time>2026-04-06T07:53:45.943Z</time></trkpt><trkpt lat="44.182104504893694" lon="11.967521804404388"><ele>64.25</ele><time>2026-04-06T07:53:46.943Z</time></trkpt><trkpt lat="44.18195378696662" lon="11.967582904218318"><ele>64.0</ele><time>2026-04-06T07:53:47.943Z</time></trkpt><trkpt lat="44.18180029012908" lon="11.967649257691798"><ele>65.0</ele><time>2026-04-06T07:53:48.943Z</time></trkpt><trkpt lat="44.18164027764431" lon="11.967711866074831"><ele>66.0</ele><time>2026-04-06T07:53:49.943Z</time></trkpt><trkpt lat="44.18147626290256" lon="11.967774322772192"><ele>67.0</ele><time>2026-04-06T07:53:50.943Z</time></trkpt><trkpt lat="44.181311492633284" lon="11.967838861854531"><ele>67.66666666666666</ele><time>2026-04-06T07:53:51.943Z</time></trkpt><trkpt lat="44.18114460343856" lon="11.96790579591822"><ele>68.33333333333333</ele><time>2026-04-06T07:53:52.943Z</time></trkpt><trkpt lat="44.180979397511265" lon="11.967973777483646"><ele>69.0</ele><time>2026-04-06T07:53:53.943Z</time></trkpt><trkpt lat="44.18081268602609" lon="11.968036518210292"><ele>69.33333333333333</ele><time>2026-04-06T07:53:54.943Z</time></trkpt><trkpt lat="44.18064904299535" lon="11.968095153876215"><ele>69.66666666666666</ele><time>2026-04-06T07:53:55.943Z</time></trkpt><trkpt lat="44.18048450735299" lon="11.96814631290213"><ele>70.0</ele><time>2026-04-06T07:53:56.943Z</time></trkpt><trkpt lat="44.18031392000226" lon="11.968195163148554"><ele>70.0</ele><time>2026-04-06T07:53:57.943Z</time></trkpt><trkpt lat="44.18013454985795" lon="11.968226718390508"><ele>70.0</ele><time>2026-04-06T07:53:58.943Z</time></trkpt><trkpt lat="44.1799515640819" lon="11.968244316202014"><ele>70.0</ele><time>2026-04-06T07:53:59.943Z</time></trkpt><trkpt lat="44.179761263415095" lon="11.968244709053721"><ele>70.66666666666666</ele><time>2026-04-06T07:54:00.943Z</time></trkpt><trkpt lat="44.179572466621416" lon="11.968238504820366"><ele>71.33333333333333</ele><time>2026-04-06T07:54:01.943Z</time></trkpt><trkpt lat="44.17937880615626" lon="11.968217613776044"><ele>72.0</ele><time>2026-04-06T07:54:02.943Z</time></trkpt><trkpt lat="44.17918747058465" lon="11.968177764399101"><ele>74.33333333333333</ele><time>2026-04-06T07:54:03.943Z</time></trkpt><trkpt lat="44.178996832989796" lon="11.968123761163202"><ele>76.66666666666666</ele><time>2026-04-06T07:54:04.943Z</time></trkpt><trkpt lat="44.178812280108566" lon="11.968061827743117"><ele>79.0</ele><time>2026-04-06T07:54:05.943Z</time></trkpt><trkpt lat="44.17863302637811" lon="11.967988109334987"><ele>79.0</ele><time>2026-04-06T07:54:06.943Z</time></trkpt><trkpt lat="44.178459613415185" lon="11.96790086147346"><ele>79.0</ele><time>2026-04-06T07:54:07.943Z</time></trkpt><trkpt lat="44.178292631493356" lon="11.967801022879705"><ele>79.0</ele><time>2026-04-06T07:54:08.943Z</time></trkpt><trkpt lat="44.17813113452403" lon="11.967690734044801"><ele>78.66666666666666</ele><time>2026-04-06T07:54:09.943Z</time></trkpt><trkpt lat="44.17797335178943" lon="11.967568814345716"><ele>78.33333333333333</ele><time>2026-04-06T07:54:10.943Z</time></trkpt><trkpt lat="44.17781599935698" lon="11.967433314777121"><ele>78.0</ele><time>2026-04-06T07:54:11.943Z</time></trkpt><trkpt lat="44.17766002056446" lon="11.967290143396857"><ele>78.0</ele><time>2026-04-06T07:54:12.943Z</time></trkpt><trkpt lat="44.17750449103213" lon="11.967147408088222"><ele>78.0</ele><time>2026-04-06T07:54:13.943Z</time></trkpt><trkpt lat="44.17734977319692" lon="11.967001050351433"><ele>78.0</ele><time>2026-04-06T07:54:14.943Z</time></trkpt><trkpt lat="44.17719122804779" lon="11.966855894729594"><ele>79.0</ele><time>2026-04-06T07:54:15.943Z</time></trkpt><trkpt lat="44.177036343333725" lon="11.966709384660271"><ele>80.0</ele><time>2026-04-06T07:54:16.943Z</time></trkpt><trkpt lat="44.17688384290176" lon="11.9665706193173"><ele>81.0</ele><time>2026-04-06T07:54:17.943Z</time></trkpt><trkpt lat="44.17673453811025" lon="11.966441212117182"><ele>81.0</ele><time>2026-04-06T07:54:18.943Z</time></trkpt><trkpt lat="44.17658262162221" lon="11.966308131002735"><ele>81.0</ele><time>2026-04-06T07:54:19.943Z</time></trkpt><trkpt lat="44.17643163726902" lon="11.966175799114506"><ele>81.0</ele><time>2026-04-06T07:54:20.943Z</time></trkpt><trkpt lat="44.17628496571393" lon="11.966023575315441"><ele>82.66666666666667</ele><time>2026-04-06T07:54:21.943Z</time></trkpt><trkpt lat="44.17612258372652" lon="11.965898116069022"><ele>84.33333333333334</ele><time>2026-04-06T07:54:22.943Z</time></trkpt><trkpt lat="44.17596883505074" lon="11.965750699433286"><ele>86.0</ele><time>2026-04-06T07:54:23.943Z</time></trkpt><trkpt lat="44.17581235027428" lon="11.96560500025793"><ele>89.0</ele><time>2026-04-06T07:54:24.943Z</time></trkpt><trkpt lat="44.17565220184184" lon="11.965455901208037"><ele>92.0</ele><time>2026-04-06T07:54:25.943Z</time></trkpt><trkpt lat="44.17549233072008" lon="11.965305135444677"><ele>95.0</ele><time>2026-04-06T07:54:26.943Z</time></trkpt><trkpt lat="44.17532851287089" lon="11.965152598159492"><ele>94.66666666666667</ele><time>2026-04-06T07:54:27.943Z</time></trkpt><trkpt lat="44.175162706694806" lon="11.965003218159506"><ele>94.33333333333333</ele><time>2026-04-06T07:54:28.943Z</time></trkpt><trkpt lat="44.17499949396949" lon="11.964856388132445"><ele>94.0</ele><time>2026-04-06T07:54:29.943Z</time></trkpt><trkpt lat="44.17483843797856" lon="11.964703134506141"><ele>94.0</ele><time>2026-04-06T07:54:30.943Z</time></trkpt><trkpt lat="44.1746799649946" lon="11.964551649433986"><ele>94.0</ele><time>2026-04-06T07:54:31.943Z</time></trkpt><trkpt lat="44.17452262633904" lon="11.964395151838415"><ele>94.0</ele><time>2026-04-06T07:54:32.943Z</time></trkpt><trkpt lat="44.174368587907345" lon="11.964231326283656"><ele>94.66666666666666</ele><time>2026-04-06T07:54:33.943Z</time></trkpt><trkpt lat="44.1742112005299" lon="11.964066070010796"><ele>95.33333333333333</ele><time>2026-04-06T07:54:34.943Z</time></trkpt><trkpt lat="44.17405520835096" lon="11.963893462795554"><ele>96.0</ele><time>2026-04-06T07:54:35.943Z</time></trkpt><trkpt lat="44.17390636292066" lon="11.963717446843301"><ele>96.0</ele><time>2026-04-06T07:54:36.943Z</time></trkpt><trkpt lat="44.17375650052565" lon="11.963538321120977"><ele>96.0</ele><time>2026-04-06T07:54:37.943Z</time></trkpt><trkpt lat="44.17360824155761" lon="11.96335749515207"><ele>96.0</ele><time>2026-04-06T07:54:38.943Z</time></trkpt><trkpt lat="44.17346769790237" lon="11.96315496512163"><ele>97.33333333333334</ele><time>2026-04-06T07:54:39.943Z</time></trkpt><trkpt lat="44.173322897419304" lon="11.962960681724624"><ele>98.66666666666667</ele><time>2026-04-06T07:54:40.943Z</time></trkpt><trkpt lat="44.17318079390897" lon="11.962768680625928"><ele>100.0</ele><time>2026-04-06T07:54:41.943Z</time></trkpt><trkpt lat="44.17303960822167" lon="11.962576122320046"><ele>96.33333333333334</ele><time>2026-04-06T07:54:42.943Z</time></trkpt><trkpt lat="44.17289916040201" lon="11.962384570355292"><ele>92.66666666666667</ele><time>2026-04-06T07:54:43.943Z</time></trkpt><trkpt lat="44.17276109954388" lon="11.962196273897488"><ele>89.0</ele><time>2026-04-06T07:54:44.943Z</time></trkpt><trkpt lat="44.17262530890051" lon="11.96201107369943"><ele>89.0</ele><time>2026-04-06T07:54:45.943Z</time></trkpt><trkpt lat="44.17248760880625" lon="11.961823269262663"><ele>89.0</ele><time>2026-04-06T07:54:46.943Z</time></trkpt><trkpt lat="44.17234017133857" lon="11.961653585779707"><ele>89.0</ele><time>2026-04-06T07:54:47.941Z</time></trkpt><trkpt lat="44.17221049074884" lon="11.96145784480415"><ele>89.0</ele><time>2026-04-06T07:54:48.942Z</time></trkpt><trkpt lat="44.172075266610285" lon="11.961271978539488"><ele>89.0</ele><time>2026-04-06T07:54:49.942Z</time></trkpt><trkpt lat="44.171937630186484" lon="11.96108794912542"><ele>89.0</ele><time>2026-04-06T07:54:50.941Z</time></trkpt><trkpt lat="44.17180320460289" lon="11.960902620308904"><ele>88.33333333333334</ele><time>2026-04-06T07:54:51.941Z</time></trkpt><trkpt lat="44.17166998457522" lon="11.96072199823612"><ele>87.66666666666667</ele><time>2026-04-06T07:54:52.941Z</time></trkpt><trkpt lat="44.171540413817986" lon="11.960544183858996"><ele>87.0</ele><time>2026-04-06T07:54:53.942Z</time></trkpt><trkpt lat="44.171414151359805" lon="11.960369627395448"><ele>88.33333333333333</ele><time>2026-04-06T07:54:54.941Z</time></trkpt><trkpt lat="44.17129062787359" lon="11.960203406185423"><ele>89.66666666666666</ele><time>2026-04-06T07:54:55.941Z</time></trkpt><trkpt lat="44.17116549692237" lon="11.960033781389214"><ele>91.0</ele><time>2026-04-06T07:54:56.941Z</time></trkpt><trkpt lat="44.17104031993367" lon="11.959866202271344"><ele>91.0</ele><time>2026-04-06T07:54:57.941Z</time></trkpt><trkpt lat="44.170920919821505" lon="11.959704099473244"><ele>91.0</ele><time>2026-04-06T07:54:58.941Z</time></trkpt><trkpt lat="44.170807217533934" lon="11.959552601220853"><ele>91.0</ele><time>2026-04-06T07:54:59.941Z</time></trkpt><trkpt lat="44.170704165523055" lon="11.959405473512515"><ele>92.0</ele><time>2026-04-06T07:55:00.941Z</time></trkpt><trkpt lat="44.17060402573963" lon="11.959269652836808"><ele>93.0</ele><time>2026-04-06T07:55:01.941Z</time></trkpt><trkpt lat="44.17050507550318" lon="11.959136647652429"><ele>94.0</ele><time>2026-04-06T07:55:02.941Z</time></trkpt><trkpt lat="44.17040872741498" lon="11.959007372618858"><ele>95.0</ele><time>2026-04-06T07:55:03.941Z</time></trkpt><trkpt lat="44.17031953265558" lon="11.958882489323127"><ele>95.0</ele><time>2026-04-06T07:55:04.941Z</time></trkpt><trkpt lat="44.17024297409451" lon="11.958750966646733"><ele>95.0</ele><time>2026-04-06T07:55:05.941Z</time></trkpt><trkpt lat="44.170149956631505" lon="11.95864246894737"><ele>95.0</ele><time>2026-04-06T07:55:06.941Z</time></trkpt><trkpt lat="44.17005823074906" lon="11.958514797193889"><ele>95.0</ele><time>2026-04-06T07:55:07.941Z</time></trkpt><trkpt lat="44.16998469303437" lon="11.9583755759377"><ele>94.5</ele><time>2026-04-06T07:55:08.941Z</time></trkpt><trkpt lat="44.16991454067018" lon="11.958264566426067"><ele>94.0</ele><time>2026-04-06T07:55:09.941Z</time></trkpt><trkpt lat="44.169859289532845" lon="11.958177149657788"><ele>93.5</ele><time>2026-04-06T07:55:10.941Z</time></trkpt><trkpt lat="44.169778386709986" lon="11.958073477783815"><ele>93.0</ele><time>2026-04-06T07:55:12.941Z</time></trkpt><trkpt lat="44.16972697981266" lon="11.95800322947257"><ele>92.5</ele><time>2026-04-06T07:55:14.941Z</time></trkpt><trkpt lat="44.16969876536666" lon="11.957915208485785"><ele>92.0</ele><time>2026-04-06T07:55:16.941Z</time></trkpt><trkpt lat="44.16963526328219" lon="11.957842778878803"><ele>93.39999999999999</ele><time>2026-04-06T07:55:18.941Z</time></trkpt><trkpt lat="44.169523713844995" lon="11.957920385226592"><ele>94.8</ele><time>2026-04-06T07:55:19.941Z</time></trkpt><trkpt lat="44.16945282615658" lon="11.95798398482175"><ele>96.2</ele><time>2026-04-06T07:55:20.941Z</time></trkpt><trkpt lat="44.16937980736274" lon="11.958072155006283"><ele>97.6</ele><time>2026-04-06T07:55:21.941Z</time></trkpt><trkpt lat="44.16929471289766" lon="11.958155006369356"><ele>99.0</ele><time>2026-04-06T07:55:22.941Z</time></trkpt><trkpt lat="44.169183244393075" lon="11.958230813001869"><ele>99.0</ele><time>2026-04-06T07:55:23.941Z</time></trkpt><trkpt lat="44.169066786399185" lon="11.958295579273974"><ele>99.0</ele><time>2026-04-06T07:55:24.941Z</time></trkpt><trkpt lat="44.16894946472507" lon="11.958362253257109"><ele>99.0</ele><time>2026-04-06T07:55:25.941Z</time></trkpt><trkpt lat="44.16883714510227" lon="11.95842970235748"><ele>99.0</ele><time>2026-04-06T07:55:26.941Z</time></trkpt><trkpt lat="44.168744726947345" lon="11.958486705915998"><ele>101.80000000000001</ele><time>2026-04-06T07:55:27.941Z</time></trkpt><trkpt lat="44.16867607953068" lon="11.958526175032823"><ele>104.60000000000001</ele><time>2026-04-06T07:55:28.941Z</time></trkpt><trkpt lat="44.168607036513585" lon="11.958628139160679"><ele>107.4</ele><time>2026-04-06T07:55:30.941Z</time></trkpt><trkpt lat="44.16859843624757" lon="11.958719946274723"><ele>110.2</ele><time>2026-04-06T07:55:31.941Z</time></trkpt><trkpt lat="44.16866652740111" lon="11.958854982560627"><ele>113.0</ele><time>2026-04-06T07:55:32.941Z</time></trkpt><trkpt lat="44.16876285648438" lon="11.958956131822651"><ele>113.0</ele><time>2026-04-06T07:55:33.941Z</time></trkpt><trkpt lat="44.168844890400564" lon="11.959088371911971"><ele>113.0</ele><time>2026-04-06T07:55:34.941Z</time></trkpt><trkpt lat="44.168934500741656" lon="11.959229442500185"><ele>113.0</ele><time>2026-04-06T07:55:35.941Z</time></trkpt><trkpt lat="44.169008396257894" lon="11.959380288952707"><ele>113.0</ele><time>2026-04-06T07:55:36.941Z</time></trkpt><trkpt lat="44.169089218727514" lon="11.959507930523966"><ele>113.60000000000001</ele><time>2026-04-06T07:55:37.941Z</time></trkpt><trkpt lat="44.16914962702785" lon="11.959608804059066"><ele>114.20000000000002</ele><time>2026-04-06T07:55:38.941Z</time></trkpt><trkpt lat="44.16918860679955" lon="11.9596888293359"><ele>114.8</ele><time>2026-04-06T07:55:39.941Z</time></trkpt><trkpt lat="44.1692046008374" lon="11.959842957082861"><ele>115.4</ele><time>2026-04-06T07:55:41.941Z</time></trkpt><trkpt lat="44.169164450292854" lon="11.959914951067917"><ele>116.0</ele><time>2026-04-06T07:55:42.941Z</time></trkpt><trkpt lat="44.16899517347453" lon="11.959907874788543"><ele>117.4</ele><time>2026-04-06T07:55:44.941Z</time></trkpt><trkpt lat="44.16889016799603" lon="11.95986697890321"><ele>118.8</ele><time>2026-04-06T07:55:45.941Z</time></trkpt><trkpt lat="44.16878006251259" lon="11.959841637407175"><ele>120.20000000000002</ele><time>2026-04-06T07:55:46.941Z</time></trkpt><trkpt lat="44.16867374830198" lon="11.959796084861686"><ele>121.60000000000001</ele><time>2026-04-06T07:55:47.941Z</time></trkpt><trkpt lat="44.168582867707094" lon="11.959750212194962"><ele>123.0</ele><time>2026-04-06T07:55:48.941Z</time></trkpt><trkpt lat="44.16851123521908" lon="11.959731100254816"><ele>123.0</ele><time>2026-04-06T07:55:49.941Z</time></trkpt><trkpt lat="44.16840173668857" lon="11.959800880219806"><ele>123.0</ele><time>2026-04-06T07:55:51.941Z</time></trkpt><trkpt lat="44.1684178534336" lon="11.96000826819246"><ele>123.0</ele><time>2026-04-06T07:55:53.941Z</time></trkpt><trkpt lat="44.16848442854512" lon="11.960106821326027"><ele>123.0</ele><time>2026-04-06T07:55:54.941Z</time></trkpt><trkpt lat="44.168579969388496" lon="11.960175604210601"><ele>126.2</ele><time>2026-04-06T07:55:55.941Z</time></trkpt><trkpt lat="44.16868432317011" lon="11.960234275838982"><ele>129.4</ele><time>2026-04-06T07:55:56.941Z</time></trkpt><trkpt lat="44.16877838485077" lon="11.960300510333285"><ele>132.60000000000002</ele><time>2026-04-06T07:55:57.941Z</time></trkpt><trkpt lat="44.16884240841426" lon="11.96036488891336"><ele>135.8</ele><time>2026-04-06T07:55:58.941Z</time></trkpt><trkpt lat="44.168874147235876" lon="11.960531751514496"><ele>139.0</ele><time>2026-04-06T07:56:00.941Z</time></trkpt><trkpt lat="44.16882923523845" lon="11.96060880558993"><ele>139.0</ele><time>2026-04-06T07:56:01.941Z</time></trkpt><trkpt lat="44.16874620533149" lon="11.960637096350125"><ele>139.0</ele><time>2026-04-06T07:56:02.941Z</time></trkpt><trkpt lat="44.16865526247266" lon="11.960597076138487"><ele>139.0</ele><time>2026-04-06T07:56:03.941Z</time></trkpt><trkpt lat="44.16857611267332" lon="11.960464089663944"><ele>139.0</ele><time>2026-04-06T07:56:04.941Z</time></trkpt><trkpt lat="44.168472252894176" lon="11.960363345370448"><ele>139.0</ele><time>2026-04-06T07:56:05.941Z</time></trkpt><trkpt lat="44.16836749596981" lon="11.960291805373247"><ele>139.0</ele><time>2026-04-06T07:56:06.941Z</time></trkpt><trkpt lat="44.16828831617573" lon="11.960236204415637"><ele>139.0</ele><time>2026-04-06T07:56:07.941Z</time></trkpt><trkpt lat="44.16821922537571" lon="11.960214848120913"><ele>139.0</ele><time>2026-04-06T07:56:08.941Z</time></trkpt><trkpt lat="44.16812111278458" lon="11.960302882129287"><ele>139.0</ele><time>2026-04-06T07:56:10.941Z</time></trkpt><trkpt lat="44.168123136352705" lon="11.960397165168322"><ele>139.0</ele><time>2026-04-06T07:56:11.941Z</time></trkpt><trkpt lat="44.16817326843705" lon="11.96052534174332"><ele>139.0</ele><time>2026-04-06T07:56:12.941Z</time></trkpt><trkpt lat="44.16827412273325" lon="11.960614553941527"><ele>139.0</ele><time>2026-04-06T07:56:13.941Z</time></trkpt><trkpt lat="44.1683876201845" lon="11.960696513664528"><ele>139.0</ele><time>2026-04-06T07:56:14.941Z</time></trkpt><trkpt lat="44.168496600932265" lon="11.960810398101422"><ele>139.0</ele><time>2026-04-06T07:56:15.941Z</time></trkpt><trkpt lat="44.16860049700451" lon="11.960882229756361"><ele>139.0</ele><time>2026-04-06T07:56:16.941Z</time></trkpt><trkpt lat="44.16867135976861" lon="11.96096564572291"><ele>141.16666666666669</ele><time>2026-04-06T07:56:17.941Z</time></trkpt><trkpt lat="44.16871134270555" lon="11.961042341845005"><ele>143.33333333333334</ele><time>2026-04-06T07:56:18.941Z</time></trkpt><trkpt lat="44.168715472021944" lon="11.961137481493246"><ele>145.5</ele><time>2026-04-06T07:56:19.941Z</time></trkpt><trkpt lat="44.16867616607703" lon="11.961234331703377"><ele>147.66666666666666</ele><time>2026-04-06T07:56:20.941Z</time></trkpt><trkpt lat="44.16859048811798" lon="11.961269511472954"><ele>149.83333333333331</ele><time>2026-04-06T07:56:21.941Z</time></trkpt><trkpt lat="44.16848458574153" lon="11.961222492779685"><ele>152.0</ele><time>2026-04-06T07:56:22.941Z</time></trkpt><trkpt lat="44.168398684772136" lon="11.961102408306758"><ele>152.0</ele><time>2026-04-06T07:56:23.941Z</time></trkpt><trkpt lat="44.16830056424716" lon="11.960978959110617"><ele>152.0</ele><time>2026-04-06T07:56:24.941Z</time></trkpt><trkpt lat="44.16822262899064" lon="11.960857205128232"><ele>152.0</ele><time>2026-04-06T07:56:25.941Z</time></trkpt><trkpt lat="44.16814501988622" lon="11.960771020304405"><ele>152.0</ele><time>2026-04-06T07:56:26.941Z</time></trkpt><trkpt lat="44.168065567826005" lon="11.960733527586491"><ele>152.0</ele><time>2026-04-06T07:56:27.941Z</time></trkpt><trkpt lat="44.16799406406259" lon="11.960754425920602"><ele>150.6</ele><time>2026-04-06T07:56:28.941Z</time></trkpt><trkpt lat="44.1679370507955" lon="11.960812989973343"><ele>149.2</ele><time>2026-04-06T07:56:29.941Z</time></trkpt><trkpt lat="44.167919011799206" lon="11.96091672045902"><ele>147.8</ele><time>2026-04-06T07:56:30.941Z</time></trkpt><trkpt lat="44.167936796264605" lon="11.961044697431921"><ele>146.4</ele><time>2026-04-06T07:56:31.941Z</time></trkpt><trkpt lat="44.167999997356425" lon="11.961170189514075"><ele>145.0</ele><time>2026-04-06T07:56:32.941Z</time></trkpt><trkpt lat="44.16809093403105" lon="11.961290156316624"><ele>146.75</ele><time>2026-04-06T07:56:33.941Z</time></trkpt><trkpt lat="44.1681707813959" lon="11.961431736306062"><ele>148.5</ele><time>2026-04-06T07:56:34.941Z</time></trkpt><trkpt lat="44.16826313954492" lon="11.9615680416999"><ele>150.25</ele><time>2026-04-06T07:56:35.941Z</time></trkpt><trkpt lat="44.1683566277585" lon="11.961709454640639"><ele>152.0</ele><time>2026-04-06T07:56:36.941Z</time></trkpt><trkpt lat="44.16845167752327" lon="11.961853603602297"><ele>154.2</ele><time>2026-04-06T07:56:37.941Z</time></trkpt><trkpt lat="44.16853772888752" lon="11.961980114449375"><ele>156.39999999999998</ele><time>2026-04-06T07:56:38.941Z</time></trkpt><trkpt lat="44.168596465162125" lon="11.962078644575486"><ele>158.60000000000002</ele><time>2026-04-06T07:56:39.941Z</time></trkpt><trkpt lat="44.16860716099679" lon="11.96221574236069"><ele>160.8</ele><time>2026-04-06T07:56:41.941Z</time></trkpt><trkpt lat="44.168488048283" lon="11.962293625860656"><ele>163.0</ele><time>2026-04-06T07:56:43.94Z</time></trkpt><trkpt lat="44.16840305981034" lon="11.96225677737948"><ele>163.0</ele><time>2026-04-06T07:56:44.94Z</time></trkpt><trkpt lat="44.168330036083745" lon="11.962135549642955"><ele>163.0</ele><time>2026-04-06T07:56:45.94Z</time></trkpt><trkpt lat="44.168235452636765" lon="11.96203941854471"><ele>163.0</ele><time>2026-04-06T07:56:46.94Z</time></trkpt><trkpt lat="44.16812605956154" lon="11.961956845609528"><ele>163.0</ele><time>2026-04-06T07:56:47.94Z</time></trkpt><trkpt lat="44.168031571905075" lon="11.961874493168962"><ele>165.60000000000002</ele><time>2026-04-06T07:56:48.94Z</time></trkpt><trkpt lat="44.16795055103372" lon="11.961825331695152"><ele>168.20000000000002</ele><time>2026-04-06T07:56:49.94Z</time></trkpt><trkpt lat="44.167830753239635" lon="11.96183027996015"><ele>170.8</ele><time>2026-04-06T07:56:51.94Z</time></trkpt><trkpt lat="44.16778154729639" lon="11.962001904042062"><ele>173.4</ele><time>2026-04-06T07:56:53.94Z</time></trkpt><trkpt lat="44.16782522393802" lon="11.962126798217616"><ele>176.0</ele><time>2026-04-06T07:56:54.94Z</time></trkpt><trkpt lat="44.16789627585474" lon="11.962231718277556"><ele>176.0</ele><time>2026-04-06T07:56:55.94Z</time></trkpt><trkpt lat="44.16797515928624" lon="11.962339453305571"><ele>176.0</ele><time>2026-04-06T07:56:56.94Z</time></trkpt><trkpt lat="44.16805071573201" lon="11.962458592369703"><ele>176.0</ele><time>2026-04-06T07:56:57.939Z</time></trkpt><trkpt lat="44.16811074787812" lon="11.962568894782699"><ele>176.0</ele><time>2026-04-06T07:56:58.939Z</time></trkpt><trkpt lat="44.16813404015321" lon="11.962669086578444"><ele>176.0</ele><time>2026-04-06T07:56:59.94Z</time></trkpt><trkpt lat="44.16812602997312" lon="11.962763299506504"><ele>177.5</ele><time>2026-04-06T07:57:00.939Z</time></trkpt><trkpt lat="44.168007815155256" lon="11.962832115601527"><ele>179.0</ele><time>2026-04-06T07:57:02.94Z</time></trkpt><trkpt lat="44.1679209815978" lon="11.962750264799054"><ele>180.5</ele><time>2026-04-06T07:57:03.939Z</time></trkpt><trkpt lat="44.16780983461192" lon="11.962704016452621"><ele>182.0</ele><time>2026-04-06T07:57:04.939Z</time></trkpt><trkpt lat="44.167697478831826" lon="11.962627591789655"><ele>182.0</ele><time>2026-04-06T07:57:05.94Z</time></trkpt><trkpt lat="44.1675732591418" lon="11.962556575602948"><ele>182.0</ele><time>2026-04-06T07:57:06.939Z</time></trkpt><trkpt lat="44.16746255398138" lon="11.962495079199039"><ele>182.0</ele><time>2026-04-06T07:57:07.939Z</time></trkpt><trkpt lat="44.16737965882627" lon="11.962461782478723"><ele>182.0</ele><time>2026-04-06T07:57:08.939Z</time></trkpt><trkpt lat="44.167278027533854" lon="11.962501727756239"><ele>182.0</ele><time>2026-04-06T07:57:10.939Z</time></trkpt><trkpt lat="44.16725716654091" lon="11.962590347065138"><ele>182.0</ele><time>2026-04-06T07:57:11.939Z</time></trkpt><trkpt lat="44.16727280734648" lon="11.962687558829842"><ele>182.0</ele><time>2026-04-06T07:57:12.939Z</time></trkpt><trkpt lat="44.16734187142891" lon="11.962792725427866"><ele>182.0</ele><time>2026-04-06T07:57:13.939Z</time></trkpt><trkpt lat="44.167425920609936" lon="11.962898381285617"><ele>182.0</ele><time>2026-04-06T07:57:14.939Z</time></trkpt><trkpt lat="44.167478919748184" lon="11.962989715248826"><ele>182.0</ele><time>2026-04-06T07:57:15.939Z</time></trkpt><trkpt lat="44.16744632228015" lon="11.963131084187099"><ele>182.0</ele><time>2026-04-06T07:57:17.939Z</time></trkpt><trkpt lat="44.16738334865359" lon="11.963151858539124"><ele>182.0</ele><time>2026-04-06T07:57:18.939Z</time></trkpt><trkpt lat="44.16731100603512" lon="11.96307629703267"><ele>182.0</ele><time>2026-04-06T07:57:19.939Z</time></trkpt><trkpt lat="44.16722354191454" lon="11.963039298464432"><ele>182.0</ele><time>2026-04-06T07:57:20.939Z</time></trkpt><trkpt lat="44.167130176118015" lon="11.962986590808233"><ele>182.0</ele><time>2026-04-06T07:57:21.939Z</time></trkpt><trkpt lat="44.16702048720017" lon="11.962962253591954"><ele>181.39999999999998</ele><time>2026-04-06T07:57:22.939Z</time></trkpt><trkpt lat="44.16689578184572" lon="11.962951323421999"><ele>180.79999999999998</ele><time>2026-04-06T07:57:23.939Z</time></trkpt><trkpt lat="44.16678135124237" lon="11.962946544360026"><ele>180.2</ele><time>2026-04-06T07:57:24.939Z</time></trkpt><trkpt lat="44.16667578875505" lon="11.962949491148857"><ele>179.6</ele><time>2026-04-06T07:57:25.939Z</time></trkpt><trkpt lat="44.16658305793582" lon="11.962954442762179"><ele>179.0</ele><time>2026-04-06T07:57:26.939Z</time></trkpt><trkpt lat="44.16650540530673" lon="11.962961257049681"><ele>179.0</ele><time>2026-04-06T07:57:27.939Z</time></trkpt><trkpt lat="44.16641995386151" lon="11.962943301929089"><ele>179.0</ele><time>2026-04-06T07:57:29.939Z</time></trkpt><trkpt lat="44.166329346984405" lon="11.962938707760456"><ele>179.0</ele><time>2026-04-06T07:58:01.938Z</time></trkpt><trkpt lat="44.16621572278925" lon="11.962922526709754"><ele>179.0</ele><time>2026-04-06T07:58:03.938Z</time></trkpt><trkpt lat="44.16614025000704" lon="11.962931002675184"><ele>179.0</ele><time>2026-04-06T07:58:04.938Z</time></trkpt><trkpt lat="44.16605032478354" lon="11.962896350695328"><ele>179.0</ele><time>2026-04-06T07:58:05.938Z</time></trkpt><trkpt lat="44.16597965408744" lon="11.96280492445117"><ele>179.0</ele><time>2026-04-06T07:58:06.938Z</time></trkpt><trkpt lat="44.16591336958116" lon="11.962712879472518"><ele>179.0</ele><time>2026-04-06T07:58:07.938Z</time></trkpt><trkpt lat="44.16584636925364" lon="11.962605474354397"><ele>179.0</ele><time>2026-04-06T07:58:08.938Z</time></trkpt><trkpt lat="44.16578197559255" lon="11.962474228679795"><ele>179.0</ele><time>2026-04-06T07:58:09.938Z</time></trkpt><trkpt lat="44.16571908630237" lon="11.962326872181656"><ele>176.75</ele><time>2026-04-06T07:58:10.938Z</time></trkpt><trkpt lat="44.16565161196692" lon="11.962176952551726"><ele>174.5</ele><time>2026-04-06T07:58:11.938Z</time></trkpt><trkpt lat="44.16557777889001" lon="11.962058643533545"><ele>172.25</ele><time>2026-04-06T07:58:12.938Z</time></trkpt><trkpt lat="44.16552186903601" lon="11.961926947975533"><ele>170.0</ele><time>2026-04-06T07:58:13.938Z</time></trkpt><trkpt lat="44.1654970498358" lon="11.96176865471862"><ele>172.4</ele><time>2026-04-06T07:58:14.938Z</time></trkpt><trkpt lat="44.16548015450727" lon="11.96160128630704"><ele>174.8</ele><time>2026-04-06T07:58:15.938Z</time></trkpt><trkpt lat="44.16544763670768" lon="11.961446078267915"><ele>177.2</ele><time>2026-04-06T07:58:16.938Z</time></trkpt><trkpt lat="44.16542394866815" lon="11.961315655805246"><ele>179.6</ele><time>2026-04-06T07:58:17.938Z</time></trkpt><trkpt lat="44.16538049972496" lon="11.961227935885148"><ele>182.0</ele><time>2026-04-06T07:58:18.938Z</time></trkpt><trkpt lat="44.16531370333541" lon="11.96115163887638"><ele>182.0</ele><time>2026-04-06T07:58:19.938Z</time></trkpt><trkpt lat="44.16523377384109" lon="11.96108573162184"><ele>182.0</ele><time>2026-04-06T07:58:20.938Z</time></trkpt><trkpt lat="44.1651269012037" lon="11.961033017186002"><ele>182.0</ele><time>2026-04-06T07:58:21.938Z</time></trkpt><trkpt lat="44.16502697661886" lon="11.960971914078149"><ele>182.0</ele><time>2026-04-06T07:58:22.938Z</time></trkpt><trkpt lat="44.16494408273258" lon="11.960867642516343"><ele>182.0</ele><time>2026-04-06T07:58:23.938Z</time></trkpt><trkpt lat="44.16486137734212" lon="11.960760008586949"><ele>184.25</ele><time>2026-04-06T07:58:24.938Z</time></trkpt><trkpt lat="44.16477685271389" lon="11.96064031996273"><ele>186.5</ele><time>2026-04-06T07:58:25.938Z</time></trkpt><trkpt lat="44.164692726914026" lon="11.960519870216084"><ele>188.75</ele><time>2026-04-06T07:58:26.938Z</time></trkpt><trkpt lat="44.164609392082674" lon="11.960403385914407"><ele>191.0</ele><time>2026-04-06T07:58:27.938Z</time></trkpt><trkpt lat="44.16452943850192" lon="11.96029355470884"><ele>191.0</ele><time>2026-04-06T07:58:28.938Z</time></trkpt><trkpt lat="44.16445748550911" lon="11.96018693244812"><ele>191.0</ele><time>2026-04-06T07:58:29.938Z</time></trkpt><trkpt lat="44.16439965357494" lon="11.960082370712982"><ele>191.0</ele><time>2026-04-06T07:58:30.938Z</time></trkpt><trkpt lat="44.1643479181065" lon="11.95998935446606"><ele>191.0</ele><time>2026-04-06T07:58:31.938Z</time></trkpt><trkpt lat="44.164321766466124" lon="11.959882035869938"><ele>191.0</ele><time>2026-04-06T07:58:32.938Z</time></trkpt><trkpt lat="44.16428246866754" lon="11.95976891742321"><ele>192.60000000000002</ele><time>2026-04-06T07:58:33.938Z</time></trkpt><trkpt lat="44.16424598847559" lon="11.959644353067977"><ele>194.2</ele><time>2026-04-06T07:58:34.938Z</time></trkpt><trkpt lat="44.164207784399494" lon="11.959504755145984"><ele>195.8</ele><time>2026-04-06T07:58:35.938Z</time></trkpt><trkpt lat="44.16416903534971" lon="11.95935826704653"><ele>197.39999999999998</ele><time>2026-04-06T07:58:36.938Z</time></trkpt><trkpt lat="44.16412959389155" lon="11.959197764309911"><ele>199.0</ele><time>2026-04-06T07:58:37.938Z</time></trkpt><trkpt lat="44.16407043655749" lon="11.959028835709107"><ele>198.25</ele><time>2026-04-06T07:58:38.938Z</time></trkpt><trkpt lat="44.164020740517316" lon="11.95884383603734"><ele>197.5</ele><time>2026-04-06T07:58:39.938Z</time></trkpt><trkpt lat="44.163969901701925" lon="11.958657916092339"><ele>196.75</ele><time>2026-04-06T07:58:40.938Z</time></trkpt><trkpt lat="44.16390203928133" lon="11.958478834105213"><ele>196.0</ele><time>2026-04-06T07:58:41.938Z</time></trkpt><trkpt lat="44.16384411782578" lon="11.95829564747046"><ele>197.75</ele><time>2026-04-06T07:58:42.938Z</time></trkpt><trkpt lat="44.16377317647303" lon="11.958114408235698"><ele>199.5</ele><time>2026-04-06T07:58:43.938Z</time></trkpt><trkpt lat="44.16371336597386" lon="11.95793772736807"><ele>201.25</ele><time>2026-04-06T07:58:44.938Z</time></trkpt><trkpt lat="44.16365224453511" lon="11.957775443003184"><ele>203.0</ele><time>2026-04-06T07:58:45.938Z</time></trkpt><trkpt lat="44.16359096760938" lon="11.957628273248504"><ele>203.2</ele><time>2026-04-06T07:58:46.938Z</time></trkpt><trkpt lat="44.163535413083686" lon="11.95749108114851"><ele>203.4</ele><time>2026-04-06T07:58:47.938Z</time></trkpt><trkpt lat="44.16347167715703" lon="11.957362101933466"><ele>203.6</ele><time>2026-04-06T07:58:48.938Z</time></trkpt><trkpt lat="44.163397500866616" lon="11.957252961423666"><ele>203.79999999999998</ele><time>2026-04-06T07:58:49.938Z</time></trkpt><trkpt lat="44.16330739637196" lon="11.957157613257205"><ele>204.0</ele><time>2026-04-06T07:58:50.938Z</time></trkpt><trkpt lat="44.16319417697804" lon="11.957069355694754"><ele>203.75</ele><time>2026-04-06T07:58:51.938Z</time></trkpt><trkpt lat="44.16307593019564" lon="11.956963772416051"><ele>203.5</ele><time>2026-04-06T07:58:52.938Z</time></trkpt><trkpt lat="44.162954124697094" lon="11.956856958482248"><ele>203.25</ele><time>2026-04-06T07:58:53.938Z</time></trkpt><trkpt lat="44.162831716590574" lon="11.956742210515388"><ele>203.0</ele><time>2026-04-06T07:58:54.938Z</time></trkpt><trkpt lat="44.16271251112047" lon="11.956632263721746"><ele>203.0</ele><time>2026-04-06T07:58:55.938Z</time></trkpt><trkpt lat="44.16259726520783" lon="11.956531682727507"><ele>203.0</ele><time>2026-04-06T07:58:56.938Z</time></trkpt><trkpt lat="44.162478575987215" lon="11.956446065068281"><ele>203.0</ele><time>2026-04-06T07:58:57.938Z</time></trkpt><trkpt lat="44.162353723180495" lon="11.956374257513323"><ele>203.0</ele><time>2026-04-06T07:58:58.938Z</time></trkpt><trkpt lat="44.16221487366761" lon="11.956318391090925"><ele>203.75</ele><time>2026-04-06T07:58:59.937Z</time></trkpt><trkpt lat="44.16207189678468" lon="11.956262763206153"><ele>204.5</ele><time>2026-04-06T07:59:00.938Z</time></trkpt><trkpt lat="44.16193296450809" lon="11.956185794762586"><ele>205.25</ele><time>2026-04-06T07:59:01.938Z</time></trkpt><trkpt lat="44.16179096612773" lon="11.956126842667814"><ele>206.0</ele><time>2026-04-06T07:59:02.938Z</time></trkpt><trkpt lat="44.16165463580913" lon="11.956065806395358"><ele>207.75</ele><time>2026-04-06T07:59:03.938Z</time></trkpt><trkpt lat="44.16152987481915" lon="11.956007221290085"><ele>209.5</ele><time>2026-04-06T07:59:04.938Z</time></trkpt><trkpt lat="44.161413014823786" lon="11.955955558440417"><ele>211.25</ele><time>2026-04-06T07:59:05.937Z</time></trkpt><trkpt lat="44.16130794245414" lon="11.955919525271286"><ele>213.0</ele><time>2026-04-06T07:59:06.937Z</time></trkpt><trkpt lat="44.161217086053995" lon="11.955888372024285"><ele>213.0</ele><time>2026-04-06T07:59:07.937Z</time></trkpt><trkpt lat="44.16112516639523" lon="11.955880312957857"><ele>213.0</ele><time>2026-04-06T07:59:08.937Z</time></trkpt><trkpt lat="44.161012456751344" lon="11.955916526438449"><ele>213.0</ele><time>2026-04-06T07:59:09.938Z</time></trkpt><trkpt lat="44.16090267129732" lon="11.955992004787333"><ele>213.0</ele><time>2026-04-06T07:59:10.938Z</time></trkpt><trkpt lat="44.16078825820815" lon="11.956088201766248"><ele>217.0</ele><time>2026-04-06T07:59:11.938Z</time></trkpt><trkpt lat="44.16067446202466" lon="11.956193044013487"><ele>221.0</ele><time>2026-04-06T07:59:12.938Z</time></trkpt><trkpt lat="44.160553915332876" lon="11.956299357803202"><ele>225.0</ele><time>2026-04-06T07:59:13.938Z</time></trkpt><trkpt lat="44.160422444332625" lon="11.956390605860557"><ele>229.0</ele><time>2026-04-06T07:59:14.938Z</time></trkpt><trkpt lat="44.1602915591318" lon="11.956499778243595"><ele>229.0</ele><time>2026-04-06T07:59:15.938Z</time></trkpt><trkpt lat="44.16016749153161" lon="11.956605807211453"><ele>229.0</ele><time>2026-04-06T07:59:16.938Z</time></trkpt><trkpt lat="44.160043656827504" lon="11.95670618691567"><ele>229.0</ele><time>2026-04-06T07:59:17.938Z</time></trkpt><trkpt lat="44.15991898028875" lon="11.956817958218268"><ele>229.0</ele><time>2026-04-06T07:59:18.938Z</time></trkpt><trkpt lat="44.15979070572417" lon="11.9569366580263"><ele>230.0</ele><time>2026-04-06T07:59:19.938Z</time></trkpt><trkpt lat="44.15965977337138" lon="11.957042747291561"><ele>231.0</ele><time>2026-04-06T07:59:20.938Z</time></trkpt><trkpt lat="44.15954781363975" lon="11.957141248237715"><ele>232.0</ele><time>2026-04-06T07:59:21.938Z</time></trkpt><trkpt lat="44.159447227870366" lon="11.95722868221212"><ele>233.0</ele><time>2026-04-06T07:59:22.938Z</time></trkpt><trkpt lat="44.15922228868504" lon="11.957419440830853"><ele>233.0</ele><time>2026-04-06T07:59:24.938Z</time></trkpt><trkpt lat="44.15909140740239" lon="11.957506299542821"><ele>233.0</ele><time>2026-04-06T07:59:25.938Z</time></trkpt><trkpt lat="44.15896421482708" lon="11.957592983972177"><ele>233.0</ele><time>2026-04-06T07:59:26.938Z</time></trkpt><trkpt lat="44.15885466413215" lon="11.957688744774785"><ele>233.0</ele><time>2026-04-06T07:59:27.938Z</time></trkpt><trkpt lat="44.158756009440914" lon="11.957805060048388"><ele>233.25</ele><time>2026-04-06T07:59:28.938Z</time></trkpt><trkpt lat="44.1586789661463" lon="11.957950167945995"><ele>233.5</ele><time>2026-04-06T07:59:29.938Z</time></trkpt><trkpt lat="44.15861435661715" lon="11.95809665092891"><ele>233.75</ele><time>2026-04-06T07:59:30.938Z</time></trkpt><trkpt lat="44.15854637606632" lon="11.958237531823874"><ele>234.0</ele><time>2026-04-06T07:59:31.938Z</time></trkpt><trkpt lat="44.15845783551355" lon="11.958368121471834"><ele>234.0</ele><time>2026-04-06T07:59:32.938Z</time></trkpt><trkpt lat="44.15834438766582" lon="11.95849217837852"><ele>234.0</ele><time>2026-04-06T07:59:33.938Z</time></trkpt><trkpt lat="44.15823146968411" lon="11.958618658453007"><ele>234.0</ele><time>2026-04-06T07:59:34.938Z</time></trkpt><trkpt lat="44.15812406623188" lon="11.958766387901722"><ele>234.0</ele><time>2026-04-06T07:59:35.938Z</time></trkpt><trkpt lat="44.15802278685463" lon="11.958915713050931"><ele>234.25</ele><time>2026-04-06T07:59:36.938Z</time></trkpt><trkpt lat="44.15792444425877" lon="11.959067317635155"><ele>234.5</ele><time>2026-04-06T07:59:37.938Z</time></trkpt><trkpt lat="44.15783752612765" lon="11.959199706113044"><ele>234.75</ele><time>2026-04-06T07:59:38.938Z</time></trkpt><trkpt lat="44.157759199379605" lon="11.959316062862513"><ele>235.0</ele><time>2026-04-06T07:59:39.938Z</time></trkpt><trkpt lat="44.15768549866629" lon="11.959407371519209"><ele>234.99999999999997</ele><time>2026-04-06T07:59:40.938Z</time></trkpt><trkpt lat="44.15762346008677" lon="11.959463763534329"><ele>235.0</ele><time>2026-04-06T07:59:41.938Z</time></trkpt><trkpt lat="44.157559676928855" lon="11.959476213577478"><ele>235.0</ele><time>2026-04-06T07:59:42.938Z</time></trkpt><trkpt lat="44.15748520889428" lon="11.9594120242314"><ele>235.0</ele><time>2026-04-06T07:59:43.938Z</time></trkpt><trkpt lat="44.157422263767515" lon="11.959335910459302"><ele>234.99999999999997</ele><time>2026-04-06T07:59:44.938Z</time></trkpt><trkpt lat="44.1573897917808" lon="11.959242047702846"><ele>235.0</ele><time>2026-04-06T07:59:45.938Z</time></trkpt><trkpt lat="44.15742534869534" lon="11.959142526712842"><ele>237.2</ele><time>2026-04-06T07:59:46.938Z</time></trkpt><trkpt lat="44.15743208768687" lon="11.959020289826652"><ele>239.4</ele><time>2026-04-06T07:59:47.938Z</time></trkpt><trkpt lat="44.15742538344588" lon="11.958872176646837"><ele>241.60000000000002</ele><time>2026-04-06T07:59:48.938Z</time></trkpt><trkpt lat="44.15745980580482" lon="11.958715880524727"><ele>243.8</ele><time>2026-04-06T07:59:49.938Z</time></trkpt><trkpt lat="44.157473532924044" lon="11.958541302636378"><ele>246.0</ele><time>2026-04-06T07:59:50.938Z</time></trkpt><trkpt lat="44.15748873609531" lon="11.958401236242288"><ele>247.20000000000002</ele><time>2026-04-06T07:59:51.938Z</time></trkpt><trkpt lat="44.157500095204774" lon="11.958300229249074"><ele>248.40000000000003</ele><time>2026-04-06T07:59:52.938Z</time></trkpt><trkpt lat="44.15756819588177" lon="11.958138826903689"><ele>249.6</ele><time>2026-04-06T07:59:54.938Z</time></trkpt><trkpt lat="44.157632864192315" lon="11.958075924860479"><ele>250.8</ele><time>2026-04-06T07:59:55.938Z</time></trkpt><trkpt lat="44.157705501883726" lon="11.958019417848421"><ele>252.0</ele><time>2026-04-06T07:59:56.938Z</time></trkpt><trkpt lat="44.15778231760813" lon="11.957978631475322"><ele>252.0</ele><time>2026-04-06T07:59:57.938Z</time></trkpt><trkpt lat="44.15786456600082" lon="11.95793206731674"><ele>252.0</ele><time>2026-04-06T07:59:58.938Z</time></trkpt><trkpt lat="44.15794484543204" lon="11.957853832473145"><ele>252.0</ele><time>2026-04-06T07:59:59.938Z</time></trkpt><trkpt lat="44.158014163175274" lon="11.957734776983399"><ele>252.0</ele><time>2026-04-06T08:00:00.938Z</time></trkpt><trkpt lat="44.15806984888104" lon="11.957638673097788"><ele>252.0</ele><time>2026-04-06T08:00:01.938Z</time></trkpt><trkpt lat="44.15810176618868" lon="11.957545382140879"><ele>251.5</ele><time>2026-04-06T08:00:02.938Z</time></trkpt><trkpt lat="44.158102328333385" lon="11.95744570984857"><ele>251.0</ele><time>2026-04-06T08:00:03.938Z</time></trkpt><trkpt lat="44.15809531667577" lon="11.957325461807665"><ele>250.5</ele><time>2026-04-06T08:00:04.938Z</time></trkpt><trkpt lat="44.158072794668726" lon="11.957214825561568"><ele>250.0</ele><time>2026-04-06T08:00:05.938Z</time></trkpt><trkpt lat="44.15804055625899" lon="11.95708050543191"><ele>249.5</ele><time>2026-04-06T08:00:06.938Z</time></trkpt><trkpt lat="44.15800420029364" lon="11.956951946040476"><ele>249.0</ele><time>2026-04-06T08:00:07.938Z</time></trkpt><trkpt lat="44.15796200110846" lon="11.956825793072401"><ele>247.75</ele><time>2026-04-06T08:00:08.938Z</time></trkpt><trkpt lat="44.15789625406777" lon="11.956698573164216"><ele>246.5</ele><time>2026-04-06T08:00:09.937Z</time></trkpt><trkpt lat="44.15784246552121" lon="11.956535473070916"><ele>245.25</ele><time>2026-04-06T08:00:10.937Z</time></trkpt><trkpt lat="44.15777673147879" lon="11.956382288169072"><ele>244.0</ele><time>2026-04-06T08:00:11.937Z</time></trkpt><trkpt lat="44.15771641197147" lon="11.956242084158838"><ele>244.0</ele><time>2026-04-06T08:00:12.937Z</time></trkpt><trkpt lat="44.157655561173485" lon="11.95612272139949"><ele>244.0</ele><time>2026-04-06T08:00:13.937Z</time></trkpt><trkpt lat="44.15758243195123" lon="11.956015507225652"><ele>244.0</ele><time>2026-04-06T08:00:14.937Z</time></trkpt><trkpt lat="44.15748528587039" lon="11.95591213197764"><ele>244.0</ele><time>2026-04-06T08:00:15.937Z</time></trkpt><trkpt lat="44.157383033767765" lon="11.95580311488702"><ele>241.75</ele><time>2026-04-06T08:00:16.937Z</time></trkpt><trkpt lat="44.157270845701994" lon="11.95570629498313"><ele>239.5</ele><time>2026-04-06T08:00:17.937Z</time></trkpt><trkpt lat="44.15715569763265" lon="11.955616794255873"><ele>237.25</ele><time>2026-04-06T08:00:18.937Z</time></trkpt><trkpt lat="44.157043734590495" lon="11.955508176056872"><ele>235.0</ele><time>2026-04-06T08:00:19.937Z</time></trkpt><trkpt lat="44.15695603262152" lon="11.955400346825659"><ele>235.0</ele><time>2026-04-06T08:00:20.937Z</time></trkpt><trkpt lat="44.15687314533333" lon="11.955304148389065"><ele>235.0</ele><time>2026-04-06T08:00:21.937Z</time></trkpt><trkpt lat="44.156801570353615" lon="11.95520541167563"><ele>235.0</ele><time>2026-04-06T08:00:22.937Z</time></trkpt><trkpt lat="44.15673999548629" lon="11.955068642589282"><ele>235.0</ele><time>2026-04-06T08:00:23.937Z</time></trkpt><trkpt lat="44.156677003321114" lon="11.954936081418682"><ele>235.0</ele><time>2026-04-06T08:00:24.937Z</time></trkpt><trkpt lat="44.15660970526094" lon="11.954808458219503"><ele>236.25</ele><time>2026-04-06T08:00:25.937Z</time></trkpt><trkpt lat="44.1565352101582" lon="11.954662906278095"><ele>237.5</ele><time>2026-04-06T08:00:26.937Z</time></trkpt><trkpt lat="44.15643509254032" lon="11.954553830120297"><ele>238.75</ele><time>2026-04-06T08:00:27.937Z</time></trkpt><trkpt lat="44.15633115773363" lon="11.954450744805555"><ele>240.0</ele><time>2026-04-06T08:00:28.937Z</time></trkpt><trkpt lat="44.15622336644209" lon="11.954353572721917"><ele>240.0</ele><time>2026-04-06T08:00:29.937Z</time></trkpt><trkpt lat="44.15612953837298" lon="11.954271371946577"><ele>240.0</ele><time>2026-04-06T08:00:30.937Z</time></trkpt><trkpt lat="44.15606011125261" lon="11.954200726061007"><ele>240.0</ele><time>2026-04-06T08:00:31.937Z</time></trkpt><trkpt lat="44.156011167385586" lon="11.954136012080463"><ele>240.0</ele><time>2026-04-06T08:00:32.937Z</time></trkpt><trkpt lat="44.15597294668463" lon="11.954048235866177"><ele>240.0</ele><time>2026-04-06T08:00:33.937Z</time></trkpt><trkpt lat="44.155959765246244" lon="11.95385384144379"><ele>244.25</ele><time>2026-04-06T08:00:35.937Z</time></trkpt><trkpt lat="44.155969489070195" lon="11.953719266385509"><ele>248.5</ele><time>2026-04-06T08:00:36.937Z</time></trkpt><trkpt lat="44.15599971655526" lon="11.953581773738659"><ele>252.75</ele><time>2026-04-06T08:00:37.937Z</time></trkpt><trkpt lat="44.156045215894544" lon="11.953418533486786"><ele>257.0</ele><time>2026-04-06T08:00:38.937Z</time></trkpt><trkpt lat="44.15609837822353" lon="11.953242189848098"><ele>257.8</ele><time>2026-04-06T08:00:39.937Z</time></trkpt><trkpt lat="44.15614592998481" lon="11.953090076898617"><ele>258.6</ele><time>2026-04-06T08:00:40.937Z</time></trkpt><trkpt lat="44.15619990332184" lon="11.952972279760084"><ele>259.40000000000003</ele><time>2026-04-06T08:00:41.937Z</time></trkpt><trkpt lat="44.15622845563675" lon="11.952845361277985"><ele>260.2</ele><time>2026-04-06T08:00:42.937Z</time></trkpt><trkpt lat="44.156239292536334" lon="11.952726018455724"><ele>261.0</ele><time>2026-04-06T08:00:43.937Z</time></trkpt><trkpt lat="44.15623350199711" lon="11.952623323079992"><ele>260.2</ele><time>2026-04-06T08:00:44.937Z</time></trkpt><trkpt lat="44.156201267631566" lon="11.952524466171674"><ele>259.40000000000003</ele><time>2026-04-06T08:00:45.937Z</time></trkpt><trkpt lat="44.1561599627375" lon="11.952400865644142"><ele>258.6</ele><time>2026-04-06T08:00:46.937Z</time></trkpt><trkpt lat="44.15610597279348" lon="11.95229625491764"><ele>257.8</ele><time>2026-04-06T08:00:47.937Z</time></trkpt><trkpt lat="44.15603952918017" lon="11.952197145904774"><ele>257.0</ele><time>2026-04-06T08:00:48.937Z</time></trkpt><trkpt lat="44.1559506098848" lon="11.952097940460849"><ele>257.0</ele><time>2026-04-06T08:00:49.937Z</time></trkpt><trkpt lat="44.155890151087156" lon="11.951987594784278"><ele>257.0</ele><time>2026-04-06T08:00:50.937Z</time></trkpt><trkpt lat="44.15583471583466" lon="11.951902713906891"><ele>257.0</ele><time>2026-04-06T08:00:51.937Z</time></trkpt><trkpt lat="44.155787740197546" lon="11.951805869210137"><ele>257.0</ele><time>2026-04-06T08:00:52.937Z</time></trkpt><trkpt lat="44.15574488805577" lon="11.951678120307516"><ele>257.0</ele><time>2026-04-06T08:00:53.937Z</time></trkpt><trkpt lat="44.15570880682944" lon="11.95151954609349"><ele>252.0</ele><time>2026-04-06T08:00:54.937Z</time></trkpt><trkpt lat="44.15566187709551" lon="11.951351006667906"><ele>247.0</ele><time>2026-04-06T08:00:55.937Z</time></trkpt><trkpt lat="44.15560672658583" lon="11.951185804065869"><ele>242.0</ele><time>2026-04-06T08:00:56.937Z</time></trkpt><trkpt lat="44.155540851578465" lon="11.951041705204888"><ele>237.0</ele><time>2026-04-06T08:00:57.937Z</time></trkpt><trkpt lat="44.15548120068835" lon="11.950913951994027"><ele>238.25</ele><time>2026-04-06T08:00:58.937Z</time></trkpt><trkpt lat="44.155429571416555" lon="11.950763843149025"><ele>239.5</ele><time>2026-04-06T08:00:59.937Z</time></trkpt><trkpt lat="44.15539615134613" lon="11.950574259658794"><ele>240.75</ele><time>2026-04-06T08:01:00.937Z</time></trkpt><trkpt lat="44.1553562053644" lon="11.950372398086467"><ele>242.0</ele><time>2026-04-06T08:01:01.937Z</time></trkpt><trkpt lat="44.1553142225086" lon="11.95018080643069"><ele>244.66666666666669</ele><time>2026-04-06T08:01:02.937Z</time></trkpt><trkpt lat="44.15527215595831" lon="11.949988832566369"><ele>247.33333333333331</ele><time>2026-04-06T08:01:03.937Z</time></trkpt><trkpt lat="44.15522880173742" lon="11.949785742831049"><ele>250.0</ele><time>2026-04-06T08:01:04.937Z</time></trkpt><trkpt lat="44.15518636513621" lon="11.949575466767975"><ele>250.0</ele><time>2026-04-06T08:01:05.936Z</time></trkpt><trkpt lat="44.15514374225229" lon="11.949363427391166"><ele>250.0</ele><time>2026-04-06T08:01:06.936Z</time></trkpt><trkpt lat="44.155103376834724" lon="11.949181203417693"><ele>250.0</ele><time>2026-04-06T08:01:07.936Z</time></trkpt><trkpt lat="44.15507024446321" lon="11.949024158210246"><ele>250.0</ele><time>2026-04-06T08:01:08.935Z</time></trkpt><trkpt lat="44.15501747362826" lon="11.948894317107804"><ele>249.2</ele><time>2026-04-06T08:01:09.936Z</time></trkpt><trkpt lat="44.154967974853484" lon="11.948775503521626"><ele>248.4</ele><time>2026-04-06T08:01:10.936Z</time></trkpt><trkpt lat="44.15490346358405" lon="11.94868111628069"><ele>247.60000000000002</ele><time>2026-04-06T08:01:11.936Z</time></trkpt><trkpt lat="44.154825718142654" lon="11.948610314008752"><ele>246.8</ele><time>2026-04-06T08:01:12.935Z</time></trkpt><trkpt lat="44.15470721774037" lon="11.948533567900466"><ele>246.0</ele><time>2026-04-06T08:01:13.935Z</time></trkpt><trkpt lat="44.1545985840807" lon="11.948432096863353"><ele>248.75</ele><time>2026-04-06T08:01:14.936Z</time></trkpt><trkpt lat="44.15447426864011" lon="11.948363493829213"><ele>251.5</ele><time>2026-04-06T08:01:15.935Z</time></trkpt><trkpt lat="44.15436920023975" lon="11.948258085357295"><ele>254.25</ele><time>2026-04-06T08:01:16.935Z</time></trkpt><trkpt lat="44.154259803617585" lon="11.948174212491006"><ele>257.0</ele><time>2026-04-06T08:01:17.936Z</time></trkpt><trkpt lat="44.154157347135246" lon="11.948102206889029"><ele>257.0</ele><time>2026-04-06T08:01:18.935Z</time></trkpt><trkpt lat="44.154062671790605" lon="11.94804997931712"><ele>257.0</ele><time>2026-04-06T08:01:19.935Z</time></trkpt><trkpt lat="44.15397644182195" lon="11.948020993949347"><ele>257.0</ele><time>2026-04-06T08:01:20.935Z</time></trkpt><trkpt lat="44.15389968987352" lon="11.94798526897982"><ele>257.0</ele><time>2026-04-06T08:01:21.935Z</time></trkpt><trkpt lat="44.1538260295318" lon="11.947953766405982"><ele>257.0</ele><time>2026-04-06T08:01:22.935Z</time></trkpt><trkpt lat="44.15376187027002" lon="11.947923658009467"><ele>257.0</ele><time>2026-04-06T08:01:23.935Z</time></trkpt><trkpt lat="44.15364242947905" lon="11.947867232092992"><ele>255.71428571428572</ele><time>2026-04-06T08:01:25.935Z</time></trkpt><trkpt lat="44.153572972305646" lon="11.947830488448943"><ele>254.42857142857144</ele><time>2026-04-06T08:01:26.935Z</time></trkpt><trkpt lat="44.1535047730775" lon="11.947802326668402"><ele>253.14285714285717</ele><time>2026-04-06T08:01:27.935Z</time></trkpt><trkpt lat="44.15344559920315" lon="11.947747613955126"><ele>251.85714285714286</ele><time>2026-04-06T08:01:28.935Z</time></trkpt><trkpt lat="44.15338452844782" lon="11.947713859384814"><ele>250.5714285714286</ele><time>2026-04-06T08:01:29.935Z</time></trkpt><trkpt lat="44.15331695345147" lon="11.947678733653378"><ele>249.2857142857143</ele><time>2026-04-06T08:01:30.935Z</time></trkpt><trkpt lat="44.15323841771416" lon="11.947628091198315"><ele>248.0</ele><time>2026-04-06T08:01:31.935Z</time></trkpt><trkpt lat="44.1531546500503" lon="11.947569729817989"><ele>251.25</ele><time>2026-04-06T08:01:32.935Z</time></trkpt><trkpt lat="44.153064370891286" lon="11.947527119009873"><ele>254.5</ele><time>2026-04-06T08:01:33.935Z</time></trkpt><trkpt lat="44.152950158878056" lon="11.94749293277201"><ele>257.75</ele><time>2026-04-06T08:01:34.935Z</time></trkpt><trkpt lat="44.15282096770216" lon="11.947471412158237"><ele>261.0</ele><time>2026-04-06T08:01:35.935Z</time></trkpt><trkpt lat="44.15268683656661" lon="11.947464859858702"><ele>261.0</ele><time>2026-04-06T08:01:36.935Z</time></trkpt><trkpt lat="44.15257426259237" lon="11.94745719879196"><ele>261.0</ele><time>2026-04-06T08:01:37.935Z</time></trkpt><trkpt lat="44.152474791888764" lon="11.947436081889563"><ele>261.0</ele><time>2026-04-06T08:01:38.935Z</time></trkpt><trkpt lat="44.15238197130447" lon="11.947407833990143"><ele>261.0</ele><time>2026-04-06T08:01:39.935Z</time></trkpt><trkpt lat="44.152292749365465" lon="11.947374302454893"><ele>261.0</ele><time>2026-04-06T08:01:40.935Z</time></trkpt><trkpt lat="44.15221137818509" lon="11.947313765530641"><ele>262.2</ele><time>2026-04-06T08:01:41.935Z</time></trkpt><trkpt lat="44.15211142504515" lon="11.947266818738607"><ele>263.40000000000003</ele><time>2026-04-06T08:01:42.935Z</time></trkpt><trkpt lat="44.15200225883426" lon="11.947216673596863"><ele>264.6</ele><time>2026-04-06T08:01:43.935Z</time></trkpt><trkpt lat="44.151898582424785" lon="11.947169552455088"><ele>265.8</ele><time>2026-04-06T08:01:44.935Z</time></trkpt><trkpt lat="44.15180685749521" lon="11.947135864422801"><ele>267.0</ele><time>2026-04-06T08:01:45.935Z</time></trkpt><trkpt lat="44.15173862621231" lon="11.94710618370381"><ele>267.0</ele><time>2026-04-06T08:01:46.935Z</time></trkpt><trkpt lat="44.15162441071248" lon="11.947053431652314"><ele>267.0</ele><time>2026-04-06T08:01:48.935Z</time></trkpt><trkpt lat="44.151528796927806" lon="11.94701105909153"><ele>267.0</ele><time>2026-04-06T08:01:50.935Z</time></trkpt><trkpt lat="44.15146841084718" lon="11.946981816479425"><ele>267.0</ele><time>2026-04-06T08:01:51.935Z</time></trkpt><trkpt lat="44.15134415489752" lon="11.946910317038366"><ele>267.0</ele><time>2026-04-06T08:01:53.935Z</time></trkpt><trkpt lat="44.15127785236917" lon="11.946870022064907"><ele>268.6</ele><time>2026-04-06T08:01:54.935Z</time></trkpt><trkpt lat="44.151174643186295" lon="11.946792917259899"><ele>270.2</ele><time>2026-04-06T08:01:56.935Z</time></trkpt><trkpt lat="44.15110501514815" lon="11.946691242765041"><ele>271.8</ele><time>2026-04-06T08:01:58.935Z</time></trkpt><trkpt lat="44.15103215336173" lon="11.946558755101348"><ele>273.4</ele><time>2026-04-06T08:02:00.935Z</time></trkpt><trkpt lat="44.150974865270136" lon="11.946456977827175"><ele>275.0</ele><time>2026-04-06T08:02:02.935Z</time></trkpt><trkpt lat="44.15090692932706" lon="11.946372713360464"><ele>275.0</ele><time>2026-04-06T08:02:04.935Z</time></trkpt><trkpt lat="44.15083455856376" lon="11.946324349957518"><ele>275.0</ele><time>2026-04-06T08:02:06.935Z</time></trkpt><trkpt lat="44.150755147756705" lon="11.946295880743639"><ele>275.0</ele><time>2026-04-06T08:02:08.935Z</time></trkpt><trkpt lat="44.150661080318926" lon="11.946263030990954"><ele>275.0</ele><time>2026-04-06T08:02:10.935Z</time></trkpt><trkpt lat="44.15057593272061" lon="11.94621101156742"><ele>275.0</ele><time>2026-04-06T08:02:12.935Z</time></trkpt><trkpt lat="44.15051180455161" lon="11.94614362099682"><ele>275.0</ele><time>2026-04-06T08:02:14.935Z</time></trkpt><trkpt lat="44.15046756156832" lon="11.946070911263279"><ele>273.2</ele><time>2026-04-06T08:02:16.935Z</time></trkpt><trkpt lat="44.15042191153639" lon="11.946002539305722"><ele>271.4</ele><time>2026-04-06T08:02:18.935Z</time></trkpt><trkpt lat="44.15034995675698" lon="11.945935853768125"><ele>269.6</ele><time>2026-04-06T08:02:20.935Z</time></trkpt><trkpt lat="44.15027938209906" lon="11.945822981839571"><ele>267.8</ele><time>2026-04-06T08:02:22.935Z</time></trkpt><trkpt lat="44.15020207080471" lon="11.945702779892008"><ele>266.0</ele><time>2026-04-06T08:02:24.934Z</time></trkpt><trkpt lat="44.150121729328866" lon="11.945587557240387"><ele>266.0</ele><time>2026-04-06T08:02:26.934Z</time></trkpt><trkpt lat="44.15005952435386" lon="11.945499532839838"><ele>266.0</ele><time>2026-04-06T08:02:28.934Z</time></trkpt><trkpt lat="44.14997159975225" lon="11.945394659815987"><ele>266.0</ele><time>2026-04-06T08:02:30.934Z</time></trkpt><trkpt lat="44.149895815682726" lon="11.94531439591606"><ele>266.0</ele><time>2026-04-06T08:02:32.934Z</time></trkpt><trkpt lat="44.149805442612475" lon="11.945182714929732"><ele>266.0</ele><time>2026-04-06T08:02:34.934Z</time></trkpt><trkpt lat="44.14976855515548" lon="11.945108686114608"><ele>266.1666666666667</ele><time>2026-04-06T08:02:35.934Z</time></trkpt><trkpt lat="44.14971629937203" lon="11.944963274902932"><ele>266.33333333333337</ele><time>2026-04-06T08:02:37.934Z</time></trkpt><trkpt lat="44.1496895543857" lon="11.944858798461377"><ele>266.5</ele><time>2026-04-06T08:02:38.934Z</time></trkpt><trkpt lat="44.14966943314572" lon="11.944758905417421"><ele>266.6666666666667</ele><time>2026-04-06T08:02:39.934Z</time></trkpt><trkpt lat="44.14966001944004" lon="11.944667380744457"><ele>266.8333333333333</ele><time>2026-04-06T08:02:40.934Z</time></trkpt><trkpt lat="44.14965919285635" lon="11.94451647926862"><ele>267.0</ele><time>2026-04-06T08:02:42.934Z</time></trkpt><trkpt lat="44.14965688116193" lon="11.944368598114682"><ele>263.6666666666667</ele><time>2026-04-06T08:02:44.934Z</time></trkpt><trkpt lat="44.14960720145066" lon="11.944199990489626"><ele>260.3333333333333</ele><time>2026-04-06T08:02:46.934Z</time></trkpt><trkpt lat="44.149573497310115" lon="11.94411249493697"><ele>257.0</ele><time>2026-04-06T08:02:47.934Z</time></trkpt><trkpt lat="44.14953321125001" lon="11.944019847679145"><ele>253.66666666666666</ele><time>2026-04-06T08:02:48.934Z</time></trkpt><trkpt lat="44.14949677937951" lon="11.943945131116342"><ele>250.33333333333331</ele><time>2026-04-06T08:02:49.934Z</time></trkpt><trkpt lat="44.14943087303793" lon="11.943840650814145"><ele>247.0</ele><time>2026-04-06T08:02:51.934Z</time></trkpt><trkpt lat="44.149334209428226" lon="11.9437450499413"><ele>246.99999999999997</ele><time>2026-04-06T08:02:53.934Z</time></trkpt><trkpt lat="44.14921547854601" lon="11.943704798681548"><ele>247.0</ele><time>2026-04-06T08:02:55.934Z</time></trkpt><trkpt lat="44.149134442164886" lon="11.943692879333614"><ele>247.0</ele><time>2026-04-06T08:02:56.934Z</time></trkpt><trkpt lat="44.149049316896416" lon="11.943683186368329"><ele>247.0</ele><time>2026-04-06T08:02:57.934Z</time></trkpt><trkpt lat="44.14897514500496" lon="11.943671610640841"><ele>246.99999999999997</ele><time>2026-04-06T08:02:58.934Z</time></trkpt><trkpt lat="44.14890910136756" lon="11.943660578624208"><ele>247.0</ele><time>2026-04-06T08:02:59.934Z</time></trkpt><trkpt lat="44.14880371331487" lon="11.943632698964132"><ele>245.8</ele><time>2026-04-06T08:03:01.934Z</time></trkpt><trkpt lat="44.14873442772837" lon="11.943627604816434"><ele>244.6</ele><time>2026-04-06T08:03:03.934Z</time></trkpt><trkpt lat="44.14862827978185" lon="11.943641614558365"><ele>243.40000000000003</ele><time>2026-04-06T08:03:05.934Z</time></trkpt><trkpt lat="44.14851352567595" lon="11.943678020553918"><ele>242.20000000000002</ele><time>2026-04-06T08:03:07.934Z</time></trkpt><trkpt lat="44.148401987735966" lon="11.94370388228229"><ele>241.0</ele><time>2026-04-06T08:03:09.934Z</time></trkpt><trkpt lat="44.14829131005258" lon="11.943715578119175"><ele>239.66666666666666</ele><time>2026-04-06T08:03:11.934Z</time></trkpt><trkpt lat="44.14818609561826" lon="11.94370153554805"><ele>238.33333333333331</ele><time>2026-04-06T08:03:13.933Z</time></trkpt><trkpt lat="44.14810033027196" lon="11.943670859842436"><ele>237.0</ele><time>2026-04-06T08:03:15.933Z</time></trkpt><trkpt lat="44.148006565640635" lon="11.943614603292236"><ele>235.66666666666669</ele><time>2026-04-06T08:03:17.933Z</time></trkpt><trkpt lat="44.147940812449555" lon="11.94357743982025"><ele>234.33333333333334</ele><time>2026-04-06T08:03:18.934Z</time></trkpt><trkpt lat="44.14788109049561" lon="11.943548316710269"><ele>233.0</ele><time>2026-04-06T08:03:19.934Z</time></trkpt><trkpt lat="44.14781381064065" lon="11.943517017523066"><ele>233.0</ele><time>2026-04-06T08:03:20.933Z</time></trkpt><trkpt lat="44.147741418055936" lon="11.943486177737665"><ele>233.0</ele><time>2026-04-06T08:03:21.933Z</time></trkpt><trkpt lat="44.14767159879214" lon="11.943453053001921"><ele>233.0</ele><time>2026-04-06T08:03:22.933Z</time></trkpt><trkpt lat="44.14760537944415" lon="11.943416823710205"><ele>233.0</ele><time>2026-04-06T08:03:23.933Z</time></trkpt><trkpt lat="44.147533525551836" lon="11.943378341555896"><ele>233.0</ele><time>2026-04-06T08:03:24.933Z</time></trkpt><trkpt lat="44.14747377652255" lon="11.943345792906651"><ele>233.0</ele><time>2026-04-06T08:03:25.933Z</time></trkpt><trkpt lat="44.14740289866969" lon="11.94331640452938"><ele>233.0</ele><time>2026-04-06T08:03:27.933Z</time></trkpt><trkpt lat="44.147324598452904" lon="11.943290538423641"><ele>230.33333333333334</ele><time>2026-04-06T08:03:29.933Z</time></trkpt><trkpt lat="44.1472368023877" lon="11.943283317236746"><ele>227.66666666666669</ele><time>2026-04-06T08:03:31.933Z</time></trkpt><trkpt lat="44.14716845083542" lon="11.943299447487385"><ele>225.0</ele><time>2026-04-06T08:03:33.933Z</time></trkpt><trkpt lat="44.14709166733096" lon="11.943321779514001"><ele>222.33333333333331</ele><time>2026-04-06T08:03:35.933Z</time></trkpt><trkpt lat="44.147025959705616" lon="11.943355310626888"><ele>219.66666666666666</ele><time>2026-04-06T08:03:37.933Z</time></trkpt><trkpt lat="44.1469599668749" lon="11.943387586741267"><ele>217.0</ele><time>2026-04-06T08:03:39.933Z</time></trkpt><trkpt lat="44.14688584768703" lon="11.943446572558976"><ele>216.99999999999997</ele><time>2026-04-06T08:03:41.933Z</time></trkpt><trkpt lat="44.146811121534995" lon="11.943511603537743"><ele>217.0</ele><time>2026-04-06T08:03:43.933Z</time></trkpt><trkpt lat="44.14674182353911" lon="11.943567412684969"><ele>217.0</ele><time>2026-04-06T08:03:45.933Z</time></trkpt><trkpt lat="44.146676326801185" lon="11.943621911916724"><ele>217.0</ele><time>2026-04-06T08:03:47.933Z</time></trkpt><trkpt lat="44.14661279715409" lon="11.943670580467906"><ele>216.99999999999997</ele><time>2026-04-06T08:03:49.933Z</time></trkpt><trkpt lat="44.146540380383215" lon="11.94372541212165"><ele>217.0</ele><time>2026-04-06T08:03:51.933Z</time></trkpt><trkpt lat="44.146456314992975" lon="11.943784523582234"><ele>213.33333333333331</ele><time>2026-04-06T08:03:53.933Z</time></trkpt><trkpt lat="44.14638580343268" lon="11.94383436472153"><ele>209.66666666666666</ele><time>2026-04-06T08:03:55.933Z</time></trkpt><trkpt lat="44.146313711683874" lon="11.94388022570787"><ele>206.0</ele><time>2026-04-06T08:03:57.933Z</time></trkpt><trkpt lat="44.14624480080544" lon="11.943925095552768"><ele>202.33333333333331</ele><time>2026-04-06T08:03:59.933Z</time></trkpt><trkpt lat="44.14616625924705" lon="11.943965723768864"><ele>198.66666666666666</ele><time>2026-04-06T08:04:01.932Z</time></trkpt><trkpt lat="44.14608343057368" lon="11.944024570066722"><ele>195.0</ele><time>2026-04-06T08:04:03.932Z</time></trkpt><trkpt lat="44.14599636558579" lon="11.944072034767736"><ele>195.0</ele><time>2026-04-06T08:04:05.932Z</time></trkpt><trkpt lat="44.1459117057455" lon="11.94412544525214"><ele>195.0</ele><time>2026-04-06T08:04:07.932Z</time></trkpt><trkpt lat="44.14583417149273" lon="11.944170088570475"><ele>195.0</ele><time>2026-04-06T08:04:09.932Z</time></trkpt><trkpt lat="44.14576103226194" lon="11.944219410572137"><ele>195.0</ele><time>2026-04-06T08:04:11.932Z</time></trkpt><trkpt lat="44.145692625385486" lon="11.94425727839123"><ele>195.0</ele><time>2026-04-06T08:04:13.932Z</time></trkpt><trkpt lat="44.14561401431431" lon="11.94430009132681"><ele>195.0</ele><time>2026-04-06T08:04:15.932Z</time></trkpt><trkpt lat="44.14552043903251" lon="11.944347398613884"><ele>191.8</ele><time>2026-04-06T08:04:17.932Z</time></trkpt><trkpt lat="44.1454468043703" lon="11.944376517536702"><ele>188.6</ele><time>2026-04-06T08:04:19.932Z</time></trkpt><trkpt lat="44.14536930003958" lon="11.9443939626859"><ele>185.39999999999998</ele><time>2026-04-06T08:04:21.932Z</time></trkpt><trkpt lat="44.14526667062482" lon="11.944409096545089"><ele>182.2</ele><time>2026-04-06T08:04:23.932Z</time></trkpt><trkpt lat="44.14515341594243" lon="11.94438487067676"><ele>179.0</ele><time>2026-04-06T08:04:25.932Z</time></trkpt><trkpt lat="44.1450492615916" lon="11.944341078992958"><ele>179.0</ele><time>2026-04-06T08:04:27.932Z</time></trkpt><trkpt lat="44.14493051551563" lon="11.944252426347816"><ele>179.0</ele><time>2026-04-06T08:04:29.932Z</time></trkpt><trkpt lat="44.144853793864364" lon="11.944191613742834"><ele>179.0</ele><time>2026-04-06T08:04:30.932Z</time></trkpt><trkpt lat="44.14477912414501" lon="11.94412377356575"><ele>179.0</ele><time>2026-04-06T08:04:31.932Z</time></trkpt><trkpt lat="44.14470941642877" lon="11.944057214068058"><ele>179.0</ele><time>2026-04-06T08:04:32.932Z</time></trkpt><trkpt lat="44.14464076123681" lon="11.943995797505163"><ele>179.33333333333331</ele><time>2026-04-06T08:04:33.932Z</time></trkpt><trkpt lat="44.144571465287655" lon="11.943927268997696"><ele>179.66666666666666</ele><time>2026-04-06T08:04:34.932Z</time></trkpt><trkpt lat="44.14450702340257" lon="11.943860121916405"><ele>180.0</ele><time>2026-04-06T08:04:35.932Z</time></trkpt><trkpt lat="44.144446790153204" lon="11.94378971660677"><ele>180.33333333333334</ele><time>2026-04-06T08:04:36.932Z</time></trkpt><trkpt lat="44.14438483767395" lon="11.943722420066592"><ele>180.66666666666669</ele><time>2026-04-06T08:04:37.932Z</time></trkpt><trkpt lat="44.14432892720934" lon="11.943666849872233"><ele>181.0</ele><time>2026-04-06T08:04:38.932Z</time></trkpt><trkpt lat="44.144224849838785" lon="11.94358590384334"><ele>181.0</ele><time>2026-04-06T08:04:40.932Z</time></trkpt><trkpt lat="44.144165183903624" lon="11.943555797831786"><ele>181.0</ele><time>2026-04-06T08:04:41.932Z</time></trkpt><trkpt lat="44.14409915735084" lon="11.943538173013055"><ele>181.0</ele><time>2026-04-06T08:04:42.932Z</time></trkpt><trkpt lat="44.14402926539729" lon="11.94353239582786"><ele>181.0</ele><time>2026-04-06T08:04:43.932Z</time></trkpt><trkpt lat="44.14396638816536" lon="11.943539253999363"><ele>181.0</ele><time>2026-04-06T08:04:44.932Z</time></trkpt><trkpt lat="44.14389627821547" lon="11.943556999659457"><ele>181.0</ele><time>2026-04-06T08:04:45.932Z</time></trkpt><trkpt lat="44.143822331062964" lon="11.943584993865326"><ele>181.0</ele><time>2026-04-06T08:04:46.932Z</time></trkpt><trkpt lat="44.14374400846992" lon="11.943620181351138"><ele>181.8</ele><time>2026-04-06T08:04:47.932Z</time></trkpt><trkpt lat="44.143659435915545" lon="11.943662214321591"><ele>182.60000000000002</ele><time>2026-04-06T08:04:48.932Z</time></trkpt><trkpt lat="44.143577630242724" lon="11.943707783414245"><ele>183.4</ele><time>2026-04-06T08:04:49.932Z</time></trkpt><trkpt lat="44.14349500415193" lon="11.943758282973835"><ele>184.2</ele><time>2026-04-06T08:04:50.932Z</time></trkpt><trkpt lat="44.143411498458505" lon="11.94380834489885"><ele>185.0</ele><time>2026-04-06T08:04:51.932Z</time></trkpt><trkpt lat="44.143325772378454" lon="11.94385808225124"><ele>185.0</ele><time>2026-04-06T08:04:52.932Z</time></trkpt><trkpt lat="44.143240325016215" lon="11.943904833926416"><ele>185.0</ele><time>2026-04-06T08:04:53.932Z</time></trkpt><trkpt lat="44.1431527322919" lon="11.943949141900239"><ele>185.0</ele><time>2026-04-06T08:04:54.932Z</time></trkpt><trkpt lat="44.14307067057961" lon="11.943982613393539"><ele>185.0</ele><time>2026-04-06T08:04:55.932Z</time></trkpt><trkpt lat="44.14299194301895" lon="11.944010786989567"><ele>185.0</ele><time>2026-04-06T08:04:56.932Z</time></trkpt><trkpt lat="44.14291608087242" lon="11.944028169253226"><ele>185.0</ele><time>2026-04-06T08:04:57.932Z</time></trkpt><trkpt lat="44.14283748396497" lon="11.944040146935318"><ele>186.14285714285714</ele><time>2026-04-06T08:04:58.932Z</time></trkpt><trkpt lat="44.142757458353735" lon="11.944044210508258"><ele>187.28571428571428</ele><time>2026-04-06T08:04:59.932Z</time></trkpt><trkpt lat="44.14267711074754" lon="11.944042232343119"><ele>188.42857142857144</ele><time>2026-04-06T08:05:00.932Z</time></trkpt><trkpt lat="44.1426039537051" lon="11.944035463609923"><ele>189.57142857142856</ele><time>2026-04-06T08:05:01.932Z</time></trkpt><trkpt lat="44.14253276196248" lon="11.944018617169684"><ele>190.71428571428572</ele><time>2026-04-06T08:05:02.932Z</time></trkpt><trkpt lat="44.142467270990615" lon="11.943989291011254"><ele>191.85714285714286</ele><time>2026-04-06T08:05:03.932Z</time></trkpt><trkpt lat="44.142407688036066" lon="11.943950421433382"><ele>193.0</ele><time>2026-04-06T08:05:04.932Z</time></trkpt><trkpt lat="44.14230066088768" lon="11.943871796718128"><ele>192.99999999999997</ele><time>2026-04-06T08:05:06.932Z</time></trkpt><trkpt lat="44.14220961242664" lon="11.943822178612118"><ele>193.0</ele><time>2026-04-06T08:05:08.932Z</time></trkpt><trkpt lat="44.14226915948241" lon="11.943863940075056"><ele>193.0</ele><time>2026-04-06T08:22:43.838Z</time></trkpt><trkpt lat="44.14233172332451" lon="11.943900660149355"><ele>193.0</ele><time>2026-04-06T08:22:45.837Z</time></trkpt><trkpt lat="44.142395821877116" lon="11.943947868968722"><ele>192.99999999999997</ele><time>2026-04-06T08:22:47.837Z</time></trkpt><trkpt lat="44.14247707143193" lon="11.944005557204553"><ele>193.0</ele><time>2026-04-06T08:22:49.837Z</time></trkpt><trkpt lat="44.1425857612633" lon="11.94404163309415"><ele>193.0</ele><time>2026-04-06T08:22:51.837Z</time></trkpt><trkpt lat="44.14269411946404" lon="11.9440563122381"><ele>193.0</ele><time>2026-04-06T08:22:53.836Z</time></trkpt><trkpt lat="44.14280011922401" lon="11.944056884548298"><ele>193.0</ele><time>2026-04-06T08:22:55.836Z</time></trkpt><trkpt lat="44.14286310359828" lon="11.944054517759213"><ele>193.0</ele><time>2026-04-06T08:22:56.836Z</time></trkpt><trkpt lat="44.14297082908259" lon="11.944031048800243"><ele>193.0</ele><time>2026-04-06T08:22:58.836Z</time></trkpt><trkpt lat="44.14304925754318" lon="11.944009982387715"><ele>192.99999999999997</ele><time>2026-04-06T08:22:59.836Z</time></trkpt><trkpt lat="44.14313395865162" lon="11.943978247349834"><ele>193.0</ele><time>2026-04-06T08:23:00.836Z</time></trkpt><trkpt lat="44.14321666398601" lon="11.943939829716838"><ele>193.0</ele><time>2026-04-06T08:23:01.836Z</time></trkpt><trkpt lat="44.143296679448326" lon="11.943895830469245"><ele>193.0</ele><time>2026-04-06T08:23:02.836Z</time></trkpt><trkpt lat="44.14336934563896" lon="11.943854605226191"><ele>192.99999999999997</ele><time>2026-04-06T08:23:03.836Z</time></trkpt><trkpt lat="44.14343672055413" lon="11.943812102685193"><ele>193.0</ele><time>2026-04-06T08:23:04.836Z</time></trkpt><trkpt lat="44.14350720925853" lon="11.943771554994845"><ele>191.4</ele><time>2026-04-06T08:23:05.836Z</time></trkpt><trkpt lat="44.14357113976975" lon="11.943734553194696"><ele>189.8</ele><time>2026-04-06T08:23:06.836Z</time></trkpt><trkpt lat="44.14367570927601" lon="11.943674067041714"><ele>188.2</ele><time>2026-04-06T08:23:08.836Z</time></trkpt><trkpt lat="44.143791721637434" lon="11.943618702451278"><ele>186.6</ele><time>2026-04-06T08:23:10.835Z</time></trkpt><trkpt lat="44.143856411207686" lon="11.943590877873104"><ele>185.0</ele><time>2026-04-06T08:23:11.835Z</time></trkpt><trkpt lat="44.14397612238324" lon="11.943558814716896"><ele>184.99999999999997</ele><time>2026-04-06T08:23:13.835Z</time></trkpt><trkpt lat="44.14403993073429" lon="11.943557193730225"><ele>185.0</ele><time>2026-04-06T08:23:14.835Z</time></trkpt><trkpt lat="44.14410783338142" lon="11.943561992270658"><ele>185.0</ele><time>2026-04-06T08:23:15.835Z</time></trkpt><trkpt lat="44.1441800584117" lon="11.943585127797302"><ele>185.0</ele><time>2026-04-06T08:23:16.835Z</time></trkpt><trkpt lat="44.144243035488664" lon="11.943624261603722"><ele>185.0</ele><time>2026-04-06T08:23:17.835Z</time></trkpt><trkpt lat="44.14430745817132" lon="11.943675308460982"><ele>184.99999999999997</ele><time>2026-04-06T08:23:18.835Z</time></trkpt><trkpt lat="44.144369854333334" lon="11.943728038155369"><ele>185.0</ele><time>2026-04-06T08:23:19.835Z</time></trkpt><trkpt lat="44.14442335283075" lon="11.943788740191398"><ele>184.33333333333331</ele><time>2026-04-06T08:23:20.835Z</time></trkpt><trkpt lat="44.144477420888784" lon="11.94384468201758"><ele>183.66666666666666</ele><time>2026-04-06T08:23:21.835Z</time></trkpt><trkpt lat="44.14454668655209" lon="11.943935260209448"><ele>183.0</ele><time>2026-04-06T08:23:23.835Z</time></trkpt><trkpt lat="44.144607467862" lon="11.944066629998503"><ele>182.33333333333334</ele><time>2026-04-06T08:23:25.835Z</time></trkpt><trkpt lat="44.14467111053387" lon="11.944175735954824"><ele>181.66666666666669</ele><time>2026-04-06T08:23:27.835Z</time></trkpt><trkpt lat="44.14472446251689" lon="11.944239870812872"><ele>181.0</ele><time>2026-04-06T08:23:30.835Z</time></trkpt><trkpt lat="44.14489757342253" lon="11.944283477724438"><ele>180.60000000000002</ele><time>2026-04-06T08:25:48.831Z</time></trkpt><trkpt lat="44.145017387484906" lon="11.944313832304708"><ele>180.2</ele><time>2026-04-06T08:25:50.831Z</time></trkpt><trkpt lat="44.14508111991989" lon="11.944380856470255"><ele>179.8</ele><time>2026-04-06T08:25:51.831Z</time></trkpt><trkpt lat="44.145161041111294" lon="11.944384819289041"><ele>179.39999999999998</ele><time>2026-04-06T08:25:52.831Z</time></trkpt><trkpt lat="44.145227400288" lon="11.944406345972887"><ele>179.0</ele><time>2026-04-06T08:25:53.831Z</time></trkpt><trkpt lat="44.14532869668398" lon="11.944402631679706"><ele>179.0</ele><time>2026-04-06T08:25:55.831Z</time></trkpt><trkpt lat="44.145455657161136" lon="11.944375641419574"><ele>179.0</ele><time>2026-04-06T08:25:57.831Z</time></trkpt><trkpt lat="44.145569298234825" lon="11.944327312012957"><ele>179.0</ele><time>2026-04-06T08:25:59.831Z</time></trkpt><trkpt lat="44.14568892469535" lon="11.944263481572522"><ele>179.0</ele><time>2026-04-06T08:26:01.831Z</time></trkpt><trkpt lat="44.14575532743162" lon="11.944226574940739"><ele>179.0</ele><time>2026-04-06T08:26:02.83Z</time></trkpt><trkpt lat="44.145823010186184" lon="11.944185124355133"><ele>181.2857142857143</ele><time>2026-04-06T08:26:03.83Z</time></trkpt><trkpt lat="44.14589103987473" lon="11.94414449176145"><ele>183.57142857142858</ele><time>2026-04-06T08:26:04.83Z</time></trkpt><trkpt lat="44.14595299118498" lon="11.944108562980771"><ele>185.85714285714286</ele><time>2026-04-06T08:26:05.83Z</time></trkpt><trkpt lat="44.1460215105713" lon="11.944064386905499"><ele>188.14285714285717</ele><time>2026-04-06T08:26:06.83Z</time></trkpt><trkpt lat="44.14609602836367" lon="11.944020408568893"><ele>190.42857142857142</ele><time>2026-04-06T08:26:07.83Z</time></trkpt><trkpt lat="44.146170759335135" lon="11.943971946194997"><ele>192.71428571428572</ele><time>2026-04-06T08:26:08.83Z</time></trkpt><trkpt lat="44.14623295178751" lon="11.943930463487066"><ele>195.0</ele><time>2026-04-06T08:26:09.83Z</time></trkpt><trkpt lat="44.14633481486814" lon="11.943864954210838"><ele>195.0</ele><time>2026-04-06T08:26:11.83Z</time></trkpt><trkpt lat="44.14642074963846" lon="11.943787090444795"><ele>195.0</ele><time>2026-04-06T08:26:13.83Z</time></trkpt><trkpt lat="44.14651520374864" lon="11.943724033334691"><ele>195.0</ele><time>2026-04-06T08:26:15.83Z</time></trkpt><trkpt lat="44.14662295175905" lon="11.943654277688388"><ele>195.0</ele><time>2026-04-06T08:26:17.829Z</time></trkpt><trkpt lat="44.146677923761274" lon="11.943610280383037"><ele>195.0</ele><time>2026-04-06T08:26:18.828Z</time></trkpt><trkpt lat="44.14673200015249" lon="11.943564040074797"><ele>197.2</ele><time>2026-04-06T08:26:19.828Z</time></trkpt><trkpt lat="44.14682977113279" lon="11.943486884396036"><ele>199.4</ele><time>2026-04-06T08:26:21.829Z</time></trkpt><trkpt lat="44.14691010948557" lon="11.943414633462496"><ele>201.60000000000002</ele><time>2026-04-06T08:26:23.829Z</time></trkpt><trkpt lat="44.14700269306369" lon="11.943347947211507"><ele>203.8</ele><time>2026-04-06T08:26:25.829Z</time></trkpt><trkpt lat="44.1471098310757" lon="11.94329022367849"><ele>206.0</ele><time>2026-04-06T08:26:27.829Z</time></trkpt><trkpt lat="44.147206327014395" lon="11.943265913198598"><ele>206.0</ele><time>2026-04-06T08:26:29.829Z</time></trkpt><trkpt lat="44.147308929357976" lon="11.943273059093189"><ele>206.0</ele><time>2026-04-06T08:26:31.828Z</time></trkpt><trkpt lat="44.14742693602604" lon="11.943313548689137"><ele>206.0</ele><time>2026-04-06T08:26:33.828Z</time></trkpt><trkpt lat="44.14748717047382" lon="11.94333998841067"><ele>206.0</ele><time>2026-04-06T08:26:34.828Z</time></trkpt><trkpt lat="44.14759610192778" lon="11.94340784042106"><ele>206.0</ele><time>2026-04-06T08:26:36.828Z</time></trkpt><trkpt lat="44.14766461224419" lon="11.943446916399719"><ele>210.50000000000003</ele><time>2026-04-06T08:26:37.828Z</time></trkpt><trkpt lat="44.147745401260615" lon="11.943492099941023"><ele>215.0</ele><time>2026-04-06T08:26:38.828Z</time></trkpt><trkpt lat="44.14781769168119" lon="11.943529776184377"><ele>219.5</ele><time>2026-04-06T08:26:39.828Z</time></trkpt><trkpt lat="44.147885227356085" lon="11.943558616903239"><ele>224.0</ele><time>2026-04-06T08:26:40.828Z</time></trkpt><trkpt lat="44.14795456761225" lon="11.943585277076329"><ele>228.50000000000003</ele><time>2026-04-06T08:26:41.828Z</time></trkpt><trkpt lat="44.14801720053395" lon="11.943617066462483"><ele>233.0</ele><time>2026-04-06T08:26:42.828Z</time></trkpt><trkpt lat="44.14812339040396" lon="11.943679841215827"><ele>234.33333333333334</ele><time>2026-04-06T08:26:44.828Z</time></trkpt><trkpt lat="44.14823909672273" lon="11.943715455047773"><ele>235.66666666666669</ele><time>2026-04-06T08:26:46.828Z</time></trkpt><trkpt lat="44.14830506894777" lon="11.943718401423407"><ele>237.0</ele><time>2026-04-06T08:26:47.828Z</time></trkpt><trkpt lat="44.14837128280134" lon="11.943710773573233"><ele>238.33333333333331</ele><time>2026-04-06T08:26:48.828Z</time></trkpt><trkpt lat="44.14843808713844" lon="11.943697528702698"><ele>239.66666666666666</ele><time>2026-04-06T08:26:49.828Z</time></trkpt><trkpt lat="44.14850598898806" lon="11.943678124687828"><ele>241.0</ele><time>2026-04-06T08:26:50.828Z</time></trkpt><trkpt lat="44.14858147054825" lon="11.94365154281136"><ele>241.0</ele><time>2026-04-06T08:26:51.828Z</time></trkpt><trkpt lat="44.14865542959234" lon="11.943633064384294"><ele>241.00000000000003</ele><time>2026-04-06T08:26:52.828Z</time></trkpt><trkpt lat="44.14872945649576" lon="11.943624512268515"><ele>241.00000000000003</ele><time>2026-04-06T08:26:53.828Z</time></trkpt><trkpt lat="44.14883809338939" lon="11.943639588290134"><ele>241.0</ele><time>2026-04-06T08:26:55.827Z</time></trkpt><trkpt lat="44.148959085196665" lon="11.943675130777047"><ele>241.0</ele><time>2026-04-06T08:26:57.827Z</time></trkpt><trkpt lat="44.14904941976122" lon="11.943691936572266"><ele>241.99999999999997</ele><time>2026-04-06T08:26:58.827Z</time></trkpt><trkpt lat="44.14914308476624" lon="11.943705965177877"><ele>243.0</ele><time>2026-04-06T08:26:59.827Z</time></trkpt><trkpt lat="44.149224223675425" lon="11.943715801901542"><ele>244.0</ele><time>2026-04-06T08:27:00.827Z</time></trkpt><trkpt lat="44.14929380218873" lon="11.943732402828553"><ele>245.0</ele><time>2026-04-06T08:27:01.827Z</time></trkpt><trkpt lat="44.14940210504478" lon="11.943817228813128"><ele>245.99999999999997</ele><time>2026-04-06T08:27:03.827Z</time></trkpt><trkpt lat="44.14945357599207" lon="11.94388930927283"><ele>247.0</ele><time>2026-04-06T08:27:04.827Z</time></trkpt><trkpt lat="44.149499531603254" lon="11.9439725568211"><ele>246.99999999999997</ele><time>2026-04-06T08:27:05.827Z</time></trkpt><trkpt lat="44.14953796235598" lon="11.944065034494841"><ele>247.0</ele><time>2026-04-06T08:27:06.827Z</time></trkpt><trkpt lat="44.14957921750622" lon="11.944162372908462"><ele>247.0</ele><time>2026-04-06T08:27:07.827Z</time></trkpt><trkpt lat="44.14960966660194" lon="11.94424680245338"><ele>247.0</ele><time>2026-04-06T08:27:08.827Z</time></trkpt><trkpt lat="44.149637687096025" lon="11.94440668983969"><ele>246.99999999999997</ele><time>2026-04-06T08:27:10.827Z</time></trkpt><trkpt lat="44.14964452069883" lon="11.944497244389689"><ele>247.0</ele><time>2026-04-06T08:27:11.827Z</time></trkpt><trkpt lat="44.149654695645054" lon="11.944664467728302"><ele>249.71428571428572</ele><time>2026-04-06T08:27:13.827Z</time></trkpt><trkpt lat="44.149668355331826" lon="11.944754120765074"><ele>252.42857142857142</ele><time>2026-04-06T08:27:14.827Z</time></trkpt><trkpt lat="44.14968163249886" lon="11.944855018108148"><ele>255.14285714285714</ele><time>2026-04-06T08:27:15.827Z</time></trkpt><trkpt lat="44.14970170576546" lon="11.944955960322684"><ele>257.8571428571429</ele><time>2026-04-06T08:27:16.827Z</time></trkpt><trkpt lat="44.14973295445388" lon="11.94504835675948"><ele>260.57142857142856</ele><time>2026-04-06T08:27:17.827Z</time></trkpt><trkpt lat="44.149777585277576" lon="11.945130578000743"><ele>263.2857142857143</ele><time>2026-04-06T08:27:18.827Z</time></trkpt><trkpt lat="44.14982304209482" lon="11.945208275092876"><ele>266.0</ele><time>2026-04-06T08:27:19.827Z</time></trkpt><trkpt lat="44.14990597172956" lon="11.945333533505389"><ele>266.0</ele><time>2026-04-06T08:27:21.827Z</time></trkpt><trkpt lat="44.150009247623515" lon="11.94543940190417"><ele>266.0</ele><time>2026-04-06T08:27:23.827Z</time></trkpt><trkpt lat="44.15006306958154" lon="11.94550098545997"><ele>266.0</ele><time>2026-04-06T08:27:24.827Z</time></trkpt><trkpt lat="44.15011181422552" lon="11.945569922455595"><ele>266.0</ele><time>2026-04-06T08:27:25.827Z</time></trkpt><trkpt lat="44.15019237515475" lon="11.94569886729633"><ele>266.0</ele><time>2026-04-06T08:27:27.827Z</time></trkpt><trkpt lat="44.150236513272695" lon="11.9457771280198"><ele>266.0</ele><time>2026-04-06T08:27:28.827Z</time></trkpt><trkpt lat="44.150287909305305" lon="11.945864314997161"><ele>266.0</ele><time>2026-04-06T08:27:29.827Z</time></trkpt><trkpt lat="44.15034237394813" lon="11.945951631044256"><ele>266.0</ele><time>2026-04-06T08:27:30.827Z</time></trkpt><trkpt lat="44.150387952006135" lon="11.946024707205346"><ele>266.0</ele><time>2026-04-06T08:27:31.827Z</time></trkpt><trkpt lat="44.150429354885894" lon="11.94609515970779"><ele>266.0</ele><time>2026-04-06T08:27:32.827Z</time></trkpt><trkpt lat="44.150490956640986" lon="11.946192828537285"><ele>266.0</ele><time>2026-04-06T08:27:34.827Z</time></trkpt><trkpt lat="44.1505734374343" lon="11.946264241499112"><ele>267.5</ele><time>2026-04-06T08:27:36.826Z</time></trkpt><trkpt lat="44.150635339713304" lon="11.946294754119249"><ele>269.0</ele><time>2026-04-06T08:27:37.826Z</time></trkpt><trkpt lat="44.15071299666443" lon="11.946314937831904"><ele>270.5</ele><time>2026-04-06T08:27:38.826Z</time></trkpt><trkpt lat="44.1507808264623" lon="11.946331555361501"><ele>272.0</ele><time>2026-04-06T08:27:39.826Z</time></trkpt><trkpt lat="44.15084533356422" lon="11.946357835259679"><ele>273.5</ele><time>2026-04-06T08:27:40.826Z</time></trkpt><trkpt lat="44.15093557161679" lon="11.946444380219045"><ele>275.0</ele><time>2026-04-06T08:27:42.826Z</time></trkpt><trkpt lat="44.151020239702255" lon="11.946575329887922"><ele>275.0</ele><time>2026-04-06T08:27:44.826Z</time></trkpt><trkpt lat="44.15105911240122" lon="11.946644961835371"><ele>275.0</ele><time>2026-04-06T08:27:45.826Z</time></trkpt><trkpt lat="44.15113323242868" lon="11.946766136227145"><ele>275.0</ele><time>2026-04-06T08:27:47.826Z</time></trkpt><trkpt lat="44.15120824343833" lon="11.946847410039474"><ele>275.0</ele><time>2026-04-06T08:27:49.826Z</time></trkpt><trkpt lat="44.15129423425106" lon="11.946904261217004"><ele>275.0</ele><time>2026-04-06T08:27:51.826Z</time></trkpt><trkpt lat="44.151400940513426" lon="11.946971541006906"><ele>276.6</ele><time>2026-04-06T08:27:53.826Z</time></trkpt><trkpt lat="44.1514997028451" lon="11.947026247528656"><ele>278.2</ele><time>2026-04-06T08:27:55.826Z</time></trkpt><trkpt lat="44.15160301510903" lon="11.947074523358614"><ele>279.8</ele><time>2026-04-06T08:27:57.826Z</time></trkpt><trkpt lat="44.15170450755489" lon="11.947121422739603"><ele>281.4</ele><time>2026-04-06T08:27:59.826Z</time></trkpt><trkpt lat="44.15180608746717" lon="11.947177455772927"><ele>283.0</ele><time>2026-04-06T08:28:01.826Z</time></trkpt><trkpt lat="44.15188303201587" lon="11.947209512142745"><ele>279.8</ele><time>2026-04-06T08:28:02.826Z</time></trkpt><trkpt lat="44.15198353499503" lon="11.947247476393136"><ele>276.6</ele><time>2026-04-06T08:28:03.826Z</time></trkpt><trkpt lat="44.15207844558923" lon="11.947301101568577"><ele>273.4</ele><time>2026-04-06T08:28:04.826Z</time></trkpt><trkpt lat="44.15215819659779" lon="11.947346778385386"><ele>270.2</ele><time>2026-04-06T08:28:05.826Z</time></trkpt><trkpt lat="44.15223867416218" lon="11.947379918128497"><ele>267.0</ele><time>2026-04-06T08:28:06.826Z</time></trkpt><trkpt lat="44.1523219591469" lon="11.947413237202921"><ele>266.0</ele><time>2026-04-06T08:28:07.826Z</time></trkpt><trkpt lat="44.152394818638804" lon="11.947434330736705"><ele>265.0</ele><time>2026-04-06T08:28:08.826Z</time></trkpt><trkpt lat="44.15246989179395" lon="11.947452180677661"><ele>264.0</ele><time>2026-04-06T08:28:09.826Z</time></trkpt><trkpt lat="44.1525393995958" lon="11.947459010576052"><ele>263.0</ele><time>2026-04-06T08:28:10.826Z</time></trkpt><trkpt lat="44.15261066640978" lon="11.947463620896686"><ele>262.0</ele><time>2026-04-06T08:28:11.826Z</time></trkpt><trkpt lat="44.152694026701724" lon="11.947477371555781"><ele>261.0</ele><time>2026-04-06T08:28:12.826Z</time></trkpt><trkpt lat="44.15277333514135" lon="11.947478904793897"><ele>261.0</ele><time>2026-04-06T08:28:13.826Z</time></trkpt><trkpt lat="44.1528599634037" lon="11.947498676740272"><ele>261.0</ele><time>2026-04-06T08:28:14.826Z</time></trkpt><trkpt lat="44.152945867385796" lon="11.94751907597543"><ele>261.0</ele><time>2026-04-06T08:28:15.826Z</time></trkpt><trkpt lat="44.15304231963621" lon="11.947561226700868"><ele>261.0</ele><time>2026-04-06T08:28:16.826Z</time></trkpt><trkpt lat="44.15312086344509" lon="11.947607314884133"><ele>261.0</ele><time>2026-04-06T08:28:17.825Z</time></trkpt><trkpt lat="44.153180880825744" lon="11.947651228627604"><ele>261.0</ele><time>2026-04-06T08:28:18.825Z</time></trkpt><trkpt lat="44.15327832820549" lon="11.947714242435604"><ele>258.8333333333333</ele><time>2026-04-06T08:28:20.825Z</time></trkpt><trkpt lat="44.15338109569108" lon="11.94778559534925"><ele>256.6666666666667</ele><time>2026-04-06T08:28:22.825Z</time></trkpt><trkpt lat="44.15344317468301" lon="11.947818541832966"><ele>254.5</ele><time>2026-04-06T08:28:23.825Z</time></trkpt><trkpt lat="44.15350842310954" lon="11.947852404207437"><ele>252.33333333333334</ele><time>2026-04-06T08:28:24.825Z</time></trkpt><trkpt lat="44.15358726067117" lon="11.947879916309454"><ele>250.16666666666669</ele><time>2026-04-06T08:28:25.825Z</time></trkpt><trkpt lat="44.15367337019493" lon="11.947911298183566"><ele>248.0</ele><time>2026-04-06T08:28:26.824Z</time></trkpt><trkpt lat="44.153763936631925" lon="11.947951734682707"><ele>248.0</ele><time>2026-04-06T08:28:27.825Z</time></trkpt><trkpt lat="44.15385095610479" lon="11.947996808479214"><ele>248.0</ele><time>2026-04-06T08:28:28.825Z</time></trkpt><trkpt lat="44.153932970173244" lon="11.948033713342554"><ele>248.0</ele><time>2026-04-06T08:28:29.824Z</time></trkpt><trkpt lat="44.15401494168669" lon="11.94806830914694"><ele>248.0</ele><time>2026-04-06T08:28:30.824Z</time></trkpt><trkpt lat="44.15411041113469" lon="11.948119187918484"><ele>248.0</ele><time>2026-04-06T08:28:31.824Z</time></trkpt><trkpt lat="44.15421098697581" lon="11.94818540270136"><ele>247.60000000000002</ele><time>2026-04-06T08:28:32.824Z</time></trkpt><trkpt lat="44.15430000120795" lon="11.948252572045403"><ele>247.20000000000002</ele><time>2026-04-06T08:28:33.825Z</time></trkpt><trkpt lat="44.154400133831544" lon="11.94832853726734"><ele>246.8</ele><time>2026-04-06T08:28:34.825Z</time></trkpt><trkpt lat="44.15449226302393" lon="11.948406517596672"><ele>246.4</ele><time>2026-04-06T08:28:35.825Z</time></trkpt><trkpt lat="44.15458145467484" lon="11.948477648081195"><ele>246.0</ele><time>2026-04-06T08:28:36.825Z</time></trkpt><trkpt lat="44.15465588105145" lon="11.94853483393077"><ele>246.0</ele><time>2026-04-06T08:28:37.825Z</time></trkpt><trkpt lat="44.154730894979366" lon="11.948594483089163"><ele>246.00000000000003</ele><time>2026-04-06T08:28:38.825Z</time></trkpt><trkpt lat="44.15481369738601" lon="11.948667408346283"><ele>246.00000000000003</ele><time>2026-04-06T08:28:39.825Z</time></trkpt><trkpt lat="44.15487713914689" lon="11.948751219987745"><ele>246.0</ele><time>2026-04-06T08:28:40.825Z</time></trkpt><trkpt lat="44.1549329748061" lon="11.948844018810423"><ele>246.0</ele><time>2026-04-06T08:28:41.825Z</time></trkpt><trkpt lat="44.154994761378596" lon="11.948939375230031"><ele>247.0</ele><time>2026-04-06T08:28:42.825Z</time></trkpt><trkpt lat="44.15501980892139" lon="11.9490960945664"><ele>248.0</ele><time>2026-04-06T08:28:43.825Z</time></trkpt><trkpt lat="44.155050734221476" lon="11.949254632119407"><ele>249.0</ele><time>2026-04-06T08:28:44.825Z</time></trkpt><trkpt lat="44.155106341288345" lon="11.949431891905277"><ele>250.0</ele><time>2026-04-06T08:28:45.825Z</time></trkpt><trkpt lat="44.15512664757789" lon="11.949619728177455"><ele>250.0</ele><time>2026-04-06T08:28:46.825Z</time></trkpt><trkpt lat="44.15517240069463" lon="11.949778286327014"><ele>250.0</ele><time>2026-04-06T08:28:47.825Z</time></trkpt><trkpt lat="44.15520057542033" lon="11.94993174140109"><ele>250.0</ele><time>2026-04-06T08:28:48.825Z</time></trkpt><trkpt lat="44.15522927889983" lon="11.950088869311575"><ele>250.0</ele><time>2026-04-06T08:28:49.825Z</time></trkpt><trkpt lat="44.15526635870819" lon="11.950233907560694"><ele>248.0</ele><time>2026-04-06T08:28:50.825Z</time></trkpt><trkpt lat="44.15530130002946" lon="11.950373803508409"><ele>246.0</ele><time>2026-04-06T08:28:51.825Z</time></trkpt><trkpt lat="44.15533225557181" lon="11.950512529520273"><ele>244.0</ele><time>2026-04-06T08:28:52.824Z</time></trkpt><trkpt lat="44.15536694741064" lon="11.950672428964445"><ele>242.0</ele><time>2026-04-06T08:28:53.824Z</time></trkpt><trkpt lat="44.15541017347024" lon="11.95083512060609"><ele>240.75</ele><time>2026-04-06T08:28:54.824Z</time></trkpt><trkpt lat="44.15547447048664" lon="11.950997146439184"><ele>239.5</ele><time>2026-04-06T08:28:55.824Z</time></trkpt><trkpt lat="44.15552855717269" lon="11.951144280915178"><ele>238.25</ele><time>2026-04-06T08:28:56.824Z</time></trkpt><trkpt lat="44.15558953970504" lon="11.951283048990497"><ele>237.0</ele><time>2026-04-06T08:28:57.824Z</time></trkpt><trkpt lat="44.15563749733335" lon="11.951435421570382"><ele>237.0</ele><time>2026-04-06T08:28:58.824Z</time></trkpt><trkpt lat="44.155677995766744" lon="11.951607362470327"><ele>237.0</ele><time>2026-04-06T08:28:59.824Z</time></trkpt><trkpt lat="44.15572202678312" lon="11.951765622045334"><ele>237.0</ele><time>2026-04-06T08:29:00.824Z</time></trkpt><trkpt lat="44.15577373725151" lon="11.95187768887718"><ele>237.0</ele><time>2026-04-06T08:29:01.824Z</time></trkpt><trkpt lat="44.15582419786519" lon="11.951958983802955"><ele>237.0</ele><time>2026-04-06T08:29:02.824Z</time></trkpt><trkpt lat="44.15589021316123" lon="11.952048732285624"><ele>241.0</ele><time>2026-04-06T08:29:03.824Z</time></trkpt><trkpt lat="44.155973382395246" lon="11.952154502275661"><ele>245.0</ele><time>2026-04-06T08:29:04.824Z</time></trkpt><trkpt lat="44.15604235293391" lon="11.952240648726125"><ele>249.0</ele><time>2026-04-06T08:29:05.824Z</time></trkpt><trkpt lat="44.156102833475444" lon="11.952339659363933"><ele>253.0</ele><time>2026-04-06T08:29:06.824Z</time></trkpt><trkpt lat="44.15614395735628" lon="11.952455373263232"><ele>257.0</ele><time>2026-04-06T08:29:07.824Z</time></trkpt><trkpt lat="44.15617241348135" lon="11.952587709001138"><ele>257.8</ele><time>2026-04-06T08:29:08.824Z</time></trkpt><trkpt lat="44.15618902591031" lon="11.9527116850576"><ele>258.6</ele><time>2026-04-06T08:29:09.824Z</time></trkpt><trkpt lat="44.156185874023286" lon="11.952837670335937"><ele>259.40000000000003</ele><time>2026-04-06T08:29:10.824Z</time></trkpt><trkpt lat="44.15615335410406" lon="11.952968282544058"><ele>260.2</ele><time>2026-04-06T08:29:11.824Z</time></trkpt><trkpt lat="44.15611719494714" lon="11.953092950003818"><ele>261.0</ele><time>2026-04-06T08:29:12.824Z</time></trkpt><trkpt lat="44.15608605863252" lon="11.953220542828278"><ele>261.0</ele><time>2026-04-06T08:29:13.824Z</time></trkpt><trkpt lat="44.15605662952928" lon="11.953337958959803"><ele>261.0</ele><time>2026-04-06T08:29:14.824Z</time></trkpt><trkpt lat="44.156022245731585" lon="11.953457355794013"><ele>261.0</ele><time>2026-04-06T08:29:15.824Z</time></trkpt><trkpt lat="44.15599101224306" lon="11.95356591579831"><ele>261.0</ele><time>2026-04-06T08:29:16.824Z</time></trkpt><trkpt lat="44.155950549280774" lon="11.953649384965566"><ele>261.0</ele><time>2026-04-06T08:29:17.824Z</time></trkpt><trkpt lat="44.15592781407792" lon="11.953738068745428"><ele>261.0</ele><time>2026-04-06T08:29:18.824Z</time></trkpt><trkpt lat="44.15592775258029" lon="11.953828510669242"><ele>260.2</ele><time>2026-04-06T08:29:19.824Z</time></trkpt><trkpt lat="44.15591836020475" lon="11.953918725344659"><ele>259.40000000000003</ele><time>2026-04-06T08:29:20.824Z</time></trkpt><trkpt lat="44.15593194733878" lon="11.954007575811262"><ele>258.6</ele><time>2026-04-06T08:29:21.824Z</time></trkpt><trkpt lat="44.15600464697484" lon="11.954189706347226"><ele>257.8</ele><time>2026-04-06T08:29:23.824Z</time></trkpt><trkpt lat="44.15607966336876" lon="11.954280864641166"><ele>257.0</ele><time>2026-04-06T08:29:24.824Z</time></trkpt><trkpt lat="44.156170420485495" lon="11.954361983412175"><ele>256.0</ele><time>2026-04-06T08:29:25.824Z</time></trkpt><trkpt lat="44.15626594645616" lon="11.954427227922745"><ele>255.0</ele><time>2026-04-06T08:29:26.824Z</time></trkpt><trkpt lat="44.156353330438904" lon="11.954512792806982"><ele>254.0</ele><time>2026-04-06T08:29:27.824Z</time></trkpt><trkpt lat="44.156432216558166" lon="11.95459151494432"><ele>253.0</ele><time>2026-04-06T08:29:28.824Z</time></trkpt><trkpt lat="44.156511690148214" lon="11.954676655905768"><ele>252.0</ele><time>2026-04-06T08:29:29.824Z</time></trkpt><trkpt lat="44.15657737153645" lon="11.954775349681285"><ele>252.0</ele><time>2026-04-06T08:29:30.824Z</time></trkpt><trkpt lat="44.15664561084826" lon="11.954892025301076"><ele>252.0</ele><time>2026-04-06T08:29:31.824Z</time></trkpt><trkpt lat="44.15668960631427" lon="11.954987199368814"><ele>252.0</ele><time>2026-04-06T08:29:32.824Z</time></trkpt><trkpt lat="44.15671371111206" lon="11.955075616090777"><ele>252.0</ele><time>2026-04-06T08:29:33.823Z</time></trkpt><trkpt lat="44.156753505224096" lon="11.955158660994085"><ele>252.0</ele><time>2026-04-06T08:29:34.823Z</time></trkpt><trkpt lat="44.156806961612894" lon="11.955223765098093"><ele>252.0</ele><time>2026-04-06T08:29:35.823Z</time></trkpt><trkpt lat="44.15684534677611" lon="11.955301472935107"><ele>248.6</ele><time>2026-04-06T08:29:36.823Z</time></trkpt><trkpt lat="44.1569087792309" lon="11.955378520559746"><ele>245.2</ele><time>2026-04-06T08:29:37.823Z</time></trkpt><trkpt lat="44.15698245672404" lon="11.95545490011047"><ele>241.8</ele><time>2026-04-06T08:29:38.823Z</time></trkpt><trkpt lat="44.15704383451871" lon="11.955555258161459"><ele>238.4</ele><time>2026-04-06T08:29:39.823Z</time></trkpt><trkpt lat="44.15712975815334" lon="11.955637568933179"><ele>235.0</ele><time>2026-04-06T08:29:40.823Z</time></trkpt><trkpt lat="44.15722029832423" lon="11.955727846792021"><ele>235.0</ele><time>2026-04-06T08:29:41.823Z</time></trkpt><trkpt lat="44.15730790821562" lon="11.955817551743255"><ele>235.0</ele><time>2026-04-06T08:29:42.823Z</time></trkpt><trkpt lat="44.15738850879207" lon="11.955906080276883"><ele>235.0</ele><time>2026-04-06T08:29:43.823Z</time></trkpt><trkpt lat="44.15746647889952" lon="11.955993225135838"><ele>235.0</ele><time>2026-04-06T08:29:44.823Z</time></trkpt><trkpt lat="44.15754329718895" lon="11.95608548540848"><ele>235.0</ele><time>2026-04-06T08:29:45.823Z</time></trkpt><trkpt lat="44.15762593418864" lon="11.956194635250306"><ele>236.8</ele><time>2026-04-06T08:29:46.823Z</time></trkpt><trkpt lat="44.157699119156426" lon="11.956326184789384"><ele>238.6</ele><time>2026-04-06T08:29:47.823Z</time></trkpt><trkpt lat="44.15776197311523" lon="11.956457819528126"><ele>240.39999999999998</ele><time>2026-04-06T08:29:48.823Z</time></trkpt><trkpt lat="44.157828390219635" lon="11.956579878004815"><ele>242.2</ele><time>2026-04-06T08:29:49.823Z</time></trkpt><trkpt lat="44.15787926748332" lon="11.956699865241491"><ele>244.0</ele><time>2026-04-06T08:29:50.823Z</time></trkpt><trkpt lat="44.15792467741585" lon="11.956822383391962"><ele>245.0</ele><time>2026-04-06T08:29:51.823Z</time></trkpt><trkpt lat="44.15797015080196" lon="11.956933576619871"><ele>245.99999999999997</ele><time>2026-04-06T08:29:52.823Z</time></trkpt><trkpt lat="44.157999654569245" lon="11.95702010960044"><ele>246.99999999999997</ele><time>2026-04-06T08:29:53.823Z</time></trkpt><trkpt lat="44.1580277829746" lon="11.95717502253013"><ele>248.0</ele><time>2026-04-06T08:29:55.823Z</time></trkpt><trkpt lat="44.15805929838956" lon="11.957327114587951"><ele>249.0</ele><time>2026-04-06T08:29:57.823Z</time></trkpt><trkpt lat="44.15806791214774" lon="11.957491192062687"><ele>249.5</ele><time>2026-04-06T08:29:59.823Z</time></trkpt><trkpt lat="44.15804851978391" lon="11.95758791963514"><ele>250.0</ele><time>2026-04-06T08:30:00.823Z</time></trkpt><trkpt lat="44.158018051246074" lon="11.957676838615942"><ele>250.5</ele><time>2026-04-06T08:30:01.823Z</time></trkpt><trkpt lat="44.15791718481424" lon="11.957814962131755"><ele>251.0</ele><time>2026-04-06T08:30:03.823Z</time></trkpt><trkpt lat="44.15786245755068" lon="11.957879023284205"><ele>251.5</ele><time>2026-04-06T08:30:04.823Z</time></trkpt><trkpt lat="44.15780626184124" lon="11.957935069526853"><ele>252.0</ele><time>2026-04-06T08:30:05.823Z</time></trkpt><trkpt lat="44.15774120425562" lon="11.957966060012994"><ele>252.0</ele><time>2026-04-06T08:30:06.823Z</time></trkpt><trkpt lat="44.157647980864255" lon="11.95800074501422"><ele>252.0</ele><time>2026-04-06T08:30:08.823Z</time></trkpt><trkpt lat="44.15756803962201" lon="11.958046423659116"><ele>252.0</ele><time>2026-04-06T08:30:10.823Z</time></trkpt><trkpt lat="44.157492421535665" lon="11.958150087524249"><ele>252.0</ele><time>2026-04-06T08:30:12.823Z</time></trkpt><trkpt lat="44.15746725794496" lon="11.958240291520061"><ele>252.0</ele><time>2026-04-06T08:30:13.822Z</time></trkpt><trkpt lat="44.15745590334549" lon="11.958339503821877"><ele>252.0</ele><time>2026-04-06T08:30:14.822Z</time></trkpt><trkpt lat="44.15744532400632" lon="11.95843562952153"><ele>251.0</ele><time>2026-04-06T08:30:15.822Z</time></trkpt><trkpt lat="44.157434788205" lon="11.958552617997286"><ele>250.0</ele><time>2026-04-06T08:30:16.822Z</time></trkpt><trkpt lat="44.157432661584714" lon="11.95868726468675"><ele>249.0</ele><time>2026-04-06T08:30:17.822Z</time></trkpt><trkpt lat="44.157418126802355" lon="11.958805212747729"><ele>248.0</ele><time>2026-04-06T08:30:18.822Z</time></trkpt><trkpt lat="44.1574075609825" lon="11.958929439527651"><ele>247.0</ele><time>2026-04-06T08:30:19.822Z</time></trkpt><trkpt lat="44.15739989646215" lon="11.959050805487477"><ele>246.0</ele><time>2026-04-06T08:30:20.822Z</time></trkpt><trkpt lat="44.15739828681054" lon="11.959168260963338"><ele>244.16666666666666</ele><time>2026-04-06T08:30:21.822Z</time></trkpt><trkpt lat="44.15739950943538" lon="11.9592723422595"><ele>242.33333333333331</ele><time>2026-04-06T08:30:22.822Z</time></trkpt><trkpt lat="44.157410766401235" lon="11.959361460672419"><ele>240.5</ele><time>2026-04-06T08:30:23.822Z</time></trkpt><trkpt lat="44.15746354682271" lon="11.959439427909844"><ele>238.66666666666666</ele><time>2026-04-06T08:30:24.822Z</time></trkpt><trkpt lat="44.15753957674901" lon="11.959498500657029"><ele>236.83333333333331</ele><time>2026-04-06T08:30:25.822Z</time></trkpt><trkpt lat="44.15763194530883" lon="11.959465377183223"><ele>235.0</ele><time>2026-04-06T08:30:26.822Z</time></trkpt><trkpt lat="44.1577123515682" lon="11.959442232323047"><ele>235.0</ele><time>2026-04-06T08:30:27.822Z</time></trkpt><trkpt lat="44.157778912530645" lon="11.9593297869145"><ele>235.0</ele><time>2026-04-06T08:30:28.822Z</time></trkpt><trkpt lat="44.15784634913504" lon="11.959220506709569"><ele>235.0</ele><time>2026-04-06T08:30:29.821Z</time></trkpt><trkpt lat="44.15793571641951" lon="11.95911413388697"><ele>235.0</ele><time>2026-04-06T08:30:30.821Z</time></trkpt><trkpt lat="44.15801643589891" lon="11.95899455821547"><ele>235.0</ele><time>2026-04-06T08:30:31.821Z</time></trkpt><trkpt lat="44.15808588328685" lon="11.958858621896063"><ele>234.75</ele><time>2026-04-06T08:30:32.822Z</time></trkpt><trkpt lat="44.15816820182405" lon="11.958736304151833"><ele>234.5</ele><time>2026-04-06T08:30:33.822Z</time></trkpt><trkpt lat="44.15826058390371" lon="11.95863454121322"><ele>234.25</ele><time>2026-04-06T08:30:34.822Z</time></trkpt><trkpt lat="44.15834189927993" lon="11.95852232647496"><ele>234.0</ele><time>2026-04-06T08:30:35.821Z</time></trkpt><trkpt lat="44.158431213135735" lon="11.958422415686327"><ele>236.6</ele><time>2026-04-06T08:30:36.821Z</time></trkpt><trkpt lat="44.15851526825325" lon="11.958335425602515"><ele>239.2</ele><time>2026-04-06T08:30:37.821Z</time></trkpt><trkpt lat="44.15858976013492" lon="11.95824188531026"><ele>241.79999999999998</ele><time>2026-04-06T08:30:38.821Z</time></trkpt><trkpt lat="44.15863991633059" lon="11.958144047842524"><ele>244.39999999999998</ele><time>2026-04-06T08:30:39.821Z</time></trkpt><trkpt lat="44.15868106967676" lon="11.958045384331935"><ele>247.0</ele><time>2026-04-06T08:30:40.821Z</time></trkpt><trkpt lat="44.158726218699414" lon="11.957932426775008"><ele>247.0</ele><time>2026-04-06T08:30:41.821Z</time></trkpt><trkpt lat="44.158779376224956" lon="11.957819163402593"><ele>247.0</ele><time>2026-04-06T08:30:42.821Z</time></trkpt><trkpt lat="44.158839878169054" lon="11.95771979036092"><ele>247.0</ele><time>2026-04-06T08:30:43.821Z</time></trkpt><trkpt lat="44.158934875019966" lon="11.957636991656965"><ele>247.0</ele><time>2026-04-06T08:30:44.821Z</time></trkpt><trkpt lat="44.159038895255314" lon="11.957561449261094"><ele>247.0</ele><time>2026-04-06T08:30:45.821Z</time></trkpt><trkpt lat="44.15913656558863" lon="11.957493830296137"><ele>233.0</ele><time>2026-04-06T08:30:46.821Z</time></trkpt><trkpt lat="44.15922485797727" lon="11.957436125902909"><ele>233.0</ele><time>2026-04-06T08:30:47.821Z</time></trkpt><trkpt lat="44.15930131335033" lon="11.957383359945835"><ele>233.0</ele><time>2026-04-06T08:30:48.821Z</time></trkpt><trkpt lat="44.15936296307166" lon="11.95733572944212"><ele>233.0</ele><time>2026-04-06T08:30:49.821Z</time></trkpt><trkpt lat="44.159443321003344" lon="11.957268179222561"><ele>233.0</ele><time>2026-04-06T08:30:51.821Z</time></trkpt><trkpt lat="44.159522154522556" lon="11.957241629083187"><ele>233.0</ele><time>2026-04-06T08:30:55.821Z</time></trkpt></trkseg></trk></gpx>